<?xml version='1.0' encoding='UTF-8'?><gpx version="1.1" creator="JPX - https://github.com/jenetics/jpx" xmlns="http://www.topografix.com/GPX/1/1"><trk><trkseg><trkpt lat="33.5416387" lon="9.9731555"><ele>381.0</ele><time>2026-04-17T07:36:50.256Z</time></trkpt><trkpt lat="33.5416921" lon="9.9732003"><ele>381.0</ele><time>2026-04-17T07:59:39.846Z</time></trkpt><trkpt lat="33.5417504" lon="9.9732322"><ele>381.0</ele><time>2026-04-17T07:59:43.848Z</time></trkpt><trkpt lat="33.5418243" lon="9.9732622"><ele>381.0</ele><time>2026-04-17T07:59:47.851Z</time></trkpt><trkpt lat="33.5418843" lon="9.9733087"><ele>381.0</ele><time>2026-04-17T07:59:49.846Z</time></trkpt><trkpt lat="33.5419328" lon="9.9733792"><ele>381.0</ele><time>2026-04-17T07:59:51.86Z</time></trkpt><trkpt lat="33.5419767" lon="9.9734482"><ele>381.0</ele><time>2026-04-17T07:59:53.853Z</time></trkpt><trkpt lat="33.5420453" lon="9.9734996"><ele>380.6666666666667</ele><time>2026-04-17T07:59:55.868Z</time></trkpt><trkpt lat="33.5421037" lon="9.9735504"><ele>380.3333333333333</ele><time>2026-04-17T07:59:58.861Z</time></trkpt><trkpt lat="33.5421589" lon="9.9734958"><ele>380.0</ele><time>2026-04-17T08:00:03.865Z</time></trkpt><trkpt lat="33.5421627" lon="9.9733932"><ele>379.66666666666663</ele><time>2026-04-17T08:00:06.861Z</time></trkpt><trkpt lat="33.5421622" lon="9.9732969"><ele>379.3333333333333</ele><time>2026-04-17T08:01:05.866Z</time></trkpt><trkpt lat="33.5421415" lon="9.9731734"><ele>379.0</ele><time>2026-04-17T08:01:07.853Z</time></trkpt><trkpt lat="33.5421306" lon="9.9730378"><ele>379.0</ele><time>2026-04-17T08:01:09.844Z</time></trkpt><trkpt lat="33.5421296" lon="9.9729514"><ele>379.0</ele><time>2026-04-17T08:01:10.856Z</time></trkpt><trkpt lat="33.5421374" lon="9.9728536"><ele>379.0</ele><time>2026-04-17T08:01:11.856Z</time></trkpt><trkpt lat="33.5421524" lon="9.9727484"><ele>379.0</ele><time>2026-04-17T08:01:12.855Z</time></trkpt><trkpt lat="33.5421642" lon="9.9726447"><ele>379.0</ele><time>2026-04-17T08:01:13.853Z</time></trkpt><trkpt lat="33.5421681" lon="9.9725438"><ele>379.0</ele><time>2026-04-17T08:01:14.848Z</time></trkpt><trkpt lat="33.5421693" lon="9.97244"><ele>378.4</ele><time>2026-04-17T08:01:15.856Z</time></trkpt><trkpt lat="33.5421737" lon="9.9723307"><ele>377.79999999999995</ele><time>2026-04-17T08:01:16.857Z</time></trkpt><trkpt lat="33.5421776" lon="9.9722122"><ele>377.20000000000005</ele><time>2026-04-17T08:01:17.85Z</time></trkpt><trkpt lat="33.5421874" lon="9.9720959"><ele>376.6</ele><time>2026-04-17T08:01:18.852Z</time></trkpt><trkpt lat="33.5421989" lon="9.9719901"><ele>376.0</ele><time>2026-04-17T08:01:19.836Z</time></trkpt><trkpt lat="33.5422089" lon="9.9718879"><ele>376.0</ele><time>2026-04-17T08:01:20.848Z</time></trkpt><trkpt lat="33.5422171" lon="9.9717992"><ele>376.0</ele><time>2026-04-17T08:01:21.853Z</time></trkpt><trkpt lat="33.5422197" lon="9.9716985"><ele>376.0</ele><time>2026-04-17T08:01:22.842Z</time></trkpt><trkpt lat="33.5422271" lon="9.9715898"><ele>376.0</ele><time>2026-04-17T08:01:23.85Z</time></trkpt><trkpt lat="33.542252" lon="9.971484"><ele>376.0</ele><time>2026-04-17T08:01:24.865Z</time></trkpt><trkpt lat="33.5422941" lon="9.9713904"><ele>376.0</ele><time>2026-04-17T08:01:25.846Z</time></trkpt><trkpt lat="33.5423556" lon="9.9712978"><ele>375.4</ele><time>2026-04-17T08:01:26.881Z</time></trkpt><trkpt lat="33.5424113" lon="9.9711904"><ele>374.8</ele><time>2026-04-17T08:01:27.852Z</time></trkpt><trkpt lat="33.5424653" lon="9.971076"><ele>374.2</ele><time>2026-04-17T08:01:28.86Z</time></trkpt><trkpt lat="33.5425259" lon="9.9709675"><ele>373.59999999999997</ele><time>2026-04-17T08:01:29.863Z</time></trkpt><trkpt lat="33.5425941" lon="9.9708603"><ele>373.0</ele><time>2026-04-17T08:01:30.855Z</time></trkpt><trkpt lat="33.5426627" lon="9.9707542"><ele>373.0</ele><time>2026-04-17T08:01:31.874Z</time></trkpt><trkpt lat="33.5427274" lon="9.9706538"><ele>373.0</ele><time>2026-04-17T08:01:32.851Z</time></trkpt><trkpt lat="33.5427922" lon="9.970555"><ele>373.0</ele><time>2026-04-17T08:01:33.864Z</time></trkpt><trkpt lat="33.5428635" lon="9.9704706"><ele>373.0</ele><time>2026-04-17T08:01:34.87Z</time></trkpt><trkpt lat="33.5429251" lon="9.970399"><ele>373.0</ele><time>2026-04-17T08:01:35.857Z</time></trkpt><trkpt lat="33.5429881" lon="9.970334"><ele>373.0</ele><time>2026-04-17T08:01:36.886Z</time></trkpt><trkpt lat="33.5430568" lon="9.9702569"><ele>373.0</ele><time>2026-04-17T08:01:37.869Z</time></trkpt><trkpt lat="33.5431362" lon="9.9701722"><ele>373.0</ele><time>2026-04-17T08:01:38.859Z</time></trkpt><trkpt lat="33.5432122" lon="9.9700715"><ele>373.0</ele><time>2026-04-17T08:01:39.873Z</time></trkpt><trkpt lat="33.5432965" lon="9.9699648"><ele>373.0</ele><time>2026-04-17T08:01:40.872Z</time></trkpt><trkpt lat="33.5433813" lon="9.9698572"><ele>372.5</ele><time>2026-04-17T08:01:41.891Z</time></trkpt><trkpt lat="33.543471" lon="9.9697483"><ele>372.0</ele><time>2026-04-17T08:01:42.862Z</time></trkpt><trkpt lat="33.5435643" lon="9.969649"><ele>371.5</ele><time>2026-04-17T08:01:43.869Z</time></trkpt><trkpt lat="33.5436589" lon="9.969547"><ele>371.0</ele><time>2026-04-17T08:01:44.868Z</time></trkpt><trkpt lat="33.5437535" lon="9.9694592"><ele>372.0</ele><time>2026-04-17T08:01:45.87Z</time></trkpt><trkpt lat="33.5438457" lon="9.9693796"><ele>373.0</ele><time>2026-04-17T08:01:46.885Z</time></trkpt><trkpt lat="33.5439355" lon="9.9692906"><ele>374.0</ele><time>2026-04-17T08:01:47.869Z</time></trkpt><trkpt lat="33.5440152" lon="9.9691939"><ele>375.0</ele><time>2026-04-17T08:01:48.869Z</time></trkpt><trkpt lat="33.54408" lon="9.9690853"><ele>375.0</ele><time>2026-04-17T08:01:49.869Z</time></trkpt><trkpt lat="33.5441272" lon="9.9689661"><ele>375.0</ele><time>2026-04-17T08:01:50.872Z</time></trkpt><trkpt lat="33.544158" lon="9.9688598"><ele>375.0</ele><time>2026-04-17T08:01:51.885Z</time></trkpt><trkpt lat="33.5441847" lon="9.9687529"><ele>375.0</ele><time>2026-04-17T08:01:52.865Z</time></trkpt><trkpt lat="33.544214" lon="9.9686474"><ele>375.0</ele><time>2026-04-17T08:01:53.865Z</time></trkpt><trkpt lat="33.5442588" lon="9.9685537"><ele>375.0</ele><time>2026-04-17T08:01:54.873Z</time></trkpt><trkpt lat="33.5443279" lon="9.968467"><ele>375.0</ele><time>2026-04-17T08:01:55.874Z</time></trkpt><trkpt lat="33.5444137" lon="9.9683797"><ele>375.0</ele><time>2026-04-17T08:01:56.878Z</time></trkpt><trkpt lat="33.5445135" lon="9.9682965"><ele>375.0</ele><time>2026-04-17T08:01:57.874Z</time></trkpt><trkpt lat="33.5445995" lon="9.9682109"><ele>375.0</ele><time>2026-04-17T08:01:58.883Z</time></trkpt><trkpt lat="33.5446868" lon="9.9681257"><ele>375.0</ele><time>2026-04-17T08:01:59.876Z</time></trkpt><trkpt lat="33.5447748" lon="9.968039"><ele>375.0</ele><time>2026-04-17T08:02:00.874Z</time></trkpt><trkpt lat="33.5448501" lon="9.9679584"><ele>375.0</ele><time>2026-04-17T08:02:01.886Z</time></trkpt><trkpt lat="33.5449255" lon="9.9678847"><ele>375.0</ele><time>2026-04-17T08:02:02.868Z</time></trkpt><trkpt lat="33.5449927" lon="9.9678101"><ele>375.0</ele><time>2026-04-17T08:02:03.868Z</time></trkpt><trkpt lat="33.5450619" lon="9.967741"><ele>375.0</ele><time>2026-04-17T08:02:04.865Z</time></trkpt><trkpt lat="33.5451362" lon="9.9676702"><ele>375.0</ele><time>2026-04-17T08:02:05.859Z</time></trkpt><trkpt lat="33.5452092" lon="9.9676108"><ele>375.0</ele><time>2026-04-17T08:02:06.87Z</time></trkpt><trkpt lat="33.5452867" lon="9.9675628"><ele>375.0</ele><time>2026-04-17T08:02:07.866Z</time></trkpt><trkpt lat="33.5453604" lon="9.9675343"><ele>375.0</ele><time>2026-04-17T08:02:08.87Z</time></trkpt><trkpt lat="33.5454271" lon="9.9675094"><ele>375.0</ele><time>2026-04-17T08:02:09.866Z</time></trkpt><trkpt lat="33.5454984" lon="9.9675078"><ele>375.8</ele><time>2026-04-17T08:02:10.873Z</time></trkpt><trkpt lat="33.5455784" lon="9.9675196"><ele>376.6</ele><time>2026-04-17T08:02:11.86Z</time></trkpt><trkpt lat="33.545668" lon="9.9675525"><ele>377.4</ele><time>2026-04-17T08:02:12.88Z</time></trkpt><trkpt lat="33.5457672" lon="9.9676013"><ele>378.2</ele><time>2026-04-17T08:02:13.854Z</time></trkpt><trkpt lat="33.54586" lon="9.9676495"><ele>379.0</ele><time>2026-04-17T08:02:14.85Z</time></trkpt><trkpt lat="33.545945" lon="9.967707"><ele>379.16666666666663</ele><time>2026-04-17T08:02:15.857Z</time></trkpt><trkpt lat="33.5460315" lon="9.9677684"><ele>379.3333333333333</ele><time>2026-04-17T08:02:16.856Z</time></trkpt><trkpt lat="33.5461062" lon="9.9678363"><ele>379.5</ele><time>2026-04-17T08:02:17.858Z</time></trkpt><trkpt lat="33.5461596" lon="9.967905"><ele>379.6666666666667</ele><time>2026-04-17T08:02:18.849Z</time></trkpt><trkpt lat="33.5461967" lon="9.9679769"><ele>379.83333333333337</ele><time>2026-04-17T08:02:19.851Z</time></trkpt><trkpt lat="33.5462127" lon="9.9680867"><ele>380.0</ele><time>2026-04-17T08:02:21.852Z</time></trkpt><trkpt lat="33.5462066" lon="9.9680037"><ele>380.0</ele><time>2026-04-17T08:02:27.872Z</time></trkpt><trkpt lat="33.5461582" lon="9.9679446"><ele>380.0</ele><time>2026-04-17T08:02:28.851Z</time></trkpt><trkpt lat="33.5461013" lon="9.9678792"><ele>380.0</ele><time>2026-04-17T08:02:29.852Z</time></trkpt><trkpt lat="33.5460414" lon="9.9678039"><ele>380.0</ele><time>2026-04-17T08:02:30.844Z</time></trkpt><trkpt lat="33.5459871" lon="9.9677393"><ele>380.0</ele><time>2026-04-17T08:02:31.854Z</time></trkpt><trkpt lat="33.5459387" lon="9.9676846"><ele>380.0</ele><time>2026-04-17T08:02:32.85Z</time></trkpt><trkpt lat="33.5458955" lon="9.9676228"><ele>380.0</ele><time>2026-04-17T08:02:33.858Z</time></trkpt><trkpt lat="33.5458601" lon="9.9675342"><ele>379.8</ele><time>2026-04-17T08:02:34.849Z</time></trkpt><trkpt lat="33.5458318" lon="9.9674312"><ele>379.6</ele><time>2026-04-17T08:02:35.85Z</time></trkpt><trkpt lat="33.5458009" lon="9.9673144"><ele>379.4</ele><time>2026-04-17T08:02:36.851Z</time></trkpt><trkpt lat="33.5457822" lon="9.9671985"><ele>379.2</ele><time>2026-04-17T08:02:37.851Z</time></trkpt><trkpt lat="33.5457715" lon="9.9670773"><ele>379.0</ele><time>2026-04-17T08:02:38.869Z</time></trkpt><trkpt lat="33.5457744" lon="9.9669562"><ele>379.0</ele><time>2026-04-17T08:02:39.863Z</time></trkpt><trkpt lat="33.5457795" lon="9.9668416"><ele>379.0</ele><time>2026-04-17T08:02:40.863Z</time></trkpt><trkpt lat="33.5457871" lon="9.9667136"><ele>379.0</ele><time>2026-04-17T08:02:41.855Z</time></trkpt><trkpt lat="33.5457831" lon="9.9665824"><ele>379.0</ele><time>2026-04-17T08:02:42.856Z</time></trkpt><trkpt lat="33.5457774" lon="9.9664511"><ele>379.0</ele><time>2026-04-17T08:02:43.872Z</time></trkpt><trkpt lat="33.5457754" lon="9.9663222"><ele>377.0</ele><time>2026-04-17T08:02:44.856Z</time></trkpt><trkpt lat="33.5457776" lon="9.9662083"><ele>375.0</ele><time>2026-04-17T08:02:45.86Z</time></trkpt><trkpt lat="33.5457855" lon="9.9661074"><ele>373.0</ele><time>2026-04-17T08:02:46.866Z</time></trkpt><trkpt lat="33.5458001" lon="9.9659947"><ele>371.0</ele><time>2026-04-17T08:02:47.865Z</time></trkpt><trkpt lat="33.5458222" lon="9.9658763"><ele>369.0</ele><time>2026-04-17T08:02:48.871Z</time></trkpt><trkpt lat="33.5458324" lon="9.9657455"><ele>368.75</ele><time>2026-04-17T08:02:49.872Z</time></trkpt><trkpt lat="33.5458314" lon="9.965602"><ele>368.5</ele><time>2026-04-17T08:02:50.861Z</time></trkpt><trkpt lat="33.5458376" lon="9.9654553"><ele>368.25</ele><time>2026-04-17T08:02:51.863Z</time></trkpt><trkpt lat="33.5458525" lon="9.965312"><ele>368.0</ele><time>2026-04-17T08:02:52.863Z</time></trkpt><trkpt lat="33.5458696" lon="9.9651803"><ele>368.0</ele><time>2026-04-17T08:02:53.874Z</time></trkpt><trkpt lat="33.5458727" lon="9.9650614"><ele>368.0</ele><time>2026-04-17T08:02:54.854Z</time></trkpt><trkpt lat="33.5458592" lon="9.9649684"><ele>368.0</ele><time>2026-04-17T08:02:55.856Z</time></trkpt><trkpt lat="33.5458239" lon="9.9648784"><ele>368.0</ele><time>2026-04-17T08:02:56.871Z</time></trkpt><trkpt lat="33.5457543" lon="9.9648247"><ele>368.0</ele><time>2026-04-17T08:02:57.882Z</time></trkpt><trkpt lat="33.5456658" lon="9.9647892"><ele>368.0</ele><time>2026-04-17T08:02:58.87Z</time></trkpt><trkpt lat="33.5455706" lon="9.9647519"><ele>368.59999999999997</ele><time>2026-04-17T08:02:59.873Z</time></trkpt><trkpt lat="33.5454859" lon="9.9646998"><ele>369.2</ele><time>2026-04-17T08:03:00.861Z</time></trkpt><trkpt lat="33.5454061" lon="9.9646303"><ele>369.8</ele><time>2026-04-17T08:03:01.855Z</time></trkpt><trkpt lat="33.5453395" lon="9.9645317"><ele>370.4</ele><time>2026-04-17T08:03:02.859Z</time></trkpt><trkpt lat="33.5452867" lon="9.9644102"><ele>371.0</ele><time>2026-04-17T08:03:03.868Z</time></trkpt><trkpt lat="33.5452371" lon="9.9642735"><ele>370.25</ele><time>2026-04-17T08:03:04.857Z</time></trkpt><trkpt lat="33.5451955" lon="9.964133"><ele>369.5</ele><time>2026-04-17T08:03:05.857Z</time></trkpt><trkpt lat="33.5451616" lon="9.9639943"><ele>368.75</ele><time>2026-04-17T08:03:06.855Z</time></trkpt><trkpt lat="33.5451272" lon="9.9638578"><ele>368.0</ele><time>2026-04-17T08:03:07.85Z</time></trkpt><trkpt lat="33.5451047" lon="9.9637411"><ele>368.0</ele><time>2026-04-17T08:03:08.856Z</time></trkpt><trkpt lat="33.5450993" lon="9.9636391"><ele>368.0</ele><time>2026-04-17T08:03:09.846Z</time></trkpt><trkpt lat="33.5451119" lon="9.9635373"><ele>368.0</ele><time>2026-04-17T08:03:10.843Z</time></trkpt><trkpt lat="33.545154" lon="9.9634297"><ele>368.0</ele><time>2026-04-17T08:03:11.844Z</time></trkpt><trkpt lat="33.5452117" lon="9.9633294"><ele>368.0</ele><time>2026-04-17T08:03:12.833Z</time></trkpt><trkpt lat="33.5452789" lon="9.9632204"><ele>368.25</ele><time>2026-04-17T08:03:13.853Z</time></trkpt><trkpt lat="33.54536" lon="9.9630937"><ele>368.5</ele><time>2026-04-17T08:03:14.844Z</time></trkpt><trkpt lat="33.545443" lon="9.9629698"><ele>368.75</ele><time>2026-04-17T08:03:15.844Z</time></trkpt><trkpt lat="33.545537" lon="9.9628458"><ele>369.0</ele><time>2026-04-17T08:03:16.839Z</time></trkpt><trkpt lat="33.5456178" lon="9.9627042"><ele>370.0</ele><time>2026-04-17T08:03:17.849Z</time></trkpt><trkpt lat="33.5456763" lon="9.9625491"><ele>371.0</ele><time>2026-04-17T08:03:18.859Z</time></trkpt><trkpt lat="33.5457276" lon="9.9623753"><ele>372.0</ele><time>2026-04-17T08:03:19.847Z</time></trkpt><trkpt lat="33.5457599" lon="9.9622024"><ele>373.0</ele><time>2026-04-17T08:03:20.863Z</time></trkpt><trkpt lat="33.5457924" lon="9.962027"><ele>373.0</ele><time>2026-04-17T08:03:21.855Z</time></trkpt><trkpt lat="33.5458349" lon="9.9618513"><ele>373.0</ele><time>2026-04-17T08:03:22.864Z</time></trkpt><trkpt lat="33.5458831" lon="9.9616694"><ele>373.0</ele><time>2026-04-17T08:03:23.872Z</time></trkpt><trkpt lat="33.5459273" lon="9.9614892"><ele>372.75</ele><time>2026-04-17T08:03:24.864Z</time></trkpt><trkpt lat="33.5459883" lon="9.9613375"><ele>372.5</ele><time>2026-04-17T08:03:25.873Z</time></trkpt><trkpt lat="33.5460395" lon="9.9611901"><ele>372.25</ele><time>2026-04-17T08:03:26.864Z</time></trkpt><trkpt lat="33.5460829" lon="9.9610444"><ele>372.0</ele><time>2026-04-17T08:03:27.859Z</time></trkpt><trkpt lat="33.5461403" lon="9.9608764"><ele>371.75</ele><time>2026-04-17T08:03:28.911Z</time></trkpt><trkpt lat="33.5461969" lon="9.9607279"><ele>371.5</ele><time>2026-04-17T08:03:29.866Z</time></trkpt><trkpt lat="33.5462667" lon="9.960576"><ele>371.25</ele><time>2026-04-17T08:03:30.87Z</time></trkpt><trkpt lat="33.5463541" lon="9.9604129"><ele>371.0</ele><time>2026-04-17T08:03:31.861Z</time></trkpt><trkpt lat="33.5464317" lon="9.9602338"><ele>369.6666666666667</ele><time>2026-04-17T08:03:32.869Z</time></trkpt><trkpt lat="33.5465107" lon="9.9600883"><ele>368.3333333333333</ele><time>2026-04-17T08:03:33.875Z</time></trkpt><trkpt lat="33.5465947" lon="9.9599294"><ele>367.0</ele><time>2026-04-17T08:03:34.865Z</time></trkpt><trkpt lat="33.5466674" lon="9.9597664"><ele>366.66666666666663</ele><time>2026-04-17T08:03:35.876Z</time></trkpt><trkpt lat="33.5467517" lon="9.9595952"><ele>366.3333333333333</ele><time>2026-04-17T08:03:36.865Z</time></trkpt><trkpt lat="33.5468414" lon="9.9594228"><ele>366.0</ele><time>2026-04-17T08:03:37.865Z</time></trkpt><trkpt lat="33.5469257" lon="9.9592639"><ele>366.0</ele><time>2026-04-17T08:03:38.886Z</time></trkpt><trkpt lat="33.5469986" lon="9.9590929"><ele>366.0</ele><time>2026-04-17T08:03:39.852Z</time></trkpt><trkpt lat="33.5470484" lon="9.9589248"><ele>366.0</ele><time>2026-04-17T08:03:40.871Z</time></trkpt><trkpt lat="33.5470501" lon="9.9587395"><ele>366.0</ele><time>2026-04-17T08:03:41.852Z</time></trkpt><trkpt lat="33.5470048" lon="9.9585448"><ele>366.0</ele><time>2026-04-17T08:03:42.843Z</time></trkpt><trkpt lat="33.5469371" lon="9.9583445"><ele>366.0</ele><time>2026-04-17T08:03:43.855Z</time></trkpt><trkpt lat="33.5468807" lon="9.9581664"><ele>366.25</ele><time>2026-04-17T08:03:44.875Z</time></trkpt><trkpt lat="33.5468304" lon="9.9580072"><ele>366.5</ele><time>2026-04-17T08:03:45.858Z</time></trkpt><trkpt lat="33.5467839" lon="9.9578299"><ele>366.75</ele><time>2026-04-17T08:03:46.873Z</time></trkpt><trkpt lat="33.54674" lon="9.9576624"><ele>367.0</ele><time>2026-04-17T08:03:47.953Z</time></trkpt><trkpt lat="33.5466985" lon="9.9574903"><ele>366.5</ele><time>2026-04-17T08:03:48.955Z</time></trkpt><trkpt lat="33.5466622" lon="9.957313"><ele>366.0</ele><time>2026-04-17T08:03:49.978Z</time></trkpt><trkpt lat="33.5466442" lon="9.9571382"><ele>365.5</ele><time>2026-04-17T08:03:50.946Z</time></trkpt><trkpt lat="33.546631" lon="9.9569599"><ele>365.0</ele><time>2026-04-17T08:03:51.945Z</time></trkpt><trkpt lat="33.5466335" lon="9.9567713"><ele>364.6666666666667</ele><time>2026-04-17T08:03:52.94Z</time></trkpt><trkpt lat="33.5466497" lon="9.956582"><ele>364.3333333333333</ele><time>2026-04-17T08:03:53.927Z</time></trkpt><trkpt lat="33.5466739" lon="9.9563917"><ele>364.0</ele><time>2026-04-17T08:03:54.956Z</time></trkpt><trkpt lat="33.5467044" lon="9.9561963"><ele>364.0</ele><time>2026-04-17T08:03:55.943Z</time></trkpt><trkpt lat="33.546738" lon="9.9560002"><ele>364.0</ele><time>2026-04-17T08:03:56.945Z</time></trkpt><trkpt lat="33.546781" lon="9.9558043"><ele>364.0</ele><time>2026-04-17T08:03:57.955Z</time></trkpt><trkpt lat="33.5468407" lon="9.9556042"><ele>363.0</ele><time>2026-04-17T08:03:58.961Z</time></trkpt><trkpt lat="33.5469066" lon="9.9554154"><ele>362.0</ele><time>2026-04-17T08:03:59.98Z</time></trkpt><trkpt lat="33.5469693" lon="9.9552285"><ele>361.0</ele><time>2026-04-17T08:04:00.955Z</time></trkpt><trkpt lat="33.5470064" lon="9.955033"><ele>360.3333333333333</ele><time>2026-04-17T08:04:01.958Z</time></trkpt><trkpt lat="33.5470307" lon="9.9548334"><ele>359.6666666666667</ele><time>2026-04-17T08:04:02.959Z</time></trkpt><trkpt lat="33.5470561" lon="9.954626"><ele>359.0</ele><time>2026-04-17T08:04:03.941Z</time></trkpt><trkpt lat="33.5470876" lon="9.95442"><ele>359.6666666666667</ele><time>2026-04-17T08:04:04.934Z</time></trkpt><trkpt lat="33.5471352" lon="9.9542165"><ele>360.3333333333333</ele><time>2026-04-17T08:04:05.912Z</time></trkpt><trkpt lat="33.5471887" lon="9.9540124"><ele>361.0</ele><time>2026-04-17T08:04:06.936Z</time></trkpt><trkpt lat="33.5472445" lon="9.9538093"><ele>361.0</ele><time>2026-04-17T08:04:07.938Z</time></trkpt><trkpt lat="33.547287" lon="9.953602"><ele>361.0</ele><time>2026-04-17T08:04:08.945Z</time></trkpt><trkpt lat="33.5473193" lon="9.9533937"><ele>361.0</ele><time>2026-04-17T08:04:09.969Z</time></trkpt><trkpt lat="33.5473554" lon="9.953177"><ele>359.3333333333333</ele><time>2026-04-17T08:04:10.933Z</time></trkpt><trkpt lat="33.547391" lon="9.9529692"><ele>357.6666666666667</ele><time>2026-04-17T08:04:11.942Z</time></trkpt><trkpt lat="33.5474249" lon="9.9527694"><ele>356.0</ele><time>2026-04-17T08:04:12.93Z</time></trkpt><trkpt lat="33.5474629" lon="9.952574"><ele>356.33333333333337</ele><time>2026-04-17T08:04:13.934Z</time></trkpt><trkpt lat="33.5475066" lon="9.9523859"><ele>356.6666666666667</ele><time>2026-04-17T08:04:14.969Z</time></trkpt><trkpt lat="33.5475578" lon="9.9522024"><ele>357.0</ele><time>2026-04-17T08:04:15.954Z</time></trkpt><trkpt lat="33.5476183" lon="9.9520172"><ele>357.0</ele><time>2026-04-17T08:04:16.959Z</time></trkpt><trkpt lat="33.5476817" lon="9.951831"><ele>357.0</ele><time>2026-04-17T08:04:17.957Z</time></trkpt><trkpt lat="33.5477429" lon="9.9516413"><ele>357.0</ele><time>2026-04-17T08:04:18.95Z</time></trkpt><trkpt lat="33.5477946" lon="9.9514494"><ele>357.3333333333333</ele><time>2026-04-17T08:04:19.971Z</time></trkpt><trkpt lat="33.547826" lon="9.95125"><ele>357.66666666666663</ele><time>2026-04-17T08:04:20.953Z</time></trkpt><trkpt lat="33.5478331" lon="9.9510547"><ele>358.0</ele><time>2026-04-17T08:04:21.953Z</time></trkpt><trkpt lat="33.5478061" lon="9.95086"><ele>358.0</ele><time>2026-04-17T08:04:22.932Z</time></trkpt><trkpt lat="33.5477541" lon="9.9506673"><ele>358.0</ele><time>2026-04-17T08:04:23.939Z</time></trkpt><trkpt lat="33.5476843" lon="9.9504828"><ele>358.0</ele><time>2026-04-17T08:04:24.954Z</time></trkpt><trkpt lat="33.5476026" lon="9.9503004"><ele>358.0</ele><time>2026-04-17T08:04:25.948Z</time></trkpt><trkpt lat="33.5475162" lon="9.9501343"><ele>358.0</ele><time>2026-04-17T08:04:26.961Z</time></trkpt><trkpt lat="33.5474385" lon="9.9499713"><ele>358.0</ele><time>2026-04-17T08:04:27.974Z</time></trkpt><trkpt lat="33.5473594" lon="9.9498085"><ele>358.25</ele><time>2026-04-17T08:04:28.967Z</time></trkpt><trkpt lat="33.5472991" lon="9.9496462"><ele>358.5</ele><time>2026-04-17T08:04:30Z</time></trkpt><trkpt lat="33.5472479" lon="9.9494925"><ele>358.75</ele><time>2026-04-17T08:04:30.951Z</time></trkpt><trkpt lat="33.5472237" lon="9.9493176"><ele>359.0</ele><time>2026-04-17T08:04:31.931Z</time></trkpt><trkpt lat="33.5472244" lon="9.9491244"><ele>359.33333333333337</ele><time>2026-04-17T08:04:32.933Z</time></trkpt><trkpt lat="33.5472365" lon="9.9489226"><ele>359.6666666666667</ele><time>2026-04-17T08:04:33.934Z</time></trkpt><trkpt lat="33.5472624" lon="9.9487177"><ele>360.0</ele><time>2026-04-17T08:04:34.942Z</time></trkpt><trkpt lat="33.5472963" lon="9.9485053"><ele>358.6666666666667</ele><time>2026-04-17T08:04:35.95Z</time></trkpt><trkpt lat="33.547334" lon="9.9482926"><ele>357.33333333333337</ele><time>2026-04-17T08:04:36.952Z</time></trkpt><trkpt lat="33.5473719" lon="9.9480787"><ele>356.0</ele><time>2026-04-17T08:04:37.949Z</time></trkpt><trkpt lat="33.547409" lon="9.947865"><ele>356.0</ele><time>2026-04-17T08:04:38.949Z</time></trkpt><trkpt lat="33.5474443" lon="9.9476543"><ele>356.0</ele><time>2026-04-17T08:04:39.968Z</time></trkpt><trkpt lat="33.5474802" lon="9.9474514"><ele>356.0</ele><time>2026-04-17T08:04:40.958Z</time></trkpt><trkpt lat="33.5475261" lon="9.9472501"><ele>354.33333333333337</ele><time>2026-04-17T08:04:41.962Z</time></trkpt><trkpt lat="33.5475832" lon="9.9470573"><ele>352.6666666666667</ele><time>2026-04-17T08:04:42.954Z</time></trkpt><trkpt lat="33.547659" lon="9.9468722"><ele>351.0</ele><time>2026-04-17T08:04:43.925Z</time></trkpt><trkpt lat="33.5477433" lon="9.946703"><ele>349.3333333333333</ele><time>2026-04-17T08:04:44.952Z</time></trkpt><trkpt lat="33.5478396" lon="9.9465329"><ele>347.66666666666663</ele><time>2026-04-17T08:04:45.943Z</time></trkpt><trkpt lat="33.547937" lon="9.9463638"><ele>346.0</ele><time>2026-04-17T08:04:46.935Z</time></trkpt><trkpt lat="33.5480332" lon="9.9461874"><ele>343.66666666666663</ele><time>2026-04-17T08:04:47.962Z</time></trkpt><trkpt lat="33.5481278" lon="9.9460057"><ele>341.3333333333333</ele><time>2026-04-17T08:04:48.958Z</time></trkpt><trkpt lat="33.548227" lon="9.9458285"><ele>339.0</ele><time>2026-04-17T08:04:49.977Z</time></trkpt><trkpt lat="33.5483293" lon="9.9456461"><ele>338.0</ele><time>2026-04-17T08:04:50.958Z</time></trkpt><trkpt lat="33.5484304" lon="9.9454632"><ele>337.0</ele><time>2026-04-17T08:04:51.967Z</time></trkpt><trkpt lat="33.5485342" lon="9.9452756"><ele>336.0</ele><time>2026-04-17T08:04:52.97Z</time></trkpt><trkpt lat="33.5486387" lon="9.9450883"><ele>333.6666666666667</ele><time>2026-04-17T08:04:53.97Z</time></trkpt><trkpt lat="33.5487456" lon="9.9449004"><ele>331.33333333333337</ele><time>2026-04-17T08:04:54.981Z</time></trkpt><trkpt lat="33.5488519" lon="9.9447064"><ele>329.0</ele><time>2026-04-17T08:04:55.972Z</time></trkpt><trkpt lat="33.5489547" lon="9.9445071"><ele>329.0</ele><time>2026-04-17T08:04:56.97Z</time></trkpt><trkpt lat="33.5490509" lon="9.944302"><ele>329.0</ele><time>2026-04-17T08:04:57.964Z</time></trkpt><trkpt lat="33.5491419" lon="9.9440941"><ele>329.0</ele><time>2026-04-17T08:04:58.955Z</time></trkpt><trkpt lat="33.5492302" lon="9.9438874"><ele>327.33333333333337</ele><time>2026-04-17T08:04:59.965Z</time></trkpt><trkpt lat="33.5493139" lon="9.943681"><ele>325.6666666666667</ele><time>2026-04-17T08:05:00.986Z</time></trkpt><trkpt lat="33.5493753" lon="9.9434571"><ele>324.0</ele><time>2026-04-17T08:05:01.957Z</time></trkpt><trkpt lat="33.5494282" lon="9.9432292"><ele>323.6666666666667</ele><time>2026-04-17T08:05:02.959Z</time></trkpt><trkpt lat="33.5494573" lon="9.9429935"><ele>323.33333333333337</ele><time>2026-04-17T08:05:03.932Z</time></trkpt><trkpt lat="33.5494665" lon="9.9427679"><ele>323.0</ele><time>2026-04-17T08:05:04.926Z</time></trkpt><trkpt lat="33.549462" lon="9.9425491"><ele>324.0</ele><time>2026-04-17T08:05:05.936Z</time></trkpt><trkpt lat="33.5494357" lon="9.9423247"><ele>325.0</ele><time>2026-04-17T08:05:06.925Z</time></trkpt><trkpt lat="33.5493979" lon="9.942099"><ele>326.0</ele><time>2026-04-17T08:05:07.948Z</time></trkpt><trkpt lat="33.5493498" lon="9.9418805"><ele>326.33333333333337</ele><time>2026-04-17T08:05:08.948Z</time></trkpt><trkpt lat="33.5492953" lon="9.9416624"><ele>326.6666666666667</ele><time>2026-04-17T08:05:09.951Z</time></trkpt><trkpt lat="33.5492351" lon="9.9414439"><ele>327.0</ele><time>2026-04-17T08:05:10.965Z</time></trkpt><trkpt lat="33.549178" lon="9.9412378"><ele>327.0</ele><time>2026-04-17T08:05:11.957Z</time></trkpt><trkpt lat="33.5491205" lon="9.9410391"><ele>327.0</ele><time>2026-04-17T08:05:12.953Z</time></trkpt><trkpt lat="33.5490601" lon="9.9408423"><ele>327.0</ele><time>2026-04-17T08:05:13.953Z</time></trkpt><trkpt lat="33.5490019" lon="9.9406511"><ele>328.0</ele><time>2026-04-17T08:05:14.959Z</time></trkpt><trkpt lat="33.5489562" lon="9.9404589"><ele>329.0</ele><time>2026-04-17T08:05:15.959Z</time></trkpt><trkpt lat="33.5489259" lon="9.9402634"><ele>330.0</ele><time>2026-04-17T08:05:16.953Z</time></trkpt><trkpt lat="33.5489087" lon="9.9400696"><ele>331.6666666666667</ele><time>2026-04-17T08:05:17.946Z</time></trkpt><trkpt lat="33.5489173" lon="9.9398839"><ele>333.33333333333337</ele><time>2026-04-17T08:05:18.919Z</time></trkpt><trkpt lat="33.5489541" lon="9.9397074"><ele>335.0</ele><time>2026-04-17T08:05:19.918Z</time></trkpt><trkpt lat="33.5490063" lon="9.9395277"><ele>335.0</ele><time>2026-04-17T08:05:20.914Z</time></trkpt><trkpt lat="33.5490705" lon="9.9393478"><ele>335.0</ele><time>2026-04-17T08:05:21.931Z</time></trkpt><trkpt lat="33.5491409" lon="9.9391685"><ele>335.0</ele><time>2026-04-17T08:05:22.948Z</time></trkpt><trkpt lat="33.5492137" lon="9.9389878"><ele>337.33333333333337</ele><time>2026-04-17T08:05:23.95Z</time></trkpt><trkpt lat="33.5492903" lon="9.938811"><ele>339.6666666666667</ele><time>2026-04-17T08:05:24.951Z</time></trkpt><trkpt lat="33.54937" lon="9.938634"><ele>342.0</ele><time>2026-04-17T08:05:25.955Z</time></trkpt><trkpt lat="33.5494509" lon="9.9384517"><ele>343.6666666666667</ele><time>2026-04-17T08:05:26.968Z</time></trkpt><trkpt lat="33.5495335" lon="9.938265"><ele>345.33333333333337</ele><time>2026-04-17T08:05:27.961Z</time></trkpt><trkpt lat="33.549611" lon="9.9380745"><ele>347.0</ele><time>2026-04-17T08:05:28.949Z</time></trkpt><trkpt lat="33.5496797" lon="9.9378861"><ele>347.33333333333337</ele><time>2026-04-17T08:05:29.951Z</time></trkpt><trkpt lat="33.5497275" lon="9.9376837"><ele>347.6666666666667</ele><time>2026-04-17T08:05:30.947Z</time></trkpt><trkpt lat="33.5497525" lon="9.937473"><ele>348.0</ele><time>2026-04-17T08:05:31.987Z</time></trkpt><trkpt lat="33.549758" lon="9.9372591"><ele>348.6666666666667</ele><time>2026-04-17T08:05:32.93Z</time></trkpt><trkpt lat="33.549742" lon="9.9370509"><ele>349.33333333333337</ele><time>2026-04-17T08:05:33.929Z</time></trkpt><trkpt lat="33.5497136" lon="9.9368458"><ele>350.0</ele><time>2026-04-17T08:05:34.938Z</time></trkpt><trkpt lat="33.5496846" lon="9.93665"><ele>350.6666666666667</ele><time>2026-04-17T08:05:35.931Z</time></trkpt><trkpt lat="33.5496704" lon="9.9364553"><ele>351.3333333333333</ele><time>2026-04-17T08:05:36.963Z</time></trkpt><trkpt lat="33.5496758" lon="9.9362604"><ele>352.0</ele><time>2026-04-17T08:05:37.932Z</time></trkpt><trkpt lat="33.5497048" lon="9.936071"><ele>352.0</ele><time>2026-04-17T08:05:38.936Z</time></trkpt><trkpt lat="33.5497619" lon="9.9358902"><ele>352.0</ele><time>2026-04-17T08:05:39.907Z</time></trkpt><trkpt lat="33.5498426" lon="9.9357131"><ele>352.0</ele><time>2026-04-17T08:05:40.91Z</time></trkpt><trkpt lat="33.5498757" lon="9.9355583"><ele>352.0</ele><time>2026-04-17T08:05:41.916Z</time></trkpt><trkpt lat="33.5499898" lon="9.9354077"><ele>352.0</ele><time>2026-04-17T08:05:42.921Z</time></trkpt><trkpt lat="33.5500774" lon="9.9352621"><ele>352.0</ele><time>2026-04-17T08:05:43.956Z</time></trkpt><trkpt lat="33.5501915" lon="9.9351083"><ele>351.3333333333333</ele><time>2026-04-17T08:05:44.954Z</time></trkpt><trkpt lat="33.5503143" lon="9.9349701"><ele>350.6666666666667</ele><time>2026-04-17T08:05:45.954Z</time></trkpt><trkpt lat="33.5504425" lon="9.9348392"><ele>350.0</ele><time>2026-04-17T08:05:46.962Z</time></trkpt><trkpt lat="33.5505744" lon="9.934716"><ele>350.0</ele><time>2026-04-17T08:05:47.95Z</time></trkpt><trkpt lat="33.5507089" lon="9.9345984"><ele>350.0</ele><time>2026-04-17T08:05:48.961Z</time></trkpt><trkpt lat="33.5508495" lon="9.9344804"><ele>350.0</ele><time>2026-04-17T08:05:49.953Z</time></trkpt><trkpt lat="33.5509917" lon="9.9343614"><ele>350.0</ele><time>2026-04-17T08:05:50.948Z</time></trkpt><trkpt lat="33.5511367" lon="9.9342385"><ele>350.0</ele><time>2026-04-17T08:05:51.961Z</time></trkpt><trkpt lat="33.5512813" lon="9.9341206"><ele>350.0</ele><time>2026-04-17T08:05:52.942Z</time></trkpt><trkpt lat="33.5514161" lon="9.934006"><ele>348.6666666666667</ele><time>2026-04-17T08:05:53.951Z</time></trkpt><trkpt lat="33.551535" lon="9.9338891"><ele>347.3333333333333</ele><time>2026-04-17T08:05:54.938Z</time></trkpt><trkpt lat="33.5516209" lon="9.9337419"><ele>346.0</ele><time>2026-04-17T08:05:55.939Z</time></trkpt><trkpt lat="33.5516839" lon="9.9335788"><ele>346.0</ele><time>2026-04-17T08:05:56.941Z</time></trkpt><trkpt lat="33.551727" lon="9.9333938"><ele>346.0</ele><time>2026-04-17T08:05:57.923Z</time></trkpt><trkpt lat="33.5517614" lon="9.9331885"><ele>346.0</ele><time>2026-04-17T08:05:58.927Z</time></trkpt><trkpt lat="33.5517927" lon="9.9329744"><ele>347.0</ele><time>2026-04-17T08:05:59.929Z</time></trkpt><trkpt lat="33.5518272" lon="9.9327579"><ele>348.0</ele><time>2026-04-17T08:06:00.926Z</time></trkpt><trkpt lat="33.5518604" lon="9.9325443"><ele>349.0</ele><time>2026-04-17T08:06:01.942Z</time></trkpt><trkpt lat="33.5519016" lon="9.932336"><ele>347.0</ele><time>2026-04-17T08:06:02.951Z</time></trkpt><trkpt lat="33.5519648" lon="9.9321427"><ele>345.0</ele><time>2026-04-17T08:06:03.927Z</time></trkpt><trkpt lat="33.5520447" lon="9.9319629"><ele>343.0</ele><time>2026-04-17T08:06:04.93Z</time></trkpt><trkpt lat="33.5521463" lon="9.9317985"><ele>344.66666666666663</ele><time>2026-04-17T08:06:05.908Z</time></trkpt><trkpt lat="33.5522662" lon="9.9316566"><ele>346.3333333333333</ele><time>2026-04-17T08:06:06.911Z</time></trkpt><trkpt lat="33.5523821" lon="9.9315034"><ele>348.0</ele><time>2026-04-17T08:06:07.911Z</time></trkpt><trkpt lat="33.552524" lon="9.9313934"><ele>348.0</ele><time>2026-04-17T08:06:08.913Z</time></trkpt><trkpt lat="33.5526766" lon="9.9313044"><ele>348.0</ele><time>2026-04-17T08:06:09.934Z</time></trkpt><trkpt lat="33.5528293" lon="9.9312286"><ele>348.0</ele><time>2026-04-17T08:06:10.93Z</time></trkpt><trkpt lat="33.5529748" lon="9.9311508"><ele>348.0</ele><time>2026-04-17T08:06:11.937Z</time></trkpt><trkpt lat="33.5531071" lon="9.9310607"><ele>348.0</ele><time>2026-04-17T08:06:12.934Z</time></trkpt><trkpt lat="33.5532308" lon="9.9309448"><ele>348.0</ele><time>2026-04-17T08:06:13.929Z</time></trkpt><trkpt lat="33.5533419" lon="9.9308093"><ele>350.3333333333333</ele><time>2026-04-17T08:06:14.934Z</time></trkpt><trkpt lat="33.5534424" lon="9.9306519"><ele>352.66666666666663</ele><time>2026-04-17T08:06:15.914Z</time></trkpt><trkpt lat="33.5535375" lon="9.9304738"><ele>355.0</ele><time>2026-04-17T08:06:16.921Z</time></trkpt><trkpt lat="33.5536315" lon="9.9302938"><ele>354.3333333333333</ele><time>2026-04-17T08:06:17.922Z</time></trkpt><trkpt lat="33.553724" lon="9.930108"><ele>353.6666666666667</ele><time>2026-04-17T08:06:18.922Z</time></trkpt><trkpt lat="33.5538066" lon="9.9299186"><ele>353.0</ele><time>2026-04-17T08:06:19.936Z</time></trkpt><trkpt lat="33.5538875" lon="9.9297214"><ele>351.0</ele><time>2026-04-17T08:06:20.939Z</time></trkpt><trkpt lat="33.5539644" lon="9.9295239"><ele>349.0</ele><time>2026-04-17T08:06:21.941Z</time></trkpt><trkpt lat="33.5540249" lon="9.9293293"><ele>347.0</ele><time>2026-04-17T08:06:22.929Z</time></trkpt><trkpt lat="33.5540634" lon="9.9291342"><ele>347.0</ele><time>2026-04-17T08:06:23.937Z</time></trkpt><trkpt lat="33.5540816" lon="9.9289481"><ele>347.0</ele><time>2026-04-17T08:06:24.94Z</time></trkpt><trkpt lat="33.5540569" lon="9.9287565"><ele>347.0</ele><time>2026-04-17T08:06:25.932Z</time></trkpt><trkpt lat="33.5540085" lon="9.928571"><ele>347.0</ele><time>2026-04-17T08:06:26.922Z</time></trkpt><trkpt lat="33.5539273" lon="9.9283891"><ele>347.0</ele><time>2026-04-17T08:06:27.92Z</time></trkpt><trkpt lat="33.5538243" lon="9.928212"><ele>347.0</ele><time>2026-04-17T08:06:28.922Z</time></trkpt><trkpt lat="33.5537093" lon="9.9280395"><ele>352.33333333333337</ele><time>2026-04-17T08:06:29.944Z</time></trkpt><trkpt lat="33.5535869" lon="9.9278773"><ele>357.6666666666667</ele><time>2026-04-17T08:06:30.939Z</time></trkpt><trkpt lat="33.553459" lon="9.9277252"><ele>363.0</ele><time>2026-04-17T08:06:31.958Z</time></trkpt><trkpt lat="33.5533281" lon="9.9275701"><ele>361.6666666666667</ele><time>2026-04-17T08:06:32.942Z</time></trkpt><trkpt lat="33.5532063" lon="9.9274091"><ele>360.33333333333337</ele><time>2026-04-17T08:06:33.949Z</time></trkpt><trkpt lat="33.5531112" lon="9.9272434"><ele>359.0</ele><time>2026-04-17T08:06:34.93Z</time></trkpt><trkpt lat="33.5530321" lon="9.9270799"><ele>359.0</ele><time>2026-04-17T08:06:35.934Z</time></trkpt><trkpt lat="33.5529842" lon="9.9268966"><ele>359.0</ele><time>2026-04-17T08:06:36.916Z</time></trkpt><trkpt lat="33.5529568" lon="9.9267246"><ele>359.0</ele><time>2026-04-17T08:06:37.915Z</time></trkpt><trkpt lat="33.552937" lon="9.9265358"><ele>358.33333333333337</ele><time>2026-04-17T08:06:38.907Z</time></trkpt><trkpt lat="33.5529189" lon="9.9263122"><ele>357.6666666666667</ele><time>2026-04-17T08:06:39.909Z</time></trkpt><trkpt lat="33.5529049" lon="9.9260961"><ele>357.0</ele><time>2026-04-17T08:06:40.923Z</time></trkpt><trkpt lat="33.552894" lon="9.9258848"><ele>357.0</ele><time>2026-04-17T08:06:41.936Z</time></trkpt><trkpt lat="33.5528862" lon="9.925671"><ele>357.0</ele><time>2026-04-17T08:06:42.931Z</time></trkpt><trkpt lat="33.5528753" lon="9.9254556"><ele>357.0</ele><time>2026-04-17T08:06:43.935Z</time></trkpt><trkpt lat="33.5528644" lon="9.9252447"><ele>356.3333333333333</ele><time>2026-04-17T08:06:44.94Z</time></trkpt><trkpt lat="33.552854" lon="9.9250358"><ele>355.66666666666663</ele><time>2026-04-17T08:06:45.933Z</time></trkpt><trkpt lat="33.5528493" lon="9.9248285"><ele>355.0</ele><time>2026-04-17T08:06:46.94Z</time></trkpt><trkpt lat="33.5528511" lon="9.9246231"><ele>355.0</ele><time>2026-04-17T08:06:47.941Z</time></trkpt><trkpt lat="33.5528576" lon="9.9244167"><ele>355.0</ele><time>2026-04-17T08:06:48.941Z</time></trkpt><trkpt lat="33.5528678" lon="9.924215"><ele>355.0</ele><time>2026-04-17T08:06:49.942Z</time></trkpt><trkpt lat="33.5528903" lon="9.9240287"><ele>358.66666666666663</ele><time>2026-04-17T08:06:50.944Z</time></trkpt><trkpt lat="33.5529302" lon="9.923848"><ele>362.3333333333333</ele><time>2026-04-17T08:06:51.94Z</time></trkpt><trkpt lat="33.5529917" lon="9.9236796"><ele>366.0</ele><time>2026-04-17T08:06:52.937Z</time></trkpt><trkpt lat="33.5530856" lon="9.9235193"><ele>364.6666666666667</ele><time>2026-04-17T08:06:53.918Z</time></trkpt><trkpt lat="33.553198" lon="9.9233724"><ele>363.33333333333337</ele><time>2026-04-17T08:06:54.92Z</time></trkpt><trkpt lat="33.5533179" lon="9.92322"><ele>362.0</ele><time>2026-04-17T08:06:55.919Z</time></trkpt><trkpt lat="33.5534422" lon="9.9230646"><ele>362.0</ele><time>2026-04-17T08:06:56.923Z</time></trkpt><trkpt lat="33.5535735" lon="9.9229093"><ele>362.0</ele><time>2026-04-17T08:06:57.949Z</time></trkpt><trkpt lat="33.5537069" lon="9.9227495"><ele>362.0</ele><time>2026-04-17T08:06:58.951Z</time></trkpt><trkpt lat="33.5538386" lon="9.9225789"><ele>362.0</ele><time>2026-04-17T08:06:59.953Z</time></trkpt><trkpt lat="33.5539699" lon="9.9224048"><ele>362.0</ele><time>2026-04-17T08:07:00.948Z</time></trkpt><trkpt lat="33.5540999" lon="9.922235"><ele>362.0</ele><time>2026-04-17T08:07:01.95Z</time></trkpt><trkpt lat="33.5542292" lon="9.9220721"><ele>362.0</ele><time>2026-04-17T08:07:02.949Z</time></trkpt><trkpt lat="33.5543618" lon="9.9219179"><ele>362.0</ele><time>2026-04-17T08:07:03.952Z</time></trkpt><trkpt lat="33.5544987" lon="9.9217729"><ele>362.0</ele><time>2026-04-17T08:07:04.96Z</time></trkpt><trkpt lat="33.5546403" lon="9.9216319"><ele>359.6666666666667</ele><time>2026-04-17T08:07:05.942Z</time></trkpt><trkpt lat="33.5547864" lon="9.9214968"><ele>357.3333333333333</ele><time>2026-04-17T08:07:06.944Z</time></trkpt><trkpt lat="33.5549325" lon="9.9213669"><ele>355.0</ele><time>2026-04-17T08:07:07.942Z</time></trkpt><trkpt lat="33.5550791" lon="9.92124"><ele>355.0</ele><time>2026-04-17T08:07:08.95Z</time></trkpt><trkpt lat="33.5552279" lon="9.9211106"><ele>355.0</ele><time>2026-04-17T08:07:09.944Z</time></trkpt><trkpt lat="33.5553767" lon="9.92098"><ele>355.0</ele><time>2026-04-17T08:07:10.958Z</time></trkpt><trkpt lat="33.5555185" lon="9.9208484"><ele>349.3333333333333</ele><time>2026-04-17T08:07:11.954Z</time></trkpt><trkpt lat="33.5556499" lon="9.9207118"><ele>343.6666666666667</ele><time>2026-04-17T08:07:12.948Z</time></trkpt><trkpt lat="33.5557663" lon="9.9205668"><ele>338.0</ele><time>2026-04-17T08:07:13.935Z</time></trkpt><trkpt lat="33.5558595" lon="9.9204034"><ele>338.0</ele><time>2026-04-17T08:07:14.932Z</time></trkpt><trkpt lat="33.5559341" lon="9.9202255"><ele>338.0</ele><time>2026-04-17T08:07:15.92Z</time></trkpt><trkpt lat="33.5559905" lon="9.9200327"><ele>338.0</ele><time>2026-04-17T08:07:16.908Z</time></trkpt><trkpt lat="33.55602" lon="9.9198313"><ele>336.6666666666667</ele><time>2026-04-17T08:07:17.911Z</time></trkpt><trkpt lat="33.5560233" lon="9.9196228"><ele>335.3333333333333</ele><time>2026-04-17T08:07:18.921Z</time></trkpt><trkpt lat="33.5560097" lon="9.9194145"><ele>334.0</ele><time>2026-04-17T08:07:19.934Z</time></trkpt><trkpt lat="33.5559756" lon="9.9192032"><ele>332.66666666666663</ele><time>2026-04-17T08:07:20.932Z</time></trkpt><trkpt lat="33.5559374" lon="9.9189924"><ele>331.3333333333333</ele><time>2026-04-17T08:07:21.925Z</time></trkpt><trkpt lat="33.5558967" lon="9.9187813"><ele>330.0</ele><time>2026-04-17T08:07:22.92Z</time></trkpt><trkpt lat="33.5558516" lon="9.9185596"><ele>328.6666666666667</ele><time>2026-04-17T08:07:23.93Z</time></trkpt><trkpt lat="33.5558075" lon="9.9183378"><ele>327.33333333333337</ele><time>2026-04-17T08:07:24.933Z</time></trkpt><trkpt lat="33.5557649" lon="9.9181163"><ele>326.0</ele><time>2026-04-17T08:07:25.949Z</time></trkpt><trkpt lat="33.5557209" lon="9.9178938"><ele>326.0</ele><time>2026-04-17T08:07:26.945Z</time></trkpt><trkpt lat="33.5556773" lon="9.9176701"><ele>326.0</ele><time>2026-04-17T08:07:27.955Z</time></trkpt><trkpt lat="33.5556363" lon="9.9174518"><ele>326.0</ele><time>2026-04-17T08:07:28.949Z</time></trkpt><trkpt lat="33.5555961" lon="9.9172307"><ele>324.33333333333337</ele><time>2026-04-17T08:07:29.957Z</time></trkpt><trkpt lat="33.5555578" lon="9.9170118"><ele>322.6666666666667</ele><time>2026-04-17T08:07:30.96Z</time></trkpt><trkpt lat="33.5555177" lon="9.9167969"><ele>321.0</ele><time>2026-04-17T08:07:31.954Z</time></trkpt><trkpt lat="33.5554791" lon="9.9165834"><ele>321.6666666666667</ele><time>2026-04-17T08:07:32.959Z</time></trkpt><trkpt lat="33.5554443" lon="9.9163728"><ele>322.33333333333337</ele><time>2026-04-17T08:07:33.971Z</time></trkpt><trkpt lat="33.5554092" lon="9.9161706"><ele>323.0</ele><time>2026-04-17T08:07:34.961Z</time></trkpt><trkpt lat="33.5553661" lon="9.9159716"><ele>324.6666666666667</ele><time>2026-04-17T08:07:35.972Z</time></trkpt><trkpt lat="33.5553194" lon="9.9157846"><ele>326.3333333333333</ele><time>2026-04-17T08:07:36.949Z</time></trkpt><trkpt lat="33.5552501" lon="9.9156095"><ele>328.0</ele><time>2026-04-17T08:07:37.939Z</time></trkpt><trkpt lat="33.5551642" lon="9.9154454"><ele>328.0</ele><time>2026-04-17T08:07:38.944Z</time></trkpt><trkpt lat="33.5550566" lon="9.9152924"><ele>328.0</ele><time>2026-04-17T08:07:39.926Z</time></trkpt><trkpt lat="33.5549265" lon="9.9151574"><ele>328.0</ele><time>2026-04-17T08:07:40.937Z</time></trkpt><trkpt lat="33.5547837" lon="9.9150363"><ele>328.66666666666663</ele><time>2026-04-17T08:07:41.927Z</time></trkpt><trkpt lat="33.5546321" lon="9.914923"><ele>329.3333333333333</ele><time>2026-04-17T08:07:42.93Z</time></trkpt><trkpt lat="33.5544763" lon="9.9148138"><ele>330.0</ele><time>2026-04-17T08:07:43.948Z</time></trkpt><trkpt lat="33.5543207" lon="9.9147061"><ele>330.0</ele><time>2026-04-17T08:07:44.957Z</time></trkpt><trkpt lat="33.5541618" lon="9.9145922"><ele>330.0</ele><time>2026-04-17T08:07:45.953Z</time></trkpt><trkpt lat="33.554008" lon="9.9144754"><ele>330.0</ele><time>2026-04-17T08:07:46.954Z</time></trkpt><trkpt lat="33.5538538" lon="9.9143485"><ele>330.3333333333333</ele><time>2026-04-17T08:07:47.961Z</time></trkpt><trkpt lat="33.5537029" lon="9.9142124"><ele>330.66666666666663</ele><time>2026-04-17T08:07:48.946Z</time></trkpt><trkpt lat="33.5535578" lon="9.9140681"><ele>331.0</ele><time>2026-04-17T08:07:49.953Z</time></trkpt><trkpt lat="33.5534161" lon="9.9139166"><ele>331.0</ele><time>2026-04-17T08:07:50.945Z</time></trkpt><trkpt lat="33.5532777" lon="9.9137609"><ele>331.0</ele><time>2026-04-17T08:07:51.941Z</time></trkpt><trkpt lat="33.5531379" lon="9.9136004"><ele>331.0</ele><time>2026-04-17T08:07:52.95Z</time></trkpt><trkpt lat="33.5529983" lon="9.9134377"><ele>328.66666666666663</ele><time>2026-04-17T08:07:53.953Z</time></trkpt><trkpt lat="33.5528598" lon="9.9132712"><ele>326.3333333333333</ele><time>2026-04-17T08:07:54.955Z</time></trkpt><trkpt lat="33.5527238" lon="9.9131028"><ele>324.0</ele><time>2026-04-17T08:07:55.956Z</time></trkpt><trkpt lat="33.5525913" lon="9.9129365"><ele>324.0</ele><time>2026-04-17T08:07:56.949Z</time></trkpt><trkpt lat="33.552463" lon="9.9127726"><ele>324.0</ele><time>2026-04-17T08:07:57.954Z</time></trkpt><trkpt lat="33.5523379" lon="9.9126098"><ele>324.0</ele><time>2026-04-17T08:07:58.959Z</time></trkpt><trkpt lat="33.552212" lon="9.9124442"><ele>324.3333333333333</ele><time>2026-04-17T08:07:59.953Z</time></trkpt><trkpt lat="33.5520967" lon="9.9122821"><ele>324.66666666666663</ele><time>2026-04-17T08:08:00.954Z</time></trkpt><trkpt lat="33.5519906" lon="9.9121143"><ele>325.0</ele><time>2026-04-17T08:08:01.957Z</time></trkpt><trkpt lat="33.5518923" lon="9.9119421"><ele>325.3333333333333</ele><time>2026-04-17T08:08:02.947Z</time></trkpt><trkpt lat="33.551803" lon="9.9117663"><ele>325.6666666666667</ele><time>2026-04-17T08:08:03.953Z</time></trkpt><trkpt lat="33.5517231" lon="9.9115844"><ele>326.0</ele><time>2026-04-17T08:08:04.959Z</time></trkpt><trkpt lat="33.551652" lon="9.9113942"><ele>326.0</ele><time>2026-04-17T08:08:05.946Z</time></trkpt><trkpt lat="33.5515893" lon="9.9111985"><ele>326.0</ele><time>2026-04-17T08:08:07.001Z</time></trkpt><trkpt lat="33.5515406" lon="9.9109973"><ele>326.0</ele><time>2026-04-17T08:08:07.949Z</time></trkpt><trkpt lat="33.5515032" lon="9.9107919"><ele>327.33333333333337</ele><time>2026-04-17T08:08:08.949Z</time></trkpt><trkpt lat="33.5514784" lon="9.9105833"><ele>328.6666666666667</ele><time>2026-04-17T08:08:09.933Z</time></trkpt><trkpt lat="33.5514631" lon="9.9103704"><ele>330.0</ele><time>2026-04-17T08:08:10.938Z</time></trkpt><trkpt lat="33.5514504" lon="9.9101605"><ele>330.3333333333333</ele><time>2026-04-17T08:08:11.937Z</time></trkpt><trkpt lat="33.5514378" lon="9.9099501"><ele>330.66666666666663</ele><time>2026-04-17T08:08:12.927Z</time></trkpt><trkpt lat="33.5514281" lon="9.9097374"><ele>331.0</ele><time>2026-04-17T08:08:13.954Z</time></trkpt><trkpt lat="33.5514158" lon="9.9095249"><ele>331.0</ele><time>2026-04-17T08:08:14.955Z</time></trkpt><trkpt lat="33.551401" lon="9.9093128"><ele>331.0</ele><time>2026-04-17T08:08:15.949Z</time></trkpt><trkpt lat="33.5513865" lon="9.9090993"><ele>331.0</ele><time>2026-04-17T08:08:16.952Z</time></trkpt><trkpt lat="33.5513745" lon="9.9088862"><ele>332.0</ele><time>2026-04-17T08:08:17.948Z</time></trkpt><trkpt lat="33.5513586" lon="9.9086703"><ele>333.0</ele><time>2026-04-17T08:08:18.942Z</time></trkpt><trkpt lat="33.551341" lon="9.9084547"><ele>334.0</ele><time>2026-04-17T08:08:19.944Z</time></trkpt><trkpt lat="33.5513182" lon="9.9082386"><ele>336.0</ele><time>2026-04-17T08:08:20.952Z</time></trkpt><trkpt lat="33.5512895" lon="9.9080196"><ele>338.0</ele><time>2026-04-17T08:08:21.946Z</time></trkpt><trkpt lat="33.5512533" lon="9.9078003"><ele>340.0</ele><time>2026-04-17T08:08:22.958Z</time></trkpt><trkpt lat="33.5512105" lon="9.9075833"><ele>337.66666666666663</ele><time>2026-04-17T08:08:23.954Z</time></trkpt><trkpt lat="33.5511602" lon="9.9073653"><ele>335.3333333333333</ele><time>2026-04-17T08:08:24.958Z</time></trkpt><trkpt lat="33.5511056" lon="9.9071459"><ele>333.0</ele><time>2026-04-17T08:08:25.952Z</time></trkpt><trkpt lat="33.5510442" lon="9.9069307"><ele>333.3333333333333</ele><time>2026-04-17T08:08:26.952Z</time></trkpt><trkpt lat="33.5509792" lon="9.9067191"><ele>333.66666666666663</ele><time>2026-04-17T08:08:27.957Z</time></trkpt><trkpt lat="33.5509103" lon="9.9065125"><ele>334.0</ele><time>2026-04-17T08:08:28.959Z</time></trkpt><trkpt lat="33.5508334" lon="9.9063054"><ele>334.0</ele><time>2026-04-17T08:08:29.952Z</time></trkpt><trkpt lat="33.5507449" lon="9.9061002"><ele>334.0</ele><time>2026-04-17T08:08:30.952Z</time></trkpt><trkpt lat="33.5506438" lon="9.9058989"><ele>334.0</ele><time>2026-04-17T08:08:31.947Z</time></trkpt><trkpt lat="33.5505364" lon="9.9056995"><ele>333.66666666666663</ele><time>2026-04-17T08:08:32.948Z</time></trkpt><trkpt lat="33.5504209" lon="9.9055026"><ele>333.3333333333333</ele><time>2026-04-17T08:08:33.929Z</time></trkpt><trkpt lat="33.5502986" lon="9.9053148"><ele>333.0</ele><time>2026-04-17T08:08:34.925Z</time></trkpt><trkpt lat="33.5501679" lon="9.9051347"><ele>335.6666666666667</ele><time>2026-04-17T08:08:35.926Z</time></trkpt><trkpt lat="33.5500334" lon="9.9049698"><ele>338.33333333333337</ele><time>2026-04-17T08:08:36.939Z</time></trkpt><trkpt lat="33.5498861" lon="9.9048088"><ele>341.0</ele><time>2026-04-17T08:08:37.947Z</time></trkpt><trkpt lat="33.5497333" lon="9.9046511"><ele>341.0</ele><time>2026-04-17T08:08:38.941Z</time></trkpt><trkpt lat="33.5495803" lon="9.9044938"><ele>341.0</ele><time>2026-04-17T08:08:39.941Z</time></trkpt><trkpt lat="33.5494253" lon="9.9043401"><ele>341.0</ele><time>2026-04-17T08:08:40.942Z</time></trkpt><trkpt lat="33.5492733" lon="9.90419"><ele>342.6666666666667</ele><time>2026-04-17T08:08:41.937Z</time></trkpt><trkpt lat="33.5491246" lon="9.90404"><ele>344.3333333333333</ele><time>2026-04-17T08:08:42.941Z</time></trkpt><trkpt lat="33.548972" lon="9.9038913"><ele>346.0</ele><time>2026-04-17T08:08:43.937Z</time></trkpt><trkpt lat="33.5488168" lon="9.9037464"><ele>346.3333333333333</ele><time>2026-04-17T08:08:44.939Z</time></trkpt><trkpt lat="33.5486588" lon="9.9035994"><ele>346.6666666666667</ele><time>2026-04-17T08:08:45.937Z</time></trkpt><trkpt lat="33.5485001" lon="9.9034518"><ele>347.0</ele><time>2026-04-17T08:08:46.942Z</time></trkpt><trkpt lat="33.5483444" lon="9.9033036"><ele>347.0</ele><time>2026-04-17T08:08:47.938Z</time></trkpt><trkpt lat="33.5481893" lon="9.9031542"><ele>347.0</ele><time>2026-04-17T08:08:48.939Z</time></trkpt><trkpt lat="33.5480324" lon="9.9030024"><ele>347.0</ele><time>2026-04-17T08:08:49.949Z</time></trkpt><trkpt lat="33.5478751" lon="9.9028505"><ele>347.33333333333337</ele><time>2026-04-17T08:08:50.95Z</time></trkpt><trkpt lat="33.5477201" lon="9.9027044"><ele>347.6666666666667</ele><time>2026-04-17T08:08:51.944Z</time></trkpt><trkpt lat="33.5475644" lon="9.9025557"><ele>348.0</ele><time>2026-04-17T08:08:52.944Z</time></trkpt><trkpt lat="33.547407" lon="9.9024039"><ele>348.0</ele><time>2026-04-17T08:08:53.946Z</time></trkpt><trkpt lat="33.5472481" lon="9.9022497"><ele>348.0</ele><time>2026-04-17T08:08:54.95Z</time></trkpt><trkpt lat="33.5470923" lon="9.9020968"><ele>348.0</ele><time>2026-04-17T08:08:55.949Z</time></trkpt><trkpt lat="33.5469351" lon="9.9019448"><ele>347.6666666666667</ele><time>2026-04-17T08:08:56.952Z</time></trkpt><trkpt lat="33.5467754" lon="9.9017956"><ele>347.33333333333337</ele><time>2026-04-17T08:08:57.943Z</time></trkpt><trkpt lat="33.5466158" lon="9.9016569"><ele>347.0</ele><time>2026-04-17T08:08:58.952Z</time></trkpt><trkpt lat="33.5464513" lon="9.9015273"><ele>347.0</ele><time>2026-04-17T08:08:59.949Z</time></trkpt><trkpt lat="33.5462863" lon="9.9014042"><ele>347.0</ele><time>2026-04-17T08:09:00.944Z</time></trkpt><trkpt lat="33.5461178" lon="9.9012817"><ele>347.0</ele><time>2026-04-17T08:09:01.943Z</time></trkpt><trkpt lat="33.5459507" lon="9.9011648"><ele>347.0</ele><time>2026-04-17T08:09:02.944Z</time></trkpt><trkpt lat="33.5457851" lon="9.9010493"><ele>347.0</ele><time>2026-04-17T08:09:03.949Z</time></trkpt><trkpt lat="33.5456227" lon="9.9009394"><ele>347.0</ele><time>2026-04-17T08:09:04.95Z</time></trkpt><trkpt lat="33.5454621" lon="9.900827"><ele>348.6666666666667</ele><time>2026-04-17T08:09:05.941Z</time></trkpt><trkpt lat="33.5453047" lon="9.9007101"><ele>350.3333333333333</ele><time>2026-04-17T08:09:06.959Z</time></trkpt><trkpt lat="33.5451522" lon="9.9005969"><ele>352.0</ele><time>2026-04-17T08:09:07.976Z</time></trkpt><trkpt lat="33.5450003" lon="9.9004832"><ele>352.0</ele><time>2026-04-17T08:09:08.952Z</time></trkpt><trkpt lat="33.5448498" lon="9.9003677"><ele>352.0</ele><time>2026-04-17T08:09:09.963Z</time></trkpt><trkpt lat="33.5447013" lon="9.9002511"><ele>352.0</ele><time>2026-04-17T08:09:10.963Z</time></trkpt><trkpt lat="33.5445605" lon="9.9001292"><ele>354.0</ele><time>2026-04-17T08:09:11.956Z</time></trkpt><trkpt lat="33.5444264" lon="9.8999986"><ele>356.0</ele><time>2026-04-17T08:09:12.952Z</time></trkpt><trkpt lat="33.5443041" lon="9.8998601"><ele>358.0</ele><time>2026-04-17T08:09:13.953Z</time></trkpt><trkpt lat="33.5441888" lon="9.8997071"><ele>358.0</ele><time>2026-04-17T08:09:14.935Z</time></trkpt><trkpt lat="33.544082" lon="9.8995477"><ele>358.0</ele><time>2026-04-17T08:09:15.929Z</time></trkpt><trkpt lat="33.543978" lon="9.8993797"><ele>358.0</ele><time>2026-04-17T08:09:16.929Z</time></trkpt><trkpt lat="33.5438804" lon="9.899207"><ele>357.66666666666663</ele><time>2026-04-17T08:09:17.93Z</time></trkpt><trkpt lat="33.5437863" lon="9.8990292"><ele>357.3333333333333</ele><time>2026-04-17T08:09:18.953Z</time></trkpt><trkpt lat="33.5436925" lon="9.898847"><ele>357.0</ele><time>2026-04-17T08:09:19.952Z</time></trkpt><trkpt lat="33.543598" lon="9.8986594"><ele>359.6666666666667</ele><time>2026-04-17T08:09:20.953Z</time></trkpt><trkpt lat="33.5435014" lon="9.8984665"><ele>362.33333333333337</ele><time>2026-04-17T08:09:21.955Z</time></trkpt><trkpt lat="33.5434079" lon="9.8982728"><ele>365.0</ele><time>2026-04-17T08:09:22.952Z</time></trkpt><trkpt lat="33.5433121" lon="9.8980775"><ele>365.0</ele><time>2026-04-17T08:09:23.955Z</time></trkpt><trkpt lat="33.543214" lon="9.8978831"><ele>365.0</ele><time>2026-04-17T08:09:24.95Z</time></trkpt><trkpt lat="33.5431105" lon="9.8976855"><ele>365.0</ele><time>2026-04-17T08:09:25.953Z</time></trkpt><trkpt lat="33.5430055" lon="9.8974866"><ele>364.0</ele><time>2026-04-17T08:09:26.951Z</time></trkpt><trkpt lat="33.5429045" lon="9.8972879"><ele>363.0</ele><time>2026-04-17T08:09:27.946Z</time></trkpt><trkpt lat="33.5428067" lon="9.8970859"><ele>362.0</ele><time>2026-04-17T08:09:28.961Z</time></trkpt><trkpt lat="33.542712" lon="9.8968867"><ele>365.33333333333337</ele><time>2026-04-17T08:09:29.959Z</time></trkpt><trkpt lat="33.5426232" lon="9.8966881"><ele>368.6666666666667</ele><time>2026-04-17T08:09:30.952Z</time></trkpt><trkpt lat="33.5425401" lon="9.8964911"><ele>372.0</ele><time>2026-04-17T08:09:31.952Z</time></trkpt><trkpt lat="33.5424694" lon="9.8962935"><ele>372.0</ele><time>2026-04-17T08:09:32.951Z</time></trkpt><trkpt lat="33.5424084" lon="9.8960952"><ele>372.0</ele><time>2026-04-17T08:09:33.956Z</time></trkpt><trkpt lat="33.5423516" lon="9.895899"><ele>372.0</ele><time>2026-04-17T08:09:34.95Z</time></trkpt><trkpt lat="33.5422934" lon="9.8957058"><ele>371.3333333333333</ele><time>2026-04-17T08:09:35.936Z</time></trkpt><trkpt lat="33.5422256" lon="9.8955223"><ele>370.66666666666663</ele><time>2026-04-17T08:09:36.931Z</time></trkpt><trkpt lat="33.5421419" lon="9.8953698"><ele>370.0</ele><time>2026-04-17T08:09:37.931Z</time></trkpt><trkpt lat="33.5420251" lon="9.8952466"><ele>372.0</ele><time>2026-04-17T08:09:38.923Z</time></trkpt><trkpt lat="33.5418851" lon="9.8951521"><ele>374.0</ele><time>2026-04-17T08:09:39.909Z</time></trkpt><trkpt lat="33.5417314" lon="9.8950745"><ele>376.0</ele><time>2026-04-17T08:09:40.917Z</time></trkpt><trkpt lat="33.5415636" lon="9.895006"><ele>376.0</ele><time>2026-04-17T08:09:41.929Z</time></trkpt><trkpt lat="33.5413948" lon="9.8949422"><ele>376.0</ele><time>2026-04-17T08:09:42.945Z</time></trkpt><trkpt lat="33.5412289" lon="9.8948756"><ele>376.0</ele><time>2026-04-17T08:09:43.942Z</time></trkpt><trkpt lat="33.5410703" lon="9.8948092"><ele>377.66666666666663</ele><time>2026-04-17T08:09:44.947Z</time></trkpt><trkpt lat="33.5409189" lon="9.8947437"><ele>379.3333333333333</ele><time>2026-04-17T08:09:45.946Z</time></trkpt><trkpt lat="33.5407782" lon="9.8946816"><ele>381.0</ele><time>2026-04-17T08:09:46.943Z</time></trkpt><trkpt lat="33.5405847" lon="9.8944942"><ele>381.0</ele><time>2026-04-17T08:09:48.828Z</time></trkpt><trkpt lat="33.5405168" lon="9.8943859"><ele>381.0</ele><time>2026-04-17T08:09:49.821Z</time></trkpt><trkpt lat="33.5404859" lon="9.8942765"><ele>381.0</ele><time>2026-04-17T08:09:50.821Z</time></trkpt><trkpt lat="33.5405652" lon="9.8941773"><ele>381.0</ele><time>2026-04-17T08:09:51.823Z</time></trkpt><trkpt lat="33.5407026" lon="9.8941331"><ele>381.0</ele><time>2026-04-17T08:09:52.826Z</time></trkpt><trkpt lat="33.5408231" lon="9.8941276"><ele>381.0</ele><time>2026-04-17T08:09:53.823Z</time></trkpt><trkpt lat="33.5409348" lon="9.8941708"><ele>381.0</ele><time>2026-04-17T08:09:54.829Z</time></trkpt><trkpt lat="33.5410655" lon="9.8942208"><ele>381.0</ele><time>2026-04-17T08:09:55.823Z</time></trkpt><trkpt lat="33.5411987" lon="9.8942839"><ele>379.75</ele><time>2026-04-17T08:09:56.825Z</time></trkpt><trkpt lat="33.5413554" lon="9.894352"><ele>378.5</ele><time>2026-04-17T08:09:57.821Z</time></trkpt><trkpt lat="33.5414935" lon="9.8943778"><ele>377.25</ele><time>2026-04-17T08:09:58.832Z</time></trkpt><trkpt lat="33.5416121" lon="9.8943137"><ele>376.0</ele><time>2026-04-17T08:09:59.833Z</time></trkpt><trkpt lat="33.5417043" lon="9.8941743"><ele>379.0</ele><time>2026-04-17T08:10:00.832Z</time></trkpt><trkpt lat="33.5417779" lon="9.8940427"><ele>382.0</ele><time>2026-04-17T08:10:01.837Z</time></trkpt><trkpt lat="33.5418166" lon="9.8939043"><ele>385.0</ele><time>2026-04-17T08:10:02.843Z</time></trkpt><trkpt lat="33.5417447" lon="9.8937595"><ele>388.0</ele><time>2026-04-17T08:10:03.827Z</time></trkpt><trkpt lat="33.5416603" lon="9.8936427"><ele>388.0</ele><time>2026-04-17T08:10:04.823Z</time></trkpt><trkpt lat="33.5415631" lon="9.8935588"><ele>388.0</ele><time>2026-04-17T08:10:05.814Z</time></trkpt><trkpt lat="33.5414621" lon="9.8934848"><ele>388.0</ele><time>2026-04-17T08:10:06.824Z</time></trkpt><trkpt lat="33.5413263" lon="9.893449"><ele>388.0</ele><time>2026-04-17T08:10:07.83Z</time></trkpt><trkpt lat="33.5411889" lon="9.8934359"><ele>391.6666666666667</ele><time>2026-04-17T08:10:08.819Z</time></trkpt><trkpt lat="33.541044" lon="9.8934139"><ele>395.33333333333337</ele><time>2026-04-17T08:10:09.853Z</time></trkpt><trkpt lat="33.5408529" lon="9.893361"><ele>399.0</ele><time>2026-04-17T08:10:10.829Z</time></trkpt><trkpt lat="33.5406898" lon="9.8932876"><ele>399.0</ele><time>2026-04-17T08:10:11.819Z</time></trkpt><trkpt lat="33.5405696" lon="9.8931136"><ele>399.0</ele><time>2026-04-17T08:10:12.812Z</time></trkpt><trkpt lat="33.5404907" lon="9.892964"><ele>399.0</ele><time>2026-04-17T08:10:13.831Z</time></trkpt><trkpt lat="33.5404516" lon="9.8927912"><ele>403.0</ele><time>2026-04-17T08:10:14.838Z</time></trkpt><trkpt lat="33.540397" lon="9.8925817"><ele>407.0</ele><time>2026-04-17T08:10:15.836Z</time></trkpt><trkpt lat="33.5402951" lon="9.8924326"><ele>411.0</ele><time>2026-04-17T08:10:16.835Z</time></trkpt><trkpt lat="33.54018" lon="9.8923068"><ele>416.0</ele><time>2026-04-17T08:10:17.839Z</time></trkpt><trkpt lat="33.5400865" lon="9.8921773"><ele>421.0</ele><time>2026-04-17T08:10:18.837Z</time></trkpt><trkpt lat="33.5399619" lon="9.8920564"><ele>426.0</ele><time>2026-04-17T08:10:19.837Z</time></trkpt><trkpt lat="33.5398601" lon="9.8919274"><ele>426.0</ele><time>2026-04-17T08:10:20.843Z</time></trkpt><trkpt lat="33.5397731" lon="9.8917998"><ele>426.0</ele><time>2026-04-17T08:10:21.838Z</time></trkpt><trkpt lat="33.5396881" lon="9.8916565"><ele>426.0</ele><time>2026-04-17T08:10:22.839Z</time></trkpt><trkpt lat="33.5396115" lon="9.8914876"><ele>426.0</ele><time>2026-04-17T08:10:23.841Z</time></trkpt><trkpt lat="33.5395263" lon="9.8913326"><ele>428.75</ele><time>2026-04-17T08:10:24.856Z</time></trkpt><trkpt lat="33.5394377" lon="9.8911932"><ele>431.5</ele><time>2026-04-17T08:10:25.855Z</time></trkpt><trkpt lat="33.539355" lon="9.8910557"><ele>434.25</ele><time>2026-04-17T08:10:26.856Z</time></trkpt><trkpt lat="33.5392647" lon="9.8909063"><ele>437.0</ele><time>2026-04-17T08:10:27.855Z</time></trkpt><trkpt lat="33.5391762" lon="9.890754"><ele>437.25</ele><time>2026-04-17T08:10:28.861Z</time></trkpt><trkpt lat="33.5390814" lon="9.8906059"><ele>437.5</ele><time>2026-04-17T08:10:29.856Z</time></trkpt><trkpt lat="33.5390016" lon="9.890462"><ele>437.75</ele><time>2026-04-17T08:10:30.867Z</time></trkpt><trkpt lat="33.5389257" lon="9.8903267"><ele>438.0</ele><time>2026-04-17T08:10:31.873Z</time></trkpt><trkpt lat="33.5388599" lon="9.8901784"><ele>437.66666666666663</ele><time>2026-04-17T08:10:32.868Z</time></trkpt><trkpt lat="33.5387998" lon="9.8900115"><ele>437.3333333333333</ele><time>2026-04-17T08:10:33.854Z</time></trkpt><trkpt lat="33.5387476" lon="9.8898395"><ele>437.0</ele><time>2026-04-17T08:10:34.86Z</time></trkpt><trkpt lat="33.5387009" lon="9.8896606"><ele>438.0</ele><time>2026-04-17T08:10:35.855Z</time></trkpt><trkpt lat="33.5386468" lon="9.8894773"><ele>439.0</ele><time>2026-04-17T08:10:36.853Z</time></trkpt><trkpt lat="33.5385832" lon="9.8893082"><ele>440.0</ele><time>2026-04-17T08:10:37.848Z</time></trkpt><trkpt lat="33.5385068" lon="9.8891406"><ele>440.3333333333333</ele><time>2026-04-17T08:10:38.855Z</time></trkpt><trkpt lat="33.5384456" lon="9.8889766"><ele>440.66666666666663</ele><time>2026-04-17T08:10:39.869Z</time></trkpt><trkpt lat="33.538386" lon="9.888799"><ele>441.0</ele><time>2026-04-17T08:10:40.892Z</time></trkpt><trkpt lat="33.5383335" lon="9.8886289"><ele>441.0</ele><time>2026-04-17T08:10:41.861Z</time></trkpt><trkpt lat="33.5382859" lon="9.8884558"><ele>441.0</ele><time>2026-04-17T08:10:42.86Z</time></trkpt><trkpt lat="33.5382501" lon="9.8883112"><ele>441.0</ele><time>2026-04-17T08:10:43.851Z</time></trkpt><trkpt lat="33.538231" lon="9.8881747"><ele>441.0</ele><time>2026-04-17T08:10:44.852Z</time></trkpt><trkpt lat="33.5382117" lon="9.8880504"><ele>440.3333333333333</ele><time>2026-04-17T08:10:45.851Z</time></trkpt><trkpt lat="33.5381954" lon="9.8879485"><ele>439.66666666666663</ele><time>2026-04-17T08:10:46.858Z</time></trkpt><trkpt lat="33.5381915" lon="9.8878692"><ele>439.0</ele><time>2026-04-17T08:10:47.843Z</time></trkpt><trkpt lat="33.5381981" lon="9.8877599"><ele>438.3333333333333</ele><time>2026-04-17T08:10:49.848Z</time></trkpt><trkpt lat="33.5382099" lon="9.8876763"><ele>437.66666666666663</ele><time>2026-04-17T08:10:51.857Z</time></trkpt><trkpt lat="33.5381423" lon="9.8877439"><ele>437.0</ele><time>2026-04-17T08:11:07.866Z</time></trkpt><trkpt lat="33.5381519" lon="9.887849"><ele>436.99999999999994</ele><time>2026-04-17T08:11:08.857Z</time></trkpt><trkpt lat="33.538161" lon="9.8879577"><ele>437.0</ele><time>2026-04-17T08:11:09.848Z</time></trkpt><trkpt lat="33.5381737" lon="9.8880645"><ele>437.0</ele><time>2026-04-17T08:11:10.849Z</time></trkpt><trkpt lat="33.5381793" lon="9.8881564"><ele>437.0</ele><time>2026-04-17T08:11:11.861Z</time></trkpt><trkpt lat="33.5381954" lon="9.8882357"><ele>436.99999999999994</ele><time>2026-04-17T08:11:12.847Z</time></trkpt><trkpt lat="33.5382147" lon="9.8883382"><ele>437.0</ele><time>2026-04-17T08:11:13.842Z</time></trkpt><trkpt lat="33.5382335" lon="9.8884421"><ele>437.0</ele><time>2026-04-17T08:11:14.841Z</time></trkpt><trkpt lat="33.538255" lon="9.8885398"><ele>437.00000000000006</ele><time>2026-04-17T08:11:15.842Z</time></trkpt><trkpt lat="33.5382703" lon="9.8886365"><ele>437.00000000000006</ele><time>2026-04-17T08:11:17.84Z</time></trkpt><trkpt lat="33.5382325" lon="9.8884757"><ele>437.0</ele><time>2026-04-17T08:11:28.85Z</time></trkpt><trkpt lat="33.538199" lon="9.888376"><ele>437.0</ele><time>2026-04-17T08:11:29.854Z</time></trkpt><trkpt lat="33.5381798" lon="9.8882739"><ele>437.0</ele><time>2026-04-17T08:11:30.848Z</time></trkpt><trkpt lat="33.538164" lon="9.8881841"><ele>437.00000000000006</ele><time>2026-04-17T08:11:31.857Z</time></trkpt><trkpt lat="33.5381552" lon="9.8881086"><ele>437.00000000000006</ele><time>2026-04-17T08:11:32.851Z</time></trkpt><trkpt lat="33.5381334" lon="9.8879649"><ele>437.0</ele><time>2026-04-17T08:11:34.852Z</time></trkpt><trkpt lat="33.5381302" lon="9.887843"><ele>437.0</ele><time>2026-04-17T08:11:36.853Z</time></trkpt><trkpt lat="33.5381247" lon="9.8877113"><ele>437.0</ele><time>2026-04-17T08:11:38.853Z</time></trkpt><trkpt lat="33.5381278" lon="9.8876231"><ele>437.00000000000006</ele><time>2026-04-17T08:11:39.861Z</time></trkpt><trkpt lat="33.5381329" lon="9.8875135"><ele>437.00000000000006</ele><time>2026-04-17T08:11:40.856Z</time></trkpt><trkpt lat="33.5381404" lon="9.8874018"><ele>437.0</ele><time>2026-04-17T08:11:41.858Z</time></trkpt><trkpt lat="33.5381449" lon="9.8872822"><ele>437.0</ele><time>2026-04-17T08:11:42.868Z</time></trkpt><trkpt lat="33.5381464" lon="9.8871713"><ele>436.99999999999994</ele><time>2026-04-17T08:11:43.857Z</time></trkpt><trkpt lat="33.5381457" lon="9.8870718"><ele>437.0</ele><time>2026-04-17T08:11:44.858Z</time></trkpt><trkpt lat="33.5381281" lon="9.886971"><ele>437.0</ele><time>2026-04-17T08:11:46.858Z</time></trkpt><trkpt lat="33.5380646" lon="9.8870094"><ele>437.0</ele><time>2026-04-17T08:11:49.856Z</time></trkpt><trkpt lat="33.5380388" lon="9.8871123"><ele>436.99999999999994</ele><time>2026-04-17T08:11:51.865Z</time></trkpt><trkpt lat="33.5380322" lon="9.8872438"><ele>437.0</ele><time>2026-04-17T08:11:53.858Z</time></trkpt><trkpt lat="33.538029" lon="9.8873978"><ele>436.99999999999994</ele><time>2026-04-17T08:11:55.856Z</time></trkpt><trkpt lat="33.5380269" lon="9.8874839"><ele>437.0</ele><time>2026-04-17T08:11:56.857Z</time></trkpt><trkpt lat="33.5380236" lon="9.8875667"><ele>437.0</ele><time>2026-04-17T08:11:57.858Z</time></trkpt><trkpt lat="33.5380128" lon="9.8877071"><ele>437.0</ele><time>2026-04-17T08:11:59.855Z</time></trkpt><trkpt lat="33.5380071" lon="9.8878288"><ele>436.99999999999994</ele><time>2026-04-17T08:12:01.86Z</time></trkpt><trkpt lat="33.5379809" lon="9.8879034"><ele>437.0</ele><time>2026-04-17T08:12:03.851Z</time></trkpt><trkpt lat="33.5379703" lon="9.8879927"><ele>436.99999999999994</ele><time>2026-04-17T08:12:32.877Z</time></trkpt><trkpt lat="33.5379144" lon="9.888041"><ele>437.0</ele><time>2026-04-17T08:12:34.882Z</time></trkpt><trkpt lat="33.5378349" lon="9.8880336"><ele>437.0</ele><time>2026-04-17T08:12:38.874Z</time></trkpt><trkpt lat="33.537781" lon="9.8879918"><ele>437.0</ele><time>2026-04-17T08:12:41.866Z</time></trkpt><trkpt lat="33.5378439" lon="9.8880577"><ele>436.99999999999994</ele><time>2026-04-17T08:13:23.862Z</time></trkpt><trkpt lat="33.5379177" lon="9.8880263"><ele>437.0</ele><time>2026-04-17T08:13:25.86Z</time></trkpt><trkpt lat="33.5379763" lon="9.8879428"><ele>436.99999999999994</ele><time>2026-04-17T08:13:27.855Z</time></trkpt><trkpt lat="33.5379979" lon="9.887859"><ele>437.0</ele><time>2026-04-17T08:13:29.862Z</time></trkpt><trkpt lat="33.5380071" lon="9.8877724"><ele>437.0</ele><time>2026-04-17T08:13:31.868Z</time></trkpt><trkpt lat="33.5380169" lon="9.8876353"><ele>437.0</ele><time>2026-04-17T08:13:33.852Z</time></trkpt><trkpt lat="33.5380253" lon="9.8875413"><ele>436.99999999999994</ele><time>2026-04-17T08:13:34.87Z</time></trkpt><trkpt lat="33.5380182" lon="9.887435"><ele>437.0</ele><time>2026-04-17T08:13:35.861Z</time></trkpt><trkpt lat="33.5380128" lon="9.8873231"><ele>436.99999999999994</ele><time>2026-04-17T08:13:36.869Z</time></trkpt><trkpt lat="33.5380159" lon="9.8872158"><ele>437.0</ele><time>2026-04-17T08:13:37.861Z</time></trkpt><trkpt lat="33.538022" lon="9.8871188"><ele>437.0</ele><time>2026-04-17T08:13:38.847Z</time></trkpt><trkpt lat="33.5380347" lon="9.887017"><ele>437.0</ele><time>2026-04-17T08:13:40.858Z</time></trkpt><trkpt lat="33.538079" lon="9.886929"><ele>436.99999999999994</ele><time>2026-04-17T08:13:43.871Z</time></trkpt><trkpt lat="33.5381184" lon="9.8868626"><ele>437.0</ele><time>2026-04-17T08:14:31.864Z</time></trkpt><trkpt lat="33.5381361" lon="9.8867647"><ele>437.20000000000005</ele><time>2026-04-17T08:14:33.865Z</time></trkpt><trkpt lat="33.5381488" lon="9.8866668"><ele>437.40000000000003</ele><time>2026-04-17T08:14:34.852Z</time></trkpt><trkpt lat="33.5381664" lon="9.8865372"><ele>437.59999999999997</ele><time>2026-04-17T08:14:35.858Z</time></trkpt><trkpt lat="33.5381714" lon="9.8864063"><ele>437.79999999999995</ele><time>2026-04-17T08:14:36.938Z</time></trkpt><trkpt lat="33.5381746" lon="9.8862715"><ele>438.0</ele><time>2026-04-17T08:14:37.953Z</time></trkpt><trkpt lat="33.5381733" lon="9.8861309"><ele>438.0</ele><time>2026-04-17T08:14:38.95Z</time></trkpt><trkpt lat="33.5381674" lon="9.8859783"><ele>438.0</ele><time>2026-04-17T08:14:39.954Z</time></trkpt><trkpt lat="33.5381644" lon="9.8858268"><ele>438.0</ele><time>2026-04-17T08:14:40.955Z</time></trkpt><trkpt lat="33.5381636" lon="9.8856588"><ele>438.0</ele><time>2026-04-17T08:14:41.948Z</time></trkpt><trkpt lat="33.5381551" lon="9.8855295"><ele>438.33333333333337</ele><time>2026-04-17T08:14:43.126Z</time></trkpt><trkpt lat="33.5380973" lon="9.8852766"><ele>438.6666666666667</ele><time>2026-04-17T08:14:44.959Z</time></trkpt><trkpt lat="33.538042" lon="9.8851542"><ele>439.0</ele><time>2026-04-17T08:14:45.935Z</time></trkpt><trkpt lat="33.5379697" lon="9.8850252"><ele>440.33333333333337</ele><time>2026-04-17T08:14:46.943Z</time></trkpt><trkpt lat="33.5379076" lon="9.8848588"><ele>441.66666666666663</ele><time>2026-04-17T08:14:47.969Z</time></trkpt><trkpt lat="33.537815" lon="9.8847168"><ele>443.0</ele><time>2026-04-17T08:14:48.947Z</time></trkpt><trkpt lat="33.5377173" lon="9.8845768"><ele>443.0</ele><time>2026-04-17T08:14:49.976Z</time></trkpt><trkpt lat="33.5376198" lon="9.884439"><ele>443.0</ele><time>2026-04-17T08:14:50.967Z</time></trkpt><trkpt lat="33.5375216" lon="9.8842957"><ele>443.0</ele><time>2026-04-17T08:14:51.968Z</time></trkpt><trkpt lat="33.5374208" lon="9.8841506"><ele>442.66666666666663</ele><time>2026-04-17T08:14:52.969Z</time></trkpt><trkpt lat="33.5373198" lon="9.8840035"><ele>442.33333333333337</ele><time>2026-04-17T08:14:53.98Z</time></trkpt><trkpt lat="33.5372175" lon="9.8838544"><ele>442.0</ele><time>2026-04-17T08:14:54.97Z</time></trkpt><trkpt lat="33.5371146" lon="9.8837011"><ele>442.6666666666667</ele><time>2026-04-17T08:14:55.975Z</time></trkpt><trkpt lat="33.5370096" lon="9.8835467"><ele>443.33333333333337</ele><time>2026-04-17T08:14:56.981Z</time></trkpt><trkpt lat="33.5369108" lon="9.8833934"><ele>444.0</ele><time>2026-04-17T08:14:57.98Z</time></trkpt><trkpt lat="33.5368242" lon="9.8832397"><ele>445.66666666666663</ele><time>2026-04-17T08:14:58.962Z</time></trkpt><trkpt lat="33.5367573" lon="9.8830775"><ele>447.3333333333333</ele><time>2026-04-17T08:14:59.969Z</time></trkpt><trkpt lat="33.5367155" lon="9.8829034"><ele>449.0</ele><time>2026-04-17T08:15:00.943Z</time></trkpt><trkpt lat="33.5367098" lon="9.8827256"><ele>449.0</ele><time>2026-04-17T08:15:01.946Z</time></trkpt><trkpt lat="33.5367317" lon="9.8825409"><ele>449.0</ele><time>2026-04-17T08:15:02.932Z</time></trkpt><trkpt lat="33.5367566" lon="9.8823528"><ele>449.0</ele><time>2026-04-17T08:15:03.948Z</time></trkpt><trkpt lat="33.5367976" lon="9.8821606"><ele>449.0</ele><time>2026-04-17T08:15:04.958Z</time></trkpt><trkpt lat="33.5368443" lon="9.8819672"><ele>449.0</ele><time>2026-04-17T08:15:05.968Z</time></trkpt><trkpt lat="33.5368916" lon="9.881773"><ele>449.0</ele><time>2026-04-17T08:15:06.97Z</time></trkpt><trkpt lat="33.5369417" lon="9.8815758"><ele>448.3333333333333</ele><time>2026-04-17T08:15:07.957Z</time></trkpt><trkpt lat="33.5369797" lon="9.881383"><ele>447.66666666666663</ele><time>2026-04-17T08:15:08.962Z</time></trkpt><trkpt lat="33.5370315" lon="9.8811867"><ele>447.0</ele><time>2026-04-17T08:15:09.953Z</time></trkpt><trkpt lat="33.5370402" lon="9.8809889"><ele>445.66666666666663</ele><time>2026-04-17T08:15:10.944Z</time></trkpt><trkpt lat="33.5370296" lon="9.8807956"><ele>444.3333333333333</ele><time>2026-04-17T08:15:11.948Z</time></trkpt><trkpt lat="33.5369742" lon="9.8806019"><ele>443.0</ele><time>2026-04-17T08:15:12.934Z</time></trkpt><trkpt lat="33.5368828" lon="9.8804153"><ele>443.0</ele><time>2026-04-17T08:15:13.927Z</time></trkpt><trkpt lat="33.5367692" lon="9.8802384"><ele>443.0</ele><time>2026-04-17T08:15:14.931Z</time></trkpt><trkpt lat="33.5366483" lon="9.8800754"><ele>443.0</ele><time>2026-04-17T08:15:15.938Z</time></trkpt><trkpt lat="33.5365222" lon="9.8799035"><ele>443.3333333333333</ele><time>2026-04-17T08:15:16.966Z</time></trkpt><trkpt lat="33.536395" lon="9.8797265"><ele>443.66666666666663</ele><time>2026-04-17T08:15:17.959Z</time></trkpt><trkpt lat="33.5362696" lon="9.8795407"><ele>444.0</ele><time>2026-04-17T08:15:18.982Z</time></trkpt><trkpt lat="33.5361506" lon="9.879351"><ele>444.33333333333337</ele><time>2026-04-17T08:15:19.958Z</time></trkpt><trkpt lat="33.536037" lon="9.8791577"><ele>444.6666666666667</ele><time>2026-04-17T08:15:20.953Z</time></trkpt><trkpt lat="33.5359456" lon="9.8789643"><ele>445.0</ele><time>2026-04-17T08:15:21.94Z</time></trkpt><trkpt lat="33.535891" lon="9.8787697"><ele>445.0</ele><time>2026-04-17T08:15:22.942Z</time></trkpt><trkpt lat="33.5358695" lon="9.8785723"><ele>445.0</ele><time>2026-04-17T08:15:23.933Z</time></trkpt><trkpt lat="33.5358914" lon="9.8783702"><ele>445.0</ele><time>2026-04-17T08:15:24.919Z</time></trkpt><trkpt lat="33.5359134" lon="9.8781771"><ele>444.0</ele><time>2026-04-17T08:15:25.919Z</time></trkpt><trkpt lat="33.5359533" lon="9.87799"><ele>443.0</ele><time>2026-04-17T08:15:26.929Z</time></trkpt><trkpt lat="33.5360003" lon="9.8778007"><ele>442.0</ele><time>2026-04-17T08:15:27.932Z</time></trkpt><trkpt lat="33.536061" lon="9.8776096"><ele>441.33333333333337</ele><time>2026-04-17T08:15:28.959Z</time></trkpt><trkpt lat="33.5361231" lon="9.8774151"><ele>440.66666666666663</ele><time>2026-04-17T08:15:29.956Z</time></trkpt><trkpt lat="33.5361856" lon="9.8772198"><ele>440.0</ele><time>2026-04-17T08:15:30.969Z</time></trkpt><trkpt lat="33.5362482" lon="9.8770233"><ele>439.66666666666663</ele><time>2026-04-17T08:15:31.972Z</time></trkpt><trkpt lat="33.5363126" lon="9.8768168"><ele>439.33333333333337</ele><time>2026-04-17T08:15:32.972Z</time></trkpt><trkpt lat="33.5363759" lon="9.8766049"><ele>439.0</ele><time>2026-04-17T08:15:33.966Z</time></trkpt><trkpt lat="33.5364386" lon="9.8763983"><ele>439.0</ele><time>2026-04-17T08:15:34.963Z</time></trkpt><trkpt lat="33.5364995" lon="9.8761944"><ele>439.0</ele><time>2026-04-17T08:15:35.967Z</time></trkpt><trkpt lat="33.5365592" lon="9.8759917"><ele>439.0</ele><time>2026-04-17T08:15:36.97Z</time></trkpt><trkpt lat="33.5366188" lon="9.8757907"><ele>440.33333333333337</ele><time>2026-04-17T08:15:37.962Z</time></trkpt><trkpt lat="33.5366768" lon="9.8755887"><ele>441.66666666666663</ele><time>2026-04-17T08:15:38.973Z</time></trkpt><trkpt lat="33.536735" lon="9.8753855"><ele>443.0</ele><time>2026-04-17T08:15:39.96Z</time></trkpt><trkpt lat="33.5367938" lon="9.8751863"><ele>443.66666666666663</ele><time>2026-04-17T08:15:40.962Z</time></trkpt><trkpt lat="33.5368532" lon="9.8749826"><ele>444.33333333333337</ele><time>2026-04-17T08:15:41.963Z</time></trkpt><trkpt lat="33.5369112" lon="9.87478"><ele>445.0</ele><time>2026-04-17T08:15:42.964Z</time></trkpt><trkpt lat="33.5369646" lon="9.8745862"><ele>445.0</ele><time>2026-04-17T08:15:43.958Z</time></trkpt><trkpt lat="33.5370157" lon="9.8743991"><ele>445.0</ele><time>2026-04-17T08:15:44.982Z</time></trkpt><trkpt lat="33.5370645" lon="9.8742194"><ele>445.0</ele><time>2026-04-17T08:15:45.969Z</time></trkpt><trkpt lat="33.5371126" lon="9.8740444"><ele>445.25</ele><time>2026-04-17T08:15:46.962Z</time></trkpt><trkpt lat="33.5371563" lon="9.8738729"><ele>445.5</ele><time>2026-04-17T08:15:47.969Z</time></trkpt><trkpt lat="33.5371863" lon="9.8736994"><ele>445.75</ele><time>2026-04-17T08:15:48.961Z</time></trkpt><trkpt lat="33.5371969" lon="9.8735369"><ele>446.0</ele><time>2026-04-17T08:15:49.97Z</time></trkpt><trkpt lat="33.5371845" lon="9.8733817"><ele>445.5</ele><time>2026-04-17T08:15:50.95Z</time></trkpt><trkpt lat="33.5371448" lon="9.8732252"><ele>445.0</ele><time>2026-04-17T08:15:51.934Z</time></trkpt><trkpt lat="33.5370866" lon="9.8730739"><ele>444.5</ele><time>2026-04-17T08:15:52.932Z</time></trkpt><trkpt lat="33.537024" lon="9.8729219"><ele>444.0</ele><time>2026-04-17T08:15:53.941Z</time></trkpt><trkpt lat="33.5369474" lon="9.8727635"><ele>443.75</ele><time>2026-04-17T08:15:54.938Z</time></trkpt><trkpt lat="33.5368843" lon="9.8726041"><ele>443.5</ele><time>2026-04-17T08:15:55.968Z</time></trkpt><trkpt lat="33.5368191" lon="9.8724442"><ele>443.25</ele><time>2026-04-17T08:15:56.967Z</time></trkpt><trkpt lat="33.5367682" lon="9.8722901"><ele>443.0</ele><time>2026-04-17T08:15:57.968Z</time></trkpt><trkpt lat="33.5367187" lon="9.8721398"><ele>443.0</ele><time>2026-04-17T08:15:58.97Z</time></trkpt><trkpt lat="33.5366744" lon="9.8719846"><ele>443.0</ele><time>2026-04-17T08:15:59.977Z</time></trkpt><trkpt lat="33.5366274" lon="9.8718228"><ele>443.0</ele><time>2026-04-17T08:16:00.972Z</time></trkpt><trkpt lat="33.5365792" lon="9.8716577"><ele>443.0</ele><time>2026-04-17T08:16:01.974Z</time></trkpt><trkpt lat="33.5365329" lon="9.8714883"><ele>443.0</ele><time>2026-04-17T08:16:02.971Z</time></trkpt><trkpt lat="33.5364785" lon="9.8713164"><ele>443.0</ele><time>2026-04-17T08:16:03.961Z</time></trkpt><trkpt lat="33.5363964" lon="9.8711705"><ele>443.0</ele><time>2026-04-17T08:16:04.959Z</time></trkpt><trkpt lat="33.5362935" lon="9.8710454"><ele>443.0</ele><time>2026-04-17T08:16:05.968Z</time></trkpt><trkpt lat="33.5360295" lon="9.8707838"><ele>445.0</ele><time>2026-04-17T08:16:07.831Z</time></trkpt><trkpt lat="33.5359031" lon="9.870693"><ele>447.0</ele><time>2026-04-17T08:16:08.828Z</time></trkpt><trkpt lat="33.5358106" lon="9.8705826"><ele>449.0</ele><time>2026-04-17T08:16:09.823Z</time></trkpt><trkpt lat="33.5356975" lon="9.8704597"><ele>451.0</ele><time>2026-04-17T08:16:10.843Z</time></trkpt><trkpt lat="33.5356473" lon="9.8702931"><ele>451.0</ele><time>2026-04-17T08:16:11.826Z</time></trkpt><trkpt lat="33.5356428" lon="9.8701187"><ele>451.0</ele><time>2026-04-17T08:16:12.827Z</time></trkpt><trkpt lat="33.5356707" lon="9.869946"><ele>451.0</ele><time>2026-04-17T08:16:13.816Z</time></trkpt><trkpt lat="33.5357067" lon="9.869772"><ele>451.0</ele><time>2026-04-17T08:16:14.828Z</time></trkpt><trkpt lat="33.5357645" lon="9.8695987"><ele>451.33333333333337</ele><time>2026-04-17T08:16:15.844Z</time></trkpt><trkpt lat="33.5358536" lon="9.8694451"><ele>451.66666666666663</ele><time>2026-04-17T08:16:16.846Z</time></trkpt><trkpt lat="33.5359385" lon="9.8693001"><ele>452.0</ele><time>2026-04-17T08:16:17.851Z</time></trkpt><trkpt lat="33.5360221" lon="9.8691298"><ele>452.25</ele><time>2026-04-17T08:16:18.868Z</time></trkpt><trkpt lat="33.5361043" lon="9.8689768"><ele>452.5</ele><time>2026-04-17T08:16:19.861Z</time></trkpt><trkpt lat="33.5362024" lon="9.8688468"><ele>452.75</ele><time>2026-04-17T08:16:20.883Z</time></trkpt><trkpt lat="33.5363046" lon="9.8687367"><ele>453.0</ele><time>2026-04-17T08:16:21.864Z</time></trkpt><trkpt lat="33.5363938" lon="9.8686264"><ele>453.5</ele><time>2026-04-17T08:16:22.855Z</time></trkpt><trkpt lat="33.5364587" lon="9.86851"><ele>454.0</ele><time>2026-04-17T08:16:23.857Z</time></trkpt><trkpt lat="33.5365102" lon="9.8683778"><ele>454.5</ele><time>2026-04-17T08:16:24.851Z</time></trkpt><trkpt lat="33.53652" lon="9.8682472"><ele>455.0</ele><time>2026-04-17T08:16:25.847Z</time></trkpt><trkpt lat="33.5364993" lon="9.8681191"><ele>455.75</ele><time>2026-04-17T08:16:26.848Z</time></trkpt><trkpt lat="33.5364472" lon="9.8680116"><ele>456.5</ele><time>2026-04-17T08:16:27.839Z</time></trkpt><trkpt lat="33.5363437" lon="9.8679074"><ele>457.25</ele><time>2026-04-17T08:16:28.839Z</time></trkpt><trkpt lat="33.5362234" lon="9.8678452"><ele>458.0</ele><time>2026-04-17T08:16:29.834Z</time></trkpt><trkpt lat="33.5361156" lon="9.8677809"><ele>456.25</ele><time>2026-04-17T08:16:30.828Z</time></trkpt><trkpt lat="33.536008" lon="9.867712"><ele>454.5</ele><time>2026-04-17T08:16:31.843Z</time></trkpt><trkpt lat="33.5359163" lon="9.8676318"><ele>452.75</ele><time>2026-04-17T08:16:32.846Z</time></trkpt><trkpt lat="33.5358446" lon="9.8674965"><ele>451.0</ele><time>2026-04-17T08:16:33.851Z</time></trkpt><trkpt lat="33.535788" lon="9.8673561"><ele>451.0</ele><time>2026-04-17T08:16:34.853Z</time></trkpt><trkpt lat="33.5357632" lon="9.8672048"><ele>451.0</ele><time>2026-04-17T08:16:35.848Z</time></trkpt><trkpt lat="33.5357608" lon="9.8670491"><ele>451.0</ele><time>2026-04-17T08:16:36.834Z</time></trkpt><trkpt lat="33.5357654" lon="9.8668961"><ele>451.0</ele><time>2026-04-17T08:16:37.84Z</time></trkpt><trkpt lat="33.5357697" lon="9.8667378"><ele>450.25</ele><time>2026-04-17T08:16:38.848Z</time></trkpt><trkpt lat="33.5357675" lon="9.8665706"><ele>449.5</ele><time>2026-04-17T08:16:39.859Z</time></trkpt><trkpt lat="33.5357637" lon="9.8664018"><ele>448.75</ele><time>2026-04-17T08:16:40.852Z</time></trkpt><trkpt lat="33.5357505" lon="9.8662231"><ele>448.0</ele><time>2026-04-17T08:16:41.846Z</time></trkpt><trkpt lat="33.5357415" lon="9.8660381"><ele>447.25</ele><time>2026-04-17T08:16:42.855Z</time></trkpt><trkpt lat="33.5357756" lon="9.8658585"><ele>446.5</ele><time>2026-04-17T08:16:43.853Z</time></trkpt><trkpt lat="33.5357833" lon="9.8657057"><ele>445.75</ele><time>2026-04-17T08:16:44.855Z</time></trkpt><trkpt lat="33.5357871" lon="9.8655544"><ele>445.0</ele><time>2026-04-17T08:16:45.855Z</time></trkpt><trkpt lat="33.535785" lon="9.8654235"><ele>445.00000000000006</ele><time>2026-04-17T08:16:46.849Z</time></trkpt><trkpt lat="33.5357796" lon="9.8653113"><ele>445.0</ele><time>2026-04-17T08:16:47.848Z</time></trkpt><trkpt lat="33.5358062" lon="9.8652115"><ele>445.0</ele><time>2026-04-17T08:16:48.849Z</time></trkpt><trkpt lat="33.5358045" lon="9.8651019"><ele>445.0</ele><time>2026-04-17T08:16:49.849Z</time></trkpt><trkpt lat="33.5358135" lon="9.8650015"><ele>445.00000000000006</ele><time>2026-04-17T08:16:50.857Z</time></trkpt><trkpt lat="33.5358173" lon="9.8648987"><ele>445.0</ele><time>2026-04-17T08:16:51.864Z</time></trkpt><trkpt lat="33.5358251" lon="9.8647953"><ele>445.2</ele><time>2026-04-17T08:16:52.84Z</time></trkpt><trkpt lat="33.5358303" lon="9.864686"><ele>445.4</ele><time>2026-04-17T08:16:53.842Z</time></trkpt><trkpt lat="33.5358369" lon="9.8645768"><ele>445.6</ele><time>2026-04-17T08:16:54.857Z</time></trkpt><trkpt lat="33.5358435" lon="9.8644583"><ele>445.8</ele><time>2026-04-17T08:16:55.853Z</time></trkpt><trkpt lat="33.5358492" lon="9.8643468"><ele>446.0</ele><time>2026-04-17T08:16:56.848Z</time></trkpt><trkpt lat="33.5358451" lon="9.8642474"><ele>445.66666666666663</ele><time>2026-04-17T08:16:57.855Z</time></trkpt><trkpt lat="33.5358395" lon="9.8641533"><ele>445.3333333333333</ele><time>2026-04-17T08:16:58.851Z</time></trkpt><trkpt lat="33.5358323" lon="9.8640318"><ele>445.0</ele><time>2026-04-17T08:17:00.839Z</time></trkpt><trkpt lat="33.5358724" lon="9.8639649"><ele>444.66666666666663</ele><time>2026-04-17T08:17:04.855Z</time></trkpt><trkpt lat="33.5359163" lon="9.8638948"><ele>444.3333333333333</ele><time>2026-04-17T08:17:27.873Z</time></trkpt><trkpt lat="33.5359686" lon="9.8638082"><ele>444.0</ele><time>2026-04-17T08:19:04.885Z</time></trkpt><trkpt lat="33.5360061" lon="9.8637274"><ele>444.0</ele><time>2026-04-17T08:19:06.88Z</time></trkpt><trkpt lat="33.5360428" lon="9.8636508"><ele>444.0</ele><time>2026-04-17T08:19:08.875Z</time></trkpt><trkpt lat="33.5360108" lon="9.8635764"><ele>444.0</ele><time>2026-04-17T08:19:14.894Z</time></trkpt><trkpt lat="33.5359696" lon="9.8634884"><ele>444.0</ele><time>2026-04-17T08:19:25.894Z</time></trkpt><trkpt lat="33.5359293" lon="9.8633543"><ele>444.0</ele><time>2026-04-17T08:19:27.867Z</time></trkpt><trkpt lat="33.5358984" lon="9.8632735"><ele>444.0</ele><time>2026-04-17T08:19:28.863Z</time></trkpt><trkpt lat="33.5358603" lon="9.8631923"><ele>442.79999999999995</ele><time>2026-04-17T08:19:29.859Z</time></trkpt><trkpt lat="33.5358117" lon="9.8630954"><ele>441.59999999999997</ele><time>2026-04-17T08:19:30.857Z</time></trkpt><trkpt lat="33.5357613" lon="9.8629938"><ele>440.4</ele><time>2026-04-17T08:19:31.875Z</time></trkpt><trkpt lat="33.535706" lon="9.8628916"><ele>439.2</ele><time>2026-04-17T08:19:32.871Z</time></trkpt><trkpt lat="33.5356566" lon="9.8627891"><ele>438.0</ele><time>2026-04-17T08:19:33.953Z</time></trkpt><trkpt lat="33.5356067" lon="9.8626854"><ele>436.0</ele><time>2026-04-17T08:19:34.951Z</time></trkpt><trkpt lat="33.5355598" lon="9.8625867"><ele>433.99999999999994</ele><time>2026-04-17T08:19:35.951Z</time></trkpt><trkpt lat="33.5355082" lon="9.8624577"><ele>431.99999999999994</ele><time>2026-04-17T08:19:36.942Z</time></trkpt><trkpt lat="33.5354717" lon="9.8623863"><ele>430.0</ele><time>2026-04-17T08:19:37.94Z</time></trkpt><trkpt lat="33.5354289" lon="9.8622017"><ele>428.0</ele><time>2026-04-17T08:19:38.945Z</time></trkpt><trkpt lat="33.535437" lon="9.862051"><ele>428.0</ele><time>2026-04-17T08:19:39.949Z</time></trkpt><trkpt lat="33.5354579" lon="9.862221"><ele>428.0</ele><time>2026-04-17T08:19:42.957Z</time></trkpt><trkpt lat="33.5353991" lon="9.8623047"><ele>428.0</ele><time>2026-04-17T08:19:46.946Z</time></trkpt><trkpt lat="33.5355524" lon="9.862708"><ele>433.0</ele><time>2026-04-17T08:19:51.94Z</time></trkpt><trkpt lat="33.5356537" lon="9.8629515"><ele>438.0</ele><time>2026-04-17T08:19:54.939Z</time></trkpt><trkpt lat="33.5359176" lon="9.8634752"><ele>439.0</ele><time>2026-04-17T08:19:58.925Z</time></trkpt><trkpt lat="33.5359457" lon="9.8635675"><ele>440.0</ele><time>2026-04-17T08:19:59.938Z</time></trkpt><trkpt lat="33.5359573" lon="9.8636523"><ele>441.0</ele><time>2026-04-17T08:20:00.94Z</time></trkpt><trkpt lat="33.5359611" lon="9.8637384"><ele>442.0</ele><time>2026-04-17T08:20:01.941Z</time></trkpt><trkpt lat="33.5359452" lon="9.863854"><ele>443.0</ele><time>2026-04-17T08:20:03.925Z</time></trkpt><trkpt lat="33.5359138" lon="9.8639207"><ele>444.0</ele><time>2026-04-17T08:20:20.96Z</time></trkpt><trkpt lat="33.5359191" lon="9.8638318"><ele>444.0</ele><time>2026-04-17T08:23:35.963Z</time></trkpt><trkpt lat="33.5359457" lon="9.8636964"><ele>444.0</ele><time>2026-04-17T08:23:38.929Z</time></trkpt><trkpt lat="33.5359371" lon="9.8636133"><ele>444.0</ele><time>2026-04-17T08:23:39.935Z</time></trkpt><trkpt lat="33.5358612" lon="9.863403"><ele>444.0</ele><time>2026-04-17T08:23:41.914Z</time></trkpt><trkpt lat="33.5358222" lon="9.8633085"><ele>442.5</ele><time>2026-04-17T08:23:42.94Z</time></trkpt><trkpt lat="33.5357561" lon="9.8631576"><ele>441.0</ele><time>2026-04-17T08:23:43.931Z</time></trkpt><trkpt lat="33.5357044" lon="9.863031"><ele>439.5</ele><time>2026-04-17T08:23:44.93Z</time></trkpt><trkpt lat="33.535658" lon="9.8629271"><ele>438.0</ele><time>2026-04-17T08:23:45.932Z</time></trkpt><trkpt lat="33.5356061" lon="9.8628085"><ele>438.0</ele><time>2026-04-17T08:23:46.943Z</time></trkpt><trkpt lat="33.5355579" lon="9.8627068"><ele>438.0</ele><time>2026-04-17T08:23:47.946Z</time></trkpt><trkpt lat="33.5354995" lon="9.8625673"><ele>438.0</ele><time>2026-04-17T08:23:48.948Z</time></trkpt><trkpt lat="33.5354289" lon="9.8623984"><ele>438.0</ele><time>2026-04-17T08:23:49.946Z</time></trkpt><trkpt lat="33.5353805" lon="9.8622142"><ele>436.33333333333337</ele><time>2026-04-17T08:23:50.94Z</time></trkpt><trkpt lat="33.5353071" lon="9.8619831"><ele>434.6666666666667</ele><time>2026-04-17T08:23:51.914Z</time></trkpt><trkpt lat="33.5352279" lon="9.8617209"><ele>433.0</ele><time>2026-04-17T08:23:52.899Z</time></trkpt><trkpt lat="33.5355232" lon="9.8622411"><ele>432.0</ele><time>2026-04-17T08:23:53.822Z</time></trkpt><trkpt lat="33.5356236" lon="9.8622125"><ele>430.99999999999994</ele><time>2026-04-17T08:23:54.817Z</time></trkpt><trkpt lat="33.5357107" lon="9.8621745"><ele>429.99999999999994</ele><time>2026-04-17T08:23:55.833Z</time></trkpt><trkpt lat="33.5358198" lon="9.8621257"><ele>429.0</ele><time>2026-04-17T08:23:56.849Z</time></trkpt><trkpt lat="33.5359105" lon="9.8620589"><ele>428.0</ele><time>2026-04-17T08:23:57.858Z</time></trkpt><trkpt lat="33.5359854" lon="9.8619787"><ele>428.0</ele><time>2026-04-17T08:23:58.852Z</time></trkpt><trkpt lat="33.5360593" lon="9.8618992"><ele>427.99999999999994</ele><time>2026-04-17T08:23:59.851Z</time></trkpt><trkpt lat="33.5361392" lon="9.8618026"><ele>427.99999999999994</ele><time>2026-04-17T08:24:00.85Z</time></trkpt><trkpt lat="33.5362223" lon="9.8616927"><ele>428.0</ele><time>2026-04-17T08:24:01.849Z</time></trkpt><trkpt lat="33.5362936" lon="9.861596"><ele>428.0</ele><time>2026-04-17T08:24:02.846Z</time></trkpt><trkpt lat="33.53636" lon="9.8615206"><ele>426.8333333333333</ele><time>2026-04-17T08:24:03.862Z</time></trkpt><trkpt lat="33.5364408" lon="9.8614605"><ele>425.66666666666663</ele><time>2026-04-17T08:24:04.853Z</time></trkpt><trkpt lat="33.53653" lon="9.8614047"><ele>424.5</ele><time>2026-04-17T08:24:05.848Z</time></trkpt><trkpt lat="33.5366027" lon="9.861357"><ele>423.33333333333337</ele><time>2026-04-17T08:24:06.846Z</time></trkpt><trkpt lat="33.5366678" lon="9.8613193"><ele>422.1666666666667</ele><time>2026-04-17T08:24:07.846Z</time></trkpt><trkpt lat="33.5367566" lon="9.8613142"><ele>421.0</ele><time>2026-04-17T08:24:09.841Z</time></trkpt><trkpt lat="33.5368356" lon="9.8612845"><ele>421.0</ele><time>2026-04-17T08:24:13.846Z</time></trkpt><trkpt lat="33.5368759" lon="9.8612066"><ele>421.0</ele><time>2026-04-17T08:24:15.845Z</time></trkpt><trkpt lat="33.5369183" lon="9.8611023"><ele>421.0</ele><time>2026-04-17T08:24:17.844Z</time></trkpt><trkpt lat="33.5369682" lon="9.8609951"><ele>421.0</ele><time>2026-04-17T08:24:19.837Z</time></trkpt><trkpt lat="33.5370236" lon="9.8609003"><ele>421.0</ele><time>2026-04-17T08:24:21.844Z</time></trkpt><trkpt lat="33.5371364" lon="9.8608439"><ele>420.8</ele><time>2026-04-17T08:24:23.844Z</time></trkpt><trkpt lat="33.5372487" lon="9.8608102"><ele>420.6</ele><time>2026-04-17T08:24:25.843Z</time></trkpt><trkpt lat="33.537303" lon="9.8607422"><ele>420.4</ele><time>2026-04-17T08:24:27.853Z</time></trkpt><trkpt lat="33.5373178" lon="9.8606277"><ele>420.2</ele><time>2026-04-17T08:24:29.85Z</time></trkpt><trkpt lat="33.5373193" lon="9.8605463"><ele>420.0</ele><time>2026-04-17T08:24:30.848Z</time></trkpt><trkpt lat="33.5373225" lon="9.8604295"><ele>420.0</ele><time>2026-04-17T08:24:32.837Z</time></trkpt><trkpt lat="33.5373143" lon="9.8603423"><ele>420.0</ele><time>2026-04-17T08:24:35.845Z</time></trkpt><trkpt lat="33.537303" lon="9.8602479"><ele>420.0</ele><time>2026-04-17T08:24:37.849Z</time></trkpt><trkpt lat="33.5372492" lon="9.8601051"><ele>420.0</ele><time>2026-04-17T08:24:39.848Z</time></trkpt><trkpt lat="33.5372199" lon="9.8600295"><ele>420.0</ele><time>2026-04-17T08:24:40.848Z</time></trkpt><trkpt lat="33.5371794" lon="9.8599137"><ele>418.5</ele><time>2026-04-17T08:24:42.847Z</time></trkpt><trkpt lat="33.5371717" lon="9.8598039"><ele>417.0</ele><time>2026-04-17T08:24:44.836Z</time></trkpt><trkpt lat="33.5371839" lon="9.8596512"><ele>415.5</ele><time>2026-04-17T08:24:46.843Z</time></trkpt><trkpt lat="33.5371826" lon="9.8595621"><ele>414.0</ele><time>2026-04-17T08:24:47.846Z</time></trkpt><trkpt lat="33.5371796" lon="9.8594743"><ele>412.5</ele><time>2026-04-17T08:24:48.854Z</time></trkpt><trkpt lat="33.5371783" lon="9.8593959"><ele>411.0</ele><time>2026-04-17T08:24:49.858Z</time></trkpt><trkpt lat="33.5371673" lon="9.8593206"><ele>410.20000000000005</ele><time>2026-04-17T08:24:50.857Z</time></trkpt><trkpt lat="33.5371579" lon="9.8592442"><ele>409.40000000000003</ele><time>2026-04-17T08:24:51.861Z</time></trkpt><trkpt lat="33.5371502" lon="9.8590996"><ele>408.6</ele><time>2026-04-17T08:24:53.854Z</time></trkpt><trkpt lat="33.5371688" lon="9.8589611"><ele>407.8</ele><time>2026-04-17T08:24:55.85Z</time></trkpt><trkpt lat="33.5372206" lon="9.8588471"><ele>407.0</ele><time>2026-04-17T08:24:57.849Z</time></trkpt><trkpt lat="33.537262" lon="9.8587327"><ele>407.0</ele><time>2026-04-17T08:24:59.855Z</time></trkpt><trkpt lat="33.537286" lon="9.8585945"><ele>407.0</ele><time>2026-04-17T08:25:01.851Z</time></trkpt><trkpt lat="33.5372978" lon="9.8585172"><ele>407.0</ele><time>2026-04-17T08:25:02.845Z</time></trkpt><trkpt lat="33.5373347" lon="9.858396"><ele>407.0</ele><time>2026-04-17T08:25:04.842Z</time></trkpt><trkpt lat="33.537375" lon="9.8582931"><ele>407.0</ele><time>2026-04-17T08:25:06.838Z</time></trkpt><trkpt lat="33.5374135" lon="9.8581509"><ele>406.66666666666663</ele><time>2026-04-17T08:25:08.844Z</time></trkpt><trkpt lat="33.5374324" lon="9.8580757"><ele>406.3333333333333</ele><time>2026-04-17T08:25:09.85Z</time></trkpt><trkpt lat="33.5374622" lon="9.8579554"><ele>406.0</ele><time>2026-04-17T08:25:11.85Z</time></trkpt><trkpt lat="33.5374685" lon="9.8578723"><ele>405.66666666666663</ele><time>2026-04-17T08:25:13.842Z</time></trkpt><trkpt lat="33.5374503" lon="9.8577981"><ele>405.3333333333333</ele><time>2026-04-17T08:25:15.842Z</time></trkpt><trkpt lat="33.5374006" lon="9.8577038"><ele>405.0</ele><time>2026-04-17T08:25:17.842Z</time></trkpt><trkpt lat="33.5373621" lon="9.8576331"><ele>405.0</ele><time>2026-04-17T08:25:18.845Z</time></trkpt><trkpt lat="33.537328" lon="9.8575695"><ele>405.0</ele><time>2026-04-17T08:25:19.85Z</time></trkpt><trkpt lat="33.5372789" lon="9.8574818"><ele>405.0</ele><time>2026-04-17T08:25:21.848Z</time></trkpt><trkpt lat="33.5373031" lon="9.8573851"><ele>405.0</ele><time>2026-04-17T08:25:25.855Z</time></trkpt><trkpt lat="33.5372828" lon="9.8575029"><ele>405.0</ele><time>2026-04-17T08:25:41.846Z</time></trkpt><trkpt lat="33.5373114" lon="9.8575991"><ele>405.0</ele><time>2026-04-17T08:25:42.843Z</time></trkpt><trkpt lat="33.5373483" lon="9.8576983"><ele>405.0</ele><time>2026-04-17T08:25:43.852Z</time></trkpt><trkpt lat="33.5373912" lon="9.8577815"><ele>405.0</ele><time>2026-04-17T08:25:44.844Z</time></trkpt><trkpt lat="33.5374358" lon="9.8578691"><ele>405.0</ele><time>2026-04-17T08:25:45.84Z</time></trkpt><trkpt lat="33.5374631" lon="9.857956"><ele>405.0</ele><time>2026-04-17T08:25:46.833Z</time></trkpt><trkpt lat="33.5374714" lon="9.8580343"><ele>405.0</ele><time>2026-04-17T08:25:47.841Z</time></trkpt><trkpt lat="33.5374645" lon="9.8581286"><ele>405.0</ele><time>2026-04-17T08:25:48.838Z</time></trkpt><trkpt lat="33.5374427" lon="9.8582383"><ele>405.0</ele><time>2026-04-17T08:25:49.839Z</time></trkpt><trkpt lat="33.537399" lon="9.8583514"><ele>405.0</ele><time>2026-04-17T08:25:50.834Z</time></trkpt><trkpt lat="33.537354" lon="9.8584756"><ele>405.0</ele><time>2026-04-17T08:25:51.85Z</time></trkpt><trkpt lat="33.5373047" lon="9.8585943"><ele>405.0</ele><time>2026-04-17T08:25:52.849Z</time></trkpt><trkpt lat="33.5372662" lon="9.8586912"><ele>405.0</ele><time>2026-04-17T08:25:53.848Z</time></trkpt><trkpt lat="33.5372483" lon="9.8587824"><ele>405.3333333333333</ele><time>2026-04-17T08:25:54.835Z</time></trkpt><trkpt lat="33.5372332" lon="9.8588831"><ele>405.66666666666663</ele><time>2026-04-17T08:25:55.843Z</time></trkpt><trkpt lat="33.5372037" lon="9.8589852"><ele>406.0</ele><time>2026-04-17T08:25:56.844Z</time></trkpt><trkpt lat="33.5371764" lon="9.8590769"><ele>406.3333333333333</ele><time>2026-04-17T08:25:57.838Z</time></trkpt><trkpt lat="33.5371594" lon="9.8591725"><ele>406.66666666666663</ele><time>2026-04-17T08:25:58.846Z</time></trkpt><trkpt lat="33.5371649" lon="9.8592785"><ele>407.0</ele><time>2026-04-17T08:25:59.846Z</time></trkpt><trkpt lat="33.5371868" lon="9.8593901"><ele>407.66666666666663</ele><time>2026-04-17T08:26:00.858Z</time></trkpt><trkpt lat="33.5372139" lon="9.8594981"><ele>408.3333333333333</ele><time>2026-04-17T08:26:01.855Z</time></trkpt><trkpt lat="33.5372303" lon="9.8596124"><ele>409.0</ele><time>2026-04-17T08:26:02.848Z</time></trkpt><trkpt lat="33.5372302" lon="9.859725"><ele>409.66666666666663</ele><time>2026-04-17T08:26:03.844Z</time></trkpt><trkpt lat="33.5372179" lon="9.8598191"><ele>410.3333333333333</ele><time>2026-04-17T08:26:04.85Z</time></trkpt><trkpt lat="33.5372067" lon="9.8599138"><ele>411.0</ele><time>2026-04-17T08:26:05.849Z</time></trkpt><trkpt lat="33.5372029" lon="9.8600058"><ele>411.0</ele><time>2026-04-17T08:26:06.851Z</time></trkpt><trkpt lat="33.5372048" lon="9.8600999"><ele>411.0</ele><time>2026-04-17T08:26:07.864Z</time></trkpt><trkpt lat="33.537223" lon="9.8601856"><ele>411.0</ele><time>2026-04-17T08:26:08.852Z</time></trkpt><trkpt lat="33.5372594" lon="9.8602756"><ele>411.0</ele><time>2026-04-17T08:26:09.849Z</time></trkpt><trkpt lat="33.5372885" lon="9.8603701"><ele>411.0</ele><time>2026-04-17T08:26:10.848Z</time></trkpt><trkpt lat="33.5373113" lon="9.8604694"><ele>411.0</ele><time>2026-04-17T08:26:11.839Z</time></trkpt><trkpt lat="33.5373095" lon="9.8605725"><ele>411.8333333333333</ele><time>2026-04-17T08:26:12.839Z</time></trkpt><trkpt lat="33.537293" lon="9.8606728"><ele>412.66666666666663</ele><time>2026-04-17T08:26:13.85Z</time></trkpt><trkpt lat="33.5372729" lon="9.8607653"><ele>413.5</ele><time>2026-04-17T08:26:14.839Z</time></trkpt><trkpt lat="33.5372362" lon="9.8608325"><ele>414.3333333333333</ele><time>2026-04-17T08:26:15.835Z</time></trkpt><trkpt lat="33.5371773" lon="9.8608776"><ele>415.16666666666663</ele><time>2026-04-17T08:26:16.833Z</time></trkpt><trkpt lat="33.5370983" lon="9.8609099"><ele>416.0</ele><time>2026-04-17T08:26:17.832Z</time></trkpt><trkpt lat="33.5370101" lon="9.860935"><ele>416.8333333333333</ele><time>2026-04-17T08:26:18.836Z</time></trkpt><trkpt lat="33.5369362" lon="9.8609826"><ele>417.66666666666663</ele><time>2026-04-17T08:26:19.837Z</time></trkpt><trkpt lat="33.5368696" lon="9.8610296"><ele>418.5</ele><time>2026-04-17T08:26:20.834Z</time></trkpt><trkpt lat="33.536817" lon="9.861103"><ele>419.33333333333337</ele><time>2026-04-17T08:26:21.845Z</time></trkpt><trkpt lat="33.5367743" lon="9.8611937"><ele>420.1666666666667</ele><time>2026-04-17T08:26:22.841Z</time></trkpt><trkpt lat="33.5367287" lon="9.8612838"><ele>421.0</ele><time>2026-04-17T08:26:23.841Z</time></trkpt><trkpt lat="33.5366807" lon="9.8613625"><ele>421.0</ele><time>2026-04-17T08:26:24.842Z</time></trkpt><trkpt lat="33.5366046" lon="9.8614498"><ele>421.0</ele><time>2026-04-17T08:26:26.876Z</time></trkpt><trkpt lat="33.5365251" lon="9.8613987"><ele>421.0</ele><time>2026-04-17T08:26:33.86Z</time></trkpt><trkpt lat="33.5364017" lon="9.861415"><ele>421.0</ele><time>2026-04-17T08:26:35.853Z</time></trkpt><trkpt lat="33.5363362" lon="9.8614493"><ele>421.0</ele><time>2026-04-17T08:26:36.856Z</time></trkpt><trkpt lat="33.5362658" lon="9.861504"><ele>421.20000000000005</ele><time>2026-04-17T08:26:37.857Z</time></trkpt><trkpt lat="33.5361867" lon="9.8615801"><ele>421.40000000000003</ele><time>2026-04-17T08:26:38.896Z</time></trkpt><trkpt lat="33.5361221" lon="9.8616775"><ele>421.6</ele><time>2026-04-17T08:26:39.872Z</time></trkpt><trkpt lat="33.5360615" lon="9.8617868"><ele>421.8</ele><time>2026-04-17T08:26:40.874Z</time></trkpt><trkpt lat="33.5359899" lon="9.8618892"><ele>422.0</ele><time>2026-04-17T08:26:41.878Z</time></trkpt><trkpt lat="33.5359042" lon="9.8619755"><ele>423.5</ele><time>2026-04-17T08:26:42.868Z</time></trkpt><trkpt lat="33.5358159" lon="9.862051"><ele>425.0</ele><time>2026-04-17T08:26:43.86Z</time></trkpt><trkpt lat="33.5357291" lon="9.8621375"><ele>426.5</ele><time>2026-04-17T08:26:44.87Z</time></trkpt><trkpt lat="33.5356249" lon="9.8622152"><ele>428.0</ele><time>2026-04-17T08:26:45.868Z</time></trkpt><trkpt lat="33.5355247" lon="9.8622825"><ele>428.0</ele><time>2026-04-17T08:26:46.863Z</time></trkpt><trkpt lat="33.5354363" lon="9.8623441"><ele>427.99999999999994</ele><time>2026-04-17T08:26:47.86Z</time></trkpt><trkpt lat="33.5353706" lon="9.8624147"><ele>427.99999999999994</ele><time>2026-04-17T08:26:48.857Z</time></trkpt><trkpt lat="33.5353426" lon="9.8624904"><ele>428.0</ele><time>2026-04-17T08:26:49.876Z</time></trkpt><trkpt lat="33.53543" lon="9.8625996"><ele>428.0</ele><time>2026-04-17T08:26:51.849Z</time></trkpt><trkpt lat="33.5354967" lon="9.8626758"><ele>430.5</ele><time>2026-04-17T08:26:52.862Z</time></trkpt><trkpt lat="33.5355537" lon="9.8627749"><ele>433.0</ele><time>2026-04-17T08:26:53.857Z</time></trkpt><trkpt lat="33.5356122" lon="9.86289"><ele>435.5</ele><time>2026-04-17T08:26:54.859Z</time></trkpt><trkpt lat="33.5356807" lon="9.863009"><ele>438.0</ele><time>2026-04-17T08:26:55.86Z</time></trkpt><trkpt lat="33.5357477" lon="9.863133"><ele>438.0</ele><time>2026-04-17T08:26:56.859Z</time></trkpt><trkpt lat="33.535809" lon="9.8632611"><ele>437.99999999999994</ele><time>2026-04-17T08:26:57.856Z</time></trkpt><trkpt lat="33.535867" lon="9.8633789"><ele>437.99999999999994</ele><time>2026-04-17T08:26:58.858Z</time></trkpt><trkpt lat="33.5359136" lon="9.8634697"><ele>438.0</ele><time>2026-04-17T08:26:59.854Z</time></trkpt><trkpt lat="33.5359509" lon="9.8635566"><ele>438.0</ele><time>2026-04-17T08:27:00.857Z</time></trkpt><trkpt lat="33.5359712" lon="9.8636314"><ele>438.8571428571429</ele><time>2026-04-17T08:27:01.861Z</time></trkpt><trkpt lat="33.5359713" lon="9.8637159"><ele>439.71428571428567</ele><time>2026-04-17T08:27:02.866Z</time></trkpt><trkpt lat="33.5359624" lon="9.863792"><ele>440.57142857142856</ele><time>2026-04-17T08:27:03.863Z</time></trkpt><trkpt lat="33.5358968" lon="9.8638978"><ele>441.42857142857144</ele><time>2026-04-17T08:27:05.858Z</time></trkpt><trkpt lat="33.5358524" lon="9.8639592"><ele>442.28571428571433</ele><time>2026-04-17T08:27:07.862Z</time></trkpt><trkpt lat="33.5358742" lon="9.8638873"><ele>443.1428571428571</ele><time>2026-04-17T08:31:01.883Z</time></trkpt><trkpt lat="33.5358083" lon="9.8638897"><ele>444.0</ele><time>2026-04-17T08:31:04.881Z</time></trkpt><trkpt lat="33.5357691" lon="9.8639674"><ele>444.0</ele><time>2026-04-17T08:31:07.875Z</time></trkpt><trkpt lat="33.535804" lon="9.8640453"><ele>444.0</ele><time>2026-04-17T08:31:15.868Z</time></trkpt><trkpt lat="33.5357949" lon="9.863958"><ele>444.0</ele><time>2026-04-17T08:31:39.867Z</time></trkpt><trkpt lat="33.5357258" lon="9.8639608"><ele>444.0</ele><time>2026-04-17T08:31:41.878Z</time></trkpt><trkpt lat="33.5356123" lon="9.863928"><ele>444.0</ele><time>2026-04-17T08:31:43.863Z</time></trkpt><trkpt lat="33.5355524" lon="9.8638945"><ele>444.0</ele><time>2026-04-17T08:31:44.863Z</time></trkpt><trkpt lat="33.5354465" lon="9.8638317"><ele>443.1666666666667</ele><time>2026-04-17T08:31:46.876Z</time></trkpt><trkpt lat="33.5353265" lon="9.8637691"><ele>442.33333333333337</ele><time>2026-04-17T08:31:48.86Z</time></trkpt><trkpt lat="33.5352636" lon="9.863731"><ele>441.5</ele><time>2026-04-17T08:31:49.869Z</time></trkpt><trkpt lat="33.5351966" lon="9.863686"><ele>440.6666666666667</ele><time>2026-04-17T08:31:50.861Z</time></trkpt><trkpt lat="33.5351288" lon="9.86364"><ele>439.83333333333337</ele><time>2026-04-17T08:31:51.861Z</time></trkpt><trkpt lat="33.5350698" lon="9.8635958"><ele>439.0</ele><time>2026-04-17T08:31:52.858Z</time></trkpt><trkpt lat="33.5350098" lon="9.8635515"><ele>439.00000000000006</ele><time>2026-04-17T08:31:53.862Z</time></trkpt><trkpt lat="33.5349506" lon="9.8635161"><ele>439.0</ele><time>2026-04-17T08:31:54.861Z</time></trkpt><trkpt lat="33.5348519" lon="9.8634275"><ele>439.0</ele><time>2026-04-17T08:31:56.858Z</time></trkpt><trkpt lat="33.5348004" lon="9.8633755"><ele>439.0</ele><time>2026-04-17T08:31:57.858Z</time></trkpt><trkpt lat="33.5347486" lon="9.863316"><ele>439.00000000000006</ele><time>2026-04-17T08:31:58.868Z</time></trkpt><trkpt lat="33.5347018" lon="9.8632526"><ele>439.0</ele><time>2026-04-17T08:31:59.866Z</time></trkpt><trkpt lat="33.5346492" lon="9.863189"><ele>439.1666666666667</ele><time>2026-04-17T08:32:00.862Z</time></trkpt><trkpt lat="33.5345967" lon="9.8631136"><ele>439.33333333333337</ele><time>2026-04-17T08:32:01.864Z</time></trkpt><trkpt lat="33.5345474" lon="9.8630305"><ele>439.5</ele><time>2026-04-17T08:32:02.871Z</time></trkpt><trkpt lat="33.5345011" lon="9.8629541"><ele>439.66666666666663</ele><time>2026-04-17T08:32:03.872Z</time></trkpt><trkpt lat="33.5344548" lon="9.8628754"><ele>439.8333333333333</ele><time>2026-04-17T08:32:04.869Z</time></trkpt><trkpt lat="33.5344054" lon="9.8627951"><ele>440.0</ele><time>2026-04-17T08:32:05.873Z</time></trkpt><trkpt lat="33.5343606" lon="9.8627184"><ele>439.99999999999994</ele><time>2026-04-17T08:32:06.871Z</time></trkpt><trkpt lat="33.5343081" lon="9.8626446"><ele>440.0</ele><time>2026-04-17T08:32:07.865Z</time></trkpt><trkpt lat="33.5342433" lon="9.8625789"><ele>440.0</ele><time>2026-04-17T08:32:08.862Z</time></trkpt><trkpt lat="33.5341786" lon="9.8625343"><ele>440.0</ele><time>2026-04-17T08:32:09.874Z</time></trkpt><trkpt lat="33.5341195" lon="9.8625023"><ele>439.99999999999994</ele><time>2026-04-17T08:32:10.872Z</time></trkpt><trkpt lat="33.5340556" lon="9.862479"><ele>440.0</ele><time>2026-04-17T08:32:11.868Z</time></trkpt><trkpt lat="33.5339285" lon="9.8624516"><ele>440.16666666666663</ele><time>2026-04-17T08:32:13.879Z</time></trkpt><trkpt lat="33.533861" lon="9.8624335"><ele>440.3333333333333</ele><time>2026-04-17T08:32:14.871Z</time></trkpt><trkpt lat="33.5337989" lon="9.8624159"><ele>440.5</ele><time>2026-04-17T08:32:15.865Z</time></trkpt><trkpt lat="33.5337811" lon="9.8624963"><ele>440.66666666666663</ele><time>2026-04-17T08:44:25.876Z</time></trkpt><trkpt lat="33.5338943" lon="9.8625469"><ele>440.8333333333333</ele><time>2026-04-17T08:44:27.865Z</time></trkpt><trkpt lat="33.5339606" lon="9.8625497"><ele>441.0</ele><time>2026-04-17T08:44:28.86Z</time></trkpt><trkpt lat="33.5340881" lon="9.8625738"><ele>441.0</ele><time>2026-04-17T08:44:30.87Z</time></trkpt><trkpt lat="33.5341585" lon="9.8625985"><ele>441.0</ele><time>2026-04-17T08:44:31.868Z</time></trkpt><trkpt lat="33.5342374" lon="9.8626207"><ele>441.0</ele><time>2026-04-17T08:44:32.858Z</time></trkpt><trkpt lat="33.5343026" lon="9.8626515"><ele>441.0</ele><time>2026-04-17T08:44:33.852Z</time></trkpt><trkpt lat="33.5343582" lon="9.862701"><ele>441.0</ele><time>2026-04-17T08:44:34.857Z</time></trkpt><trkpt lat="33.5343971" lon="9.8627684"><ele>441.0</ele><time>2026-04-17T08:44:35.863Z</time></trkpt><trkpt lat="33.534438" lon="9.8628402"><ele>441.0</ele><time>2026-04-17T08:44:36.872Z</time></trkpt><trkpt lat="33.5344685" lon="9.8629257"><ele>440.8333333333333</ele><time>2026-04-17T08:44:37.862Z</time></trkpt><trkpt lat="33.53451" lon="9.8629924"><ele>440.66666666666663</ele><time>2026-04-17T08:44:38.862Z</time></trkpt><trkpt lat="33.5345626" lon="9.8630604"><ele>440.5</ele><time>2026-04-17T08:44:39.858Z</time></trkpt><trkpt lat="33.5346177" lon="9.8631417"><ele>440.3333333333333</ele><time>2026-04-17T08:44:40.877Z</time></trkpt><trkpt lat="33.5346772" lon="9.8632222"><ele>440.16666666666663</ele><time>2026-04-17T08:44:41.852Z</time></trkpt><trkpt lat="33.534736" lon="9.8632979"><ele>440.0</ele><time>2026-04-17T08:44:42.854Z</time></trkpt><trkpt lat="33.5347958" lon="9.8633685"><ele>439.99999999999994</ele><time>2026-04-17T08:44:43.853Z</time></trkpt><trkpt lat="33.5348567" lon="9.8634418"><ele>440.0</ele><time>2026-04-17T08:44:44.856Z</time></trkpt><trkpt lat="33.5349157" lon="9.8635046"><ele>440.0</ele><time>2026-04-17T08:44:45.854Z</time></trkpt><trkpt lat="33.5349813" lon="9.8635561"><ele>440.0</ele><time>2026-04-17T08:44:46.846Z</time></trkpt><trkpt lat="33.5350552" lon="9.8636049"><ele>439.99999999999994</ele><time>2026-04-17T08:44:47.849Z</time></trkpt><trkpt lat="33.5351307" lon="9.8636575"><ele>440.0</ele><time>2026-04-17T08:44:48.85Z</time></trkpt><trkpt lat="33.5352069" lon="9.8637094"><ele>439.8333333333333</ele><time>2026-04-17T08:44:49.857Z</time></trkpt><trkpt lat="33.5352877" lon="9.863762"><ele>439.66666666666663</ele><time>2026-04-17T08:44:50.856Z</time></trkpt><trkpt lat="33.5353621" lon="9.8638204"><ele>439.5</ele><time>2026-04-17T08:44:51.853Z</time></trkpt><trkpt lat="33.5354397" lon="9.8638699"><ele>439.33333333333337</ele><time>2026-04-17T08:44:52.851Z</time></trkpt><trkpt lat="33.535516" lon="9.8639171"><ele>439.1666666666667</ele><time>2026-04-17T08:44:53.85Z</time></trkpt><trkpt lat="33.5355849" lon="9.8639647"><ele>439.0</ele><time>2026-04-17T08:44:54.841Z</time></trkpt><trkpt lat="33.5356504" lon="9.8640119"><ele>439.83333333333337</ele><time>2026-04-17T08:44:55.844Z</time></trkpt><trkpt lat="33.535716" lon="9.8640522"><ele>440.6666666666667</ele><time>2026-04-17T08:44:56.847Z</time></trkpt><trkpt lat="33.5357818" lon="9.8640655"><ele>441.5</ele><time>2026-04-17T08:44:57.844Z</time></trkpt><trkpt lat="33.5358803" lon="9.8640224"><ele>442.33333333333337</ele><time>2026-04-17T08:44:59.84Z</time></trkpt><trkpt lat="33.5359129" lon="9.8639553"><ele>443.1666666666667</ele><time>2026-04-17T08:45:00.849Z</time></trkpt><trkpt lat="33.535941" lon="9.8638726"><ele>444.0</ele><time>2026-04-17T08:45:01.852Z</time></trkpt><trkpt lat="33.5359661" lon="9.8637894"><ele>444.0</ele><time>2026-04-17T08:45:02.85Z</time></trkpt><trkpt lat="33.5359847" lon="9.8637002"><ele>444.0</ele><time>2026-04-17T08:45:03.851Z</time></trkpt><trkpt lat="33.5359988" lon="9.863618"><ele>444.0</ele><time>2026-04-17T08:45:04.853Z</time></trkpt><trkpt lat="33.535995" lon="9.8635041"><ele>444.0</ele><time>2026-04-17T08:45:06.846Z</time></trkpt><trkpt lat="33.5359497" lon="9.8634081"><ele>444.0</ele><time>2026-04-17T08:45:08.837Z</time></trkpt><trkpt lat="33.5358872" lon="9.863282"><ele>443.0</ele><time>2026-04-17T08:45:10.837Z</time></trkpt><trkpt lat="33.5358463" lon="9.8632025"><ele>442.0</ele><time>2026-04-17T08:45:11.851Z</time></trkpt><trkpt lat="33.5358115" lon="9.8631344"><ele>441.0</ele><time>2026-04-17T08:45:12.835Z</time></trkpt><trkpt lat="33.5357724" lon="9.8630565"><ele>440.0</ele><time>2026-04-17T08:45:13.854Z</time></trkpt><trkpt lat="33.5357322" lon="9.8629701"><ele>439.0</ele><time>2026-04-17T08:45:14.844Z</time></trkpt><trkpt lat="33.5356919" lon="9.8628863"><ele>438.0</ele><time>2026-04-17T08:45:15.841Z</time></trkpt><trkpt lat="33.5356535" lon="9.8627962"><ele>438.0</ele><time>2026-04-17T08:45:16.845Z</time></trkpt><trkpt lat="33.5356252" lon="9.8627064"><ele>438.0</ele><time>2026-04-17T08:45:17.846Z</time></trkpt><trkpt lat="33.5355894" lon="9.8626195"><ele>438.0</ele><time>2026-04-17T08:45:18.839Z</time></trkpt><trkpt lat="33.5355485" lon="9.8625473"><ele>438.0</ele><time>2026-04-17T08:45:19.846Z</time></trkpt><trkpt lat="33.5355109" lon="9.8624749"><ele>438.0</ele><time>2026-04-17T08:45:20.841Z</time></trkpt><trkpt lat="33.5354809" lon="9.8624009"><ele>438.0</ele><time>2026-04-17T08:45:21.842Z</time></trkpt><trkpt lat="33.5354718" lon="9.8622611"><ele>436.3333333333333</ele><time>2026-04-17T08:45:23.85Z</time></trkpt><trkpt lat="33.5355172" lon="9.8621965"><ele>434.66666666666663</ele><time>2026-04-17T08:45:24.85Z</time></trkpt><trkpt lat="33.5355766" lon="9.8621511"><ele>433.0</ele><time>2026-04-17T08:45:25.841Z</time></trkpt><trkpt lat="33.5356585" lon="9.8621257"><ele>431.3333333333333</ele><time>2026-04-17T08:45:26.844Z</time></trkpt><trkpt lat="33.5357456" lon="9.8620874"><ele>429.66666666666663</ele><time>2026-04-17T08:45:27.843Z</time></trkpt><trkpt lat="33.5358262" lon="9.8620347"><ele>428.0</ele><time>2026-04-17T08:45:28.843Z</time></trkpt><trkpt lat="33.5359017" lon="9.8619771"><ele>428.0</ele><time>2026-04-17T08:45:29.84Z</time></trkpt><trkpt lat="33.5359703" lon="9.8619097"><ele>427.99999999999994</ele><time>2026-04-17T08:45:30.858Z</time></trkpt><trkpt lat="33.5360472" lon="9.8618434"><ele>427.99999999999994</ele><time>2026-04-17T08:45:31.861Z</time></trkpt><trkpt lat="33.5361228" lon="9.8617637"><ele>428.0</ele><time>2026-04-17T08:45:32.861Z</time></trkpt><trkpt lat="33.5361907" lon="9.861667"><ele>428.0</ele><time>2026-04-17T08:45:33.866Z</time></trkpt><trkpt lat="33.5362591" lon="9.8615747"><ele>426.8333333333333</ele><time>2026-04-17T08:45:34.862Z</time></trkpt><trkpt lat="33.5363227" lon="9.8614912"><ele>425.66666666666663</ele><time>2026-04-17T08:45:35.856Z</time></trkpt><trkpt lat="33.536393" lon="9.8614286"><ele>424.5</ele><time>2026-04-17T08:45:36.848Z</time></trkpt><trkpt lat="33.5364687" lon="9.8613842"><ele>423.33333333333337</ele><time>2026-04-17T08:45:37.846Z</time></trkpt><trkpt lat="33.5365502" lon="9.8613527"><ele>422.1666666666667</ele><time>2026-04-17T08:45:38.858Z</time></trkpt><trkpt lat="33.53662" lon="9.8613306"><ele>421.0</ele><time>2026-04-17T08:45:39.849Z</time></trkpt><trkpt lat="33.5367154" lon="9.8613203"><ele>421.00000000000006</ele><time>2026-04-17T08:45:41.852Z</time></trkpt><trkpt lat="33.5367764" lon="9.8612945"><ele>421.0</ele><time>2026-04-17T08:45:43.855Z</time></trkpt><trkpt lat="33.5368172" lon="9.861213"><ele>421.0</ele><time>2026-04-17T08:45:45.844Z</time></trkpt><trkpt lat="33.5368722" lon="9.8611102"><ele>421.0</ele><time>2026-04-17T08:45:47.848Z</time></trkpt><trkpt lat="33.5369168" lon="9.8609755"><ele>421.00000000000006</ele><time>2026-04-17T08:45:49.856Z</time></trkpt><trkpt lat="33.5369542" lon="9.8609093"><ele>421.0</ele><time>2026-04-17T08:45:50.841Z</time></trkpt><trkpt lat="33.5370092" lon="9.8608602"><ele>420.8571428571429</ele><time>2026-04-17T08:45:51.848Z</time></trkpt><trkpt lat="33.5370725" lon="9.8608368"><ele>420.7142857142857</ele><time>2026-04-17T08:45:52.857Z</time></trkpt><trkpt lat="33.5371436" lon="9.8608034"><ele>420.57142857142856</ele><time>2026-04-17T08:45:53.852Z</time></trkpt><trkpt lat="33.5372048" lon="9.8607633"><ele>420.42857142857144</ele><time>2026-04-17T08:45:54.852Z</time></trkpt><trkpt lat="33.5372557" lon="9.8607037"><ele>420.2857142857143</ele><time>2026-04-17T08:45:55.842Z</time></trkpt><trkpt lat="33.537286" lon="9.8606307"><ele>420.14285714285717</ele><time>2026-04-17T08:45:56.855Z</time></trkpt><trkpt lat="33.5372853" lon="9.8605381"><ele>420.0</ele><time>2026-04-17T08:45:57.853Z</time></trkpt><trkpt lat="33.537287" lon="9.8604319"><ele>420.0</ele><time>2026-04-17T08:45:58.855Z</time></trkpt><trkpt lat="33.5372884" lon="9.8603238"><ele>420.0</ele><time>2026-04-17T08:45:59.856Z</time></trkpt><trkpt lat="33.53727" lon="9.860211"><ele>420.0</ele><time>2026-04-17T08:46:00.855Z</time></trkpt><trkpt lat="33.5372448" lon="9.8601052"><ele>420.0</ele><time>2026-04-17T08:46:01.863Z</time></trkpt><trkpt lat="33.537225" lon="9.8600038"><ele>420.0</ele><time>2026-04-17T08:46:02.859Z</time></trkpt><trkpt lat="33.5371994" lon="9.8599012"><ele>418.5</ele><time>2026-04-17T08:46:03.855Z</time></trkpt><trkpt lat="33.5371821" lon="9.8597956"><ele>417.0</ele><time>2026-04-17T08:46:04.852Z</time></trkpt><trkpt lat="33.5371725" lon="9.859694"><ele>415.5</ele><time>2026-04-17T08:46:05.852Z</time></trkpt><trkpt lat="33.5371804" lon="9.8595997"><ele>414.0</ele><time>2026-04-17T08:46:06.851Z</time></trkpt><trkpt lat="33.5371904" lon="9.859498"><ele>412.5</ele><time>2026-04-17T08:46:07.852Z</time></trkpt><trkpt lat="33.5371971" lon="9.8593925"><ele>411.0</ele><time>2026-04-17T08:46:08.859Z</time></trkpt><trkpt lat="33.5371837" lon="9.8592885"><ele>410.3333333333333</ele><time>2026-04-17T08:46:09.867Z</time></trkpt><trkpt lat="33.5371622" lon="9.859182"><ele>409.66666666666663</ele><time>2026-04-17T08:46:10.871Z</time></trkpt><trkpt lat="33.5371422" lon="9.8590803"><ele>409.0</ele><time>2026-04-17T08:46:11.862Z</time></trkpt><trkpt lat="33.5371318" lon="9.858975"><ele>408.3333333333333</ele><time>2026-04-17T08:46:12.871Z</time></trkpt><trkpt lat="33.5371337" lon="9.8588732"><ele>407.66666666666663</ele><time>2026-04-17T08:46:13.857Z</time></trkpt><trkpt lat="33.5371574" lon="9.8587837"><ele>407.0</ele><time>2026-04-17T08:46:14.859Z</time></trkpt><trkpt lat="33.5371896" lon="9.8586862"><ele>406.99999999999994</ele><time>2026-04-17T08:46:15.854Z</time></trkpt><trkpt lat="33.5372222" lon="9.8585831"><ele>407.0</ele><time>2026-04-17T08:46:16.853Z</time></trkpt><trkpt lat="33.5372524" lon="9.8584801"><ele>407.0</ele><time>2026-04-17T08:46:17.857Z</time></trkpt><trkpt lat="33.5372761" lon="9.8583895"><ele>407.0</ele><time>2026-04-17T08:46:18.844Z</time></trkpt><trkpt lat="33.5373016" lon="9.8583138"><ele>406.99999999999994</ele><time>2026-04-17T08:46:19.858Z</time></trkpt><trkpt lat="33.5373329" lon="9.8582302"><ele>407.0</ele><time>2026-04-17T08:46:20.849Z</time></trkpt><trkpt lat="33.537373" lon="9.8581442"><ele>406.66666666666663</ele><time>2026-04-17T08:46:21.848Z</time></trkpt><trkpt lat="33.5374004" lon="9.8580558"><ele>406.3333333333333</ele><time>2026-04-17T08:46:22.849Z</time></trkpt><trkpt lat="33.5374201" lon="9.8579773"><ele>406.0</ele><time>2026-04-17T08:46:23.85Z</time></trkpt><trkpt lat="33.5374431" lon="9.8578549"><ele>405.66666666666663</ele><time>2026-04-17T08:46:25.85Z</time></trkpt><trkpt lat="33.5374231" lon="9.8577301"><ele>405.3333333333333</ele><time>2026-04-17T08:46:27.84Z</time></trkpt><trkpt lat="33.5373855" lon="9.8576396"><ele>405.0</ele><time>2026-04-17T08:46:28.837Z</time></trkpt><trkpt lat="33.5373469" lon="9.8575439"><ele>404.1666666666667</ele><time>2026-04-17T08:46:29.838Z</time></trkpt><trkpt lat="33.537306" lon="9.8574419"><ele>403.33333333333337</ele><time>2026-04-17T08:46:30.839Z</time></trkpt><trkpt lat="33.5372664" lon="9.8573369"><ele>402.5</ele><time>2026-04-17T08:46:31.838Z</time></trkpt><trkpt lat="33.5372777" lon="9.8572476"><ele>401.6666666666667</ele><time>2026-04-17T08:46:32.839Z</time></trkpt><trkpt lat="33.53733" lon="9.8571734"><ele>400.83333333333337</ele><time>2026-04-17T08:46:33.837Z</time></trkpt><trkpt lat="33.5374117" lon="9.8571183"><ele>400.0</ele><time>2026-04-17T08:46:34.834Z</time></trkpt><trkpt lat="33.5374959" lon="9.8570682"><ele>400.00000000000006</ele><time>2026-04-17T08:46:35.84Z</time></trkpt><trkpt lat="33.5375742" lon="9.8570087"><ele>400.0</ele><time>2026-04-17T08:46:36.839Z</time></trkpt><trkpt lat="33.5376438" lon="9.8569436"><ele>400.0</ele><time>2026-04-17T08:46:37.845Z</time></trkpt><trkpt lat="33.5376976" lon="9.8568807"><ele>400.0</ele><time>2026-04-17T08:46:38.847Z</time></trkpt><trkpt lat="33.5377412" lon="9.8568207"><ele>400.00000000000006</ele><time>2026-04-17T08:46:39.846Z</time></trkpt><trkpt lat="33.5378036" lon="9.8567596"><ele>400.0</ele><time>2026-04-17T08:46:40.857Z</time></trkpt><trkpt lat="33.5378669" lon="9.8567137"><ele>399.33333333333337</ele><time>2026-04-17T08:46:41.849Z</time></trkpt><trkpt lat="33.5379298" lon="9.8566848"><ele>398.6666666666667</ele><time>2026-04-17T08:46:42.848Z</time></trkpt><trkpt lat="33.5380415" lon="9.8566389"><ele>398.0</ele><time>2026-04-17T08:46:44.844Z</time></trkpt><trkpt lat="33.538115" lon="9.856622"><ele>397.33333333333337</ele><time>2026-04-17T08:46:45.845Z</time></trkpt><trkpt lat="33.5382027" lon="9.8566124"><ele>396.6666666666667</ele><time>2026-04-17T08:46:46.851Z</time></trkpt><trkpt lat="33.5382975" lon="9.8566159"><ele>396.0</ele><time>2026-04-17T08:46:47.851Z</time></trkpt><trkpt lat="33.5384004" lon="9.856639"><ele>396.0</ele><time>2026-04-17T08:46:48.852Z</time></trkpt><trkpt lat="33.5385003" lon="9.8566851"><ele>396.0</ele><time>2026-04-17T08:46:49.856Z</time></trkpt><trkpt lat="33.5386069" lon="9.8567334"><ele>396.0</ele><time>2026-04-17T08:46:50.937Z</time></trkpt><trkpt lat="33.5387135" lon="9.8567836"><ele>396.0</ele><time>2026-04-17T08:46:51.938Z</time></trkpt><trkpt lat="33.5388205" lon="9.8568375"><ele>396.1666666666667</ele><time>2026-04-17T08:46:52.941Z</time></trkpt><trkpt lat="33.538924" lon="9.856886"><ele>396.33333333333337</ele><time>2026-04-17T08:46:53.941Z</time></trkpt><trkpt lat="33.5390182" lon="9.8569373"><ele>396.5</ele><time>2026-04-17T08:46:54.937Z</time></trkpt><trkpt lat="33.5390957" lon="9.8569826"><ele>396.6666666666667</ele><time>2026-04-17T08:46:55.933Z</time></trkpt><trkpt lat="33.5391528" lon="9.8570408"><ele>396.83333333333337</ele><time>2026-04-17T08:46:56.931Z</time></trkpt><trkpt lat="33.5391976" lon="9.8571069"><ele>397.0</ele><time>2026-04-17T08:46:57.915Z</time></trkpt><trkpt lat="33.5392366" lon="9.8571915"><ele>397.0</ele><time>2026-04-17T08:46:58.921Z</time></trkpt><trkpt lat="33.5392832" lon="9.8572975"><ele>397.0</ele><time>2026-04-17T08:46:59.918Z</time></trkpt><trkpt lat="33.5393134" lon="9.8574119"><ele>397.0</ele><time>2026-04-17T08:47:00.918Z</time></trkpt><trkpt lat="33.5393433" lon="9.8575213"><ele>397.0</ele><time>2026-04-17T08:47:01.946Z</time></trkpt><trkpt lat="33.5393773" lon="9.8576286"><ele>397.0</ele><time>2026-04-17T08:47:02.935Z</time></trkpt><trkpt lat="33.5394229" lon="9.8577265"><ele>395.6</ele><time>2026-04-17T08:47:03.937Z</time></trkpt><trkpt lat="33.5394626" lon="9.8578526"><ele>394.20000000000005</ele><time>2026-04-17T08:47:04.925Z</time></trkpt><trkpt lat="33.5395289" lon="9.8579503"><ele>392.8</ele><time>2026-04-17T08:47:05.91Z</time></trkpt><trkpt lat="33.5396139" lon="9.8580303"><ele>391.4</ele><time>2026-04-17T08:47:06.914Z</time></trkpt><trkpt lat="33.5396901" lon="9.8581195"><ele>390.0</ele><time>2026-04-17T08:47:07.913Z</time></trkpt><trkpt lat="33.5397709" lon="9.8582056"><ele>390.0</ele><time>2026-04-17T08:47:08.925Z</time></trkpt><trkpt lat="33.5398469" lon="9.8582906"><ele>390.0</ele><time>2026-04-17T08:47:09.937Z</time></trkpt><trkpt lat="33.539915" lon="9.8583551"><ele>390.0</ele><time>2026-04-17T08:47:10.934Z</time></trkpt><trkpt lat="33.5399693" lon="9.8584048"><ele>390.0</ele><time>2026-04-17T08:47:11.93Z</time></trkpt><trkpt lat="33.5400221" lon="9.8584567"><ele>390.0</ele><time>2026-04-17T08:47:12.927Z</time></trkpt><trkpt lat="33.5400901" lon="9.8585347"><ele>390.0</ele><time>2026-04-17T08:47:14.947Z</time></trkpt><trkpt lat="33.5401535" lon="9.858624"><ele>391.0</ele><time>2026-04-17T08:47:16.954Z</time></trkpt><trkpt lat="33.5402019" lon="9.8586883"><ele>392.0</ele><time>2026-04-17T08:47:18.947Z</time></trkpt><trkpt lat="33.5402781" lon="9.8588059"><ele>393.0</ele><time>2026-04-17T08:47:24.938Z</time></trkpt><trkpt lat="33.5403298" lon="9.8588785"><ele>394.0</ele><time>2026-04-17T08:47:27.95Z</time></trkpt><trkpt lat="33.5402015" lon="9.8586554"><ele>394.0</ele><time>2026-04-17T08:47:29.856Z</time></trkpt><trkpt lat="33.5403239" lon="9.8586679"><ele>394.0</ele><time>2026-04-17T08:47:31.846Z</time></trkpt><trkpt lat="33.5404361" lon="9.8586811"><ele>394.0</ele><time>2026-04-17T08:47:33.836Z</time></trkpt><trkpt lat="33.540492" lon="9.85874"><ele>394.0</ele><time>2026-04-17T08:47:34.839Z</time></trkpt><trkpt lat="33.5405442" lon="9.8588093"><ele>394.0</ele><time>2026-04-17T08:47:35.838Z</time></trkpt><trkpt lat="33.5406071" lon="9.8588912"><ele>392.33333333333337</ele><time>2026-04-17T08:47:36.841Z</time></trkpt><trkpt lat="33.5406719" lon="9.8589615"><ele>390.6666666666667</ele><time>2026-04-17T08:47:37.84Z</time></trkpt><trkpt lat="33.5407258" lon="9.8590374"><ele>389.0</ele><time>2026-04-17T08:47:38.843Z</time></trkpt><trkpt lat="33.5407699" lon="9.8591003"><ele>387.33333333333337</ele><time>2026-04-17T08:47:39.842Z</time></trkpt><trkpt lat="33.5408261" lon="9.8591539"><ele>385.6666666666667</ele><time>2026-04-17T08:47:40.843Z</time></trkpt><trkpt lat="33.5408923" lon="9.8591879"><ele>384.0</ele><time>2026-04-17T08:47:41.834Z</time></trkpt><trkpt lat="33.5409645" lon="9.8592031"><ele>384.0</ele><time>2026-04-17T08:47:42.828Z</time></trkpt><trkpt lat="33.5410359" lon="9.8591984"><ele>384.0</ele><time>2026-04-17T08:47:43.836Z</time></trkpt><trkpt lat="33.5411089" lon="9.8591896"><ele>384.0</ele><time>2026-04-17T08:47:44.828Z</time></trkpt><trkpt lat="33.5411807" lon="9.859184"><ele>384.0</ele><time>2026-04-17T08:47:45.849Z</time></trkpt><trkpt lat="33.5412912" lon="9.8591216"><ele>384.0</ele><time>2026-04-17T08:47:47.83Z</time></trkpt><trkpt lat="33.5413829" lon="9.8590165"><ele>384.1666666666667</ele><time>2026-04-17T08:47:49.836Z</time></trkpt><trkpt lat="33.5414295" lon="9.8589433"><ele>384.33333333333337</ele><time>2026-04-17T08:47:50.824Z</time></trkpt><trkpt lat="33.5414778" lon="9.8588563"><ele>384.5</ele><time>2026-04-17T08:47:51.827Z</time></trkpt><trkpt lat="33.5415291" lon="9.8587697"><ele>384.6666666666667</ele><time>2026-04-17T08:47:52.823Z</time></trkpt><trkpt lat="33.5415814" lon="9.8586927"><ele>384.83333333333337</ele><time>2026-04-17T08:47:53.828Z</time></trkpt><trkpt lat="33.541626" lon="9.8586275"><ele>385.0</ele><time>2026-04-17T08:47:54.831Z</time></trkpt><trkpt lat="33.5416733" lon="9.8585756"><ele>385.00000000000006</ele><time>2026-04-17T08:47:55.822Z</time></trkpt><trkpt lat="33.5417406" lon="9.8585416"><ele>385.0</ele><time>2026-04-17T08:47:56.834Z</time></trkpt><trkpt lat="33.5418195" lon="9.858521"><ele>385.0</ele><time>2026-04-17T08:47:57.844Z</time></trkpt><trkpt lat="33.5419143" lon="9.858509"><ele>385.0</ele><time>2026-04-17T08:47:58.838Z</time></trkpt><trkpt lat="33.542012" lon="9.8584888"><ele>385.00000000000006</ele><time>2026-04-17T08:47:59.846Z</time></trkpt><trkpt lat="33.5421093" lon="9.8584803"><ele>385.0</ele><time>2026-04-17T08:48:00.833Z</time></trkpt><trkpt lat="33.5422072" lon="9.8584978"><ele>384.00000000000006</ele><time>2026-04-17T08:48:01.833Z</time></trkpt><trkpt lat="33.542303" lon="9.8585426"><ele>383.0</ele><time>2026-04-17T08:48:02.841Z</time></trkpt><trkpt lat="33.5423811" lon="9.8585838"><ele>382.0</ele><time>2026-04-17T08:48:03.845Z</time></trkpt><trkpt lat="33.5424607" lon="9.8586241"><ele>381.0</ele><time>2026-04-17T08:48:04.84Z</time></trkpt><trkpt lat="33.5425315" lon="9.8586557"><ele>380.0</ele><time>2026-04-17T08:48:05.847Z</time></trkpt><trkpt lat="33.5425932" lon="9.8586795"><ele>379.0</ele><time>2026-04-17T08:48:06.838Z</time></trkpt><trkpt lat="33.5427049" lon="9.8587003"><ele>379.0</ele><time>2026-04-17T08:48:08.834Z</time></trkpt><trkpt lat="33.5428363" lon="9.8587271"><ele>379.0</ele><time>2026-04-17T08:48:10.844Z</time></trkpt><trkpt lat="33.5429195" lon="9.8587521"><ele>379.0</ele><time>2026-04-17T08:48:11.838Z</time></trkpt><trkpt lat="33.5429968" lon="9.8587889"><ele>379.0</ele><time>2026-04-17T08:48:12.846Z</time></trkpt><trkpt lat="33.5430632" lon="9.8587972"><ele>379.0</ele><time>2026-04-17T08:48:13.842Z</time></trkpt><trkpt lat="33.5431263" lon="9.858773"><ele>379.0</ele><time>2026-04-17T08:48:17.847Z</time></trkpt><trkpt lat="33.5431765" lon="9.8586605"><ele>379.0</ele><time>2026-04-17T08:48:20.854Z</time></trkpt><trkpt lat="33.5431934" lon="9.858566"><ele>379.0</ele><time>2026-04-17T08:48:21.852Z</time></trkpt><trkpt lat="33.5431938" lon="9.8584604"><ele>379.0</ele><time>2026-04-17T08:48:22.849Z</time></trkpt><trkpt lat="33.543199" lon="9.8583566"><ele>379.0</ele><time>2026-04-17T08:48:23.845Z</time></trkpt><trkpt lat="33.5432146" lon="9.8582731"><ele>379.0</ele><time>2026-04-17T08:48:24.835Z</time></trkpt><trkpt lat="33.5432312" lon="9.8581889"><ele>379.0</ele><time>2026-04-17T08:48:25.836Z</time></trkpt><trkpt lat="33.5432515" lon="9.858087"><ele>378.4</ele><time>2026-04-17T08:48:26.84Z</time></trkpt><trkpt lat="33.5432856" lon="9.8579812"><ele>377.79999999999995</ele><time>2026-04-17T08:48:27.834Z</time></trkpt><trkpt lat="33.5433255" lon="9.8578756"><ele>377.20000000000005</ele><time>2026-04-17T08:48:28.831Z</time></trkpt><trkpt lat="33.5433732" lon="9.8577745"><ele>376.6</ele><time>2026-04-17T08:48:29.833Z</time></trkpt><trkpt lat="33.543444" lon="9.8576908"><ele>376.0</ele><time>2026-04-17T08:48:30.843Z</time></trkpt><trkpt lat="33.5435272" lon="9.8576265"><ele>375.6</ele><time>2026-04-17T08:48:31.835Z</time></trkpt><trkpt lat="33.5436131" lon="9.857592"><ele>375.20000000000005</ele><time>2026-04-17T08:48:32.835Z</time></trkpt><trkpt lat="33.543707" lon="9.8575461"><ele>374.79999999999995</ele><time>2026-04-17T08:48:33.839Z</time></trkpt><trkpt lat="33.5438002" lon="9.8574984"><ele>374.4</ele><time>2026-04-17T08:48:34.833Z</time></trkpt><trkpt lat="33.5438912" lon="9.8574499"><ele>374.0</ele><time>2026-04-17T08:48:35.838Z</time></trkpt><trkpt lat="33.5439855" lon="9.8573971"><ele>373.4</ele><time>2026-04-17T08:48:36.838Z</time></trkpt><trkpt lat="33.5440839" lon="9.8573466"><ele>372.79999999999995</ele><time>2026-04-17T08:48:37.839Z</time></trkpt><trkpt lat="33.5441891" lon="9.8572895"><ele>372.20000000000005</ele><time>2026-04-17T08:48:38.833Z</time></trkpt><trkpt lat="33.5442879" lon="9.8572261"><ele>371.6</ele><time>2026-04-17T08:48:39.84Z</time></trkpt><trkpt lat="33.5443863" lon="9.8571721"><ele>371.0</ele><time>2026-04-17T08:48:40.844Z</time></trkpt><trkpt lat="33.5444674" lon="9.8571164"><ele>371.0</ele><time>2026-04-17T08:48:41.834Z</time></trkpt><trkpt lat="33.5445364" lon="9.8570717"><ele>371.0</ele><time>2026-04-17T08:48:42.837Z</time></trkpt><trkpt lat="33.5446106" lon="9.857021"><ele>371.0</ele><time>2026-04-17T08:48:43.835Z</time></trkpt><trkpt lat="33.5446798" lon="9.8569711"><ele>371.0</ele><time>2026-04-17T08:48:44.837Z</time></trkpt><trkpt lat="33.5447455" lon="9.8569259"><ele>371.0</ele><time>2026-04-17T08:48:45.841Z</time></trkpt><trkpt lat="33.5448172" lon="9.856889"><ele>371.0</ele><time>2026-04-17T08:48:46.838Z</time></trkpt><trkpt lat="33.5448904" lon="9.8568519"><ele>370.6</ele><time>2026-04-17T08:48:47.856Z</time></trkpt><trkpt lat="33.5449722" lon="9.8568109"><ele>370.20000000000005</ele><time>2026-04-17T08:48:48.832Z</time></trkpt><trkpt lat="33.5450589" lon="9.8567733"><ele>369.79999999999995</ele><time>2026-04-17T08:48:49.841Z</time></trkpt><trkpt lat="33.5451636" lon="9.8567316"><ele>369.4</ele><time>2026-04-17T08:48:50.844Z</time></trkpt><trkpt lat="33.5452646" lon="9.8566848"><ele>369.0</ele><time>2026-04-17T08:48:51.844Z</time></trkpt><trkpt lat="33.5453583" lon="9.8566501"><ele>369.0</ele><time>2026-04-17T08:48:52.839Z</time></trkpt><trkpt lat="33.5454434" lon="9.8566278"><ele>369.0</ele><time>2026-04-17T08:48:53.846Z</time></trkpt><trkpt lat="33.5455227" lon="9.8566171"><ele>369.0</ele><time>2026-04-17T08:48:54.845Z</time></trkpt><trkpt lat="33.5456082" lon="9.8565889"><ele>369.0</ele><time>2026-04-17T08:48:55.84Z</time></trkpt><trkpt lat="33.5456953" lon="9.8565515"><ele>369.0</ele><time>2026-04-17T08:48:56.848Z</time></trkpt><trkpt lat="33.5457763" lon="9.8565062"><ele>369.0</ele><time>2026-04-17T08:48:57.839Z</time></trkpt><trkpt lat="33.5458532" lon="9.8564484"><ele>369.0</ele><time>2026-04-17T08:48:58.844Z</time></trkpt><trkpt lat="33.5459302" lon="9.8563854"><ele>369.0</ele><time>2026-04-17T08:48:59.843Z</time></trkpt><trkpt lat="33.546004" lon="9.8563117"><ele>369.0</ele><time>2026-04-17T08:49:00.842Z</time></trkpt><trkpt lat="33.5460714" lon="9.8562248"><ele>369.0</ele><time>2026-04-17T08:49:01.838Z</time></trkpt><trkpt lat="33.5461268" lon="9.8561252"><ele>369.0</ele><time>2026-04-17T08:49:02.841Z</time></trkpt><trkpt lat="33.5461607" lon="9.8560178"><ele>368.79999999999995</ele><time>2026-04-17T08:49:03.84Z</time></trkpt><trkpt lat="33.5462055" lon="9.8559093"><ele>368.59999999999997</ele><time>2026-04-17T08:49:04.844Z</time></trkpt><trkpt lat="33.5462553" lon="9.8558078"><ele>368.4</ele><time>2026-04-17T08:49:05.845Z</time></trkpt><trkpt lat="33.5463081" lon="9.855707"><ele>368.2</ele><time>2026-04-17T08:49:06.846Z</time></trkpt><trkpt lat="33.5463798" lon="9.8556163"><ele>368.0</ele><time>2026-04-17T08:49:07.838Z</time></trkpt><trkpt lat="33.5464673" lon="9.8555392"><ele>367.5</ele><time>2026-04-17T08:49:08.845Z</time></trkpt><trkpt lat="33.5465661" lon="9.8554588"><ele>367.0</ele><time>2026-04-17T08:49:09.844Z</time></trkpt><trkpt lat="33.5466608" lon="9.855362"><ele>366.5</ele><time>2026-04-17T08:49:10.85Z</time></trkpt><trkpt lat="33.5467543" lon="9.8552553"><ele>366.0</ele><time>2026-04-17T08:49:11.844Z</time></trkpt><trkpt lat="33.5468365" lon="9.8551408"><ele>365.20000000000005</ele><time>2026-04-17T08:49:12.843Z</time></trkpt><trkpt lat="33.5469072" lon="9.8550314"><ele>364.40000000000003</ele><time>2026-04-17T08:49:13.844Z</time></trkpt><trkpt lat="33.5469713" lon="9.8549273"><ele>363.6</ele><time>2026-04-17T08:49:14.839Z</time></trkpt><trkpt lat="33.5470409" lon="9.8548416"><ele>362.8</ele><time>2026-04-17T08:49:15.835Z</time></trkpt><trkpt lat="33.5471163" lon="9.8547702"><ele>362.0</ele><time>2026-04-17T08:49:16.831Z</time></trkpt><trkpt lat="33.547191" lon="9.8547227"><ele>364.0</ele><time>2026-04-17T08:49:17.833Z</time></trkpt><trkpt lat="33.5472624" lon="9.8546908"><ele>366.0</ele><time>2026-04-17T08:49:18.859Z</time></trkpt><trkpt lat="33.5473398" lon="9.8546629"><ele>368.0</ele><time>2026-04-17T08:49:19.835Z</time></trkpt><trkpt lat="33.5474121" lon="9.8546435"><ele>370.0</ele><time>2026-04-17T08:49:20.836Z</time></trkpt><trkpt lat="33.54749" lon="9.8546227"><ele>372.0</ele><time>2026-04-17T08:49:21.844Z</time></trkpt><trkpt lat="33.5475717" lon="9.8545946"><ele>374.0</ele><time>2026-04-17T08:49:22.843Z</time></trkpt><trkpt lat="33.5476495" lon="9.854555"><ele>374.0</ele><time>2026-04-17T08:49:23.84Z</time></trkpt><trkpt lat="33.5477255" lon="9.8545071"><ele>374.0</ele><time>2026-04-17T08:49:24.83Z</time></trkpt><trkpt lat="33.5478003" lon="9.8544527"><ele>374.0</ele><time>2026-04-17T08:49:25.834Z</time></trkpt><trkpt lat="33.5478797" lon="9.854396"><ele>374.0</ele><time>2026-04-17T08:49:26.837Z</time></trkpt><trkpt lat="33.5479626" lon="9.854336"><ele>374.0</ele><time>2026-04-17T08:49:27.831Z</time></trkpt><trkpt lat="33.5480421" lon="9.8542883"><ele>371.6666666666667</ele><time>2026-04-17T08:49:28.838Z</time></trkpt><trkpt lat="33.5481053" lon="9.8542284"><ele>369.33333333333337</ele><time>2026-04-17T08:49:29.83Z</time></trkpt><trkpt lat="33.5481698" lon="9.8541687"><ele>367.0</ele><time>2026-04-17T08:49:30.83Z</time></trkpt><trkpt lat="33.5482332" lon="9.8541117"><ele>364.6666666666667</ele><time>2026-04-17T08:49:31.832Z</time></trkpt><trkpt lat="33.5483036" lon="9.85407"><ele>362.3333333333333</ele><time>2026-04-17T08:49:32.841Z</time></trkpt><trkpt lat="33.5483737" lon="9.8540391"><ele>360.0</ele><time>2026-04-17T08:49:33.842Z</time></trkpt><trkpt lat="33.548433" lon="9.8540088"><ele>360.0</ele><time>2026-04-17T08:49:34.838Z</time></trkpt><trkpt lat="33.5485176" lon="9.853912"><ele>360.0</ele><time>2026-04-17T08:49:36.847Z</time></trkpt><trkpt lat="33.5485572" lon="9.8537624"><ele>360.0</ele><time>2026-04-17T08:49:38.851Z</time></trkpt><trkpt lat="33.5485799" lon="9.8536839"><ele>360.0</ele><time>2026-04-17T08:49:39.845Z</time></trkpt><trkpt lat="33.5486192" lon="9.8536157"><ele>360.0</ele><time>2026-04-17T08:49:40.841Z</time></trkpt><trkpt lat="33.5486653" lon="9.853564"><ele>360.0</ele><time>2026-04-17T08:49:41.847Z</time></trkpt><trkpt lat="33.5487757" lon="9.8534947"><ele>358.5</ele><time>2026-04-17T08:49:43.856Z</time></trkpt><trkpt lat="33.5488282" lon="9.8534499"><ele>357.0</ele><time>2026-04-17T08:49:44.856Z</time></trkpt><trkpt lat="33.5488759" lon="9.8533922"><ele>355.5</ele><time>2026-04-17T08:49:45.841Z</time></trkpt><trkpt lat="33.5489276" lon="9.8533205"><ele>354.0</ele><time>2026-04-17T08:49:46.863Z</time></trkpt><trkpt lat="33.5489813" lon="9.8532273"><ele>352.5</ele><time>2026-04-17T08:49:47.862Z</time></trkpt><trkpt lat="33.5490394" lon="9.8531444"><ele>351.0</ele><time>2026-04-17T08:49:48.858Z</time></trkpt><trkpt lat="33.5491009" lon="9.8530766"><ele>351.0</ele><time>2026-04-17T08:49:49.88Z</time></trkpt><trkpt lat="33.5491444" lon="9.8530119"><ele>351.0</ele><time>2026-04-17T08:49:50.873Z</time></trkpt><trkpt lat="33.5491795" lon="9.8529465"><ele>351.0</ele><time>2026-04-17T08:49:51.876Z</time></trkpt><trkpt lat="33.5492565" lon="9.8528639"><ele>351.0</ele><time>2026-04-17T08:49:53.876Z</time></trkpt><trkpt lat="33.5493221" lon="9.8528126"><ele>351.0</ele><time>2026-04-17T08:49:55.886Z</time></trkpt><trkpt lat="33.5493957" lon="9.8527706"><ele>351.0</ele><time>2026-04-17T08:49:58.88Z</time></trkpt><trkpt lat="33.5494716" lon="9.8527363"><ele>351.5</ele><time>2026-04-17T08:50:00.884Z</time></trkpt><trkpt lat="33.5495512" lon="9.852719"><ele>352.0</ele><time>2026-04-17T08:50:03.879Z</time></trkpt><trkpt lat="33.5496389" lon="9.8527506"><ele>352.5</ele><time>2026-04-17T08:50:13.879Z</time></trkpt><trkpt lat="33.5497351" lon="9.8527608"><ele>353.0</ele><time>2026-04-17T08:55:45.857Z</time></trkpt><trkpt lat="33.5498" lon="9.8527725"><ele>353.5</ele><time>2026-04-17T08:55:46.858Z</time></trkpt><trkpt lat="33.5498872" lon="9.8527772"><ele>354.0</ele><time>2026-04-17T08:55:47.874Z</time></trkpt><trkpt lat="33.5499907" lon="9.8527858"><ele>354.0</ele><time>2026-04-17T08:55:48.873Z</time></trkpt><trkpt lat="33.5500905" lon="9.8527903"><ele>354.0</ele><time>2026-04-17T08:55:49.962Z</time></trkpt><trkpt lat="33.5501908" lon="9.8527956"><ele>354.0</ele><time>2026-04-17T08:55:50.961Z</time></trkpt><trkpt lat="33.5502928" lon="9.8527958"><ele>354.0</ele><time>2026-04-17T08:55:51.964Z</time></trkpt><trkpt lat="33.5504031" lon="9.8527907"><ele>354.0</ele><time>2026-04-17T08:55:52.975Z</time></trkpt><trkpt lat="33.5505079" lon="9.8527681"><ele>355.0</ele><time>2026-04-17T08:55:53.966Z</time></trkpt><trkpt lat="33.5506024" lon="9.8527264"><ele>356.0</ele><time>2026-04-17T08:55:54.946Z</time></trkpt><trkpt lat="33.5506888" lon="9.8526846"><ele>357.0</ele><time>2026-04-17T08:55:55.941Z</time></trkpt><trkpt lat="33.5507779" lon="9.852659"><ele>358.0</ele><time>2026-04-17T08:55:56.933Z</time></trkpt><trkpt lat="33.5508666" lon="9.8526447"><ele>359.0</ele><time>2026-04-17T08:55:57.949Z</time></trkpt><trkpt lat="33.5509569" lon="9.852625"><ele>359.0</ele><time>2026-04-17T08:55:58.955Z</time></trkpt><trkpt lat="33.5510473" lon="9.8526254"><ele>359.0</ele><time>2026-04-17T08:55:59.98Z</time></trkpt><trkpt lat="33.551133" lon="9.8526275"><ele>359.0</ele><time>2026-04-17T08:56:00.949Z</time></trkpt><trkpt lat="33.55122" lon="9.8526338"><ele>359.0</ele><time>2026-04-17T08:56:01.954Z</time></trkpt><trkpt lat="33.5513153" lon="9.8526559"><ele>359.0</ele><time>2026-04-17T08:56:02.937Z</time></trkpt><trkpt lat="33.5514028" lon="9.8526819"><ele>361.0</ele><time>2026-04-17T08:56:03.934Z</time></trkpt><trkpt lat="33.5514897" lon="9.8527052"><ele>363.0</ele><time>2026-04-17T08:56:04.924Z</time></trkpt><trkpt lat="33.551582" lon="9.8527234"><ele>365.0</ele><time>2026-04-17T08:56:05.911Z</time></trkpt><trkpt lat="33.5516753" lon="9.8527488"><ele>367.0</ele><time>2026-04-17T08:56:06.943Z</time></trkpt><trkpt lat="33.5517717" lon="9.852757"><ele>369.0</ele><time>2026-04-17T08:56:07.949Z</time></trkpt><trkpt lat="33.5518676" lon="9.8527436"><ele>369.0</ele><time>2026-04-17T08:56:08.938Z</time></trkpt><trkpt lat="33.5519566" lon="9.8527112"><ele>369.0</ele><time>2026-04-17T08:56:09.941Z</time></trkpt><trkpt lat="33.552043" lon="9.8526572"><ele>369.0</ele><time>2026-04-17T08:56:10.931Z</time></trkpt><trkpt lat="33.5521987" lon="9.8526549"><ele>369.0</ele><time>2026-04-17T08:56:12.832Z</time></trkpt><trkpt lat="33.5522931" lon="9.8526216"><ele>369.0</ele><time>2026-04-17T08:56:13.825Z</time></trkpt><trkpt lat="33.5523771" lon="9.8525895"><ele>370.6</ele><time>2026-04-17T08:56:14.847Z</time></trkpt><trkpt lat="33.5524605" lon="9.8525404"><ele>372.2</ele><time>2026-04-17T08:56:15.851Z</time></trkpt><trkpt lat="33.5525457" lon="9.8524774"><ele>373.8</ele><time>2026-04-17T08:56:16.841Z</time></trkpt><trkpt lat="33.5526322" lon="9.8523955"><ele>375.40000000000003</ele><time>2026-04-17T08:56:17.843Z</time></trkpt><trkpt lat="33.5527072" lon="9.8523165"><ele>377.0</ele><time>2026-04-17T08:56:18.841Z</time></trkpt><trkpt lat="33.5527704" lon="9.8522517"><ele>377.0</ele><time>2026-04-17T08:56:19.85Z</time></trkpt><trkpt lat="33.5528275" lon="9.852181"><ele>377.0</ele><time>2026-04-17T08:56:20.844Z</time></trkpt><trkpt lat="33.5528818" lon="9.8521116"><ele>377.0</ele><time>2026-04-17T08:56:21.844Z</time></trkpt><trkpt lat="33.5529395" lon="9.8520526"><ele>377.0</ele><time>2026-04-17T08:56:22.861Z</time></trkpt><trkpt lat="33.5530381" lon="9.852013"><ele>377.0</ele><time>2026-04-17T08:56:24.838Z</time></trkpt><trkpt lat="33.5531511" lon="9.8520416"><ele>378.2857142857143</ele><time>2026-04-17T08:56:26.846Z</time></trkpt><trkpt lat="33.5532202" lon="9.8520716"><ele>379.57142857142856</ele><time>2026-04-17T08:56:27.846Z</time></trkpt><trkpt lat="33.5532946" lon="9.8520759"><ele>380.8571428571429</ele><time>2026-04-17T08:56:28.84Z</time></trkpt><trkpt lat="33.5533622" lon="9.8520645"><ele>382.1428571428571</ele><time>2026-04-17T08:56:29.841Z</time></trkpt><trkpt lat="33.5534196" lon="9.85203"><ele>383.42857142857144</ele><time>2026-04-17T08:56:30.872Z</time></trkpt><trkpt lat="33.5534651" lon="9.8519571"><ele>384.7142857142857</ele><time>2026-04-17T08:56:31.855Z</time></trkpt><trkpt lat="33.553504" lon="9.8518932"><ele>386.0</ele><time>2026-04-17T08:56:32.863Z</time></trkpt><trkpt lat="33.5535506" lon="9.8518343"><ele>385.3333333333333</ele><time>2026-04-17T08:56:33.856Z</time></trkpt><trkpt lat="33.5536529" lon="9.8517655"><ele>384.66666666666663</ele><time>2026-04-17T08:56:35.859Z</time></trkpt><trkpt lat="33.5537214" lon="9.8517275"><ele>384.0</ele><time>2026-04-17T08:56:36.865Z</time></trkpt><trkpt lat="33.5537901" lon="9.8517137"><ele>383.3333333333333</ele><time>2026-04-17T08:56:37.854Z</time></trkpt><trkpt lat="33.5538531" lon="9.8517157"><ele>382.66666666666663</ele><time>2026-04-17T08:56:38.858Z</time></trkpt><trkpt lat="33.5539573" lon="9.8517875"><ele>382.0</ele><time>2026-04-17T08:56:40.851Z</time></trkpt><trkpt lat="33.5540593" lon="9.8519087"><ele>383.3333333333333</ele><time>2026-04-17T08:56:42.847Z</time></trkpt><trkpt lat="33.5541166" lon="9.851981"><ele>384.66666666666663</ele><time>2026-04-17T08:56:43.852Z</time></trkpt><trkpt lat="33.5541806" lon="9.8520518"><ele>386.0</ele><time>2026-04-17T08:56:44.854Z</time></trkpt><trkpt lat="33.5542502" lon="9.8521101"><ele>387.3333333333333</ele><time>2026-04-17T08:56:45.855Z</time></trkpt><trkpt lat="33.5543226" lon="9.852178"><ele>388.6666666666667</ele><time>2026-04-17T08:56:46.842Z</time></trkpt><trkpt lat="33.5543768" lon="9.8522272"><ele>390.0</ele><time>2026-04-17T08:56:47.84Z</time></trkpt><trkpt lat="33.554482" lon="9.8522365"><ele>389.4</ele><time>2026-04-17T08:56:49.842Z</time></trkpt><trkpt lat="33.5545746" lon="9.8521433"><ele>388.8</ele><time>2026-04-17T08:56:51.837Z</time></trkpt><trkpt lat="33.5546116" lon="9.8520533"><ele>388.20000000000005</ele><time>2026-04-17T08:56:52.836Z</time></trkpt><trkpt lat="33.5546376" lon="9.8519541"><ele>387.6</ele><time>2026-04-17T08:56:53.849Z</time></trkpt><trkpt lat="33.5546477" lon="9.8518344"><ele>387.0</ele><time>2026-04-17T08:56:54.837Z</time></trkpt><trkpt lat="33.5546477" lon="9.8517114"><ele>386.3333333333333</ele><time>2026-04-17T08:56:55.839Z</time></trkpt><trkpt lat="33.5546496" lon="9.8515929"><ele>385.6666666666667</ele><time>2026-04-17T08:56:56.847Z</time></trkpt><trkpt lat="33.5546388" lon="9.8514822"><ele>385.0</ele><time>2026-04-17T08:56:57.852Z</time></trkpt><trkpt lat="33.5546264" lon="9.8513761"><ele>384.33333333333337</ele><time>2026-04-17T08:56:58.852Z</time></trkpt><trkpt lat="33.5546284" lon="9.8512863"><ele>383.6666666666667</ele><time>2026-04-17T08:56:59.87Z</time></trkpt><trkpt lat="33.5546135" lon="9.8511912"><ele>383.0</ele><time>2026-04-17T08:57:00.872Z</time></trkpt><trkpt lat="33.554601" lon="9.8510927"><ele>383.0</ele><time>2026-04-17T08:57:01.883Z</time></trkpt><trkpt lat="33.5545869" lon="9.8510039"><ele>383.0</ele><time>2026-04-17T08:57:02.854Z</time></trkpt><trkpt lat="33.5545763" lon="9.8509217"><ele>383.0</ele><time>2026-04-17T08:57:03.874Z</time></trkpt><trkpt lat="33.5545653" lon="9.8507699"><ele>383.0</ele><time>2026-04-17T08:57:05.855Z</time></trkpt><trkpt lat="33.5545752" lon="9.8506617"><ele>383.0</ele><time>2026-04-17T08:57:06.856Z</time></trkpt><trkpt lat="33.5545845" lon="9.8505485"><ele>382.6666666666667</ele><time>2026-04-17T08:57:07.848Z</time></trkpt><trkpt lat="33.5545932" lon="9.8504313"><ele>382.33333333333337</ele><time>2026-04-17T08:57:08.854Z</time></trkpt><trkpt lat="33.5545966" lon="9.8503136"><ele>382.0</ele><time>2026-04-17T08:57:09.848Z</time></trkpt><trkpt lat="33.554596" lon="9.8502068"><ele>381.6666666666667</ele><time>2026-04-17T08:57:10.859Z</time></trkpt><trkpt lat="33.5545906" lon="9.850125"><ele>381.3333333333333</ele><time>2026-04-17T08:57:11.846Z</time></trkpt><trkpt lat="33.5545975" lon="9.8500457"><ele>381.0</ele><time>2026-04-17T08:57:12.847Z</time></trkpt><trkpt lat="33.5546065" lon="9.8499695"><ele>380.5</ele><time>2026-04-17T08:57:13.862Z</time></trkpt><trkpt lat="33.5546388" lon="9.8498765"><ele>380.0</ele><time>2026-04-17T08:57:15.863Z</time></trkpt><trkpt lat="33.5546735" lon="9.8497999"><ele>379.5</ele><time>2026-04-17T08:57:17.869Z</time></trkpt><trkpt lat="33.5547066" lon="9.8496879"><ele>379.0</ele><time>2026-04-17T08:57:19.868Z</time></trkpt><trkpt lat="33.5547937" lon="9.8496034"><ele>378.5</ele><time>2026-04-17T08:57:21.87Z</time></trkpt><trkpt lat="33.5548551" lon="9.8495614"><ele>378.0</ele><time>2026-04-17T08:57:22.863Z</time></trkpt><trkpt lat="33.5549167" lon="9.8495218"><ele>378.0</ele><time>2026-04-17T08:57:23.872Z</time></trkpt><trkpt lat="33.5549805" lon="9.8494775"><ele>378.0</ele><time>2026-04-17T08:57:24.864Z</time></trkpt><trkpt lat="33.555041" lon="9.8494275"><ele>378.0</ele><time>2026-04-17T08:57:25.858Z</time></trkpt><trkpt lat="33.5550972" lon="9.8493633"><ele>378.0</ele><time>2026-04-17T08:57:26.857Z</time></trkpt><trkpt lat="33.5551472" lon="9.8493073"><ele>378.0</ele><time>2026-04-17T08:57:27.86Z</time></trkpt><trkpt lat="33.5552405" lon="9.8492444"><ele>378.0</ele><time>2026-04-17T08:57:29.857Z</time></trkpt><trkpt lat="33.5553565" lon="9.8492829"><ele>377.1666666666667</ele><time>2026-04-17T08:57:31.849Z</time></trkpt><trkpt lat="33.5554351" lon="9.8493279"><ele>376.3333333333333</ele><time>2026-04-17T08:57:32.873Z</time></trkpt><trkpt lat="33.5555258" lon="9.8493572"><ele>375.5</ele><time>2026-04-17T08:57:33.852Z</time></trkpt><trkpt lat="33.5556223" lon="9.8493497"><ele>374.66666666666663</ele><time>2026-04-17T08:57:34.854Z</time></trkpt><trkpt lat="33.5557073" lon="9.8493389"><ele>373.8333333333333</ele><time>2026-04-17T08:57:35.846Z</time></trkpt><trkpt lat="33.5557841" lon="9.8493509"><ele>373.0</ele><time>2026-04-17T08:57:36.847Z</time></trkpt><trkpt lat="33.5558542" lon="9.8493809"><ele>373.0</ele><time>2026-04-17T08:57:37.848Z</time></trkpt><trkpt lat="33.5559707" lon="9.8493721"><ele>373.0</ele><time>2026-04-17T08:57:39.85Z</time></trkpt><trkpt lat="33.5560252" lon="9.84932"><ele>373.0</ele><time>2026-04-17T08:57:40.842Z</time></trkpt><trkpt lat="33.5560912" lon="9.8492396"><ele>373.0</ele><time>2026-04-17T08:57:41.853Z</time></trkpt><trkpt lat="33.5561614" lon="9.8491467"><ele>373.0</ele><time>2026-04-17T08:57:42.851Z</time></trkpt><trkpt lat="33.5562328" lon="9.8490647"><ele>372.4</ele><time>2026-04-17T08:57:43.854Z</time></trkpt><trkpt lat="33.5562973" lon="9.8489889"><ele>371.79999999999995</ele><time>2026-04-17T08:57:44.854Z</time></trkpt><trkpt lat="33.5563762" lon="9.8489262"><ele>371.2</ele><time>2026-04-17T08:57:45.857Z</time></trkpt><trkpt lat="33.5564419" lon="9.848881"><ele>370.6</ele><time>2026-04-17T08:57:46.844Z</time></trkpt><trkpt lat="33.5565096" lon="9.8488644"><ele>370.0</ele><time>2026-04-17T08:57:47.849Z</time></trkpt><trkpt lat="33.5566315" lon="9.8488226"><ele>370.0</ele><time>2026-04-17T08:57:49.858Z</time></trkpt><trkpt lat="33.5566878" lon="9.8487753"><ele>370.0</ele><time>2026-04-17T08:57:50.834Z</time></trkpt><trkpt lat="33.5567369" lon="9.8486898"><ele>370.0</ele><time>2026-04-17T08:57:51.851Z</time></trkpt><trkpt lat="33.5567937" lon="9.8486075"><ele>370.0</ele><time>2026-04-17T08:57:52.859Z</time></trkpt><trkpt lat="33.5568661" lon="9.8485592"><ele>370.0</ele><time>2026-04-17T08:57:53.853Z</time></trkpt><trkpt lat="33.5569452" lon="9.848537"><ele>370.0</ele><time>2026-04-17T08:57:54.857Z</time></trkpt><trkpt lat="33.5570157" lon="9.8485028"><ele>369.1428571428571</ele><time>2026-04-17T08:57:55.842Z</time></trkpt><trkpt lat="33.5570648" lon="9.8484471"><ele>368.2857142857143</ele><time>2026-04-17T08:57:56.847Z</time></trkpt><trkpt lat="33.5571053" lon="9.8483586"><ele>367.42857142857144</ele><time>2026-04-17T08:57:57.85Z</time></trkpt><trkpt lat="33.5571276" lon="9.8482706"><ele>366.57142857142856</ele><time>2026-04-17T08:57:58.861Z</time></trkpt><trkpt lat="33.5571697" lon="9.8481929"><ele>365.7142857142857</ele><time>2026-04-17T08:57:59.861Z</time></trkpt><trkpt lat="33.5572073" lon="9.8481308"><ele>364.85714285714283</ele><time>2026-04-17T08:58:00.851Z</time></trkpt><trkpt lat="33.5572628" lon="9.8480797"><ele>364.0</ele><time>2026-04-17T08:58:01.862Z</time></trkpt><trkpt lat="33.5573295" lon="9.848035"><ele>364.0</ele><time>2026-04-17T08:58:02.872Z</time></trkpt><trkpt lat="33.5573942" lon="9.8479972"><ele>364.0</ele><time>2026-04-17T08:58:03.885Z</time></trkpt><trkpt lat="33.557464" lon="9.847967"><ele>364.0</ele><time>2026-04-17T08:58:04.874Z</time></trkpt><trkpt lat="33.5575296" lon="9.8479253"><ele>364.0</ele><time>2026-04-17T08:58:05.859Z</time></trkpt><trkpt lat="33.5575872" lon="9.8478673"><ele>364.0</ele><time>2026-04-17T08:58:06.864Z</time></trkpt><trkpt lat="33.557648" lon="9.8477826"><ele>364.0</ele><time>2026-04-17T08:58:07.867Z</time></trkpt><trkpt lat="33.5577051" lon="9.847688"><ele>364.2</ele><time>2026-04-17T08:58:08.861Z</time></trkpt><trkpt lat="33.5577512" lon="9.8475865"><ele>364.4</ele><time>2026-04-17T08:58:09.867Z</time></trkpt><trkpt lat="33.5577816" lon="9.8474766"><ele>364.6</ele><time>2026-04-17T08:58:10.87Z</time></trkpt><trkpt lat="33.5578002" lon="9.8473451"><ele>364.8</ele><time>2026-04-17T08:58:11.871Z</time></trkpt><trkpt lat="33.5578194" lon="9.8472207"><ele>365.0</ele><time>2026-04-17T08:58:12.869Z</time></trkpt><trkpt lat="33.5578409" lon="9.8471065"><ele>365.0</ele><time>2026-04-17T08:58:13.864Z</time></trkpt><trkpt lat="33.5578647" lon="9.8469994"><ele>365.0</ele><time>2026-04-17T08:58:14.857Z</time></trkpt><trkpt lat="33.5579008" lon="9.8468997"><ele>365.0</ele><time>2026-04-17T08:58:15.859Z</time></trkpt><trkpt lat="33.5579294" lon="9.8467847"><ele>365.0</ele><time>2026-04-17T08:58:16.857Z</time></trkpt><trkpt lat="33.5579553" lon="9.8466878"><ele>365.0</ele><time>2026-04-17T08:58:17.866Z</time></trkpt><trkpt lat="33.5579868" lon="9.8466082"><ele>365.0</ele><time>2026-04-17T08:58:18.861Z</time></trkpt><trkpt lat="33.5580152" lon="9.846514"><ele>364.1666666666667</ele><time>2026-04-17T08:58:19.861Z</time></trkpt><trkpt lat="33.5580519" lon="9.8464222"><ele>363.33333333333337</ele><time>2026-04-17T08:58:20.859Z</time></trkpt><trkpt lat="33.558085" lon="9.8463303"><ele>362.5</ele><time>2026-04-17T08:58:21.86Z</time></trkpt><trkpt lat="33.5581094" lon="9.8462417"><ele>361.6666666666667</ele><time>2026-04-17T08:58:22.86Z</time></trkpt><trkpt lat="33.5581273" lon="9.8461638"><ele>360.8333333333333</ele><time>2026-04-17T08:58:23.855Z</time></trkpt><trkpt lat="33.5581468" lon="9.8460815"><ele>360.0</ele><time>2026-04-17T08:58:24.857Z</time></trkpt><trkpt lat="33.5581724" lon="9.846008"><ele>358.6666666666667</ele><time>2026-04-17T08:58:25.857Z</time></trkpt><trkpt lat="33.5581951" lon="9.8458729"><ele>357.3333333333333</ele><time>2026-04-17T08:58:27.867Z</time></trkpt><trkpt lat="33.5582396" lon="9.845794"><ele>356.0</ele><time>2026-04-17T08:58:29.868Z</time></trkpt><trkpt lat="33.5583259" lon="9.8458343"><ele>354.66666666666663</ele><time>2026-04-17T08:58:31.86Z</time></trkpt><trkpt lat="33.5583877" lon="9.8458794"><ele>353.3333333333333</ele><time>2026-04-17T08:58:32.873Z</time></trkpt><trkpt lat="33.5584504" lon="9.8459127"><ele>352.0</ele><time>2026-04-17T08:58:33.865Z</time></trkpt><trkpt lat="33.5585115" lon="9.8459362"><ele>351.8</ele><time>2026-04-17T08:58:34.891Z</time></trkpt><trkpt lat="33.5586104" lon="9.8459631"><ele>351.6</ele><time>2026-04-17T08:58:36.864Z</time></trkpt><trkpt lat="33.5587184" lon="9.8460375"><ele>351.40000000000003</ele><time>2026-04-17T08:58:38.87Z</time></trkpt><trkpt lat="33.5587788" lon="9.8460759"><ele>351.20000000000005</ele><time>2026-04-17T08:58:39.86Z</time></trkpt><trkpt lat="33.5588848" lon="9.8460958"><ele>351.0</ele><time>2026-04-17T08:58:41.863Z</time></trkpt><trkpt lat="33.5589042" lon="9.8460178"><ele>351.20000000000005</ele><time>2026-04-17T08:58:44.871Z</time></trkpt><trkpt lat="33.5588884" lon="9.8459056"><ele>351.40000000000003</ele><time>2026-04-17T08:58:46.87Z</time></trkpt><trkpt lat="33.5589125" lon="9.8458025"><ele>351.6</ele><time>2026-04-17T08:58:48.875Z</time></trkpt><trkpt lat="33.5589293" lon="9.8457108"><ele>351.8</ele><time>2026-04-17T08:58:50.863Z</time></trkpt><trkpt lat="33.5589246" lon="9.8456092"><ele>352.0</ele><time>2026-04-17T08:58:52.878Z</time></trkpt><trkpt lat="33.558914" lon="9.8454846"><ele>352.0</ele><time>2026-04-17T08:58:54.872Z</time></trkpt><trkpt lat="33.5589343" lon="9.8453876"><ele>352.0</ele><time>2026-04-17T08:58:56.877Z</time></trkpt><trkpt lat="33.559019" lon="9.8453589"><ele>352.0</ele><time>2026-04-17T08:58:58.868Z</time></trkpt><trkpt lat="33.5591208" lon="9.8453846"><ele>352.0</ele><time>2026-04-17T08:59:00.877Z</time></trkpt><trkpt lat="33.5592056" lon="9.8453871"><ele>352.0</ele><time>2026-04-17T08:59:02.876Z</time></trkpt><trkpt lat="33.5592872" lon="9.8453416"><ele>352.0</ele><time>2026-04-17T08:59:04.876Z</time></trkpt><trkpt lat="33.5593422" lon="9.8452374"><ele>352.0</ele><time>2026-04-17T08:59:06.866Z</time></trkpt><trkpt lat="33.5593904" lon="9.8451139"><ele>352.0</ele><time>2026-04-17T08:59:08.858Z</time></trkpt><trkpt lat="33.559424" lon="9.845048"><ele>352.0</ele><time>2026-04-17T08:59:09.856Z</time></trkpt><trkpt lat="33.5594593" lon="9.8449827"><ele>352.0</ele><time>2026-04-17T08:59:10.86Z</time></trkpt><trkpt lat="33.5595434" lon="9.8448609"><ele>355.16666666666663</ele><time>2026-04-17T08:59:12.848Z</time></trkpt><trkpt lat="33.5595985" lon="9.8447908"><ele>358.3333333333333</ele><time>2026-04-17T08:59:13.874Z</time></trkpt><trkpt lat="33.5596475" lon="9.8447087"><ele>361.5</ele><time>2026-04-17T08:59:14.871Z</time></trkpt><trkpt lat="33.5596974" lon="9.8446257"><ele>364.6666666666667</ele><time>2026-04-17T08:59:15.864Z</time></trkpt><trkpt lat="33.5597474" lon="9.8445366"><ele>367.83333333333337</ele><time>2026-04-17T08:59:16.873Z</time></trkpt><trkpt lat="33.5598052" lon="9.8444376"><ele>371.0</ele><time>2026-04-17T08:59:17.873Z</time></trkpt><trkpt lat="33.5598511" lon="9.8443417"><ele>370.6</ele><time>2026-04-17T08:59:18.939Z</time></trkpt><trkpt lat="33.5599044" lon="9.8442308"><ele>370.20000000000005</ele><time>2026-04-17T08:59:19.965Z</time></trkpt><trkpt lat="33.5599648" lon="9.8441229"><ele>369.79999999999995</ele><time>2026-04-17T08:59:20.951Z</time></trkpt><trkpt lat="33.5600226" lon="9.8440227"><ele>369.4</ele><time>2026-04-17T08:59:21.946Z</time></trkpt><trkpt lat="33.5600735" lon="9.8439247"><ele>369.0</ele><time>2026-04-17T08:59:22.948Z</time></trkpt><trkpt lat="33.5601131" lon="9.843828"><ele>369.0</ele><time>2026-04-17T08:59:23.939Z</time></trkpt><trkpt lat="33.5601761" lon="9.8437212"><ele>369.0</ele><time>2026-04-17T08:59:24.952Z</time></trkpt><trkpt lat="33.5602159" lon="9.8436404"><ele>369.0</ele><time>2026-04-17T08:59:25.945Z</time></trkpt><trkpt lat="33.5602604" lon="9.8435682"><ele>369.0</ele><time>2026-04-17T08:59:26.923Z</time></trkpt><trkpt lat="33.5603634" lon="9.8434495"><ele>369.0</ele><time>2026-04-17T08:59:28.933Z</time></trkpt><trkpt lat="33.5604237" lon="9.8433755"><ele>369.6666666666667</ele><time>2026-04-17T08:59:29.931Z</time></trkpt><trkpt lat="33.5604784" lon="9.8433001"><ele>370.3333333333333</ele><time>2026-04-17T08:59:30.949Z</time></trkpt><trkpt lat="33.5605384" lon="9.8432187"><ele>371.0</ele><time>2026-04-17T08:59:31.958Z</time></trkpt><trkpt lat="33.5606016" lon="9.8431536"><ele>371.66666666666663</ele><time>2026-04-17T08:59:32.958Z</time></trkpt><trkpt lat="33.5606689" lon="9.8431093"><ele>372.3333333333333</ele><time>2026-04-17T08:59:33.95Z</time></trkpt><trkpt lat="33.5607382" lon="9.8430656"><ele>373.0</ele><time>2026-04-17T08:59:34.961Z</time></trkpt><trkpt lat="33.5608006" lon="9.8430102"><ele>373.0</ele><time>2026-04-17T08:59:35.924Z</time></trkpt><trkpt lat="33.560849" lon="9.8429376"><ele>373.0</ele><time>2026-04-17T08:59:36.969Z</time></trkpt><trkpt lat="33.5608816" lon="9.8428648"><ele>373.0</ele><time>2026-04-17T08:59:37.937Z</time></trkpt><trkpt lat="33.5608969" lon="9.8427812"><ele>373.0</ele><time>2026-04-17T08:59:38.927Z</time></trkpt><trkpt lat="33.5609108" lon="9.8426849"><ele>373.0</ele><time>2026-04-17T08:59:39.954Z</time></trkpt><trkpt lat="33.5609135" lon="9.8425935"><ele>373.0</ele><time>2026-04-17T08:59:40.96Z</time></trkpt><trkpt lat="33.5609098" lon="9.8424857"><ele>373.75</ele><time>2026-04-17T08:59:41.933Z</time></trkpt><trkpt lat="33.5609005" lon="9.8423986"><ele>374.5</ele><time>2026-04-17T08:59:42.948Z</time></trkpt><trkpt lat="33.5608911" lon="9.8423228"><ele>375.25</ele><time>2026-04-17T08:59:43.937Z</time></trkpt><trkpt lat="33.5609512" lon="9.8420637"><ele>376.0</ele><time>2026-04-17T08:59:45.946Z</time></trkpt><trkpt lat="33.5609624" lon="9.8419371"><ele>376.0</ele><time>2026-04-17T08:59:46.939Z</time></trkpt><trkpt lat="33.5609519" lon="9.8418428"><ele>376.0</ele><time>2026-04-17T08:59:48.944Z</time></trkpt><trkpt lat="33.5609897" lon="9.8415441"><ele>376.0</ele><time>2026-04-17T08:59:49.944Z</time></trkpt><trkpt lat="33.5610243" lon="9.8412947"><ele>376.20000000000005</ele><time>2026-04-17T08:59:52.931Z</time></trkpt><trkpt lat="33.5610473" lon="9.8411994"><ele>376.40000000000003</ele><time>2026-04-17T08:59:53.928Z</time></trkpt><trkpt lat="33.5611026" lon="9.8410659"><ele>376.6</ele><time>2026-04-17T08:59:54.931Z</time></trkpt><trkpt lat="33.5611508" lon="9.840957"><ele>376.8</ele><time>2026-04-17T08:59:55.95Z</time></trkpt><trkpt lat="33.561177" lon="9.8408732"><ele>377.0</ele><time>2026-04-17T08:59:56.954Z</time></trkpt><trkpt lat="33.5612302" lon="9.8407947"><ele>377.40000000000003</ele><time>2026-04-17T08:59:57.939Z</time></trkpt><trkpt lat="33.561301" lon="9.8406944"><ele>377.8</ele><time>2026-04-17T09:00:01.937Z</time></trkpt><trkpt lat="33.5613399" lon="9.840597"><ele>378.2</ele><time>2026-04-17T09:00:03.964Z</time></trkpt><trkpt lat="33.5614086" lon="9.8404588"><ele>378.6</ele><time>2026-04-17T09:00:05.971Z</time></trkpt><trkpt lat="33.5614392" lon="9.8403704"><ele>379.0</ele><time>2026-04-17T09:00:07.962Z</time></trkpt><trkpt lat="33.5614622" lon="9.8402964"><ele>379.0</ele><time>2026-04-17T09:00:09.966Z</time></trkpt><trkpt lat="33.5614937" lon="9.8402224"><ele>379.0</ele><time>2026-04-17T09:00:11.969Z</time></trkpt><trkpt lat="33.5615191" lon="9.8401449"><ele>379.0</ele><time>2026-04-17T09:00:13.968Z</time></trkpt><trkpt lat="33.5615456" lon="9.8400655"><ele>379.0</ele><time>2026-04-17T09:00:15.973Z</time></trkpt><trkpt lat="33.5615804" lon="9.8399584"><ele>379.0</ele><time>2026-04-17T09:00:17.971Z</time></trkpt><trkpt lat="33.5616196" lon="9.8398548"><ele>379.0</ele><time>2026-04-17T09:00:19.969Z</time></trkpt><trkpt lat="33.5616563" lon="9.8397381"><ele>378.75</ele><time>2026-04-17T09:00:21.965Z</time></trkpt><trkpt lat="33.5616614" lon="9.8396162"><ele>378.5</ele><time>2026-04-17T09:00:23.971Z</time></trkpt><trkpt lat="33.5616271" lon="9.8394869"><ele>378.25</ele><time>2026-04-17T09:00:25.954Z</time></trkpt><trkpt lat="33.5615977" lon="9.8392549"><ele>378.0</ele><time>2026-04-17T09:00:28.842Z</time></trkpt><trkpt lat="33.5616106" lon="9.8391551"><ele>378.0</ele><time>2026-04-17T09:00:29.85Z</time></trkpt><trkpt lat="33.5616383" lon="9.8390715"><ele>378.0</ele><time>2026-04-17T09:00:30.839Z</time></trkpt><trkpt lat="33.561686" lon="9.8390105"><ele>378.0</ele><time>2026-04-17T09:00:31.858Z</time></trkpt><trkpt lat="33.5617392" lon="9.8389509"><ele>378.0</ele><time>2026-04-17T09:00:32.858Z</time></trkpt><trkpt lat="33.5618152" lon="9.8388164"><ele>378.0</ele><time>2026-04-17T09:00:34.859Z</time></trkpt><trkpt lat="33.5618374" lon="9.8387425"><ele>378.0</ele><time>2026-04-17T09:00:35.855Z</time></trkpt><trkpt lat="33.5618439" lon="9.8386638"><ele>378.0</ele><time>2026-04-17T09:00:36.855Z</time></trkpt><trkpt lat="33.5618506" lon="9.8385772"><ele>378.0</ele><time>2026-04-17T09:00:37.878Z</time></trkpt><trkpt lat="33.5618711" lon="9.8384245"><ele>378.0</ele><time>2026-04-17T09:00:39.886Z</time></trkpt><trkpt lat="33.5618873" lon="9.8383449"><ele>378.0</ele><time>2026-04-17T09:00:40.868Z</time></trkpt><trkpt lat="33.561932" lon="9.8382411"><ele>378.0</ele><time>2026-04-17T09:00:42.858Z</time></trkpt><trkpt lat="33.5619772" lon="9.8381684"><ele>378.0</ele><time>2026-04-17T09:01:46.867Z</time></trkpt><trkpt lat="33.5620407" lon="9.8380459"><ele>376.4</ele><time>2026-04-17T09:01:48.857Z</time></trkpt><trkpt lat="33.5620906" lon="9.83795"><ele>374.79999999999995</ele><time>2026-04-17T09:01:49.862Z</time></trkpt><trkpt lat="33.5621357" lon="9.8378496"><ele>373.2</ele><time>2026-04-17T09:01:50.848Z</time></trkpt><trkpt lat="33.5621856" lon="9.8377338"><ele>371.6</ele><time>2026-04-17T09:01:51.848Z</time></trkpt><trkpt lat="33.5622253" lon="9.8376225"><ele>370.0</ele><time>2026-04-17T09:01:52.87Z</time></trkpt><trkpt lat="33.5622475" lon="9.8374988"><ele>369.8</ele><time>2026-04-17T09:01:53.864Z</time></trkpt><trkpt lat="33.5622418" lon="9.8373756"><ele>369.6</ele><time>2026-04-17T09:01:54.862Z</time></trkpt><trkpt lat="33.5622294" lon="9.8372763"><ele>369.4</ele><time>2026-04-17T09:01:55.854Z</time></trkpt><trkpt lat="33.5622311" lon="9.8371869"><ele>369.2</ele><time>2026-04-17T09:01:56.852Z</time></trkpt><trkpt lat="33.5622456" lon="9.8370845"><ele>369.0</ele><time>2026-04-17T09:01:57.855Z</time></trkpt><trkpt lat="33.5622854" lon="9.8369657"><ele>369.0</ele><time>2026-04-17T09:01:58.864Z</time></trkpt><trkpt lat="33.5623216" lon="9.8368428"><ele>369.0</ele><time>2026-04-17T09:01:59.865Z</time></trkpt><trkpt lat="33.5623427" lon="9.8367111"><ele>369.0</ele><time>2026-04-17T09:02:00.858Z</time></trkpt><trkpt lat="33.5623471" lon="9.8365692"><ele>369.0</ele><time>2026-04-17T09:02:01.868Z</time></trkpt><trkpt lat="33.5623408" lon="9.8364254"><ele>368.5</ele><time>2026-04-17T09:02:02.863Z</time></trkpt><trkpt lat="33.56233" lon="9.8363001"><ele>368.0</ele><time>2026-04-17T09:02:03.86Z</time></trkpt><trkpt lat="33.5623232" lon="9.8362019"><ele>367.5</ele><time>2026-04-17T09:02:04.861Z</time></trkpt><trkpt lat="33.5622947" lon="9.8361136"><ele>367.0</ele><time>2026-04-17T09:02:05.855Z</time></trkpt><trkpt lat="33.5622468" lon="9.8360479"><ele>366.5</ele><time>2026-04-17T09:02:06.861Z</time></trkpt><trkpt lat="33.5621832" lon="9.8359641"><ele>366.0</ele><time>2026-04-17T09:02:07.871Z</time></trkpt><trkpt lat="33.5621312" lon="9.835873"><ele>365.6</ele><time>2026-04-17T09:02:08.866Z</time></trkpt><trkpt lat="33.5620953" lon="9.8357617"><ele>365.20000000000005</ele><time>2026-04-17T09:02:09.861Z</time></trkpt><trkpt lat="33.5620743" lon="9.8356457"><ele>364.79999999999995</ele><time>2026-04-17T09:02:10.878Z</time></trkpt><trkpt lat="33.5620885" lon="9.8355341"><ele>364.4</ele><time>2026-04-17T09:02:11.856Z</time></trkpt><trkpt lat="33.5621065" lon="9.8354061"><ele>364.0</ele><time>2026-04-17T09:02:12.857Z</time></trkpt><trkpt lat="33.5621104" lon="9.8352778"><ele>364.0</ele><time>2026-04-17T09:02:13.865Z</time></trkpt><trkpt lat="33.5621055" lon="9.8351385"><ele>364.0</ele><time>2026-04-17T09:02:14.855Z</time></trkpt><trkpt lat="33.5621212" lon="9.8350219"><ele>364.0</ele><time>2026-04-17T09:02:15.851Z</time></trkpt><trkpt lat="33.5621394" lon="9.8349274"><ele>364.0</ele><time>2026-04-17T09:02:16.853Z</time></trkpt><trkpt lat="33.562156" lon="9.8348357"><ele>364.0</ele><time>2026-04-17T09:02:17.865Z</time></trkpt><trkpt lat="33.5621546" lon="9.8347412"><ele>364.4</ele><time>2026-04-17T09:02:18.865Z</time></trkpt><trkpt lat="33.5621411" lon="9.8346475"><ele>364.79999999999995</ele><time>2026-04-17T09:02:19.862Z</time></trkpt><trkpt lat="33.5621035" lon="9.834536"><ele>365.20000000000005</ele><time>2026-04-17T09:02:20.868Z</time></trkpt><trkpt lat="33.5620638" lon="9.8344299"><ele>365.6</ele><time>2026-04-17T09:02:21.872Z</time></trkpt><trkpt lat="33.5620186" lon="9.8343298"><ele>366.0</ele><time>2026-04-17T09:02:22.869Z</time></trkpt><trkpt lat="33.5619872" lon="9.8342413"><ele>366.6</ele><time>2026-04-17T09:02:23.851Z</time></trkpt><trkpt lat="33.5619731" lon="9.8341491"><ele>367.20000000000005</ele><time>2026-04-17T09:02:24.854Z</time></trkpt><trkpt lat="33.5619671" lon="9.8340489"><ele>367.79999999999995</ele><time>2026-04-17T09:02:25.842Z</time></trkpt><trkpt lat="33.5619879" lon="9.8339551"><ele>368.4</ele><time>2026-04-17T09:02:26.844Z</time></trkpt><trkpt lat="33.5620546" lon="9.8338536"><ele>369.0</ele><time>2026-04-17T09:02:27.852Z</time></trkpt><trkpt lat="33.5621259" lon="9.8337526"><ele>369.0</ele><time>2026-04-17T09:02:28.843Z</time></trkpt><trkpt lat="33.5621733" lon="9.8336419"><ele>369.0</ele><time>2026-04-17T09:02:29.843Z</time></trkpt><trkpt lat="33.5622111" lon="9.8335342"><ele>369.0</ele><time>2026-04-17T09:02:30.857Z</time></trkpt><trkpt lat="33.5622404" lon="9.8334382"><ele>369.0</ele><time>2026-04-17T09:02:31.851Z</time></trkpt><trkpt lat="33.5622652" lon="9.8333368"><ele>369.0</ele><time>2026-04-17T09:02:32.86Z</time></trkpt><trkpt lat="33.5622756" lon="9.8332118"><ele>370.4</ele><time>2026-04-17T09:02:33.865Z</time></trkpt><trkpt lat="33.5622784" lon="9.8330872"><ele>371.79999999999995</ele><time>2026-04-17T09:02:34.86Z</time></trkpt><trkpt lat="33.5622938" lon="9.8329699"><ele>373.20000000000005</ele><time>2026-04-17T09:02:35.867Z</time></trkpt><trkpt lat="33.5623133" lon="9.832847"><ele>374.6</ele><time>2026-04-17T09:02:36.87Z</time></trkpt><trkpt lat="33.5623413" lon="9.8327443"><ele>376.0</ele><time>2026-04-17T09:02:37.859Z</time></trkpt><trkpt lat="33.5623862" lon="9.8326431"><ele>376.6</ele><time>2026-04-17T09:02:38.853Z</time></trkpt><trkpt lat="33.5624361" lon="9.8325284"><ele>377.20000000000005</ele><time>2026-04-17T09:02:39.852Z</time></trkpt><trkpt lat="33.5624833" lon="9.8324143"><ele>377.79999999999995</ele><time>2026-04-17T09:02:40.863Z</time></trkpt><trkpt lat="33.5625226" lon="9.8322954"><ele>378.4</ele><time>2026-04-17T09:02:41.874Z</time></trkpt><trkpt lat="33.5625498" lon="9.8321743"><ele>379.0</ele><time>2026-04-17T09:02:42.848Z</time></trkpt><trkpt lat="33.5625827" lon="9.8320692"><ele>379.0</ele><time>2026-04-17T09:02:43.845Z</time></trkpt><trkpt lat="33.5626207" lon="9.8319808"><ele>379.0</ele><time>2026-04-17T09:02:44.826Z</time></trkpt><trkpt lat="33.5626817" lon="9.8319197"><ele>379.0</ele><time>2026-04-17T09:02:45.84Z</time></trkpt><trkpt lat="33.5627607" lon="9.83189"><ele>379.0</ele><time>2026-04-17T09:02:46.848Z</time></trkpt><trkpt lat="33.5628525" lon="9.831893"><ele>379.0</ele><time>2026-04-17T09:02:47.844Z</time></trkpt><trkpt lat="33.5629582" lon="9.8319181"><ele>379.0</ele><time>2026-04-17T09:02:48.85Z</time></trkpt><trkpt lat="33.5630629" lon="9.8319396"><ele>378.0</ele><time>2026-04-17T09:02:49.853Z</time></trkpt><trkpt lat="33.5631688" lon="9.8319521"><ele>377.0</ele><time>2026-04-17T09:02:50.847Z</time></trkpt><trkpt lat="33.5632813" lon="9.8319535"><ele>376.0</ele><time>2026-04-17T09:02:51.858Z</time></trkpt><trkpt lat="33.5633939" lon="9.8319421"><ele>375.0</ele><time>2026-04-17T09:02:52.865Z</time></trkpt><trkpt lat="33.5634992" lon="9.8319279"><ele>374.0</ele><time>2026-04-17T09:02:53.864Z</time></trkpt><trkpt lat="33.5635893" lon="9.8318968"><ele>374.0</ele><time>2026-04-17T09:02:54.857Z</time></trkpt><trkpt lat="33.5636683" lon="9.8318519"><ele>374.0</ele><time>2026-04-17T09:02:55.859Z</time></trkpt><trkpt lat="33.5637505" lon="9.8317781"><ele>374.0</ele><time>2026-04-17T09:02:56.863Z</time></trkpt><trkpt lat="33.5638495" lon="9.8316955"><ele>374.0</ele><time>2026-04-17T09:02:57.859Z</time></trkpt><trkpt lat="33.5639433" lon="9.831618"><ele>374.0</ele><time>2026-04-17T09:02:58.859Z</time></trkpt><trkpt lat="33.5640417" lon="9.8315373"><ele>373.25</ele><time>2026-04-17T09:02:59.853Z</time></trkpt><trkpt lat="33.5641439" lon="9.8314414"><ele>372.5</ele><time>2026-04-17T09:03:00.856Z</time></trkpt><trkpt lat="33.5642503" lon="9.8313438"><ele>371.75</ele><time>2026-04-17T09:03:01.86Z</time></trkpt><trkpt lat="33.5643636" lon="9.831258"><ele>371.0</ele><time>2026-04-17T09:03:02.858Z</time></trkpt><trkpt lat="33.5644788" lon="9.8311937"><ele>370.75</ele><time>2026-04-17T09:03:03.853Z</time></trkpt><trkpt lat="33.5645958" lon="9.8311357"><ele>370.5</ele><time>2026-04-17T09:03:04.85Z</time></trkpt><trkpt lat="33.5647049" lon="9.8310674"><ele>370.25</ele><time>2026-04-17T09:03:05.85Z</time></trkpt><trkpt lat="33.564801" lon="9.8309901"><ele>370.0</ele><time>2026-04-17T09:03:06.833Z</time></trkpt><trkpt lat="33.5648871" lon="9.8309002"><ele>370.6</ele><time>2026-04-17T09:03:07.839Z</time></trkpt><trkpt lat="33.5649695" lon="9.8308179"><ele>371.2</ele><time>2026-04-17T09:03:08.844Z</time></trkpt><trkpt lat="33.565054" lon="9.8307522"><ele>371.79999999999995</ele><time>2026-04-17T09:03:09.834Z</time></trkpt><trkpt lat="33.565128" lon="9.8306897"><ele>372.4</ele><time>2026-04-17T09:03:10.846Z</time></trkpt><trkpt lat="33.5651873" lon="9.8306281"><ele>373.0</ele><time>2026-04-17T09:03:11.842Z</time></trkpt><trkpt lat="33.5652376" lon="9.830556"><ele>373.0</ele><time>2026-04-17T09:03:12.855Z</time></trkpt><trkpt lat="33.5652611" lon="9.8304624"><ele>373.0</ele><time>2026-04-17T09:03:13.854Z</time></trkpt><trkpt lat="33.5652738" lon="9.830333"><ele>373.0</ele><time>2026-04-17T09:03:14.857Z</time></trkpt><trkpt lat="33.5653002" lon="9.8301979"><ele>373.0</ele><time>2026-04-17T09:03:15.854Z</time></trkpt><trkpt lat="33.5653408" lon="9.8300626"><ele>373.0</ele><time>2026-04-17T09:03:16.848Z</time></trkpt><trkpt lat="33.5654003" lon="9.829949"><ele>373.0</ele><time>2026-04-17T09:03:17.86Z</time></trkpt><trkpt lat="33.565484" lon="9.8298451"><ele>373.0</ele><time>2026-04-17T09:03:18.854Z</time></trkpt><trkpt lat="33.5655697" lon="9.8297678"><ele>373.0</ele><time>2026-04-17T09:03:19.861Z</time></trkpt><trkpt lat="33.5656532" lon="9.8297147"><ele>373.0</ele><time>2026-04-17T09:03:20.853Z</time></trkpt><trkpt lat="33.565733" lon="9.8296756"><ele>373.0</ele><time>2026-04-17T09:03:21.862Z</time></trkpt><trkpt lat="33.5658097" lon="9.8296539"><ele>373.0</ele><time>2026-04-17T09:03:22.857Z</time></trkpt><trkpt lat="33.5658843" lon="9.8296332"><ele>373.0</ele><time>2026-04-17T09:03:23.86Z</time></trkpt><trkpt lat="33.5659587" lon="9.829623"><ele>373.0</ele><time>2026-04-17T09:03:24.858Z</time></trkpt><trkpt lat="33.5660381" lon="9.8296342"><ele>373.0</ele><time>2026-04-17T09:03:25.858Z</time></trkpt><trkpt lat="33.566116" lon="9.8296678"><ele>373.0</ele><time>2026-04-17T09:03:26.879Z</time></trkpt><trkpt lat="33.5661961" lon="9.8297276"><ele>373.0</ele><time>2026-04-17T09:03:27.872Z</time></trkpt><trkpt lat="33.5662806" lon="9.8297861"><ele>373.0</ele><time>2026-04-17T09:03:28.868Z</time></trkpt><trkpt lat="33.5663653" lon="9.8298402"><ele>373.0</ele><time>2026-04-17T09:03:29.855Z</time></trkpt><trkpt lat="33.5664349" lon="9.8298878"><ele>373.0</ele><time>2026-04-17T09:03:30.856Z</time></trkpt><trkpt lat="33.5664922" lon="9.8299331"><ele>373.0</ele><time>2026-04-17T09:03:31.859Z</time></trkpt><trkpt lat="33.5665497" lon="9.8300052"><ele>373.0</ele><time>2026-04-17T09:03:33.872Z</time></trkpt><trkpt lat="33.5666036" lon="9.8300819"><ele>373.0</ele><time>2026-04-17T09:03:35.868Z</time></trkpt><trkpt lat="33.5667062" lon="9.8301705"><ele>373.0</ele><time>2026-04-17T09:03:37.862Z</time></trkpt><trkpt lat="33.5667713" lon="9.8302086"><ele>373.0</ele><time>2026-04-17T09:03:38.858Z</time></trkpt><trkpt lat="33.5668393" lon="9.8302306"><ele>373.0</ele><time>2026-04-17T09:03:39.861Z</time></trkpt><trkpt lat="33.5669182" lon="9.8302303"><ele>373.0</ele><time>2026-04-17T09:03:40.862Z</time></trkpt><trkpt lat="33.5669973" lon="9.8302166"><ele>373.0</ele><time>2026-04-17T09:03:41.847Z</time></trkpt><trkpt lat="33.5670748" lon="9.8302073"><ele>373.0</ele><time>2026-04-17T09:03:42.866Z</time></trkpt><trkpt lat="33.5671406" lon="9.8302139"><ele>373.0</ele><time>2026-04-17T09:03:43.887Z</time></trkpt><trkpt lat="33.5672166" lon="9.8302302"><ele>372.66666666666663</ele><time>2026-04-17T09:03:44.863Z</time></trkpt><trkpt lat="33.5672828" lon="9.8302619"><ele>372.3333333333333</ele><time>2026-04-17T09:03:45.861Z</time></trkpt><trkpt lat="33.5673289" lon="9.8303235"><ele>372.0</ele><time>2026-04-17T09:03:46.857Z</time></trkpt><trkpt lat="33.5673565" lon="9.8304004"><ele>371.6666666666667</ele><time>2026-04-17T09:03:47.839Z</time></trkpt><trkpt lat="33.56738" lon="9.8305055"><ele>371.33333333333337</ele><time>2026-04-17T09:03:48.842Z</time></trkpt><trkpt lat="33.5674184" lon="9.8306062"><ele>371.0</ele><time>2026-04-17T09:03:49.852Z</time></trkpt><trkpt lat="33.5674509" lon="9.8306936"><ele>371.0</ele><time>2026-04-17T09:03:50.846Z</time></trkpt><trkpt lat="33.5674794" lon="9.8307762"><ele>371.0</ele><time>2026-04-17T09:03:51.851Z</time></trkpt><trkpt lat="33.5675489" lon="9.8309047"><ele>371.0</ele><time>2026-04-17T09:03:53.846Z</time></trkpt><trkpt lat="33.5676071" lon="9.8309661"><ele>371.0</ele><time>2026-04-17T09:03:54.847Z</time></trkpt><trkpt lat="33.5676735" lon="9.8310173"><ele>371.0</ele><time>2026-04-17T09:03:55.851Z</time></trkpt><trkpt lat="33.5677527" lon="9.8310395"><ele>371.0</ele><time>2026-04-17T09:03:56.852Z</time></trkpt><trkpt lat="33.5678282" lon="9.8310125"><ele>370.6</ele><time>2026-04-17T09:03:57.855Z</time></trkpt><trkpt lat="33.5679129" lon="9.8309614"><ele>370.20000000000005</ele><time>2026-04-17T09:03:58.854Z</time></trkpt><trkpt lat="33.5680029" lon="9.8308929"><ele>369.79999999999995</ele><time>2026-04-17T09:03:59.86Z</time></trkpt><trkpt lat="33.5680969" lon="9.83083"><ele>369.4</ele><time>2026-04-17T09:04:00.841Z</time></trkpt><trkpt lat="33.5681937" lon="9.8307801"><ele>369.0</ele><time>2026-04-17T09:04:01.841Z</time></trkpt><trkpt lat="33.5682939" lon="9.830759"><ele>369.0</ele><time>2026-04-17T09:04:02.854Z</time></trkpt><trkpt lat="33.5683945" lon="9.8307465"><ele>369.0</ele><time>2026-04-17T09:04:03.848Z</time></trkpt><trkpt lat="33.5684892" lon="9.8307195"><ele>369.0</ele><time>2026-04-17T09:04:04.852Z</time></trkpt><trkpt lat="33.5685573" lon="9.8306572"><ele>369.0</ele><time>2026-04-17T09:04:05.827Z</time></trkpt><trkpt lat="33.5686183" lon="9.830584"><ele>369.0</ele><time>2026-04-17T09:04:06.837Z</time></trkpt><trkpt lat="33.5686684" lon="9.8304779"><ele>369.79999999999995</ele><time>2026-04-17T09:04:07.837Z</time></trkpt><trkpt lat="33.5686942" lon="9.8303536"><ele>370.59999999999997</ele><time>2026-04-17T09:04:08.843Z</time></trkpt><trkpt lat="33.5687275" lon="9.8302477"><ele>371.4</ele><time>2026-04-17T09:04:09.842Z</time></trkpt><trkpt lat="33.5687505" lon="9.8301638"><ele>372.2</ele><time>2026-04-17T09:04:10.837Z</time></trkpt><trkpt lat="33.5688432" lon="9.8300894"><ele>373.0</ele><time>2026-04-17T09:04:12.832Z</time></trkpt><trkpt lat="33.5689254" lon="9.8300963"><ele>373.0</ele><time>2026-04-17T09:04:13.846Z</time></trkpt><trkpt lat="33.5690213" lon="9.8300755"><ele>373.0</ele><time>2026-04-17T09:04:14.881Z</time></trkpt><trkpt lat="33.5691129" lon="9.8300285"><ele>373.0</ele><time>2026-04-17T09:04:15.845Z</time></trkpt><trkpt lat="33.5692004" lon="9.8299531"><ele>373.0</ele><time>2026-04-17T09:04:16.855Z</time></trkpt><trkpt lat="33.5692962" lon="9.8298699"><ele>373.0</ele><time>2026-04-17T09:04:17.845Z</time></trkpt><trkpt lat="33.5693743" lon="9.829793"><ele>373.0</ele><time>2026-04-17T09:04:18.85Z</time></trkpt><trkpt lat="33.5694316" lon="9.829699"><ele>373.0</ele><time>2026-04-17T09:04:19.841Z</time></trkpt><trkpt lat="33.5694809" lon="9.8295839"><ele>373.0</ele><time>2026-04-17T09:04:20.85Z</time></trkpt><trkpt lat="33.5695212" lon="9.8294754"><ele>373.0</ele><time>2026-04-17T09:04:21.849Z</time></trkpt><trkpt lat="33.569563" lon="9.8293658"><ele>373.0</ele><time>2026-04-17T09:04:22.851Z</time></trkpt><trkpt lat="33.5696125" lon="9.8292728"><ele>373.3333333333333</ele><time>2026-04-17T09:04:23.846Z</time></trkpt><trkpt lat="33.5696686" lon="9.8291984"><ele>373.66666666666663</ele><time>2026-04-17T09:04:24.849Z</time></trkpt><trkpt lat="33.569736" lon="9.8291571"><ele>374.0</ele><time>2026-04-17T09:04:25.847Z</time></trkpt><trkpt lat="33.5698122" lon="9.8291349"><ele>374.3333333333333</ele><time>2026-04-17T09:04:26.84Z</time></trkpt><trkpt lat="33.5698897" lon="9.8291524"><ele>374.6666666666667</ele><time>2026-04-17T09:04:27.843Z</time></trkpt><trkpt lat="33.5699728" lon="9.8292053"><ele>375.0</ele><time>2026-04-17T09:04:28.833Z</time></trkpt><trkpt lat="33.5700695" lon="9.8292485"><ele>375.0</ele><time>2026-04-17T09:04:29.841Z</time></trkpt><trkpt lat="33.5701688" lon="9.829281"><ele>375.0</ele><time>2026-04-17T09:04:30.848Z</time></trkpt><trkpt lat="33.5702644" lon="9.8292951"><ele>375.0</ele><time>2026-04-17T09:04:31.842Z</time></trkpt><trkpt lat="33.5703621" lon="9.8292846"><ele>375.0</ele><time>2026-04-17T09:04:32.843Z</time></trkpt><trkpt lat="33.5704501" lon="9.8292465"><ele>375.0</ele><time>2026-04-17T09:04:33.848Z</time></trkpt><trkpt lat="33.5705249" lon="9.8292202"><ele>375.6666666666667</ele><time>2026-04-17T09:04:34.858Z</time></trkpt><trkpt lat="33.5705958" lon="9.8291941"><ele>376.3333333333333</ele><time>2026-04-17T09:04:35.854Z</time></trkpt><trkpt lat="33.5706586" lon="9.8291719"><ele>377.0</ele><time>2026-04-17T09:04:36.857Z</time></trkpt><trkpt lat="33.570748" lon="9.8290831"><ele>377.66666666666663</ele><time>2026-04-17T09:04:38.855Z</time></trkpt><trkpt lat="33.5707772" lon="9.8290155"><ele>378.3333333333333</ele><time>2026-04-17T09:04:39.833Z</time></trkpt><trkpt lat="33.5707944" lon="9.8289316"><ele>379.0</ele><time>2026-04-17T09:04:40.841Z</time></trkpt><trkpt lat="33.570801" lon="9.8288358"><ele>379.0</ele><time>2026-04-17T09:04:41.845Z</time></trkpt><trkpt lat="33.5708009" lon="9.828739"><ele>379.0</ele><time>2026-04-17T09:04:42.843Z</time></trkpt><trkpt lat="33.5708137" lon="9.828662"><ele>379.0</ele><time>2026-04-17T09:04:43.835Z</time></trkpt><trkpt lat="33.5708497" lon="9.8285452"><ele>379.0</ele><time>2026-04-17T09:04:45.844Z</time></trkpt><trkpt lat="33.5709282" lon="9.8284931"><ele>379.0</ele><time>2026-04-17T09:04:47.844Z</time></trkpt><trkpt lat="33.5710164" lon="9.8284653"><ele>379.0</ele><time>2026-04-17T09:04:49.848Z</time></trkpt><trkpt lat="33.57111" lon="9.828415"><ele>377.66666666666663</ele><time>2026-04-17T09:04:51.853Z</time></trkpt><trkpt lat="33.5711979" lon="9.8283828"><ele>376.3333333333333</ele><time>2026-04-17T09:04:53.863Z</time></trkpt><trkpt lat="33.571258" lon="9.8283394"><ele>375.0</ele><time>2026-04-17T09:04:56.863Z</time></trkpt><trkpt lat="33.5713338" lon="9.8283569"><ele>373.6666666666667</ele><time>2026-04-17T09:12:13.859Z</time></trkpt><trkpt lat="33.5713933" lon="9.828494"><ele>372.33333333333337</ele><time>2026-04-17T09:12:15.842Z</time></trkpt><trkpt lat="33.5714221" lon="9.8285647"><ele>371.0</ele><time>2026-04-17T09:12:16.841Z</time></trkpt><trkpt lat="33.5714553" lon="9.8286333"><ele>371.0</ele><time>2026-04-17T09:12:17.847Z</time></trkpt><trkpt lat="33.5715338" lon="9.8287446"><ele>371.0</ele><time>2026-04-17T09:12:19.837Z</time></trkpt><trkpt lat="33.5715923" lon="9.8287845"><ele>371.0</ele><time>2026-04-17T09:12:20.837Z</time></trkpt><trkpt lat="33.5716533" lon="9.8288123"><ele>371.0</ele><time>2026-04-17T09:12:21.833Z</time></trkpt><trkpt lat="33.5717143" lon="9.8288434"><ele>371.0</ele><time>2026-04-17T09:12:22.851Z</time></trkpt><trkpt lat="33.5717662" lon="9.8288953"><ele>371.0</ele><time>2026-04-17T09:12:23.846Z</time></trkpt><trkpt lat="33.5718189" lon="9.8289395"><ele>371.0</ele><time>2026-04-17T09:12:24.845Z</time></trkpt><trkpt lat="33.5719262" lon="9.829018"><ele>371.0</ele><time>2026-04-17T09:12:26.844Z</time></trkpt><trkpt lat="33.5720022" lon="9.8290725"><ele>371.0</ele><time>2026-04-17T09:12:27.853Z</time></trkpt><trkpt lat="33.572081" lon="9.829119"><ele>371.0</ele><time>2026-04-17T09:12:28.849Z</time></trkpt><trkpt lat="33.5721599" lon="9.8291496"><ele>371.0</ele><time>2026-04-17T09:12:29.841Z</time></trkpt><trkpt lat="33.5722391" lon="9.8291825"><ele>370.0</ele><time>2026-04-17T09:12:30.839Z</time></trkpt><trkpt lat="33.5723256" lon="9.8292038"><ele>369.0</ele><time>2026-04-17T09:12:31.84Z</time></trkpt><trkpt lat="33.5724113" lon="9.8292184"><ele>368.0</ele><time>2026-04-17T09:12:32.853Z</time></trkpt><trkpt lat="33.5724862" lon="9.8292208"><ele>367.0</ele><time>2026-04-17T09:12:33.839Z</time></trkpt><trkpt lat="33.5725571" lon="9.8292159"><ele>366.0</ele><time>2026-04-17T09:12:34.834Z</time></trkpt><trkpt lat="33.5726244" lon="9.8291838"><ele>365.0</ele><time>2026-04-17T09:12:35.834Z</time></trkpt><trkpt lat="33.5726942" lon="9.8291262"><ele>365.0</ele><time>2026-04-17T09:12:36.836Z</time></trkpt><trkpt lat="33.5727545" lon="9.8290643"><ele>365.0</ele><time>2026-04-17T09:12:37.846Z</time></trkpt><trkpt lat="33.5728002" lon="9.8290018"><ele>365.0</ele><time>2026-04-17T09:12:38.839Z</time></trkpt><trkpt lat="33.5728457" lon="9.8289394"><ele>365.0</ele><time>2026-04-17T09:12:39.837Z</time></trkpt><trkpt lat="33.5728918" lon="9.8288572"><ele>365.0</ele><time>2026-04-17T09:12:40.843Z</time></trkpt><trkpt lat="33.5729374" lon="9.8287713"><ele>365.0</ele><time>2026-04-17T09:12:41.832Z</time></trkpt><trkpt lat="33.572984" lon="9.8286977"><ele>366.5</ele><time>2026-04-17T09:12:42.842Z</time></trkpt><trkpt lat="33.5730332" lon="9.8286431"><ele>368.0</ele><time>2026-04-17T09:12:43.829Z</time></trkpt><trkpt lat="33.5730929" lon="9.8286081"><ele>369.5</ele><time>2026-04-17T09:12:44.834Z</time></trkpt><trkpt lat="33.5731623" lon="9.8285905"><ele>371.0</ele><time>2026-04-17T09:12:45.834Z</time></trkpt><trkpt lat="33.5732381" lon="9.8285825"><ele>372.5</ele><time>2026-04-17T09:12:46.838Z</time></trkpt><trkpt lat="33.5733199" lon="9.8285749"><ele>374.0</ele><time>2026-04-17T09:12:47.862Z</time></trkpt><trkpt lat="33.5734059" lon="9.8285509"><ele>374.0</ele><time>2026-04-17T09:12:48.843Z</time></trkpt><trkpt lat="33.5734829" lon="9.8285407"><ele>374.0</ele><time>2026-04-17T09:12:49.836Z</time></trkpt><trkpt lat="33.5735697" lon="9.8285611"><ele>374.0</ele><time>2026-04-17T09:12:50.845Z</time></trkpt><trkpt lat="33.5736575" lon="9.8285823"><ele>374.0</ele><time>2026-04-17T09:12:51.843Z</time></trkpt><trkpt lat="33.5737352" lon="9.8286125"><ele>374.0</ele><time>2026-04-17T09:12:52.851Z</time></trkpt><trkpt lat="33.5738096" lon="9.8286305"><ele>374.0</ele><time>2026-04-17T09:12:53.831Z</time></trkpt><trkpt lat="33.5738892" lon="9.828616"><ele>373.6666666666667</ele><time>2026-04-17T09:12:54.833Z</time></trkpt><trkpt lat="33.5739655" lon="9.8285622"><ele>373.33333333333337</ele><time>2026-04-17T09:12:55.836Z</time></trkpt><trkpt lat="33.5740216" lon="9.8284839"><ele>373.0</ele><time>2026-04-17T09:12:56.83Z</time></trkpt><trkpt lat="33.5740656" lon="9.8283938"><ele>372.6666666666667</ele><time>2026-04-17T09:12:57.838Z</time></trkpt><trkpt lat="33.5740999" lon="9.828314"><ele>372.3333333333333</ele><time>2026-04-17T09:12:58.829Z</time></trkpt><trkpt lat="33.5741367" lon="9.8282402"><ele>372.0</ele><time>2026-04-17T09:12:59.857Z</time></trkpt><trkpt lat="33.574188" lon="9.8281831"><ele>371.14285714285717</ele><time>2026-04-17T09:13:00.84Z</time></trkpt><trkpt lat="33.574239" lon="9.8281338"><ele>370.2857142857143</ele><time>2026-04-17T09:13:01.84Z</time></trkpt><trkpt lat="33.5742949" lon="9.8280919"><ele>369.42857142857144</ele><time>2026-04-17T09:13:02.851Z</time></trkpt><trkpt lat="33.5743483" lon="9.8280516"><ele>368.57142857142856</ele><time>2026-04-17T09:13:03.837Z</time></trkpt><trkpt lat="33.5744121" lon="9.8279986"><ele>367.7142857142857</ele><time>2026-04-17T09:13:04.841Z</time></trkpt><trkpt lat="33.5744706" lon="9.8279355"><ele>366.8571428571429</ele><time>2026-04-17T09:13:05.842Z</time></trkpt><trkpt lat="33.5745231" lon="9.8278549"><ele>366.0</ele><time>2026-04-17T09:13:06.84Z</time></trkpt><trkpt lat="33.574567" lon="9.8277707"><ele>366.0</ele><time>2026-04-17T09:13:07.853Z</time></trkpt><trkpt lat="33.5745924" lon="9.8276795"><ele>366.0</ele><time>2026-04-17T09:13:08.844Z</time></trkpt><trkpt lat="33.5746173" lon="9.8275847"><ele>366.0</ele><time>2026-04-17T09:13:09.845Z</time></trkpt><trkpt lat="33.5746315" lon="9.8274852"><ele>366.0</ele><time>2026-04-17T09:13:10.847Z</time></trkpt><trkpt lat="33.5746351" lon="9.8273863"><ele>366.0</ele><time>2026-04-17T09:13:11.843Z</time></trkpt><trkpt lat="33.5746273" lon="9.8272813"><ele>366.0</ele><time>2026-04-17T09:13:12.857Z</time></trkpt><trkpt lat="33.5746159" lon="9.8271781"><ele>365.6666666666667</ele><time>2026-04-17T09:13:13.857Z</time></trkpt><trkpt lat="33.5746058" lon="9.8270815"><ele>365.3333333333333</ele><time>2026-04-17T09:13:14.853Z</time></trkpt><trkpt lat="33.574588" lon="9.8269817"><ele>365.0</ele><time>2026-04-17T09:13:15.846Z</time></trkpt><trkpt lat="33.574567" lon="9.826882"><ele>364.66666666666663</ele><time>2026-04-17T09:13:16.844Z</time></trkpt><trkpt lat="33.5745414" lon="9.8267844"><ele>364.3333333333333</ele><time>2026-04-17T09:13:17.859Z</time></trkpt><trkpt lat="33.5745149" lon="9.8266917"><ele>364.0</ele><time>2026-04-17T09:13:18.844Z</time></trkpt><trkpt lat="33.5744854" lon="9.8266046"><ele>362.3333333333333</ele><time>2026-04-17T09:13:19.841Z</time></trkpt><trkpt lat="33.5744432" lon="9.8265314"><ele>360.66666666666663</ele><time>2026-04-17T09:13:20.847Z</time></trkpt><trkpt lat="33.5743933" lon="9.8264477"><ele>359.0</ele><time>2026-04-17T09:13:21.848Z</time></trkpt><trkpt lat="33.5743417" lon="9.8263754"><ele>357.3333333333333</ele><time>2026-04-17T09:13:22.852Z</time></trkpt><trkpt lat="33.5742854" lon="9.8263071"><ele>355.6666666666667</ele><time>2026-04-17T09:13:23.849Z</time></trkpt><trkpt lat="33.5742343" lon="9.8262396"><ele>354.0</ele><time>2026-04-17T09:13:24.85Z</time></trkpt><trkpt lat="33.5741824" lon="9.8261604"><ele>354.0</ele><time>2026-04-17T09:13:25.855Z</time></trkpt><trkpt lat="33.5741335" lon="9.8260976"><ele>354.0</ele><time>2026-04-17T09:13:26.848Z</time></trkpt><trkpt lat="33.574066" lon="9.8259967"><ele>354.0</ele><time>2026-04-17T09:13:28.847Z</time></trkpt><trkpt lat="33.5740651" lon="9.8258622"><ele>354.0</ele><time>2026-04-17T09:13:30.857Z</time></trkpt><trkpt lat="33.5740951" lon="9.8257372"><ele>354.0</ele><time>2026-04-17T09:13:32.85Z</time></trkpt><trkpt lat="33.5741769" lon="9.8257324"><ele>355.2</ele><time>2026-04-17T09:13:40.845Z</time></trkpt><trkpt lat="33.5742684" lon="9.8257758"><ele>356.4</ele><time>2026-04-17T09:13:42.837Z</time></trkpt><trkpt lat="33.5743667" lon="9.8258082"><ele>357.6</ele><time>2026-04-17T09:13:44.84Z</time></trkpt><trkpt lat="33.5744327" lon="9.8258366"><ele>358.8</ele><time>2026-04-17T09:13:46.834Z</time></trkpt><trkpt lat="33.5743418" lon="9.8258313"><ele>360.0</ele><time>2026-04-17T09:14:03.85Z</time></trkpt><trkpt lat="33.574213" lon="9.8257783"><ele>360.0</ele><time>2026-04-17T09:14:05.835Z</time></trkpt><trkpt lat="33.5741445" lon="9.8257391"><ele>360.0</ele><time>2026-04-17T09:14:06.84Z</time></trkpt><trkpt lat="33.5740834" lon="9.8257193"><ele>360.0</ele><time>2026-04-17T09:14:07.848Z</time></trkpt><trkpt lat="33.5740099" lon="9.8256696"><ele>360.0</ele><time>2026-04-17T09:14:09.852Z</time></trkpt><trkpt lat="33.5739353" lon="9.825584"><ele>360.0</ele><time>2026-04-17T09:14:11.841Z</time></trkpt><trkpt lat="33.5738561" lon="9.8255297"><ele>360.0</ele><time>2026-04-17T09:14:13.839Z</time></trkpt><trkpt lat="33.573801" lon="9.8254887"><ele>360.0</ele><time>2026-04-17T09:14:14.841Z</time></trkpt><trkpt lat="33.5737485" lon="9.8254462"><ele>360.0</ele><time>2026-04-17T09:14:15.834Z</time></trkpt><trkpt lat="33.5736942" lon="9.8253822"><ele>360.0</ele><time>2026-04-17T09:14:16.834Z</time></trkpt><trkpt lat="33.5736504" lon="9.8253184"><ele>360.0</ele><time>2026-04-17T09:14:17.825Z</time></trkpt><trkpt lat="33.5736219" lon="9.825247"><ele>360.0</ele><time>2026-04-17T09:14:18.833Z</time></trkpt><trkpt lat="33.5736325" lon="9.8251068"><ele>360.0</ele><time>2026-04-17T09:14:20.844Z</time></trkpt><trkpt lat="33.5737007" lon="9.8250275"><ele>361.0</ele><time>2026-04-17T09:14:22.857Z</time></trkpt><trkpt lat="33.5737774" lon="9.8249628"><ele>362.0</ele><time>2026-04-17T09:14:24.879Z</time></trkpt><trkpt lat="33.5738656" lon="9.8249509"><ele>363.0</ele><time>2026-04-17T09:14:26.861Z</time></trkpt><trkpt lat="33.5739371" lon="9.8249432"><ele>364.0</ele><time>2026-04-17T09:14:28.855Z</time></trkpt><trkpt lat="33.574002" lon="9.8249241"><ele>365.0</ele><time>2026-04-17T09:14:45.855Z</time></trkpt><trkpt lat="33.5740594" lon="9.8248897"><ele>366.0</ele><time>2026-04-17T09:14:47.869Z</time></trkpt><trkpt lat="33.57414" lon="9.8248482"><ele>366.0</ele><time>2026-04-17T09:14:49.865Z</time></trkpt><trkpt lat="33.5742115" lon="9.8248359"><ele>366.0</ele><time>2026-04-17T09:14:51.86Z</time></trkpt><trkpt lat="33.5742846" lon="9.8247917"><ele>366.0</ele><time>2026-04-17T09:14:54.864Z</time></trkpt><trkpt lat="33.5743291" lon="9.8247169"><ele>366.0</ele><time>2026-04-17T09:14:56.853Z</time></trkpt><trkpt lat="33.5743587" lon="9.8246301"><ele>366.0</ele><time>2026-04-17T09:14:58.844Z</time></trkpt><trkpt lat="33.5743773" lon="9.8245358"><ele>366.0</ele><time>2026-04-17T09:15:00.838Z</time></trkpt><trkpt lat="33.5743522" lon="9.8244359"><ele>366.0</ele><time>2026-04-17T09:15:02.848Z</time></trkpt><trkpt lat="33.5743108" lon="9.8243311"><ele>366.0</ele><time>2026-04-17T09:15:04.833Z</time></trkpt><trkpt lat="33.5742831" lon="9.8242607"><ele>366.0</ele><time>2026-04-17T09:15:05.845Z</time></trkpt><trkpt lat="33.5742303" lon="9.8241407"><ele>366.0</ele><time>2026-04-17T09:15:07.856Z</time></trkpt><trkpt lat="33.5742005" lon="9.8240685"><ele>366.0</ele><time>2026-04-17T09:15:08.856Z</time></trkpt><trkpt lat="33.5741513" lon="9.8239782"><ele>366.0</ele><time>2026-04-17T09:15:10.858Z</time></trkpt><trkpt lat="33.5741197" lon="9.8238941"><ele>366.4</ele><time>2026-04-17T09:15:13.859Z</time></trkpt><trkpt lat="33.5741038" lon="9.8238032"><ele>366.8</ele><time>2026-04-17T09:15:17.853Z</time></trkpt><trkpt lat="33.5741228" lon="9.8237092"><ele>367.2</ele><time>2026-04-17T09:15:19.848Z</time></trkpt><trkpt lat="33.5741308" lon="9.8235908"><ele>367.59999999999997</ele><time>2026-04-17T09:15:21.838Z</time></trkpt><trkpt lat="33.5740933" lon="9.8234845"><ele>368.0</ele><time>2026-04-17T09:15:23.849Z</time></trkpt><trkpt lat="33.5740607" lon="9.8233709"><ele>368.0</ele><time>2026-04-17T09:15:25.848Z</time></trkpt><trkpt lat="33.5740721" lon="9.8232536"><ele>368.0</ele><time>2026-04-17T09:15:27.855Z</time></trkpt><trkpt lat="33.5740787" lon="9.8231609"><ele>368.0</ele><time>2026-04-17T09:15:29.847Z</time></trkpt><trkpt lat="33.5740161" lon="9.8230959"><ele>368.0</ele><time>2026-04-17T09:15:31.849Z</time></trkpt><trkpt lat="33.5739259" lon="9.8230626"><ele>368.0</ele><time>2026-04-17T09:15:33.836Z</time></trkpt><trkpt lat="33.5738182" lon="9.8230718"><ele>368.0</ele><time>2026-04-17T09:15:35.832Z</time></trkpt><trkpt lat="33.5737546" lon="9.8230875"><ele>368.0</ele><time>2026-04-17T09:15:36.826Z</time></trkpt><trkpt lat="33.5736822" lon="9.8230885"><ele>368.0</ele><time>2026-04-17T09:15:37.842Z</time></trkpt><trkpt lat="33.573615" lon="9.8230777"><ele>368.0</ele><time>2026-04-17T09:15:38.842Z</time></trkpt><trkpt lat="33.5735228" lon="9.8230375"><ele>368.0</ele><time>2026-04-17T09:15:40.855Z</time></trkpt><trkpt lat="33.5734656" lon="9.8229787"><ele>368.0</ele><time>2026-04-17T09:15:42.85Z</time></trkpt><trkpt lat="33.5733951" lon="9.8228463"><ele>368.0</ele><time>2026-04-17T09:15:44.847Z</time></trkpt><trkpt lat="33.5733699" lon="9.8227675"><ele>368.0</ele><time>2026-04-17T09:15:45.853Z</time></trkpt><trkpt lat="33.5733558" lon="9.8226863"><ele>368.0</ele><time>2026-04-17T09:15:46.855Z</time></trkpt><trkpt lat="33.5733694" lon="9.8226002"><ele>368.0</ele><time>2026-04-17T09:15:47.852Z</time></trkpt><trkpt lat="33.5734012" lon="9.8225309"><ele>368.0</ele><time>2026-04-17T09:15:48.85Z</time></trkpt><trkpt lat="33.5734515" lon="9.8224309"><ele>368.0</ele><time>2026-04-17T09:15:50.845Z</time></trkpt><trkpt lat="33.5734272" lon="9.822333"><ele>368.0</ele><time>2026-04-17T09:15:56.863Z</time></trkpt><trkpt lat="33.5733893" lon="9.8222541"><ele>368.0</ele><time>2026-04-17T09:15:58.856Z</time></trkpt><trkpt lat="33.5733513" lon="9.8221657"><ele>368.0</ele><time>2026-04-17T09:16:00.856Z</time></trkpt><trkpt lat="33.5733092" lon="9.8220526"><ele>368.0</ele><time>2026-04-17T09:16:02.854Z</time></trkpt><trkpt lat="33.573267" lon="9.8219397"><ele>368.0</ele><time>2026-04-17T09:16:04.859Z</time></trkpt><trkpt lat="33.573205" lon="9.8218205"><ele>367.59999999999997</ele><time>2026-04-17T09:16:06.851Z</time></trkpt><trkpt lat="33.573165" lon="9.8217275"><ele>367.2</ele><time>2026-04-17T09:16:08.861Z</time></trkpt><trkpt lat="33.5730898" lon="9.8216534"><ele>366.8</ele><time>2026-04-17T09:16:49.869Z</time></trkpt><trkpt lat="33.5730261" lon="9.8216103"><ele>366.4</ele><time>2026-04-17T09:16:51.872Z</time></trkpt><trkpt lat="33.5730426" lon="9.8214989"><ele>366.0</ele><time>2026-04-17T09:16:54.858Z</time></trkpt><trkpt lat="33.5731103" lon="9.8213889"><ele>366.0</ele><time>2026-04-17T09:16:56.846Z</time></trkpt><trkpt lat="33.5731428" lon="9.8213119"><ele>366.0</ele><time>2026-04-17T09:16:57.848Z</time></trkpt><trkpt lat="33.5731544" lon="9.8211746"><ele>366.0</ele><time>2026-04-17T09:16:59.852Z</time></trkpt><trkpt lat="33.573111" lon="9.8210406"><ele>366.0</ele><time>2026-04-17T09:17:01.852Z</time></trkpt><trkpt lat="33.5730906" lon="9.8208885"><ele>366.0</ele><time>2026-04-17T09:17:03.848Z</time></trkpt><trkpt lat="33.5731019" lon="9.8207959"><ele>364.6666666666667</ele><time>2026-04-17T09:17:04.845Z</time></trkpt><trkpt lat="33.5731174" lon="9.8207151"><ele>363.3333333333333</ele><time>2026-04-17T09:17:05.846Z</time></trkpt><trkpt lat="33.5731201" lon="9.820628"><ele>362.0</ele><time>2026-04-17T09:17:06.846Z</time></trkpt><trkpt lat="33.5731204" lon="9.8205524"><ele>360.66666666666663</ele><time>2026-04-17T09:17:07.871Z</time></trkpt><trkpt lat="33.5731085" lon="9.8203992"><ele>359.3333333333333</ele><time>2026-04-17T09:17:09.856Z</time></trkpt><trkpt lat="33.5730737" lon="9.820309"><ele>358.0</ele><time>2026-04-17T09:17:10.861Z</time></trkpt><trkpt lat="33.5730197" lon="9.8202187"><ele>355.79999999999995</ele><time>2026-04-17T09:17:11.861Z</time></trkpt><trkpt lat="33.5729515" lon="9.8201265"><ele>353.6</ele><time>2026-04-17T09:17:12.852Z</time></trkpt><trkpt lat="33.5728658" lon="9.8200566"><ele>351.4</ele><time>2026-04-17T09:17:13.859Z</time></trkpt><trkpt lat="33.5727693" lon="9.819987"><ele>349.20000000000005</ele><time>2026-04-17T09:17:14.86Z</time></trkpt><trkpt lat="33.5726829" lon="9.8199214"><ele>347.0</ele><time>2026-04-17T09:17:15.861Z</time></trkpt><trkpt lat="33.5725981" lon="9.8198511"><ele>346.5</ele><time>2026-04-17T09:17:16.862Z</time></trkpt><trkpt lat="33.5725131" lon="9.8197579"><ele>346.0</ele><time>2026-04-17T09:17:17.861Z</time></trkpt><trkpt lat="33.5724244" lon="9.8196638"><ele>345.5</ele><time>2026-04-17T09:17:18.869Z</time></trkpt><trkpt lat="33.572333" lon="9.8195795"><ele>345.0</ele><time>2026-04-17T09:17:19.942Z</time></trkpt><trkpt lat="33.5722461" lon="9.8195156"><ele>345.0</ele><time>2026-04-17T09:17:20.946Z</time></trkpt><trkpt lat="33.5721371" lon="9.819463"><ele>345.0</ele><time>2026-04-17T09:17:21.943Z</time></trkpt><trkpt lat="33.5720118" lon="9.8194273"><ele>345.0</ele><time>2026-04-17T09:17:22.92Z</time></trkpt><trkpt lat="33.5719324" lon="9.8194289"><ele>345.0</ele><time>2026-04-17T09:17:23.927Z</time></trkpt><trkpt lat="33.5718415" lon="9.819406"><ele>345.0</ele><time>2026-04-17T09:17:24.925Z</time></trkpt><trkpt lat="33.571766" lon="9.8194014"><ele>343.0</ele><time>2026-04-17T09:17:25.919Z</time></trkpt><trkpt lat="33.5715885" lon="9.8193718"><ele>341.0</ele><time>2026-04-17T09:17:28.929Z</time></trkpt><trkpt lat="33.5715459" lon="9.8192804"><ele>339.0</ele><time>2026-04-17T09:17:31.929Z</time></trkpt><trkpt lat="33.5715697" lon="9.8186827"><ele>339.0</ele><time>2026-04-17T09:17:34.94Z</time></trkpt><trkpt lat="33.5715912" lon="9.8185176"><ele>339.0</ele><time>2026-04-17T09:17:35.916Z</time></trkpt><trkpt lat="33.5716112" lon="9.8182462"><ele>339.0</ele><time>2026-04-17T09:17:37.916Z</time></trkpt><trkpt lat="33.5716355" lon="9.8180407"><ele>338.25</ele><time>2026-04-17T09:17:38.936Z</time></trkpt><trkpt lat="33.5716644" lon="9.8178678"><ele>337.5</ele><time>2026-04-17T09:17:39.939Z</time></trkpt><trkpt lat="33.5716906" lon="9.8176994"><ele>336.75</ele><time>2026-04-17T09:17:40.943Z</time></trkpt><trkpt lat="33.5717197" lon="9.8175384"><ele>336.0</ele><time>2026-04-17T09:17:41.935Z</time></trkpt><trkpt lat="33.5717472" lon="9.8173811"><ele>333.5</ele><time>2026-04-17T09:17:42.933Z</time></trkpt><trkpt lat="33.5717694" lon="9.8172263"><ele>331.0</ele><time>2026-04-17T09:17:43.935Z</time></trkpt><trkpt lat="33.5717918" lon="9.8170653"><ele>328.5</ele><time>2026-04-17T09:17:44.933Z</time></trkpt><trkpt lat="33.5717965" lon="9.8169154"><ele>326.0</ele><time>2026-04-17T09:17:45.936Z</time></trkpt><trkpt lat="33.5717921" lon="9.816776"><ele>325.5</ele><time>2026-04-17T09:17:46.93Z</time></trkpt><trkpt lat="33.5717705" lon="9.8165994"><ele>325.0</ele><time>2026-04-17T09:17:47.921Z</time></trkpt><trkpt lat="33.571715" lon="9.8164501"><ele>324.5</ele><time>2026-04-17T09:17:48.921Z</time></trkpt><trkpt lat="33.5716162" lon="9.8163253"><ele>324.0</ele><time>2026-04-17T09:17:49.919Z</time></trkpt><trkpt lat="33.5715085" lon="9.8162254"><ele>324.0</ele><time>2026-04-17T09:17:51.853Z</time></trkpt><trkpt lat="33.571406" lon="9.8161312"><ele>324.0</ele><time>2026-04-17T09:17:52.845Z</time></trkpt><trkpt lat="33.5713127" lon="9.8160288"><ele>324.0</ele><time>2026-04-17T09:17:53.84Z</time></trkpt><trkpt lat="33.5712057" lon="9.8159476"><ele>324.0</ele><time>2026-04-17T09:17:54.844Z</time></trkpt><trkpt lat="33.5711049" lon="9.8158857"><ele>323.79999999999995</ele><time>2026-04-17T09:17:55.843Z</time></trkpt><trkpt lat="33.5710093" lon="9.8158285"><ele>323.59999999999997</ele><time>2026-04-17T09:17:56.839Z</time></trkpt><trkpt lat="33.570931" lon="9.8157628"><ele>323.4</ele><time>2026-04-17T09:17:57.837Z</time></trkpt><trkpt lat="33.5708696" lon="9.8156866"><ele>323.2</ele><time>2026-04-17T09:17:58.836Z</time></trkpt><trkpt lat="33.5708253" lon="9.8156055"><ele>323.0</ele><time>2026-04-17T09:17:59.846Z</time></trkpt><trkpt lat="33.5707909" lon="9.8155027"><ele>323.0</ele><time>2026-04-17T09:18:00.845Z</time></trkpt><trkpt lat="33.5707715" lon="9.815393"><ele>323.0</ele><time>2026-04-17T09:18:01.841Z</time></trkpt><trkpt lat="33.570758" lon="9.8152609"><ele>323.0</ele><time>2026-04-17T09:18:02.839Z</time></trkpt><trkpt lat="33.5707571" lon="9.8151121"><ele>323.0</ele><time>2026-04-17T09:18:03.836Z</time></trkpt><trkpt lat="33.5707547" lon="9.8149414"><ele>322.25</ele><time>2026-04-17T09:18:04.831Z</time></trkpt><trkpt lat="33.5707617" lon="9.8147692"><ele>321.5</ele><time>2026-04-17T09:18:05.837Z</time></trkpt><trkpt lat="33.5707581" lon="9.8146134"><ele>320.75</ele><time>2026-04-17T09:18:06.836Z</time></trkpt><trkpt lat="33.5707545" lon="9.8144777"><ele>320.0</ele><time>2026-04-17T09:18:07.837Z</time></trkpt><trkpt lat="33.5707512" lon="9.814341"><ele>319.0</ele><time>2026-04-17T09:18:08.837Z</time></trkpt><trkpt lat="33.5707563" lon="9.8141971"><ele>318.0</ele><time>2026-04-17T09:18:09.842Z</time></trkpt><trkpt lat="33.5707741" lon="9.8140504"><ele>317.0</ele><time>2026-04-17T09:18:10.828Z</time></trkpt><trkpt lat="33.5707989" lon="9.8138921"><ele>316.0</ele><time>2026-04-17T09:18:11.832Z</time></trkpt><trkpt lat="33.570839" lon="9.8137249"><ele>316.0</ele><time>2026-04-17T09:18:12.829Z</time></trkpt><trkpt lat="33.5708672" lon="9.8135538"><ele>316.0</ele><time>2026-04-17T09:18:13.832Z</time></trkpt><trkpt lat="33.5708867" lon="9.8134072"><ele>316.0</ele><time>2026-04-17T09:18:14.835Z</time></trkpt><trkpt lat="33.5709381" lon="9.8132753"><ele>316.0</ele><time>2026-04-17T09:18:15.833Z</time></trkpt><trkpt lat="33.5709857" lon="9.8131522"><ele>315.5</ele><time>2026-04-17T09:18:16.834Z</time></trkpt><trkpt lat="33.5710221" lon="9.8130289"><ele>315.0</ele><time>2026-04-17T09:18:17.844Z</time></trkpt><trkpt lat="33.5710521" lon="9.8128914"><ele>314.5</ele><time>2026-04-17T09:18:18.833Z</time></trkpt><trkpt lat="33.5710688" lon="9.812736"><ele>314.0</ele><time>2026-04-17T09:18:19.838Z</time></trkpt><trkpt lat="33.5710891" lon="9.8125949"><ele>313.4</ele><time>2026-04-17T09:18:20.839Z</time></trkpt><trkpt lat="33.5711168" lon="9.8124668"><ele>312.79999999999995</ele><time>2026-04-17T09:18:21.841Z</time></trkpt><trkpt lat="33.571153" lon="9.8123394"><ele>312.20000000000005</ele><time>2026-04-17T09:18:22.833Z</time></trkpt><trkpt lat="33.5712038" lon="9.8122214"><ele>311.6</ele><time>2026-04-17T09:18:23.833Z</time></trkpt><trkpt lat="33.5712721" lon="9.8121126"><ele>311.0</ele><time>2026-04-17T09:18:24.835Z</time></trkpt><trkpt lat="33.5713475" lon="9.8120035"><ele>311.0</ele><time>2026-04-17T09:18:25.835Z</time></trkpt><trkpt lat="33.5714289" lon="9.811915"><ele>311.0</ele><time>2026-04-17T09:18:26.84Z</time></trkpt><trkpt lat="33.5715083" lon="9.811817"><ele>311.0</ele><time>2026-04-17T09:18:27.833Z</time></trkpt><trkpt lat="33.5715714" lon="9.8116972"><ele>311.0</ele><time>2026-04-17T09:18:28.832Z</time></trkpt><trkpt lat="33.5716278" lon="9.8115617"><ele>309.0</ele><time>2026-04-17T09:18:29.847Z</time></trkpt><trkpt lat="33.5716709" lon="9.8114008"><ele>307.0</ele><time>2026-04-17T09:18:30.838Z</time></trkpt><trkpt lat="33.5717153" lon="9.8112509"><ele>305.0</ele><time>2026-04-17T09:18:31.841Z</time></trkpt><trkpt lat="33.5717607" lon="9.811103"><ele>303.0</ele><time>2026-04-17T09:18:32.845Z</time></trkpt><trkpt lat="33.5718162" lon="9.8109441"><ele>302.5</ele><time>2026-04-17T09:18:33.848Z</time></trkpt><trkpt lat="33.5718949" lon="9.8107841"><ele>302.0</ele><time>2026-04-17T09:18:34.846Z</time></trkpt><trkpt lat="33.5719755" lon="9.8106479"><ele>301.5</ele><time>2026-04-17T09:18:35.844Z</time></trkpt><trkpt lat="33.5720738" lon="9.8105037"><ele>301.0</ele><time>2026-04-17T09:18:36.843Z</time></trkpt><trkpt lat="33.5721736" lon="9.8103216"><ele>299.66666666666663</ele><time>2026-04-17T09:18:37.847Z</time></trkpt><trkpt lat="33.5722683" lon="9.8101427"><ele>298.3333333333333</ele><time>2026-04-17T09:18:38.847Z</time></trkpt><trkpt lat="33.5723341" lon="9.8099485"><ele>297.0</ele><time>2026-04-17T09:18:39.851Z</time></trkpt><trkpt lat="33.5724002" lon="9.8097612"><ele>297.0</ele><time>2026-04-17T09:18:40.894Z</time></trkpt><trkpt lat="33.5724446" lon="9.8095592"><ele>297.0</ele><time>2026-04-17T09:18:41.852Z</time></trkpt><trkpt lat="33.5724849" lon="9.8093474"><ele>297.0</ele><time>2026-04-17T09:18:42.862Z</time></trkpt><trkpt lat="33.572503" lon="9.8091604"><ele>295.5</ele><time>2026-04-17T09:18:43.851Z</time></trkpt><trkpt lat="33.5725401" lon="9.8090013"><ele>294.0</ele><time>2026-04-17T09:18:44.842Z</time></trkpt><trkpt lat="33.5725969" lon="9.8088452"><ele>292.5</ele><time>2026-04-17T09:18:45.849Z</time></trkpt><trkpt lat="33.5726606" lon="9.8086913"><ele>291.0</ele><time>2026-04-17T09:18:46.845Z</time></trkpt><trkpt lat="33.5727173" lon="9.8085209"><ele>289.0</ele><time>2026-04-17T09:18:47.855Z</time></trkpt><trkpt lat="33.5727644" lon="9.8083295"><ele>287.0</ele><time>2026-04-17T09:18:48.847Z</time></trkpt><trkpt lat="33.5727995" lon="9.8081352"><ele>285.0</ele><time>2026-04-17T09:18:49.855Z</time></trkpt><trkpt lat="33.5728288" lon="9.8079572"><ele>285.0</ele><time>2026-04-17T09:18:50.851Z</time></trkpt><trkpt lat="33.5728404" lon="9.8077741"><ele>285.0</ele><time>2026-04-17T09:18:51.853Z</time></trkpt><trkpt lat="33.5728455" lon="9.807591"><ele>285.0</ele><time>2026-04-17T09:18:52.849Z</time></trkpt><trkpt lat="33.5728431" lon="9.8074257"><ele>285.0</ele><time>2026-04-17T09:18:53.844Z</time></trkpt><trkpt lat="33.572847" lon="9.8072654"><ele>285.0</ele><time>2026-04-17T09:18:54.844Z</time></trkpt><trkpt lat="33.5728422" lon="9.8071082"><ele>285.0</ele><time>2026-04-17T09:18:55.851Z</time></trkpt><trkpt lat="33.5728651" lon="9.8069824"><ele>285.0</ele><time>2026-04-17T09:18:56.838Z</time></trkpt><trkpt lat="33.5729218" lon="9.8068497"><ele>285.0</ele><time>2026-04-17T09:18:57.841Z</time></trkpt><trkpt lat="33.5730186" lon="9.8067323"><ele>284.25</ele><time>2026-04-17T09:18:58.842Z</time></trkpt><trkpt lat="33.5731146" lon="9.8066251"><ele>283.5</ele><time>2026-04-17T09:18:59.842Z</time></trkpt><trkpt lat="33.5731978" lon="9.8065195"><ele>282.75</ele><time>2026-04-17T09:19:00.842Z</time></trkpt><trkpt lat="33.5732883" lon="9.8063968"><ele>282.0</ele><time>2026-04-17T09:19:01.85Z</time></trkpt><trkpt lat="33.573382" lon="9.8062562"><ele>282.0</ele><time>2026-04-17T09:19:02.849Z</time></trkpt><trkpt lat="33.573443" lon="9.8060938"><ele>282.0</ele><time>2026-04-17T09:19:03.849Z</time></trkpt><trkpt lat="33.5734646" lon="9.8059418"><ele>282.0</ele><time>2026-04-17T09:19:04.852Z</time></trkpt><trkpt lat="33.5734766" lon="9.8057915"><ele>282.0</ele><time>2026-04-17T09:19:05.854Z</time></trkpt><trkpt lat="33.5735021" lon="9.8056214"><ele>282.25</ele><time>2026-04-17T09:19:06.85Z</time></trkpt><trkpt lat="33.5735247" lon="9.8054736"><ele>282.5</ele><time>2026-04-17T09:19:07.855Z</time></trkpt><trkpt lat="33.5735488" lon="9.8053148"><ele>282.75</ele><time>2026-04-17T09:19:08.856Z</time></trkpt><trkpt lat="33.5735946" lon="9.8051539"><ele>283.0</ele><time>2026-04-17T09:19:09.858Z</time></trkpt><trkpt lat="33.57364" lon="9.8049866"><ele>282.5</ele><time>2026-04-17T09:19:10.877Z</time></trkpt><trkpt lat="33.5736961" lon="9.804817"><ele>282.0</ele><time>2026-04-17T09:19:11.847Z</time></trkpt><trkpt lat="33.5737531" lon="9.8046531"><ele>281.5</ele><time>2026-04-17T09:19:12.85Z</time></trkpt><trkpt lat="33.5738117" lon="9.8045065"><ele>281.0</ele><time>2026-04-17T09:19:13.834Z</time></trkpt><trkpt lat="33.5738977" lon="9.8043664"><ele>281.25</ele><time>2026-04-17T09:19:14.832Z</time></trkpt><trkpt lat="33.5739986" lon="9.8042657"><ele>281.5</ele><time>2026-04-17T09:19:15.833Z</time></trkpt><trkpt lat="33.5740842" lon="9.8042221"><ele>281.75</ele><time>2026-04-17T09:19:16.829Z</time></trkpt><trkpt lat="33.5741825" lon="9.8041967"><ele>282.0</ele><time>2026-04-17T09:19:17.844Z</time></trkpt><trkpt lat="33.5743043" lon="9.804162"><ele>282.0</ele><time>2026-04-17T09:19:18.83Z</time></trkpt><trkpt lat="33.5744331" lon="9.8041556"><ele>282.0</ele><time>2026-04-17T09:19:19.839Z</time></trkpt><trkpt lat="33.5745761" lon="9.8041043"><ele>282.0</ele><time>2026-04-17T09:19:20.832Z</time></trkpt><trkpt lat="33.5747091" lon="9.8040504"><ele>282.0</ele><time>2026-04-17T09:19:21.833Z</time></trkpt><trkpt lat="33.5748185" lon="9.8039897"><ele>281.25</ele><time>2026-04-17T09:19:22.834Z</time></trkpt><trkpt lat="33.5749231" lon="9.8039082"><ele>280.5</ele><time>2026-04-17T09:19:23.826Z</time></trkpt><trkpt lat="33.5750194" lon="9.8038045"><ele>279.75</ele><time>2026-04-17T09:19:24.828Z</time></trkpt><trkpt lat="33.5751041" lon="9.8036876"><ele>279.0</ele><time>2026-04-17T09:19:25.841Z</time></trkpt><trkpt lat="33.5751914" lon="9.8035503"><ele>278.25</ele><time>2026-04-17T09:19:26.844Z</time></trkpt><trkpt lat="33.5752758" lon="9.8034242"><ele>277.5</ele><time>2026-04-17T09:19:27.842Z</time></trkpt><trkpt lat="33.5753629" lon="9.803287"><ele>276.75</ele><time>2026-04-17T09:19:28.838Z</time></trkpt><trkpt lat="33.575452" lon="9.8031364"><ele>276.0</ele><time>2026-04-17T09:19:29.845Z</time></trkpt><trkpt lat="33.5755767" lon="9.8030276"><ele>276.0</ele><time>2026-04-17T09:19:30.822Z</time></trkpt><trkpt lat="33.575717" lon="9.802915"><ele>276.0</ele><time>2026-04-17T09:19:31.839Z</time></trkpt><trkpt lat="33.5758362" lon="9.8028287"><ele>276.0</ele><time>2026-04-17T09:19:32.838Z</time></trkpt><trkpt lat="33.5759394" lon="9.8027391"><ele>276.0</ele><time>2026-04-17T09:19:33.834Z</time></trkpt><trkpt lat="33.5760248" lon="9.8026353"><ele>275.5</ele><time>2026-04-17T09:19:34.826Z</time></trkpt><trkpt lat="33.5760971" lon="9.8025192"><ele>275.0</ele><time>2026-04-17T09:19:35.815Z</time></trkpt><trkpt lat="33.576147" lon="9.8023853"><ele>274.5</ele><time>2026-04-17T09:19:36.828Z</time></trkpt><trkpt lat="33.5761691" lon="9.8022311"><ele>274.0</ele><time>2026-04-17T09:19:37.823Z</time></trkpt><trkpt lat="33.5761734" lon="9.8020671"><ele>273.5</ele><time>2026-04-17T09:19:38.833Z</time></trkpt><trkpt lat="33.5761889" lon="9.8019123"><ele>273.0</ele><time>2026-04-17T09:19:39.837Z</time></trkpt><trkpt lat="33.5762247" lon="9.8017575"><ele>272.5</ele><time>2026-04-17T09:19:40.835Z</time></trkpt><trkpt lat="33.5762757" lon="9.8016144"><ele>272.0</ele><time>2026-04-17T09:19:41.846Z</time></trkpt><trkpt lat="33.5763487" lon="9.8014941"><ele>272.0</ele><time>2026-04-17T09:19:42.836Z</time></trkpt><trkpt lat="33.5764642" lon="9.8014142"><ele>272.0</ele><time>2026-04-17T09:19:43.854Z</time></trkpt><trkpt lat="33.576604" lon="9.8013489"><ele>272.0</ele><time>2026-04-17T09:19:44.847Z</time></trkpt><trkpt lat="33.5767541" lon="9.8012812"><ele>272.0</ele><time>2026-04-17T09:19:45.857Z</time></trkpt><trkpt lat="33.5769375" lon="9.801216"><ele>272.0</ele><time>2026-04-17T09:19:46.838Z</time></trkpt><trkpt lat="33.5770829" lon="9.8011427"><ele>272.0</ele><time>2026-04-17T09:19:47.838Z</time></trkpt><trkpt lat="33.5772232" lon="9.8010382"><ele>272.0</ele><time>2026-04-17T09:19:48.838Z</time></trkpt><trkpt lat="33.577369" lon="9.800941"><ele>271.8</ele><time>2026-04-17T09:19:49.841Z</time></trkpt><trkpt lat="33.5774736" lon="9.8008481"><ele>271.6</ele><time>2026-04-17T09:19:50.839Z</time></trkpt><trkpt lat="33.5775457" lon="9.8007522"><ele>271.40000000000003</ele><time>2026-04-17T09:19:51.845Z</time></trkpt><trkpt lat="33.5776232" lon="9.8006717"><ele>271.2</ele><time>2026-04-17T09:19:52.837Z</time></trkpt><trkpt lat="33.5776931" lon="9.8005775"><ele>271.0</ele><time>2026-04-17T09:19:53.841Z</time></trkpt><trkpt lat="33.5777441" lon="9.8005033"><ele>271.0</ele><time>2026-04-17T09:19:54.841Z</time></trkpt><trkpt lat="33.5778009" lon="9.8004226"><ele>271.0</ele><time>2026-04-17T09:19:55.841Z</time></trkpt><trkpt lat="33.5778795" lon="9.8003606"><ele>271.0</ele><time>2026-04-17T09:19:56.845Z</time></trkpt><trkpt lat="33.5779463" lon="9.8002988"><ele>271.0</ele><time>2026-04-17T09:19:57.839Z</time></trkpt><trkpt lat="33.5780072" lon="9.8002237"><ele>271.0</ele><time>2026-04-17T09:19:58.842Z</time></trkpt><trkpt lat="33.5780735" lon="9.8001442"><ele>271.0</ele><time>2026-04-17T09:19:59.844Z</time></trkpt><trkpt lat="33.5781422" lon="9.8000603"><ele>270.40000000000003</ele><time>2026-04-17T09:20:00.844Z</time></trkpt><trkpt lat="33.5782078" lon="9.7999776"><ele>269.8</ele><time>2026-04-17T09:20:01.839Z</time></trkpt><trkpt lat="33.5782779" lon="9.7999006"><ele>269.20000000000005</ele><time>2026-04-17T09:20:02.836Z</time></trkpt><trkpt lat="33.5783557" lon="9.7998117"><ele>268.6</ele><time>2026-04-17T09:20:03.855Z</time></trkpt><trkpt lat="33.5784315" lon="9.7997174"><ele>268.0</ele><time>2026-04-17T09:20:04.844Z</time></trkpt><trkpt lat="33.5785081" lon="9.7996287"><ele>268.0</ele><time>2026-04-17T09:20:05.853Z</time></trkpt><trkpt lat="33.5785828" lon="9.7995449"><ele>268.0</ele><time>2026-04-17T09:20:06.846Z</time></trkpt><trkpt lat="33.5786582" lon="9.799455"><ele>268.0</ele><time>2026-04-17T09:20:07.929Z</time></trkpt><trkpt lat="33.5787331" lon="9.7993588"><ele>268.0</ele><time>2026-04-17T09:20:08.929Z</time></trkpt><trkpt lat="33.5788067" lon="9.7992544"><ele>268.0</ele><time>2026-04-17T09:20:09.931Z</time></trkpt><trkpt lat="33.5788806" lon="9.7991446"><ele>266.75</ele><time>2026-04-17T09:20:10.929Z</time></trkpt><trkpt lat="33.5789524" lon="9.7990305"><ele>265.5</ele><time>2026-04-17T09:20:11.932Z</time></trkpt><trkpt lat="33.5790279" lon="9.7989085"><ele>264.25</ele><time>2026-04-17T09:20:12.952Z</time></trkpt><trkpt lat="33.5791012" lon="9.7987915"><ele>263.0</ele><time>2026-04-17T09:20:13.938Z</time></trkpt><trkpt lat="33.5791655" lon="9.7986847"><ele>263.0</ele><time>2026-04-17T09:20:14.939Z</time></trkpt><trkpt lat="33.5792277" lon="9.7985738"><ele>263.0</ele><time>2026-04-17T09:20:15.936Z</time></trkpt><trkpt lat="33.5792931" lon="9.7984651"><ele>263.0</ele><time>2026-04-17T09:20:16.935Z</time></trkpt><trkpt lat="33.5793633" lon="9.7983609"><ele>263.0</ele><time>2026-04-17T09:20:17.944Z</time></trkpt><trkpt lat="33.5794385" lon="9.7982522"><ele>262.5</ele><time>2026-04-17T09:20:18.94Z</time></trkpt><trkpt lat="33.5795131" lon="9.7981381"><ele>262.0</ele><time>2026-04-17T09:20:19.938Z</time></trkpt><trkpt lat="33.5795884" lon="9.7980194"><ele>261.5</ele><time>2026-04-17T09:20:20.945Z</time></trkpt><trkpt lat="33.5796722" lon="9.7978946"><ele>261.0</ele><time>2026-04-17T09:20:21.945Z</time></trkpt><trkpt lat="33.5797595" lon="9.7977678"><ele>260.5</ele><time>2026-04-17T09:20:22.94Z</time></trkpt><trkpt lat="33.5798432" lon="9.7976325"><ele>260.0</ele><time>2026-04-17T09:20:23.94Z</time></trkpt><trkpt lat="33.5799271" lon="9.7974963"><ele>259.5</ele><time>2026-04-17T09:20:24.944Z</time></trkpt><trkpt lat="33.5800136" lon="9.7973613"><ele>259.0</ele><time>2026-04-17T09:20:25.944Z</time></trkpt><trkpt lat="33.580102" lon="9.7972305"><ele>259.0</ele><time>2026-04-17T09:20:26.956Z</time></trkpt><trkpt lat="33.580196" lon="9.7970977"><ele>259.0</ele><time>2026-04-17T09:20:27.951Z</time></trkpt><trkpt lat="33.5802912" lon="9.7969664"><ele>259.0</ele><time>2026-04-17T09:20:28.947Z</time></trkpt><trkpt lat="33.5803897" lon="9.7968303"><ele>259.0</ele><time>2026-04-17T09:20:29.95Z</time></trkpt><trkpt lat="33.5804876" lon="9.7966944"><ele>258.75</ele><time>2026-04-17T09:20:30.946Z</time></trkpt><trkpt lat="33.5805812" lon="9.7965631"><ele>258.5</ele><time>2026-04-17T09:20:31.947Z</time></trkpt><trkpt lat="33.5806727" lon="9.7964356"><ele>258.25</ele><time>2026-04-17T09:20:32.94Z</time></trkpt><trkpt lat="33.5807596" lon="9.7963051"><ele>258.0</ele><time>2026-04-17T09:20:33.937Z</time></trkpt><trkpt lat="33.5808442" lon="9.7961764"><ele>258.0</ele><time>2026-04-17T09:20:34.932Z</time></trkpt><trkpt lat="33.5809087" lon="9.7960328"><ele>258.0</ele><time>2026-04-17T09:20:35.934Z</time></trkpt><trkpt lat="33.5809598" lon="9.7958808"><ele>258.0</ele><time>2026-04-17T09:20:36.912Z</time></trkpt><trkpt lat="33.5809985" lon="9.795735"><ele>258.0</ele><time>2026-04-17T09:20:37.914Z</time></trkpt><trkpt lat="33.5810273" lon="9.7955841"><ele>258.5</ele><time>2026-04-17T09:20:38.917Z</time></trkpt><trkpt lat="33.5810478" lon="9.7954301"><ele>259.0</ele><time>2026-04-17T09:20:39.92Z</time></trkpt><trkpt lat="33.5810577" lon="9.7952783"><ele>259.5</ele><time>2026-04-17T09:20:40.949Z</time></trkpt><trkpt lat="33.5810554" lon="9.7951265"><ele>260.0</ele><time>2026-04-17T09:20:41.938Z</time></trkpt><trkpt lat="33.5810422" lon="9.7949769"><ele>260.0</ele><time>2026-04-17T09:20:42.924Z</time></trkpt><trkpt lat="33.5810172" lon="9.7948227"><ele>260.0</ele><time>2026-04-17T09:20:43.94Z</time></trkpt><trkpt lat="33.5809821" lon="9.7946779"><ele>260.0</ele><time>2026-04-17T09:20:44.924Z</time></trkpt><trkpt lat="33.5809381" lon="9.794536"><ele>260.0</ele><time>2026-04-17T09:20:45.924Z</time></trkpt><trkpt lat="33.5808829" lon="9.7943941"><ele>260.0</ele><time>2026-04-17T09:20:46.942Z</time></trkpt><trkpt lat="33.5808209" lon="9.7942596"><ele>260.0</ele><time>2026-04-17T09:20:47.943Z</time></trkpt><trkpt lat="33.5807543" lon="9.7941315"><ele>260.0</ele><time>2026-04-17T09:20:48.922Z</time></trkpt><trkpt lat="33.5806896" lon="9.7940059"><ele>260.0</ele><time>2026-04-17T09:20:49.92Z</time></trkpt><trkpt lat="33.5806263" lon="9.7938817"><ele>260.0</ele><time>2026-04-17T09:20:50.919Z</time></trkpt><trkpt lat="33.580583" lon="9.7937782"><ele>260.0</ele><time>2026-04-17T09:20:51.918Z</time></trkpt><trkpt lat="33.5805654" lon="9.7936928"><ele>260.0</ele><time>2026-04-17T09:20:52.937Z</time></trkpt><trkpt lat="33.5806081" lon="9.7935631"><ele>260.0</ele><time>2026-04-17T09:20:54.909Z</time></trkpt><trkpt lat="33.5806623" lon="9.7935122"><ele>260.0</ele><time>2026-04-17T09:20:55.909Z</time></trkpt><trkpt lat="33.5807284" lon="9.7934458"><ele>260.0</ele><time>2026-04-17T09:20:56.911Z</time></trkpt><trkpt lat="33.580798" lon="9.7933805"><ele>259.25</ele><time>2026-04-17T09:20:57.911Z</time></trkpt><trkpt lat="33.5808773" lon="9.7932887"><ele>258.5</ele><time>2026-04-17T09:20:58.925Z</time></trkpt><trkpt lat="33.5809576" lon="9.793184"><ele>257.75</ele><time>2026-04-17T09:20:59.933Z</time></trkpt><trkpt lat="33.5810292" lon="9.7930474"><ele>257.0</ele><time>2026-04-17T09:21:00.907Z</time></trkpt><trkpt lat="33.5810891" lon="9.7929189"><ele>257.0</ele><time>2026-04-17T09:21:01.927Z</time></trkpt><trkpt lat="33.5811591" lon="9.7927795"><ele>257.0</ele><time>2026-04-17T09:21:02.92Z</time></trkpt><trkpt lat="33.5812308" lon="9.7926346"><ele>257.0</ele><time>2026-04-17T09:21:03.921Z</time></trkpt><trkpt lat="33.5812991" lon="9.7924844"><ele>257.0</ele><time>2026-04-17T09:21:04.938Z</time></trkpt><trkpt lat="33.581367" lon="9.7923302"><ele>257.75</ele><time>2026-04-17T09:21:05.939Z</time></trkpt><trkpt lat="33.5814342" lon="9.7921799"><ele>258.5</ele><time>2026-04-17T09:21:06.938Z</time></trkpt><trkpt lat="33.5815061" lon="9.792026"><ele>259.25</ele><time>2026-04-17T09:21:07.937Z</time></trkpt><trkpt lat="33.5815754" lon="9.7918722"><ele>260.0</ele><time>2026-04-17T09:21:08.943Z</time></trkpt><trkpt lat="33.5816435" lon="9.7917146"><ele>260.0</ele><time>2026-04-17T09:21:09.94Z</time></trkpt><trkpt lat="33.581705" lon="9.7915578"><ele>260.0</ele><time>2026-04-17T09:21:10.947Z</time></trkpt><trkpt lat="33.5817624" lon="9.7914051"><ele>260.0</ele><time>2026-04-17T09:21:11.944Z</time></trkpt><trkpt lat="33.5818106" lon="9.7912639"><ele>260.0</ele><time>2026-04-17T09:21:12.942Z</time></trkpt><trkpt lat="33.5818557" lon="9.7911301"><ele>258.75</ele><time>2026-04-17T09:21:13.947Z</time></trkpt><trkpt lat="33.5818957" lon="9.7909898"><ele>257.5</ele><time>2026-04-17T09:21:14.96Z</time></trkpt><trkpt lat="33.5819195" lon="9.7908488"><ele>256.25</ele><time>2026-04-17T09:21:15.941Z</time></trkpt><trkpt lat="33.5819317" lon="9.7907118"><ele>255.0</ele><time>2026-04-17T09:21:16.933Z</time></trkpt><trkpt lat="33.5819239" lon="9.7905774"><ele>255.0</ele><time>2026-04-17T09:21:17.914Z</time></trkpt><trkpt lat="33.5819041" lon="9.7904393"><ele>255.0</ele><time>2026-04-17T09:21:18.921Z</time></trkpt><trkpt lat="33.5818691" lon="9.7902942"><ele>255.0</ele><time>2026-04-17T09:21:19.821Z</time></trkpt><trkpt lat="33.5818786" lon="9.790177"><ele>255.0</ele><time>2026-04-17T09:21:20.815Z</time></trkpt><trkpt lat="33.5819093" lon="9.7900581"><ele>255.0</ele><time>2026-04-17T09:21:21.831Z</time></trkpt><trkpt lat="33.5819669" lon="9.7899317"><ele>254.5</ele><time>2026-04-17T09:21:22.836Z</time></trkpt><trkpt lat="33.5820451" lon="9.789802"><ele>254.0</ele><time>2026-04-17T09:21:23.829Z</time></trkpt><trkpt lat="33.5821219" lon="9.7896809"><ele>253.5</ele><time>2026-04-17T09:21:24.834Z</time></trkpt><trkpt lat="33.5822065" lon="9.7895716"><ele>253.0</ele><time>2026-04-17T09:21:25.83Z</time></trkpt><trkpt lat="33.5823043" lon="9.7894738"><ele>253.0</ele><time>2026-04-17T09:21:26.836Z</time></trkpt><trkpt lat="33.582401" lon="9.7893942"><ele>253.0</ele><time>2026-04-17T09:21:27.833Z</time></trkpt><trkpt lat="33.5824987" lon="9.7893042"><ele>253.0</ele><time>2026-04-17T09:21:28.834Z</time></trkpt><trkpt lat="33.5825923" lon="9.7892041"><ele>253.0</ele><time>2026-04-17T09:21:29.836Z</time></trkpt><trkpt lat="33.5826722" lon="9.789087"><ele>252.75</ele><time>2026-04-17T09:21:30.833Z</time></trkpt><trkpt lat="33.5827393" lon="9.7889519"><ele>252.5</ele><time>2026-04-17T09:21:31.838Z</time></trkpt><trkpt lat="33.5827908" lon="9.7888037"><ele>252.25</ele><time>2026-04-17T09:21:32.842Z</time></trkpt><trkpt lat="33.5828357" lon="9.7886338"><ele>252.0</ele><time>2026-04-17T09:21:33.847Z</time></trkpt><trkpt lat="33.5828818" lon="9.788471"><ele>251.0</ele><time>2026-04-17T09:21:34.847Z</time></trkpt><trkpt lat="33.5829173" lon="9.7882999"><ele>250.0</ele><time>2026-04-17T09:21:35.841Z</time></trkpt><trkpt lat="33.5829538" lon="9.7881509"><ele>249.0</ele><time>2026-04-17T09:21:36.85Z</time></trkpt><trkpt lat="33.5829931" lon="9.7879947"><ele>248.0</ele><time>2026-04-17T09:21:37.846Z</time></trkpt><trkpt lat="33.5830278" lon="9.787826"><ele>248.0</ele><time>2026-04-17T09:21:38.85Z</time></trkpt><trkpt lat="33.5830572" lon="9.7876456"><ele>248.0</ele><time>2026-04-17T09:21:39.848Z</time></trkpt><trkpt lat="33.5830778" lon="9.7874833"><ele>248.0</ele><time>2026-04-17T09:21:40.855Z</time></trkpt><trkpt lat="33.5830878" lon="9.7872861"><ele>248.0</ele><time>2026-04-17T09:21:41.843Z</time></trkpt><trkpt lat="33.5830899" lon="9.7870977"><ele>248.0</ele><time>2026-04-17T09:21:42.839Z</time></trkpt><trkpt lat="33.5830765" lon="9.7869"><ele>248.0</ele><time>2026-04-17T09:21:43.838Z</time></trkpt><trkpt lat="33.5830739" lon="9.786718"><ele>248.0</ele><time>2026-04-17T09:21:44.842Z</time></trkpt><trkpt lat="33.5830406" lon="9.7865285"><ele>248.0</ele><time>2026-04-17T09:21:45.859Z</time></trkpt><trkpt lat="33.5830147" lon="9.7863509"><ele>248.0</ele><time>2026-04-17T09:21:46.841Z</time></trkpt><trkpt lat="33.5829899" lon="9.7861794"><ele>247.0</ele><time>2026-04-17T09:21:47.842Z</time></trkpt><trkpt lat="33.5829975" lon="9.7859977"><ele>246.0</ele><time>2026-04-17T09:21:48.835Z</time></trkpt><trkpt lat="33.5830216" lon="9.7858385"><ele>245.0</ele><time>2026-04-17T09:21:49.841Z</time></trkpt><trkpt lat="33.5830474" lon="9.7856422"><ele>245.0</ele><time>2026-04-17T09:21:50.842Z</time></trkpt><trkpt lat="33.5830831" lon="9.7854615"><ele>245.0</ele><time>2026-04-17T09:21:51.846Z</time></trkpt><trkpt lat="33.5831214" lon="9.785283"><ele>245.0</ele><time>2026-04-17T09:21:52.844Z</time></trkpt><trkpt lat="33.583144" lon="9.7850943"><ele>244.75</ele><time>2026-04-17T09:21:53.84Z</time></trkpt><trkpt lat="33.5831641" lon="9.7849558"><ele>244.5</ele><time>2026-04-17T09:21:54.833Z</time></trkpt><trkpt lat="33.5832056" lon="9.7848036"><ele>244.25</ele><time>2026-04-17T09:21:55.838Z</time></trkpt><trkpt lat="33.5832538" lon="9.7846666"><ele>244.0</ele><time>2026-04-17T09:21:56.843Z</time></trkpt><trkpt lat="33.5833325" lon="9.7845357"><ele>244.0</ele><time>2026-04-17T09:21:57.842Z</time></trkpt><trkpt lat="33.5834328" lon="9.7843967"><ele>244.0</ele><time>2026-04-17T09:21:58.842Z</time></trkpt><trkpt lat="33.5835346" lon="9.7842415"><ele>244.0</ele><time>2026-04-17T09:21:59.847Z</time></trkpt><trkpt lat="33.5836302" lon="9.7840968"><ele>243.33333333333331</ele><time>2026-04-17T09:22:00.842Z</time></trkpt><trkpt lat="33.583736" lon="9.7839477"><ele>242.66666666666669</ele><time>2026-04-17T09:22:01.847Z</time></trkpt><trkpt lat="33.5838451" lon="9.7837999"><ele>242.0</ele><time>2026-04-17T09:22:02.84Z</time></trkpt><trkpt lat="33.5839538" lon="9.7836586"><ele>242.0</ele><time>2026-04-17T09:22:03.842Z</time></trkpt><trkpt lat="33.5840486" lon="9.783539"><ele>242.0</ele><time>2026-04-17T09:22:04.838Z</time></trkpt><trkpt lat="33.5841229" lon="9.7834051"><ele>242.0</ele><time>2026-04-17T09:22:05.829Z</time></trkpt><trkpt lat="33.5841786" lon="9.7832686"><ele>242.0</ele><time>2026-04-17T09:22:06.836Z</time></trkpt><trkpt lat="33.5842018" lon="9.7831175"><ele>242.0</ele><time>2026-04-17T09:22:07.843Z</time></trkpt><trkpt lat="33.584221" lon="9.7829659"><ele>242.0</ele><time>2026-04-17T09:22:08.845Z</time></trkpt><trkpt lat="33.5842374" lon="9.7828015"><ele>242.0</ele><time>2026-04-17T09:22:09.842Z</time></trkpt><trkpt lat="33.5842517" lon="9.7826192"><ele>242.0</ele><time>2026-04-17T09:22:10.846Z</time></trkpt><trkpt lat="33.5842722" lon="9.7824322"><ele>242.0</ele><time>2026-04-17T09:22:11.845Z</time></trkpt><trkpt lat="33.5842896" lon="9.7822385"><ele>242.0</ele><time>2026-04-17T09:22:12.846Z</time></trkpt><trkpt lat="33.5843098" lon="9.7820706"><ele>242.0</ele><time>2026-04-17T09:22:13.847Z</time></trkpt><trkpt lat="33.5843482" lon="9.7818838"><ele>242.33333333333334</ele><time>2026-04-17T09:22:14.848Z</time></trkpt><trkpt lat="33.584386" lon="9.7816983"><ele>242.66666666666669</ele><time>2026-04-17T09:22:15.85Z</time></trkpt><trkpt lat="33.5844186" lon="9.7815137"><ele>243.0</ele><time>2026-04-17T09:22:16.869Z</time></trkpt><trkpt lat="33.5844568" lon="9.7813034"><ele>243.0</ele><time>2026-04-17T09:22:17.853Z</time></trkpt><trkpt lat="33.5844933" lon="9.7811006"><ele>243.0</ele><time>2026-04-17T09:22:18.853Z</time></trkpt><trkpt lat="33.5845284" lon="9.7808987"><ele>243.0</ele><time>2026-04-17T09:22:19.849Z</time></trkpt><trkpt lat="33.5845712" lon="9.7806856"><ele>242.33333333333331</ele><time>2026-04-17T09:22:20.852Z</time></trkpt><trkpt lat="33.5846138" lon="9.7804605"><ele>241.66666666666666</ele><time>2026-04-17T09:22:21.849Z</time></trkpt><trkpt lat="33.584645" lon="9.7802492"><ele>241.0</ele><time>2026-04-17T09:22:22.85Z</time></trkpt><trkpt lat="33.5846693" lon="9.7800321"><ele>241.0</ele><time>2026-04-17T09:22:23.851Z</time></trkpt><trkpt lat="33.5847073" lon="9.7798329"><ele>241.0</ele><time>2026-04-17T09:22:24.853Z</time></trkpt><trkpt lat="33.5847321" lon="9.7796084"><ele>241.0</ele><time>2026-04-17T09:22:25.858Z</time></trkpt><trkpt lat="33.5847363" lon="9.7793845"><ele>239.66666666666666</ele><time>2026-04-17T09:22:26.859Z</time></trkpt><trkpt lat="33.5847447" lon="9.7791739"><ele>238.33333333333331</ele><time>2026-04-17T09:22:27.853Z</time></trkpt><trkpt lat="33.5847518" lon="9.7789639"><ele>237.0</ele><time>2026-04-17T09:22:28.859Z</time></trkpt><trkpt lat="33.5847238" lon="9.7787669"><ele>237.0</ele><time>2026-04-17T09:22:29.863Z</time></trkpt><trkpt lat="33.5846912" lon="9.7785647"><ele>237.0</ele><time>2026-04-17T09:22:30.845Z</time></trkpt><trkpt lat="33.5846714" lon="9.7783647"><ele>237.0</ele><time>2026-04-17T09:22:31.849Z</time></trkpt><trkpt lat="33.584652" lon="9.7781714"><ele>237.0</ele><time>2026-04-17T09:22:32.838Z</time></trkpt><trkpt lat="33.5846723" lon="9.7779827"><ele>237.0</ele><time>2026-04-17T09:22:33.844Z</time></trkpt><trkpt lat="33.5847041" lon="9.7777999"><ele>237.0</ele><time>2026-04-17T09:22:34.848Z</time></trkpt><trkpt lat="33.584725" lon="9.7775872"><ele>237.0</ele><time>2026-04-17T09:22:35.843Z</time></trkpt><trkpt lat="33.58474" lon="9.7773962"><ele>237.0</ele><time>2026-04-17T09:22:36.85Z</time></trkpt><trkpt lat="33.5847404" lon="9.7772189"><ele>237.0</ele><time>2026-04-17T09:22:37.854Z</time></trkpt><trkpt lat="33.5847269" lon="9.7770257"><ele>236.5</ele><time>2026-04-17T09:22:38.853Z</time></trkpt><trkpt lat="33.5847262" lon="9.7768429"><ele>236.0</ele><time>2026-04-17T09:22:39.853Z</time></trkpt><trkpt lat="33.5847586" lon="9.7766826"><ele>235.5</ele><time>2026-04-17T09:22:40.844Z</time></trkpt><trkpt lat="33.5847884" lon="9.7765301"><ele>235.0</ele><time>2026-04-17T09:22:41.835Z</time></trkpt><trkpt lat="33.5848377" lon="9.7763759"><ele>235.0</ele><time>2026-04-17T09:22:42.834Z</time></trkpt><trkpt lat="33.5849265" lon="9.7762472"><ele>235.0</ele><time>2026-04-17T09:22:43.845Z</time></trkpt><trkpt lat="33.5850195" lon="9.7761022"><ele>235.0</ele><time>2026-04-17T09:22:44.856Z</time></trkpt><trkpt lat="33.5851042" lon="9.775949"><ele>235.0</ele><time>2026-04-17T09:22:45.852Z</time></trkpt><trkpt lat="33.5851658" lon="9.7758049"><ele>235.0</ele><time>2026-04-17T09:22:46.858Z</time></trkpt><trkpt lat="33.5852457" lon="9.7756548"><ele>235.0</ele><time>2026-04-17T09:22:47.861Z</time></trkpt><trkpt lat="33.5852932" lon="9.7754824"><ele>235.0</ele><time>2026-04-17T09:22:48.836Z</time></trkpt><trkpt lat="33.5852998" lon="9.7753176"><ele>235.0</ele><time>2026-04-17T09:22:49.847Z</time></trkpt><trkpt lat="33.5852948" lon="9.7751463"><ele>235.0</ele><time>2026-04-17T09:22:50.854Z</time></trkpt><trkpt lat="33.5852698" lon="9.7749789"><ele>235.0</ele><time>2026-04-17T09:22:51.847Z</time></trkpt><trkpt lat="33.5852527" lon="9.7748045"><ele>235.0</ele><time>2026-04-17T09:22:52.849Z</time></trkpt><trkpt lat="33.5852569" lon="9.7746552"><ele>235.0</ele><time>2026-04-17T09:22:53.85Z</time></trkpt><trkpt lat="33.5852674" lon="9.7745166"><ele>235.0</ele><time>2026-04-17T09:22:54.85Z</time></trkpt><trkpt lat="33.5853071" lon="9.7743976"><ele>235.0</ele><time>2026-04-17T09:22:55.846Z</time></trkpt><trkpt lat="33.5853474" lon="9.7742828"><ele>235.0</ele><time>2026-04-17T09:22:56.839Z</time></trkpt><trkpt lat="33.5854039" lon="9.7741744"><ele>235.0</ele><time>2026-04-17T09:22:57.844Z</time></trkpt><trkpt lat="33.5854681" lon="9.7740737"><ele>235.0</ele><time>2026-04-17T09:22:58.845Z</time></trkpt><trkpt lat="33.5855607" lon="9.7739737"><ele>234.75</ele><time>2026-04-17T09:22:59.851Z</time></trkpt><trkpt lat="33.5856657" lon="9.7738903"><ele>234.5</ele><time>2026-04-17T09:23:00.842Z</time></trkpt><trkpt lat="33.5857568" lon="9.7738037"><ele>234.25</ele><time>2026-04-17T09:23:01.848Z</time></trkpt><trkpt lat="33.5858558" lon="9.7737055"><ele>234.0</ele><time>2026-04-17T09:23:02.843Z</time></trkpt><trkpt lat="33.5859554" lon="9.773605"><ele>233.75</ele><time>2026-04-17T09:23:03.84Z</time></trkpt><trkpt lat="33.5860599" lon="9.7735075"><ele>233.5</ele><time>2026-04-17T09:23:04.847Z</time></trkpt><trkpt lat="33.5861581" lon="9.773418"><ele>233.25</ele><time>2026-04-17T09:23:05.839Z</time></trkpt><trkpt lat="33.5862482" lon="9.7733398"><ele>233.0</ele><time>2026-04-17T09:23:06.843Z</time></trkpt><trkpt lat="33.586336" lon="9.7732557"><ele>233.0</ele><time>2026-04-17T09:23:07.843Z</time></trkpt><trkpt lat="33.5864203" lon="9.7731587"><ele>233.0</ele><time>2026-04-17T09:23:08.846Z</time></trkpt><trkpt lat="33.5864978" lon="9.773055"><ele>233.0</ele><time>2026-04-17T09:23:09.845Z</time></trkpt><trkpt lat="33.5865713" lon="9.7729322"><ele>233.0</ele><time>2026-04-17T09:23:10.847Z</time></trkpt><trkpt lat="33.586654" lon="9.7728074"><ele>232.60000000000002</ele><time>2026-04-17T09:23:11.845Z</time></trkpt><trkpt lat="33.5867402" lon="9.7726826"><ele>232.20000000000002</ele><time>2026-04-17T09:23:12.844Z</time></trkpt><trkpt lat="33.5868211" lon="9.7725784"><ele>231.8</ele><time>2026-04-17T09:23:13.843Z</time></trkpt><trkpt lat="33.586893" lon="9.7724889"><ele>231.4</ele><time>2026-04-17T09:23:14.84Z</time></trkpt><trkpt lat="33.5869506" lon="9.7724086"><ele>231.0</ele><time>2026-04-17T09:23:15.838Z</time></trkpt><trkpt lat="33.5870012" lon="9.7723176"><ele>230.8</ele><time>2026-04-17T09:23:16.826Z</time></trkpt><trkpt lat="33.5870462" lon="9.7722116"><ele>230.60000000000002</ele><time>2026-04-17T09:23:17.833Z</time></trkpt><trkpt lat="33.5870859" lon="9.7720764"><ele>230.4</ele><time>2026-04-17T09:23:18.864Z</time></trkpt><trkpt lat="33.5871259" lon="9.7719514"><ele>230.2</ele><time>2026-04-17T09:23:19.829Z</time></trkpt><trkpt lat="33.5871711" lon="9.7718407"><ele>230.0</ele><time>2026-04-17T09:23:20.826Z</time></trkpt><trkpt lat="33.5872242" lon="9.7717578"><ele>230.0</ele><time>2026-04-17T09:23:21.832Z</time></trkpt><trkpt lat="33.5873267" lon="9.7717172"><ele>230.0</ele><time>2026-04-17T09:23:23.819Z</time></trkpt><trkpt lat="33.5873939" lon="9.7717363"><ele>230.0</ele><time>2026-04-17T09:23:24.827Z</time></trkpt><trkpt lat="33.5874818" lon="9.7717612"><ele>230.0</ele><time>2026-04-17T09:23:25.84Z</time></trkpt><trkpt lat="33.5875786" lon="9.7717994"><ele>230.0</ele><time>2026-04-17T09:23:26.851Z</time></trkpt><trkpt lat="33.5876856" lon="9.7718239"><ele>230.0</ele><time>2026-04-17T09:23:27.867Z</time></trkpt><trkpt lat="33.5877902" lon="9.771847"><ele>230.0</ele><time>2026-04-17T09:23:28.853Z</time></trkpt><trkpt lat="33.5878889" lon="9.7718709"><ele>230.0</ele><time>2026-04-17T09:23:29.864Z</time></trkpt><trkpt lat="33.5879961" lon="9.7718869"><ele>230.0</ele><time>2026-04-17T09:23:30.862Z</time></trkpt><trkpt lat="33.5880986" lon="9.7718889"><ele>230.0</ele><time>2026-04-17T09:23:31.946Z</time></trkpt><trkpt lat="33.5881985" lon="9.7718855"><ele>229.6</ele><time>2026-04-17T09:23:32.939Z</time></trkpt><trkpt lat="33.5883045" lon="9.7718693"><ele>229.2</ele><time>2026-04-17T09:23:33.944Z</time></trkpt><trkpt lat="33.5884086" lon="9.7718545"><ele>228.8</ele><time>2026-04-17T09:23:34.947Z</time></trkpt><trkpt lat="33.5885126" lon="9.771841"><ele>228.4</ele><time>2026-04-17T09:23:35.942Z</time></trkpt><trkpt lat="33.5886182" lon="9.7718192"><ele>228.0</ele><time>2026-04-17T09:23:36.946Z</time></trkpt><trkpt lat="33.5887146" lon="9.7718023"><ele>228.0</ele><time>2026-04-17T09:23:37.939Z</time></trkpt><trkpt lat="33.5888207" lon="9.7717931"><ele>228.0</ele><time>2026-04-17T09:23:38.944Z</time></trkpt><trkpt lat="33.5889275" lon="9.7717913"><ele>228.0</ele><time>2026-04-17T09:23:39.941Z</time></trkpt><trkpt lat="33.5890299" lon="9.7717984"><ele>228.0</ele><time>2026-04-17T09:23:40.924Z</time></trkpt><trkpt lat="33.5891322" lon="9.7718097"><ele>228.0</ele><time>2026-04-17T09:23:41.923Z</time></trkpt><trkpt lat="33.5892543" lon="9.771823"><ele>228.0</ele><time>2026-04-17T09:23:42.924Z</time></trkpt><trkpt lat="33.5893762" lon="9.7718314"><ele>228.0</ele><time>2026-04-17T09:23:43.924Z</time></trkpt><trkpt lat="33.5894996" lon="9.7718276"><ele>228.0</ele><time>2026-04-17T09:23:44.945Z</time></trkpt><trkpt lat="33.5896174" lon="9.7718094"><ele>228.0</ele><time>2026-04-17T09:23:45.941Z</time></trkpt><trkpt lat="33.5897326" lon="9.7717846"><ele>227.5</ele><time>2026-04-17T09:23:46.939Z</time></trkpt><trkpt lat="33.5898475" lon="9.7717522"><ele>227.0</ele><time>2026-04-17T09:23:47.937Z</time></trkpt><trkpt lat="33.5899606" lon="9.7717122"><ele>226.5</ele><time>2026-04-17T09:23:48.937Z</time></trkpt><trkpt lat="33.5900734" lon="9.7716674"><ele>226.0</ele><time>2026-04-17T09:23:49.913Z</time></trkpt><trkpt lat="33.5901823" lon="9.7716198"><ele>226.0</ele><time>2026-04-17T09:23:50.916Z</time></trkpt><trkpt lat="33.5902912" lon="9.7715712"><ele>226.0</ele><time>2026-04-17T09:23:51.921Z</time></trkpt><trkpt lat="33.5903996" lon="9.7715224"><ele>226.0</ele><time>2026-04-17T09:23:52.935Z</time></trkpt><trkpt lat="33.59051" lon="9.7714706"><ele>226.0</ele><time>2026-04-17T09:23:53.934Z</time></trkpt><trkpt lat="33.5906163" lon="9.7714136"><ele>226.75</ele><time>2026-04-17T09:23:54.935Z</time></trkpt><trkpt lat="33.5907215" lon="9.7713533"><ele>227.5</ele><time>2026-04-17T09:23:55.946Z</time></trkpt><trkpt lat="33.5908242" lon="9.7712896"><ele>228.25</ele><time>2026-04-17T09:23:56.94Z</time></trkpt><trkpt lat="33.5909227" lon="9.7712216"><ele>229.0</ele><time>2026-04-17T09:23:57.946Z</time></trkpt><trkpt lat="33.5910241" lon="9.7711481"><ele>229.0</ele><time>2026-04-17T09:23:58.945Z</time></trkpt><trkpt lat="33.5911239" lon="9.7710671"><ele>229.0</ele><time>2026-04-17T09:23:59.949Z</time></trkpt><trkpt lat="33.5912233" lon="9.7709754"><ele>229.0</ele><time>2026-04-17T09:24:00.936Z</time></trkpt><trkpt lat="33.5913125" lon="9.7708782"><ele>229.0</ele><time>2026-04-17T09:24:01.941Z</time></trkpt><trkpt lat="33.5914011" lon="9.7707717"><ele>228.0</ele><time>2026-04-17T09:24:02.917Z</time></trkpt><trkpt lat="33.5914884" lon="9.7706607"><ele>227.0</ele><time>2026-04-17T09:24:03.913Z</time></trkpt><trkpt lat="33.5915806" lon="9.770548"><ele>226.0</ele><time>2026-04-17T09:24:04.915Z</time></trkpt><trkpt lat="33.5916786" lon="9.7704456"><ele>225.0</ele><time>2026-04-17T09:24:05.912Z</time></trkpt><trkpt lat="33.5917852" lon="9.7703416"><ele>225.0</ele><time>2026-04-17T09:24:06.947Z</time></trkpt><trkpt lat="33.591896" lon="9.7702435"><ele>225.0</ele><time>2026-04-17T09:24:07.941Z</time></trkpt><trkpt lat="33.5920061" lon="9.7701494"><ele>225.0</ele><time>2026-04-17T09:24:08.941Z</time></trkpt><trkpt lat="33.5921199" lon="9.7700502"><ele>225.0</ele><time>2026-04-17T09:24:09.942Z</time></trkpt><trkpt lat="33.5922402" lon="9.7699424"><ele>224.75</ele><time>2026-04-17T09:24:10.944Z</time></trkpt><trkpt lat="33.5923525" lon="9.7698435"><ele>224.5</ele><time>2026-04-17T09:24:11.943Z</time></trkpt><trkpt lat="33.5924649" lon="9.7697387"><ele>224.25</ele><time>2026-04-17T09:24:12.943Z</time></trkpt><trkpt lat="33.5925811" lon="9.7696357"><ele>224.0</ele><time>2026-04-17T09:24:13.937Z</time></trkpt><trkpt lat="33.5926982" lon="9.7695317"><ele>224.0</ele><time>2026-04-17T09:24:14.938Z</time></trkpt><trkpt lat="33.5928234" lon="9.7694352"><ele>224.0</ele><time>2026-04-17T09:24:15.94Z</time></trkpt><trkpt lat="33.5929506" lon="9.7693365"><ele>224.0</ele><time>2026-04-17T09:24:16.939Z</time></trkpt><trkpt lat="33.5930855" lon="9.7692294"><ele>224.33333333333334</ele><time>2026-04-17T09:24:17.95Z</time></trkpt><trkpt lat="33.5932159" lon="9.7691196"><ele>224.66666666666669</ele><time>2026-04-17T09:24:18.943Z</time></trkpt><trkpt lat="33.5933376" lon="9.7690094"><ele>225.0</ele><time>2026-04-17T09:24:19.959Z</time></trkpt><trkpt lat="33.5934545" lon="9.7689055"><ele>225.0</ele><time>2026-04-17T09:24:20.949Z</time></trkpt><trkpt lat="33.5935643" lon="9.7688043"><ele>225.0</ele><time>2026-04-17T09:24:21.949Z</time></trkpt><trkpt lat="33.5936723" lon="9.7687008"><ele>225.0</ele><time>2026-04-17T09:24:22.94Z</time></trkpt><trkpt lat="33.5937733" lon="9.7685959"><ele>225.0</ele><time>2026-04-17T09:24:23.939Z</time></trkpt><trkpt lat="33.5938664" lon="9.7684929"><ele>224.0</ele><time>2026-04-17T09:24:24.944Z</time></trkpt><trkpt lat="33.593965" lon="9.7683945"><ele>223.0</ele><time>2026-04-17T09:24:25.934Z</time></trkpt><trkpt lat="33.5940716" lon="9.7683095"><ele>222.0</ele><time>2026-04-17T09:24:26.94Z</time></trkpt><trkpt lat="33.5941865" lon="9.7682403"><ele>221.0</ele><time>2026-04-17T09:24:27.935Z</time></trkpt><trkpt lat="33.5943093" lon="9.7681883"><ele>221.0</ele><time>2026-04-17T09:24:28.911Z</time></trkpt><trkpt lat="33.5944333" lon="9.7681531"><ele>221.0</ele><time>2026-04-17T09:24:29.921Z</time></trkpt><trkpt lat="33.5945622" lon="9.7681269"><ele>221.0</ele><time>2026-04-17T09:24:30.914Z</time></trkpt><trkpt lat="33.5946949" lon="9.7681074"><ele>221.0</ele><time>2026-04-17T09:24:31.921Z</time></trkpt><trkpt lat="33.5948304" lon="9.7680799"><ele>220.75</ele><time>2026-04-17T09:24:32.94Z</time></trkpt><trkpt lat="33.5949643" lon="9.7680484"><ele>220.5</ele><time>2026-04-17T09:24:33.94Z</time></trkpt><trkpt lat="33.5950975" lon="9.7680077"><ele>220.25</ele><time>2026-04-17T09:24:34.941Z</time></trkpt><trkpt lat="33.5952283" lon="9.7679643"><ele>220.0</ele><time>2026-04-17T09:24:35.938Z</time></trkpt><trkpt lat="33.5953559" lon="9.7679167"><ele>219.75</ele><time>2026-04-17T09:24:36.944Z</time></trkpt><trkpt lat="33.5954862" lon="9.7678714"><ele>219.5</ele><time>2026-04-17T09:24:37.94Z</time></trkpt><trkpt lat="33.5956183" lon="9.7678429"><ele>219.25</ele><time>2026-04-17T09:24:38.93Z</time></trkpt><trkpt lat="33.5957478" lon="9.7678301"><ele>219.0</ele><time>2026-04-17T09:24:39.93Z</time></trkpt><trkpt lat="33.5958763" lon="9.7678199"><ele>219.0</ele><time>2026-04-17T09:24:40.925Z</time></trkpt><trkpt lat="33.5960053" lon="9.7678107"><ele>219.0</ele><time>2026-04-17T09:24:41.919Z</time></trkpt><trkpt lat="33.5961325" lon="9.7678066"><ele>219.0</ele><time>2026-04-17T09:24:42.915Z</time></trkpt><trkpt lat="33.5962691" lon="9.767796"><ele>219.0</ele><time>2026-04-17T09:24:43.916Z</time></trkpt><trkpt lat="33.5964063" lon="9.7677689"><ele>219.0</ele><time>2026-04-17T09:24:44.936Z</time></trkpt><trkpt lat="33.5965292" lon="9.7677346"><ele>219.0</ele><time>2026-04-17T09:24:45.948Z</time></trkpt><trkpt lat="33.5966639" lon="9.7677144"><ele>219.0</ele><time>2026-04-17T09:24:46.919Z</time></trkpt><trkpt lat="33.5967936" lon="9.7677028"><ele>219.0</ele><time>2026-04-17T09:24:47.921Z</time></trkpt><trkpt lat="33.5969182" lon="9.7676987"><ele>219.0</ele><time>2026-04-17T09:24:48.919Z</time></trkpt><trkpt lat="33.5970398" lon="9.767678"><ele>219.0</ele><time>2026-04-17T09:24:49.922Z</time></trkpt><trkpt lat="33.5971727" lon="9.7676577"><ele>219.0</ele><time>2026-04-17T09:24:50.957Z</time></trkpt><trkpt lat="33.5974632" lon="9.7676546"><ele>219.0</ele><time>2026-04-17T09:24:52.845Z</time></trkpt><trkpt lat="33.5975954" lon="9.7676265"><ele>219.0</ele><time>2026-04-17T09:24:53.846Z</time></trkpt><trkpt lat="33.5977306" lon="9.7675906"><ele>219.0</ele><time>2026-04-17T09:24:54.845Z</time></trkpt><trkpt lat="33.5978699" lon="9.767558"><ele>219.0</ele><time>2026-04-17T09:24:55.845Z</time></trkpt><trkpt lat="33.5979943" lon="9.7675354"><ele>219.25</ele><time>2026-04-17T09:24:56.849Z</time></trkpt><trkpt lat="33.5981213" lon="9.7675193"><ele>219.5</ele><time>2026-04-17T09:24:57.84Z</time></trkpt><trkpt lat="33.5982676" lon="9.7675066"><ele>219.75</ele><time>2026-04-17T09:24:58.842Z</time></trkpt><trkpt lat="33.5984073" lon="9.7674711"><ele>220.0</ele><time>2026-04-17T09:24:59.849Z</time></trkpt><trkpt lat="33.5985233" lon="9.767424"><ele>220.0</ele><time>2026-04-17T09:25:00.848Z</time></trkpt><trkpt lat="33.5986438" lon="9.7673857"><ele>220.0</ele><time>2026-04-17T09:25:01.86Z</time></trkpt><trkpt lat="33.5987388" lon="9.7673147"><ele>220.0</ele><time>2026-04-17T09:25:02.839Z</time></trkpt><trkpt lat="33.5988436" lon="9.7672643"><ele>220.0</ele><time>2026-04-17T09:25:03.833Z</time></trkpt><trkpt lat="33.5989579" lon="9.7672288"><ele>219.75</ele><time>2026-04-17T09:25:04.829Z</time></trkpt><trkpt lat="33.5990796" lon="9.7672057"><ele>219.5</ele><time>2026-04-17T09:25:05.828Z</time></trkpt><trkpt lat="33.5991922" lon="9.7672033"><ele>219.25</ele><time>2026-04-17T09:25:06.833Z</time></trkpt><trkpt lat="33.5993227" lon="9.7672085"><ele>219.0</ele><time>2026-04-17T09:25:07.838Z</time></trkpt><trkpt lat="33.5994556" lon="9.7672216"><ele>218.25</ele><time>2026-04-17T09:25:08.837Z</time></trkpt><trkpt lat="33.5995867" lon="9.7672264"><ele>217.5</ele><time>2026-04-17T09:25:09.84Z</time></trkpt><trkpt lat="33.5997198" lon="9.7672384"><ele>216.75</ele><time>2026-04-17T09:25:10.842Z</time></trkpt><trkpt lat="33.5998587" lon="9.7672571"><ele>216.0</ele><time>2026-04-17T09:25:11.843Z</time></trkpt><trkpt lat="33.600002" lon="9.7672717"><ele>216.0</ele><time>2026-04-17T09:25:12.843Z</time></trkpt><trkpt lat="33.6001458" lon="9.7672906"><ele>216.0</ele><time>2026-04-17T09:25:13.844Z</time></trkpt><trkpt lat="33.6002954" lon="9.7673447"><ele>216.0</ele><time>2026-04-17T09:25:14.847Z</time></trkpt><trkpt lat="33.6004087" lon="9.7673908"><ele>216.0</ele><time>2026-04-17T09:25:15.847Z</time></trkpt><trkpt lat="33.6005274" lon="9.7674672"><ele>216.0</ele><time>2026-04-17T09:25:16.848Z</time></trkpt><trkpt lat="33.6006401" lon="9.7675199"><ele>216.0</ele><time>2026-04-17T09:25:17.846Z</time></trkpt><trkpt lat="33.6007859" lon="9.7675494"><ele>216.0</ele><time>2026-04-17T09:25:18.838Z</time></trkpt><trkpt lat="33.6009241" lon="9.7675787"><ele>216.0</ele><time>2026-04-17T09:25:19.843Z</time></trkpt><trkpt lat="33.6010742" lon="9.7676176"><ele>215.66666666666669</ele><time>2026-04-17T09:25:20.842Z</time></trkpt><trkpt lat="33.6012117" lon="9.7676548"><ele>215.33333333333334</ele><time>2026-04-17T09:25:21.864Z</time></trkpt><trkpt lat="33.6013645" lon="9.7677041"><ele>215.0</ele><time>2026-04-17T09:25:22.844Z</time></trkpt><trkpt lat="33.6015089" lon="9.7677579"><ele>214.33333333333334</ele><time>2026-04-17T09:25:23.846Z</time></trkpt><trkpt lat="33.6016551" lon="9.767822"><ele>213.66666666666669</ele><time>2026-04-17T09:25:24.842Z</time></trkpt><trkpt lat="33.6018004" lon="9.767865"><ele>213.0</ele><time>2026-04-17T09:25:25.836Z</time></trkpt><trkpt lat="33.6019614" lon="9.7679236"><ele>211.66666666666669</ele><time>2026-04-17T09:25:26.843Z</time></trkpt><trkpt lat="33.602118" lon="9.7679707"><ele>210.33333333333334</ele><time>2026-04-17T09:25:27.841Z</time></trkpt><trkpt lat="33.6022806" lon="9.7680294"><ele>209.0</ele><time>2026-04-17T09:25:28.842Z</time></trkpt><trkpt lat="33.6024427" lon="9.7680761"><ele>209.0</ele><time>2026-04-17T09:25:29.847Z</time></trkpt><trkpt lat="33.6026015" lon="9.7681322"><ele>209.0</ele><time>2026-04-17T09:25:30.842Z</time></trkpt><trkpt lat="33.6027466" lon="9.7681619"><ele>209.0</ele><time>2026-04-17T09:25:31.843Z</time></trkpt><trkpt lat="33.6028557" lon="9.7682034"><ele>209.0</ele><time>2026-04-17T09:25:32.843Z</time></trkpt><trkpt lat="33.602968" lon="9.7682621"><ele>209.25</ele><time>2026-04-17T09:25:33.842Z</time></trkpt><trkpt lat="33.6030854" lon="9.7683095"><ele>209.5</ele><time>2026-04-17T09:25:34.843Z</time></trkpt><trkpt lat="33.6031861" lon="9.768346"><ele>209.75</ele><time>2026-04-17T09:25:35.843Z</time></trkpt><trkpt lat="33.6032898" lon="9.7683712"><ele>210.0</ele><time>2026-04-17T09:25:36.843Z</time></trkpt><trkpt lat="33.6034188" lon="9.7684025"><ele>210.0</ele><time>2026-04-17T09:25:37.846Z</time></trkpt><trkpt lat="33.6035247" lon="9.7684296"><ele>210.0</ele><time>2026-04-17T09:25:38.844Z</time></trkpt><trkpt lat="33.6036113" lon="9.7684667"><ele>210.0</ele><time>2026-04-17T09:25:39.843Z</time></trkpt><trkpt lat="33.6036812" lon="9.7685061"><ele>210.0</ele><time>2026-04-17T09:25:40.841Z</time></trkpt><trkpt lat="33.6037343" lon="9.7685524"><ele>210.0</ele><time>2026-04-17T09:25:41.83Z</time></trkpt><trkpt lat="33.6038062" lon="9.7686521"><ele>210.66666666666666</ele><time>2026-04-17T09:25:43.852Z</time></trkpt><trkpt lat="33.6038474" lon="9.7687432"><ele>211.33333333333331</ele><time>2026-04-17T09:25:45.847Z</time></trkpt><trkpt lat="33.6039018" lon="9.7688173"><ele>212.0</ele><time>2026-04-17T09:25:59.849Z</time></trkpt><trkpt lat="33.6039761" lon="9.7688886"><ele>212.66666666666666</ele><time>2026-04-17T09:26:01.86Z</time></trkpt><trkpt lat="33.6040324" lon="9.7689462"><ele>213.33333333333331</ele><time>2026-04-17T09:26:03.84Z</time></trkpt><trkpt lat="33.6040884" lon="9.7689982"><ele>214.0</ele><time>2026-04-17T09:26:09.855Z</time></trkpt><trkpt lat="33.6041527" lon="9.76906"><ele>214.0</ele><time>2026-04-17T09:26:11.849Z</time></trkpt><trkpt lat="33.6042264" lon="9.7691167"><ele>213.99999999999997</ele><time>2026-04-17T09:26:13.854Z</time></trkpt><trkpt lat="33.6043186" lon="9.7692035"><ele>213.99999999999997</ele><time>2026-04-17T09:26:15.848Z</time></trkpt><trkpt lat="33.604414" lon="9.7692971"><ele>214.0</ele><time>2026-04-17T09:26:17.849Z</time></trkpt><trkpt lat="33.604505" lon="9.7693847"><ele>214.0</ele><time>2026-04-17T09:26:19.849Z</time></trkpt><trkpt lat="33.6045739" lon="9.7694508"><ele>213.99999999999997</ele><time>2026-04-17T09:26:21.852Z</time></trkpt><trkpt lat="33.6046197" lon="9.7695053"><ele>214.0</ele><time>2026-04-17T09:27:41.855Z</time></trkpt><trkpt lat="33.6045733" lon="9.7693966"><ele>214.0</ele><time>2026-04-17T09:27:48.843Z</time></trkpt><trkpt lat="33.6045123" lon="9.7693346"><ele>214.0</ele><time>2026-04-17T09:27:49.842Z</time></trkpt><trkpt lat="33.6044503" lon="9.7692883"><ele>213.99999999999997</ele><time>2026-04-17T09:27:50.864Z</time></trkpt><trkpt lat="33.6043843" lon="9.7692316"><ele>214.0</ele><time>2026-04-17T09:27:51.855Z</time></trkpt><trkpt lat="33.604311" lon="9.7691749"><ele>214.0</ele><time>2026-04-17T09:27:52.851Z</time></trkpt><trkpt lat="33.6042212" lon="9.769095"><ele>213.99999999999997</ele><time>2026-04-17T09:27:53.854Z</time></trkpt><trkpt lat="33.6041384" lon="9.7690288"><ele>213.99999999999997</ele><time>2026-04-17T09:27:54.932Z</time></trkpt><trkpt lat="33.6040554" lon="9.7689533"><ele>214.0</ele><time>2026-04-17T09:27:55.933Z</time></trkpt><trkpt lat="33.603965" lon="9.7688633"><ele>214.0</ele><time>2026-04-17T09:27:56.973Z</time></trkpt><trkpt lat="33.6038736" lon="9.7687675"><ele>214.0</ele><time>2026-04-17T09:27:57.931Z</time></trkpt><trkpt lat="33.6037901" lon="9.7686737"><ele>213.99999999999997</ele><time>2026-04-17T09:27:58.926Z</time></trkpt><trkpt lat="33.6037105" lon="9.768587"><ele>213.99999999999997</ele><time>2026-04-17T09:27:59.929Z</time></trkpt><trkpt lat="33.6036321" lon="9.7685121"><ele>214.0</ele><time>2026-04-17T09:28:00.93Z</time></trkpt><trkpt lat="33.6035499" lon="9.7684508"><ele>214.0</ele><time>2026-04-17T09:28:01.947Z</time></trkpt><trkpt lat="33.6034606" lon="9.7684077"><ele>213.0</ele><time>2026-04-17T09:28:02.918Z</time></trkpt><trkpt lat="33.6033599" lon="9.7683747"><ele>212.0</ele><time>2026-04-17T09:28:03.926Z</time></trkpt><trkpt lat="33.6032496" lon="9.7683388"><ele>211.0</ele><time>2026-04-17T09:28:04.919Z</time></trkpt><trkpt lat="33.6031328" lon="9.768313"><ele>210.0</ele><time>2026-04-17T09:28:05.922Z</time></trkpt><trkpt lat="33.6030213" lon="9.7682433"><ele>210.0</ele><time>2026-04-17T09:28:06.848Z</time></trkpt><trkpt lat="33.6028932" lon="9.7681882"><ele>210.0</ele><time>2026-04-17T09:28:07.846Z</time></trkpt><trkpt lat="33.602758" lon="9.7681236"><ele>210.0</ele><time>2026-04-17T09:28:08.84Z</time></trkpt><trkpt lat="33.602624" lon="9.768071"><ele>210.0</ele><time>2026-04-17T09:28:09.845Z</time></trkpt><trkpt lat="33.6024767" lon="9.7680163"><ele>209.66666666666669</ele><time>2026-04-17T09:28:10.85Z</time></trkpt><trkpt lat="33.6023242" lon="9.7679764"><ele>209.33333333333334</ele><time>2026-04-17T09:28:11.849Z</time></trkpt><trkpt lat="33.6021755" lon="9.7679396"><ele>209.0</ele><time>2026-04-17T09:28:12.85Z</time></trkpt><trkpt lat="33.6020235" lon="9.7678908"><ele>210.33333333333334</ele><time>2026-04-17T09:28:13.849Z</time></trkpt><trkpt lat="33.6018756" lon="9.7678501"><ele>211.66666666666669</ele><time>2026-04-17T09:28:14.848Z</time></trkpt><trkpt lat="33.6017305" lon="9.7677925"><ele>213.0</ele><time>2026-04-17T09:28:15.845Z</time></trkpt><trkpt lat="33.6015828" lon="9.7677461"><ele>213.0</ele><time>2026-04-17T09:28:16.842Z</time></trkpt><trkpt lat="33.6014411" lon="9.7677031"><ele>213.0</ele><time>2026-04-17T09:28:17.841Z</time></trkpt><trkpt lat="33.6012996" lon="9.767664"><ele>213.0</ele><time>2026-04-17T09:28:18.834Z</time></trkpt><trkpt lat="33.6011596" lon="9.7676142"><ele>213.0</ele><time>2026-04-17T09:28:19.844Z</time></trkpt><trkpt lat="33.6010256" lon="9.7675721"><ele>213.75</ele><time>2026-04-17T09:28:20.846Z</time></trkpt><trkpt lat="33.6008915" lon="9.7675421"><ele>214.5</ele><time>2026-04-17T09:28:21.845Z</time></trkpt><trkpt lat="33.6007645" lon="9.7675218"><ele>215.25</ele><time>2026-04-17T09:28:22.842Z</time></trkpt><trkpt lat="33.6006286" lon="9.7674912"><ele>216.0</ele><time>2026-04-17T09:28:23.842Z</time></trkpt><trkpt lat="33.6005126" lon="9.7674509"><ele>216.0</ele><time>2026-04-17T09:28:24.84Z</time></trkpt><trkpt lat="33.6003982" lon="9.7673977"><ele>216.0</ele><time>2026-04-17T09:28:25.834Z</time></trkpt><trkpt lat="33.6002798" lon="9.7673336"><ele>216.0</ele><time>2026-04-17T09:28:26.854Z</time></trkpt><trkpt lat="33.6001693" lon="9.7672596"><ele>216.0</ele><time>2026-04-17T09:28:27.836Z</time></trkpt><trkpt lat="33.6000324" lon="9.7672335"><ele>216.0</ele><time>2026-04-17T09:28:28.843Z</time></trkpt><trkpt lat="33.5998983" lon="9.7672184"><ele>216.0</ele><time>2026-04-17T09:28:29.851Z</time></trkpt><trkpt lat="33.5997579" lon="9.7671987"><ele>216.0</ele><time>2026-04-17T09:28:30.844Z</time></trkpt><trkpt lat="33.5996142" lon="9.7671861"><ele>216.0</ele><time>2026-04-17T09:28:31.847Z</time></trkpt><trkpt lat="33.5994802" lon="9.7671802"><ele>216.75</ele><time>2026-04-17T09:28:32.842Z</time></trkpt><trkpt lat="33.5993495" lon="9.7671931"><ele>217.5</ele><time>2026-04-17T09:28:33.839Z</time></trkpt><trkpt lat="33.5992142" lon="9.7671911"><ele>218.25</ele><time>2026-04-17T09:28:34.842Z</time></trkpt><trkpt lat="33.5991015" lon="9.7671978"><ele>219.0</ele><time>2026-04-17T09:28:35.84Z</time></trkpt><trkpt lat="33.598994" lon="9.7672097"><ele>219.0</ele><time>2026-04-17T09:28:36.836Z</time></trkpt><trkpt lat="33.5988851" lon="9.7672182"><ele>218.99999999999997</ele><time>2026-04-17T09:28:37.832Z</time></trkpt><trkpt lat="33.5987902" lon="9.7672407"><ele>218.99999999999997</ele><time>2026-04-17T09:28:38.832Z</time></trkpt><trkpt lat="33.5986851" lon="9.7672862"><ele>219.0</ele><time>2026-04-17T09:28:39.836Z</time></trkpt><trkpt lat="33.5985735" lon="9.7673423"><ele>219.0</ele><time>2026-04-17T09:28:40.841Z</time></trkpt><trkpt lat="33.598461" lon="9.767405"><ele>219.25</ele><time>2026-04-17T09:28:41.84Z</time></trkpt><trkpt lat="33.5983458" lon="9.767461"><ele>219.5</ele><time>2026-04-17T09:28:42.831Z</time></trkpt><trkpt lat="33.5982205" lon="9.7675049"><ele>219.75</ele><time>2026-04-17T09:28:43.829Z</time></trkpt><trkpt lat="33.5980948" lon="9.7675269"><ele>220.0</ele><time>2026-04-17T09:28:44.836Z</time></trkpt><trkpt lat="33.5979597" lon="9.7675472"><ele>219.8</ele><time>2026-04-17T09:28:45.84Z</time></trkpt><trkpt lat="33.5978324" lon="9.7675592"><ele>219.6</ele><time>2026-04-17T09:28:46.84Z</time></trkpt><trkpt lat="33.5977146" lon="9.7675723"><ele>219.39999999999998</ele><time>2026-04-17T09:28:47.84Z</time></trkpt><trkpt lat="33.5976129" lon="9.7675819"><ele>219.2</ele><time>2026-04-17T09:28:48.845Z</time></trkpt><trkpt lat="33.5975236" lon="9.7676025"><ele>219.0</ele><time>2026-04-17T09:28:49.841Z</time></trkpt><trkpt lat="33.5974494" lon="9.7676233"><ele>219.0</ele><time>2026-04-17T09:28:50.842Z</time></trkpt><trkpt lat="33.5973813" lon="9.7676336"><ele>219.0</ele><time>2026-04-17T09:28:51.844Z</time></trkpt><trkpt lat="33.5973141" lon="9.7676378"><ele>219.0</ele><time>2026-04-17T09:28:52.85Z</time></trkpt><trkpt lat="33.5972193" lon="9.76761"><ele>219.0</ele><time>2026-04-17T09:28:54.848Z</time></trkpt><trkpt lat="33.5971638" lon="9.7675194"><ele>219.0</ele><time>2026-04-17T09:28:56.85Z</time></trkpt><trkpt lat="33.5971476" lon="9.7674336"><ele>219.0</ele><time>2026-04-17T09:28:58.845Z</time></trkpt><trkpt lat="33.5971324" lon="9.7673457"><ele>219.0</ele><time>2026-04-17T09:29:00.851Z</time></trkpt><trkpt lat="33.5971001" lon="9.7672224"><ele>218.99999999999997</ele><time>2026-04-17T09:29:02.84Z</time></trkpt><trkpt lat="33.5970685" lon="9.7671076"><ele>218.99999999999997</ele><time>2026-04-17T09:29:04.839Z</time></trkpt><trkpt lat="33.5970333" lon="9.7669867"><ele>219.0</ele><time>2026-04-17T09:29:06.842Z</time></trkpt><trkpt lat="33.5970127" lon="9.7668436"><ele>219.0</ele><time>2026-04-17T09:29:08.836Z</time></trkpt><trkpt lat="33.5969957" lon="9.7667635"><ele>218.79999999999998</ele><time>2026-04-17T09:29:09.837Z</time></trkpt><trkpt lat="33.5969427" lon="9.7666146"><ele>218.59999999999997</ele><time>2026-04-17T09:29:11.837Z</time></trkpt><trkpt lat="33.5969102" lon="9.7665257"><ele>218.4</ele><time>2026-04-17T09:29:12.845Z</time></trkpt><trkpt lat="33.596868" lon="9.7664304"><ele>218.2</ele><time>2026-04-17T09:29:13.847Z</time></trkpt><trkpt lat="33.5968268" lon="9.7663482"><ele>218.0</ele><time>2026-04-17T09:29:14.851Z</time></trkpt><trkpt lat="33.5967797" lon="9.7662473"><ele>218.0</ele><time>2026-04-17T09:29:15.854Z</time></trkpt><trkpt lat="33.5967249" lon="9.766139"><ele>218.0</ele><time>2026-04-17T09:29:16.855Z</time></trkpt><trkpt lat="33.5966636" lon="9.7660347"><ele>218.0</ele><time>2026-04-17T09:29:17.855Z</time></trkpt><trkpt lat="33.5966132" lon="9.7659385"><ele>218.0</ele><time>2026-04-17T09:29:18.856Z</time></trkpt><trkpt lat="33.5965685" lon="9.7658439"><ele>218.0</ele><time>2026-04-17T09:29:19.855Z</time></trkpt><trkpt lat="33.596536" lon="9.765759"><ele>218.16666666666669</ele><time>2026-04-17T09:29:20.851Z</time></trkpt><trkpt lat="33.5965102" lon="9.7656891"><ele>218.33333333333334</ele><time>2026-04-17T09:29:21.854Z</time></trkpt><trkpt lat="33.5965003" lon="9.7655478"><ele>218.5</ele><time>2026-04-17T09:29:23.866Z</time></trkpt><trkpt lat="33.5964962" lon="9.7654615"><ele>218.66666666666669</ele><time>2026-04-17T09:29:24.856Z</time></trkpt><trkpt lat="33.5964802" lon="9.7653809"><ele>218.83333333333334</ele><time>2026-04-17T09:29:25.84Z</time></trkpt><trkpt lat="33.5964119" lon="9.7652591"><ele>219.0</ele><time>2026-04-17T09:29:27.831Z</time></trkpt><trkpt lat="33.596289" lon="9.7651867"><ele>219.39999999999998</ele><time>2026-04-17T09:29:29.844Z</time></trkpt><trkpt lat="33.596217" lon="9.765142"><ele>219.79999999999998</ele><time>2026-04-17T09:29:30.834Z</time></trkpt><trkpt lat="33.5961534" lon="9.7650735"><ele>220.20000000000002</ele><time>2026-04-17T09:29:31.837Z</time></trkpt><trkpt lat="33.5961012" lon="9.7649734"><ele>220.60000000000002</ele><time>2026-04-17T09:29:32.838Z</time></trkpt><trkpt lat="33.5960448" lon="9.764866"><ele>221.0</ele><time>2026-04-17T09:29:33.84Z</time></trkpt><trkpt lat="33.5959819" lon="9.7647606"><ele>221.60000000000002</ele><time>2026-04-17T09:29:34.838Z</time></trkpt><trkpt lat="33.5959134" lon="9.7646689"><ele>222.20000000000002</ele><time>2026-04-17T09:29:35.838Z</time></trkpt><trkpt lat="33.5958483" lon="9.7645745"><ele>222.79999999999998</ele><time>2026-04-17T09:29:36.833Z</time></trkpt><trkpt lat="33.5957923" lon="9.7644655"><ele>223.39999999999998</ele><time>2026-04-17T09:29:37.841Z</time></trkpt><trkpt lat="33.5957428" lon="9.7643756"><ele>224.0</ele><time>2026-04-17T09:29:38.832Z</time></trkpt><trkpt lat="33.5956877" lon="9.7643126"><ele>224.0</ele><time>2026-04-17T09:29:39.849Z</time></trkpt><trkpt lat="33.5956257" lon="9.7642904"><ele>223.99999999999997</ele><time>2026-04-17T09:29:40.845Z</time></trkpt><trkpt lat="33.5954973" lon="9.764356"><ele>223.99999999999997</ele><time>2026-04-17T09:29:42.837Z</time></trkpt><trkpt lat="33.595419" lon="9.7644086"><ele>224.0</ele><time>2026-04-17T09:29:43.84Z</time></trkpt><trkpt lat="33.5953534" lon="9.7644394"><ele>224.0</ele><time>2026-04-17T09:29:44.837Z</time></trkpt><trkpt lat="33.5952666" lon="9.764413"><ele>225.5</ele><time>2026-04-17T09:29:46.837Z</time></trkpt><trkpt lat="33.5952287" lon="9.7642511"><ele>227.0</ele><time>2026-04-17T09:29:48.823Z</time></trkpt><trkpt lat="33.5952245" lon="9.7641348"><ele>228.5</ele><time>2026-04-17T09:29:49.835Z</time></trkpt><trkpt lat="33.5952273" lon="9.7639932"><ele>230.0</ele><time>2026-04-17T09:29:50.835Z</time></trkpt><trkpt lat="33.5952222" lon="9.7638604"><ele>230.0</ele><time>2026-04-17T09:29:51.831Z</time></trkpt><trkpt lat="33.5952022" lon="9.763717"><ele>230.0</ele><time>2026-04-17T09:29:52.832Z</time></trkpt><trkpt lat="33.5951842" lon="9.7635783"><ele>230.0</ele><time>2026-04-17T09:29:53.836Z</time></trkpt><trkpt lat="33.5951591" lon="9.7634302"><ele>230.0</ele><time>2026-04-17T09:29:54.835Z</time></trkpt><trkpt lat="33.5951426" lon="9.7632789"><ele>230.83333333333334</ele><time>2026-04-17T09:29:55.839Z</time></trkpt><trkpt lat="33.5951289" lon="9.7631334"><ele>231.66666666666669</ele><time>2026-04-17T09:29:56.842Z</time></trkpt><trkpt lat="33.5951154" lon="9.7630196"><ele>232.5</ele><time>2026-04-17T09:29:57.829Z</time></trkpt><trkpt lat="33.5950909" lon="9.7629303"><ele>233.33333333333331</ele><time>2026-04-17T09:29:58.83Z</time></trkpt><trkpt lat="33.5950677" lon="9.7628524"><ele>234.16666666666666</ele><time>2026-04-17T09:29:59.855Z</time></trkpt><trkpt lat="33.5950327" lon="9.7627611"><ele>235.0</ele><time>2026-04-17T09:30:00.841Z</time></trkpt><trkpt lat="33.5949919" lon="9.7626654"><ele>235.0</ele><time>2026-04-17T09:30:01.843Z</time></trkpt><trkpt lat="33.5949558" lon="9.7625621"><ele>235.0</ele><time>2026-04-17T09:30:02.835Z</time></trkpt><trkpt lat="33.5949132" lon="9.7624652"><ele>235.0</ele><time>2026-04-17T09:30:03.837Z</time></trkpt><trkpt lat="33.5948662" lon="9.7623761"><ele>235.0</ele><time>2026-04-17T09:30:04.836Z</time></trkpt><trkpt lat="33.5948162" lon="9.7622875"><ele>235.0</ele><time>2026-04-17T09:30:05.834Z</time></trkpt><trkpt lat="33.5947837" lon="9.7621837"><ele>235.0</ele><time>2026-04-17T09:30:06.83Z</time></trkpt><trkpt lat="33.5947717" lon="9.7620641"><ele>235.0</ele><time>2026-04-17T09:30:07.835Z</time></trkpt><trkpt lat="33.5947787" lon="9.7619347"><ele>235.0</ele><time>2026-04-17T09:30:08.833Z</time></trkpt><trkpt lat="33.5947875" lon="9.7617816"><ele>235.0</ele><time>2026-04-17T09:30:09.853Z</time></trkpt><trkpt lat="33.5947805" lon="9.7616208"><ele>234.0</ele><time>2026-04-17T09:30:10.845Z</time></trkpt><trkpt lat="33.5947678" lon="9.7614528"><ele>233.0</ele><time>2026-04-17T09:30:11.864Z</time></trkpt><trkpt lat="33.5947581" lon="9.7612812"><ele>232.0</ele><time>2026-04-17T09:30:12.856Z</time></trkpt><trkpt lat="33.5947748" lon="9.7611184"><ele>231.0</ele><time>2026-04-17T09:30:13.85Z</time></trkpt><trkpt lat="33.5947928" lon="9.7609664"><ele>230.5</ele><time>2026-04-17T09:30:14.854Z</time></trkpt><trkpt lat="33.5948142" lon="9.7608099"><ele>230.0</ele><time>2026-04-17T09:30:15.853Z</time></trkpt><trkpt lat="33.5948456" lon="9.7606965"><ele>229.5</ele><time>2026-04-17T09:30:16.857Z</time></trkpt><trkpt lat="33.5948603" lon="9.7605508"><ele>229.0</ele><time>2026-04-17T09:30:17.854Z</time></trkpt><trkpt lat="33.5949222" lon="9.7604195"><ele>229.0</ele><time>2026-04-17T09:30:18.86Z</time></trkpt><trkpt lat="33.594987" lon="9.7602801"><ele>229.0</ele><time>2026-04-17T09:30:19.859Z</time></trkpt><trkpt lat="33.5950585" lon="9.7601316"><ele>229.0</ele><time>2026-04-17T09:30:20.855Z</time></trkpt><trkpt lat="33.5951228" lon="9.7599889"><ele>229.0</ele><time>2026-04-17T09:30:21.854Z</time></trkpt><trkpt lat="33.5951508" lon="9.759847"><ele>229.39999999999998</ele><time>2026-04-17T09:30:22.853Z</time></trkpt><trkpt lat="33.5951778" lon="9.7597248"><ele>229.79999999999998</ele><time>2026-04-17T09:30:23.859Z</time></trkpt><trkpt lat="33.59521" lon="9.7596264"><ele>230.20000000000002</ele><time>2026-04-17T09:30:24.853Z</time></trkpt><trkpt lat="33.5952608" lon="9.759551"><ele>230.60000000000002</ele><time>2026-04-17T09:30:25.857Z</time></trkpt><trkpt lat="33.5953285" lon="9.7594235"><ele>231.0</ele><time>2026-04-17T09:30:27.847Z</time></trkpt><trkpt lat="33.5953666" lon="9.7593364"><ele>230.20000000000002</ele><time>2026-04-17T09:30:28.854Z</time></trkpt><trkpt lat="33.5953939" lon="9.759226"><ele>229.40000000000003</ele><time>2026-04-17T09:30:29.852Z</time></trkpt><trkpt lat="33.5954138" lon="9.7591049"><ele>228.6</ele><time>2026-04-17T09:30:30.866Z</time></trkpt><trkpt lat="33.5954323" lon="9.7589706"><ele>227.8</ele><time>2026-04-17T09:30:31.851Z</time></trkpt><trkpt lat="33.5954522" lon="9.7588383"><ele>227.0</ele><time>2026-04-17T09:30:32.847Z</time></trkpt><trkpt lat="33.5954659" lon="9.7587068"><ele>227.0</ele><time>2026-04-17T09:30:33.849Z</time></trkpt><trkpt lat="33.5954591" lon="9.7585705"><ele>227.0</ele><time>2026-04-17T09:30:34.85Z</time></trkpt><trkpt lat="33.5954361" lon="9.7584364"><ele>227.0</ele><time>2026-04-17T09:30:35.854Z</time></trkpt><trkpt lat="33.5954023" lon="9.7582998"><ele>227.0</ele><time>2026-04-17T09:30:36.849Z</time></trkpt><trkpt lat="33.5953536" lon="9.7581775"><ele>227.6</ele><time>2026-04-17T09:30:37.853Z</time></trkpt><trkpt lat="33.5953169" lon="9.7580747"><ele>228.2</ele><time>2026-04-17T09:30:38.852Z</time></trkpt><trkpt lat="33.5952608" lon="9.7579798"><ele>228.8</ele><time>2026-04-17T09:30:39.844Z</time></trkpt><trkpt lat="33.5951945" lon="9.7578989"><ele>229.4</ele><time>2026-04-17T09:30:40.923Z</time></trkpt><trkpt lat="33.5951144" lon="9.757826"><ele>230.0</ele><time>2026-04-17T09:30:41.922Z</time></trkpt><trkpt lat="33.5950218" lon="9.7577486"><ele>229.6</ele><time>2026-04-17T09:30:42.925Z</time></trkpt><trkpt lat="33.5949292" lon="9.7576602"><ele>229.2</ele><time>2026-04-17T09:30:43.914Z</time></trkpt><trkpt lat="33.594844" lon="9.7575592"><ele>228.8</ele><time>2026-04-17T09:30:44.916Z</time></trkpt><trkpt lat="33.5947713" lon="9.7574601"><ele>228.4</ele><time>2026-04-17T09:30:45.911Z</time></trkpt><trkpt lat="33.5947166" lon="9.7573671"><ele>228.0</ele><time>2026-04-17T09:30:46.912Z</time></trkpt><trkpt lat="33.5946832" lon="9.7572735"><ele>228.0</ele><time>2026-04-17T09:30:47.935Z</time></trkpt><trkpt lat="33.5946707" lon="9.7571552"><ele>228.0</ele><time>2026-04-17T09:30:48.929Z</time></trkpt><trkpt lat="33.5946744" lon="9.7570178"><ele>228.0</ele><time>2026-04-17T09:30:49.913Z</time></trkpt><trkpt lat="33.5946937" lon="9.7568646"><ele>228.0</ele><time>2026-04-17T09:30:50.905Z</time></trkpt><trkpt lat="33.5946597" lon="9.7567861"><ele>228.0</ele><time>2026-04-17T09:30:51.904Z</time></trkpt><trkpt lat="33.5947036" lon="9.7566251"><ele>228.0</ele><time>2026-04-17T09:30:52.905Z</time></trkpt><trkpt lat="33.5947472" lon="9.7564887"><ele>228.0</ele><time>2026-04-17T09:30:53.928Z</time></trkpt><trkpt lat="33.5947938" lon="9.7563649"><ele>228.0</ele><time>2026-04-17T09:30:54.927Z</time></trkpt><trkpt lat="33.5948349" lon="9.7562451"><ele>228.0</ele><time>2026-04-17T09:30:55.935Z</time></trkpt><trkpt lat="33.5948692" lon="9.7561237"><ele>228.0</ele><time>2026-04-17T09:30:56.945Z</time></trkpt><trkpt lat="33.5948945" lon="9.7559969"><ele>228.0</ele><time>2026-04-17T09:30:57.937Z</time></trkpt><trkpt lat="33.5949044" lon="9.7558692"><ele>228.0</ele><time>2026-04-17T09:30:58.941Z</time></trkpt><trkpt lat="33.5949097" lon="9.7557374"><ele>228.0</ele><time>2026-04-17T09:30:59.941Z</time></trkpt><trkpt lat="33.594911" lon="9.7556075"><ele>228.0</ele><time>2026-04-17T09:31:00.912Z</time></trkpt><trkpt lat="33.5949074" lon="9.7554713"><ele>228.0</ele><time>2026-04-17T09:31:01.937Z</time></trkpt><trkpt lat="33.5948931" lon="9.7553391"><ele>228.0</ele><time>2026-04-17T09:31:02.913Z</time></trkpt><trkpt lat="33.594883" lon="9.7551998"><ele>228.0</ele><time>2026-04-17T09:31:03.913Z</time></trkpt><trkpt lat="33.5948909" lon="9.7550723"><ele>228.0</ele><time>2026-04-17T09:31:04.935Z</time></trkpt><trkpt lat="33.5949002" lon="9.7549502"><ele>228.0</ele><time>2026-04-17T09:31:05.93Z</time></trkpt><trkpt lat="33.5949115" lon="9.754843"><ele>228.33333333333334</ele><time>2026-04-17T09:31:06.938Z</time></trkpt><trkpt lat="33.5949281" lon="9.7547557"><ele>228.66666666666669</ele><time>2026-04-17T09:31:07.932Z</time></trkpt><trkpt lat="33.5949693" lon="9.7546778"><ele>229.0</ele><time>2026-04-17T09:31:08.925Z</time></trkpt><trkpt lat="33.5950253" lon="9.7546381"><ele>229.33333333333334</ele><time>2026-04-17T09:31:09.915Z</time></trkpt><trkpt lat="33.5951049" lon="9.7545767"><ele>229.66666666666669</ele><time>2026-04-17T09:31:10.915Z</time></trkpt><trkpt lat="33.5951886" lon="9.7545098"><ele>230.0</ele><time>2026-04-17T09:31:11.914Z</time></trkpt><trkpt lat="33.5952464" lon="9.7544486"><ele>229.75</ele><time>2026-04-17T09:31:12.916Z</time></trkpt><trkpt lat="33.595334" lon="9.7543596"><ele>229.5</ele><time>2026-04-17T09:31:13.935Z</time></trkpt><trkpt lat="33.5954197" lon="9.7542793"><ele>229.25</ele><time>2026-04-17T09:31:14.93Z</time></trkpt><trkpt lat="33.5955132" lon="9.7541889"><ele>229.0</ele><time>2026-04-17T09:31:15.941Z</time></trkpt><trkpt lat="33.5956045" lon="9.7540947"><ele>229.0</ele><time>2026-04-17T09:31:16.937Z</time></trkpt><trkpt lat="33.595701" lon="9.7540048"><ele>228.99999999999997</ele><time>2026-04-17T09:31:17.933Z</time></trkpt><trkpt lat="33.5957957" lon="9.7539297"><ele>228.99999999999997</ele><time>2026-04-17T09:31:18.931Z</time></trkpt><trkpt lat="33.5958916" lon="9.7538709"><ele>229.0</ele><time>2026-04-17T09:31:19.935Z</time></trkpt><trkpt lat="33.5959688" lon="9.7538141"><ele>229.0</ele><time>2026-04-17T09:31:20.912Z</time></trkpt><trkpt lat="33.5960422" lon="9.7537663"><ele>228.99999999999997</ele><time>2026-04-17T09:31:21.913Z</time></trkpt><trkpt lat="33.5961023" lon="9.7537322"><ele>229.0</ele><time>2026-04-17T09:31:22.912Z</time></trkpt><trkpt lat="33.5961677" lon="9.7536636"><ele>229.0</ele><time>2026-04-17T09:31:23.908Z</time></trkpt><trkpt lat="33.5962079" lon="9.7535677"><ele>229.0</ele><time>2026-04-17T09:31:24.932Z</time></trkpt><trkpt lat="33.5962589" lon="9.7534951"><ele>228.99999999999997</ele><time>2026-04-17T09:31:26.83Z</time></trkpt><trkpt lat="33.5962323" lon="9.7534156"><ele>229.0</ele><time>2026-04-17T09:31:27.82Z</time></trkpt><trkpt lat="33.5961928" lon="9.7533265"><ele>229.0</ele><time>2026-04-17T09:31:28.819Z</time></trkpt><trkpt lat="33.5961748" lon="9.7532127"><ele>228.99999999999997</ele><time>2026-04-17T09:31:29.819Z</time></trkpt><trkpt lat="33.5961857" lon="9.7531193"><ele>228.99999999999997</ele><time>2026-04-17T09:31:30.824Z</time></trkpt><trkpt lat="33.5962279" lon="9.753004"><ele>229.0</ele><time>2026-04-17T09:31:31.839Z</time></trkpt><trkpt lat="33.5962853" lon="9.752885"><ele>229.0</ele><time>2026-04-17T09:31:32.852Z</time></trkpt><trkpt lat="33.596328" lon="9.752786"><ele>229.2</ele><time>2026-04-17T09:31:33.837Z</time></trkpt><trkpt lat="33.5963473" lon="9.7526758"><ele>229.39999999999998</ele><time>2026-04-17T09:31:34.845Z</time></trkpt><trkpt lat="33.5963473" lon="9.7525434"><ele>229.6</ele><time>2026-04-17T09:31:35.84Z</time></trkpt><trkpt lat="33.5963355" lon="9.7524019"><ele>229.8</ele><time>2026-04-17T09:31:36.841Z</time></trkpt><trkpt lat="33.5963218" lon="9.7522535"><ele>230.0</ele><time>2026-04-17T09:31:37.844Z</time></trkpt><trkpt lat="33.5963002" lon="9.7521006"><ele>230.0</ele><time>2026-04-17T09:31:38.83Z</time></trkpt><trkpt lat="33.596275" lon="9.7519605"><ele>230.0</ele><time>2026-04-17T09:31:39.823Z</time></trkpt><trkpt lat="33.5962226" lon="9.7518569"><ele>230.0</ele><time>2026-04-17T09:31:40.827Z</time></trkpt><trkpt lat="33.5961671" lon="9.7517777"><ele>230.0</ele><time>2026-04-17T09:31:41.822Z</time></trkpt><trkpt lat="33.5961074" lon="9.7516968"><ele>230.0</ele><time>2026-04-17T09:31:42.834Z</time></trkpt><trkpt lat="33.5960493" lon="9.7516112"><ele>230.2</ele><time>2026-04-17T09:31:43.826Z</time></trkpt><trkpt lat="33.5960054" lon="9.7515118"><ele>230.4</ele><time>2026-04-17T09:31:44.826Z</time></trkpt><trkpt lat="33.5959832" lon="9.7513916"><ele>230.60000000000002</ele><time>2026-04-17T09:31:45.83Z</time></trkpt><trkpt lat="33.5959925" lon="9.7512724"><ele>230.8</ele><time>2026-04-17T09:31:46.833Z</time></trkpt><trkpt lat="33.5960124" lon="9.7511381"><ele>231.0</ele><time>2026-04-17T09:31:47.829Z</time></trkpt><trkpt lat="33.5960479" lon="9.7509905"><ele>232.25</ele><time>2026-04-17T09:31:48.836Z</time></trkpt><trkpt lat="33.5960651" lon="9.7508358"><ele>233.5</ele><time>2026-04-17T09:31:49.833Z</time></trkpt><trkpt lat="33.5960642" lon="9.7506848"><ele>234.75</ele><time>2026-04-17T09:31:50.832Z</time></trkpt><trkpt lat="33.5960524" lon="9.7505215"><ele>236.0</ele><time>2026-04-17T09:31:51.833Z</time></trkpt><trkpt lat="33.5960304" lon="9.750368"><ele>236.0</ele><time>2026-04-17T09:31:52.826Z</time></trkpt><trkpt lat="33.5960005" lon="9.7502172"><ele>236.00000000000003</ele><time>2026-04-17T09:31:53.832Z</time></trkpt><trkpt lat="33.5959599" lon="9.750087"><ele>236.00000000000003</ele><time>2026-04-17T09:31:54.822Z</time></trkpt><trkpt lat="33.5959225" lon="9.7499801"><ele>236.0</ele><time>2026-04-17T09:31:55.827Z</time></trkpt><trkpt lat="33.5958798" lon="9.7498991"><ele>236.0</ele><time>2026-04-17T09:31:56.836Z</time></trkpt><trkpt lat="33.5958363" lon="9.7498154"><ele>236.0</ele><time>2026-04-17T09:31:57.839Z</time></trkpt><trkpt lat="33.5958035" lon="9.7496867"><ele>236.00000000000003</ele><time>2026-04-17T09:31:59.84Z</time></trkpt><trkpt lat="33.5958157" lon="9.7496102"><ele>236.00000000000003</ele><time>2026-04-17T09:32:00.824Z</time></trkpt><trkpt lat="33.5958866" lon="9.7494794"><ele>236.0</ele><time>2026-04-17T09:32:02.83Z</time></trkpt><trkpt lat="33.595941" lon="9.7494147"><ele>236.0</ele><time>2026-04-17T09:32:03.844Z</time></trkpt><trkpt lat="33.5960054" lon="9.7493498"><ele>236.0</ele><time>2026-04-17T09:32:04.822Z</time></trkpt><trkpt lat="33.5960568" lon="9.7492553"><ele>236.00000000000003</ele><time>2026-04-17T09:32:05.824Z</time></trkpt><trkpt lat="33.5961122" lon="9.7491553"><ele>236.00000000000003</ele><time>2026-04-17T09:32:06.834Z</time></trkpt><trkpt lat="33.596165" lon="9.7490572"><ele>236.0</ele><time>2026-04-17T09:32:07.826Z</time></trkpt><trkpt lat="33.5962185" lon="9.7489763"><ele>236.0</ele><time>2026-04-17T09:32:08.83Z</time></trkpt><trkpt lat="33.596289" lon="9.7489192"><ele>236.0</ele><time>2026-04-17T09:32:09.828Z</time></trkpt><trkpt lat="33.5963622" lon="9.7488796"><ele>236.00000000000003</ele><time>2026-04-17T09:32:10.84Z</time></trkpt><trkpt lat="33.5964199" lon="9.7488314"><ele>236.00000000000003</ele><time>2026-04-17T09:32:11.832Z</time></trkpt><trkpt lat="33.5964896" lon="9.7487606"><ele>236.0</ele><time>2026-04-17T09:32:12.831Z</time></trkpt><trkpt lat="33.5965607" lon="9.7486604"><ele>236.0</ele><time>2026-04-17T09:32:13.832Z</time></trkpt><trkpt lat="33.5966386" lon="9.7485523"><ele>236.75</ele><time>2026-04-17T09:32:14.832Z</time></trkpt><trkpt lat="33.5967135" lon="9.748439"><ele>237.5</ele><time>2026-04-17T09:32:15.833Z</time></trkpt><trkpt lat="33.5967762" lon="9.7483143"><ele>238.25</ele><time>2026-04-17T09:32:16.84Z</time></trkpt><trkpt lat="33.5968298" lon="9.7481854"><ele>239.0</ele><time>2026-04-17T09:32:17.842Z</time></trkpt><trkpt lat="33.5968911" lon="9.7480646"><ele>239.0</ele><time>2026-04-17T09:32:18.84Z</time></trkpt><trkpt lat="33.5969461" lon="9.7479476"><ele>238.99999999999997</ele><time>2026-04-17T09:32:19.84Z</time></trkpt><trkpt lat="33.5969795" lon="9.7478249"><ele>238.99999999999997</ele><time>2026-04-17T09:32:20.842Z</time></trkpt><trkpt lat="33.5969982" lon="9.7477067"><ele>239.0</ele><time>2026-04-17T09:32:21.844Z</time></trkpt><trkpt lat="33.5970256" lon="9.7475927"><ele>239.0</ele><time>2026-04-17T09:32:22.838Z</time></trkpt><trkpt lat="33.597067" lon="9.747476"><ele>238.6</ele><time>2026-04-17T09:32:23.841Z</time></trkpt><trkpt lat="33.5971276" lon="9.7473665"><ele>238.2</ele><time>2026-04-17T09:32:24.834Z</time></trkpt><trkpt lat="33.5971903" lon="9.747279"><ele>237.79999999999998</ele><time>2026-04-17T09:32:25.833Z</time></trkpt><trkpt lat="33.5972558" lon="9.7472145"><ele>237.39999999999998</ele><time>2026-04-17T09:32:26.837Z</time></trkpt><trkpt lat="33.5973273" lon="9.7471558"><ele>237.0</ele><time>2026-04-17T09:32:27.834Z</time></trkpt><trkpt lat="33.5973902" lon="9.7470953"><ele>237.0</ele><time>2026-04-17T09:32:28.834Z</time></trkpt><trkpt lat="33.597443" lon="9.7470268"><ele>237.0</ele><time>2026-04-17T09:32:29.832Z</time></trkpt><trkpt lat="33.5974815" lon="9.7469628"><ele>237.0</ele><time>2026-04-17T09:32:30.828Z</time></trkpt><trkpt lat="33.5974995" lon="9.7468572"><ele>237.0</ele><time>2026-04-17T09:32:31.841Z</time></trkpt><trkpt lat="33.5975029" lon="9.7467472"><ele>237.0</ele><time>2026-04-17T09:32:32.83Z</time></trkpt><trkpt lat="33.5975082" lon="9.7466242"><ele>237.0</ele><time>2026-04-17T09:32:33.839Z</time></trkpt><trkpt lat="33.5975246" lon="9.7464864"><ele>237.5</ele><time>2026-04-17T09:32:34.873Z</time></trkpt><trkpt lat="33.5975488" lon="9.7463414"><ele>238.0</ele><time>2026-04-17T09:32:35.843Z</time></trkpt><trkpt lat="33.5975777" lon="9.7461859"><ele>238.5</ele><time>2026-04-17T09:32:36.846Z</time></trkpt><trkpt lat="33.5976124" lon="9.7460491"><ele>239.0</ele><time>2026-04-17T09:32:37.83Z</time></trkpt><trkpt lat="33.5976338" lon="9.7459091"><ele>239.0</ele><time>2026-04-17T09:32:38.838Z</time></trkpt><trkpt lat="33.5976482" lon="9.7457893"><ele>238.99999999999997</ele><time>2026-04-17T09:32:39.841Z</time></trkpt><trkpt lat="33.5976436" lon="9.7456775"><ele>238.99999999999997</ele><time>2026-04-17T09:32:40.835Z</time></trkpt><trkpt lat="33.5976073" lon="9.7455666"><ele>239.0</ele><time>2026-04-17T09:32:41.843Z</time></trkpt><trkpt lat="33.5975605" lon="9.7454583"><ele>239.0</ele><time>2026-04-17T09:32:42.84Z</time></trkpt><trkpt lat="33.5975106" lon="9.7453564"><ele>239.0</ele><time>2026-04-17T09:32:43.842Z</time></trkpt><trkpt lat="33.5974756" lon="9.7452401"><ele>238.99999999999997</ele><time>2026-04-17T09:32:44.845Z</time></trkpt><trkpt lat="33.5974534" lon="9.7451219"><ele>238.99999999999997</ele><time>2026-04-17T09:32:45.844Z</time></trkpt><trkpt lat="33.5974469" lon="9.7449979"><ele>239.0</ele><time>2026-04-17T09:32:46.852Z</time></trkpt><trkpt lat="33.5974379" lon="9.7448873"><ele>239.0</ele><time>2026-04-17T09:32:47.855Z</time></trkpt><trkpt lat="33.5974327" lon="9.7447847"><ele>239.2</ele><time>2026-04-17T09:32:48.846Z</time></trkpt><trkpt lat="33.5974235" lon="9.7446844"><ele>239.39999999999998</ele><time>2026-04-17T09:32:49.847Z</time></trkpt><trkpt lat="33.5973983" lon="9.7445674"><ele>239.6</ele><time>2026-04-17T09:32:50.846Z</time></trkpt><trkpt lat="33.5973569" lon="9.7444308"><ele>239.8</ele><time>2026-04-17T09:32:51.833Z</time></trkpt><trkpt lat="33.5973211" lon="9.7442859"><ele>240.0</ele><time>2026-04-17T09:32:52.832Z</time></trkpt><trkpt lat="33.5972968" lon="9.7441401"><ele>240.75</ele><time>2026-04-17T09:32:53.834Z</time></trkpt><trkpt lat="33.5972716" lon="9.7439806"><ele>241.5</ele><time>2026-04-17T09:32:54.843Z</time></trkpt><trkpt lat="33.5972428" lon="9.7438014"><ele>242.25</ele><time>2026-04-17T09:32:55.846Z</time></trkpt><trkpt lat="33.5972109" lon="9.7436188"><ele>243.0</ele><time>2026-04-17T09:32:56.846Z</time></trkpt><trkpt lat="33.597165" lon="9.7434439"><ele>243.0</ele><time>2026-04-17T09:32:57.846Z</time></trkpt><trkpt lat="33.5971203" lon="9.7432712"><ele>243.0</ele><time>2026-04-17T09:32:58.848Z</time></trkpt><trkpt lat="33.5970647" lon="9.7430941"><ele>243.0</ele><time>2026-04-17T09:32:59.849Z</time></trkpt><trkpt lat="33.5970248" lon="9.7429218"><ele>242.75</ele><time>2026-04-17T09:33:00.841Z</time></trkpt><trkpt lat="33.5969732" lon="9.7427478"><ele>242.5</ele><time>2026-04-17T09:33:01.847Z</time></trkpt><trkpt lat="33.5969245" lon="9.7425609"><ele>242.25</ele><time>2026-04-17T09:33:02.838Z</time></trkpt><trkpt lat="33.5968821" lon="9.742433"><ele>242.0</ele><time>2026-04-17T09:33:03.832Z</time></trkpt><trkpt lat="33.5968361" lon="9.7423283"><ele>242.0</ele><time>2026-04-17T09:33:04.851Z</time></trkpt><trkpt lat="33.5968064" lon="9.7422213"><ele>242.0</ele><time>2026-04-17T09:33:05.833Z</time></trkpt><trkpt lat="33.5967584" lon="9.7421092"><ele>242.0</ele><time>2026-04-17T09:33:06.827Z</time></trkpt><trkpt lat="33.5967026" lon="9.7420199"><ele>242.0</ele><time>2026-04-17T09:33:07.827Z</time></trkpt><trkpt lat="33.5966133" lon="9.7419169"><ele>242.0</ele><time>2026-04-17T09:33:08.838Z</time></trkpt><trkpt lat="33.5965305" lon="9.7418354"><ele>242.0</ele><time>2026-04-17T09:33:09.84Z</time></trkpt><trkpt lat="33.596472" lon="9.741755"><ele>242.0</ele><time>2026-04-17T09:33:10.839Z</time></trkpt><trkpt lat="33.5964172" lon="9.7416188"><ele>242.0</ele><time>2026-04-17T09:33:12.84Z</time></trkpt><trkpt lat="33.5963839" lon="9.7415324"><ele>242.0</ele><time>2026-04-17T09:33:13.842Z</time></trkpt><trkpt lat="33.5963374" lon="9.7413922"><ele>242.0</ele><time>2026-04-17T09:33:15.845Z</time></trkpt><trkpt lat="33.5963011" lon="9.741297"><ele>242.0</ele><time>2026-04-17T09:33:17.864Z</time></trkpt><trkpt lat="33.5963089" lon="9.7411842"><ele>242.0</ele><time>2026-04-17T09:33:20.857Z</time></trkpt><trkpt lat="33.5963488" lon="9.7411005"><ele>242.0</ele><time>2026-04-17T09:34:04.868Z</time></trkpt><trkpt lat="33.5964212" lon="9.7410681"><ele>242.0</ele><time>2026-04-17T09:34:06.867Z</time></trkpt><trkpt lat="33.5965111" lon="9.7410085"><ele>242.0</ele><time>2026-04-17T09:34:08.856Z</time></trkpt><trkpt lat="33.5966093" lon="9.7409081"><ele>242.66666666666669</ele><time>2026-04-17T09:34:10.859Z</time></trkpt><trkpt lat="33.5966627" lon="9.7408151"><ele>243.33333333333334</ele><time>2026-04-17T09:34:11.859Z</time></trkpt><trkpt lat="33.5967019" lon="9.740719"><ele>244.0</ele><time>2026-04-17T09:34:12.853Z</time></trkpt><trkpt lat="33.596728" lon="9.7406245"><ele>244.66666666666669</ele><time>2026-04-17T09:34:13.86Z</time></trkpt><trkpt lat="33.5967505" lon="9.7405457"><ele>245.33333333333334</ele><time>2026-04-17T09:34:14.862Z</time></trkpt><trkpt lat="33.5967649" lon="9.7404525"><ele>246.0</ele><time>2026-04-17T09:34:15.86Z</time></trkpt><trkpt lat="33.5967675" lon="9.7403639"><ele>246.0</ele><time>2026-04-17T09:34:16.865Z</time></trkpt><trkpt lat="33.5967584" lon="9.7402232"><ele>246.00000000000003</ele><time>2026-04-17T09:34:18.858Z</time></trkpt><trkpt lat="33.5967505" lon="9.7401311"><ele>246.00000000000003</ele><time>2026-04-17T09:34:19.859Z</time></trkpt><trkpt lat="33.5967371" lon="9.7400264"><ele>246.0</ele><time>2026-04-17T09:34:20.857Z</time></trkpt><trkpt lat="33.5967309" lon="9.7399236"><ele>246.0</ele><time>2026-04-17T09:34:21.859Z</time></trkpt><trkpt lat="33.5967353" lon="9.7398107"><ele>246.4</ele><time>2026-04-17T09:34:22.85Z</time></trkpt><trkpt lat="33.5967558" lon="9.739701"><ele>246.8</ele><time>2026-04-17T09:34:23.857Z</time></trkpt><trkpt lat="33.5967921" lon="9.7395832"><ele>247.20000000000002</ele><time>2026-04-17T09:34:24.849Z</time></trkpt><trkpt lat="33.5968282" lon="9.7394569"><ele>247.60000000000002</ele><time>2026-04-17T09:34:25.936Z</time></trkpt><trkpt lat="33.596866" lon="9.7393387"><ele>248.0</ele><time>2026-04-17T09:34:26.944Z</time></trkpt><trkpt lat="33.5968792" lon="9.7392195"><ele>248.83333333333334</ele><time>2026-04-17T09:34:27.935Z</time></trkpt><trkpt lat="33.5968725" lon="9.73911"><ele>249.66666666666669</ele><time>2026-04-17T09:34:28.923Z</time></trkpt><trkpt lat="33.5968432" lon="9.7390155"><ele>250.5</ele><time>2026-04-17T09:34:29.92Z</time></trkpt><trkpt lat="33.5967906" lon="9.7389434"><ele>251.33333333333331</ele><time>2026-04-17T09:34:30.921Z</time></trkpt><trkpt lat="33.5967173" lon="9.7388837"><ele>252.16666666666666</ele><time>2026-04-17T09:34:31.911Z</time></trkpt><trkpt lat="33.5966375" lon="9.7388185"><ele>253.0</ele><time>2026-04-17T09:34:32.93Z</time></trkpt><trkpt lat="33.5965367" lon="9.7387707"><ele>253.0</ele><time>2026-04-17T09:34:33.932Z</time></trkpt><trkpt lat="33.5964291" lon="9.7387181"><ele>253.0</ele><time>2026-04-17T09:34:34.918Z</time></trkpt><trkpt lat="33.5963136" lon="9.7386682"><ele>253.0</ele><time>2026-04-17T09:34:35.921Z</time></trkpt><trkpt lat="33.5961873" lon="9.7386141"><ele>253.0</ele><time>2026-04-17T09:34:36.92Z</time></trkpt><trkpt lat="33.596049" lon="9.738554"><ele>253.75</ele><time>2026-04-17T09:34:37.929Z</time></trkpt><trkpt lat="33.5959176" lon="9.7384916"><ele>254.5</ele><time>2026-04-17T09:34:38.933Z</time></trkpt><trkpt lat="33.5957971" lon="9.7384206"><ele>255.25</ele><time>2026-04-17T09:34:39.935Z</time></trkpt><trkpt lat="33.5956809" lon="9.738344"><ele>256.0</ele><time>2026-04-17T09:34:40.946Z</time></trkpt><trkpt lat="33.5955695" lon="9.7382613"><ele>256.0</ele><time>2026-04-17T09:34:41.912Z</time></trkpt><trkpt lat="33.5954642" lon="9.7381933"><ele>256.0</ele><time>2026-04-17T09:34:42.91Z</time></trkpt><trkpt lat="33.5953695" lon="9.7381525"><ele>256.0</ele><time>2026-04-17T09:34:43.909Z</time></trkpt><trkpt lat="33.5952841" lon="9.7381257"><ele>256.0</ele><time>2026-04-17T09:34:44.919Z</time></trkpt><trkpt lat="33.5952066" lon="9.7380931"><ele>256.0</ele><time>2026-04-17T09:34:45.94Z</time></trkpt><trkpt lat="33.5951521" lon="9.7380495"><ele>256.5</ele><time>2026-04-17T09:34:46.934Z</time></trkpt><trkpt lat="33.5950703" lon="9.7379244"><ele>257.0</ele><time>2026-04-17T09:34:48.908Z</time></trkpt><trkpt lat="33.5949941" lon="9.7378341"><ele>257.5</ele><time>2026-04-17T09:34:51.914Z</time></trkpt><trkpt lat="33.5949414" lon="9.7377816"><ele>258.0</ele><time>2026-04-17T09:34:52.94Z</time></trkpt><trkpt lat="33.5947192" lon="9.7374795"><ele>258.75</ele><time>2026-04-17T09:34:53.848Z</time></trkpt><trkpt lat="33.5946347" lon="9.7374083"><ele>259.5</ele><time>2026-04-17T09:34:54.85Z</time></trkpt><trkpt lat="33.5945511" lon="9.7373222"><ele>260.25</ele><time>2026-04-17T09:34:55.842Z</time></trkpt><trkpt lat="33.5944719" lon="9.7372209"><ele>261.0</ele><time>2026-04-17T09:34:56.832Z</time></trkpt><trkpt lat="33.5943824" lon="9.7370895"><ele>259.5</ele><time>2026-04-17T09:34:57.832Z</time></trkpt><trkpt lat="33.5942912" lon="9.7369601"><ele>258.0</ele><time>2026-04-17T09:34:58.832Z</time></trkpt><trkpt lat="33.5942029" lon="9.7368568"><ele>256.5</ele><time>2026-04-17T09:34:59.843Z</time></trkpt><trkpt lat="33.5941152" lon="9.7367482"><ele>255.0</ele><time>2026-04-17T09:35:00.838Z</time></trkpt><trkpt lat="33.5940348" lon="9.7366542"><ele>255.0</ele><time>2026-04-17T09:35:01.845Z</time></trkpt><trkpt lat="33.5939549" lon="9.7365779"><ele>255.0</ele><time>2026-04-17T09:35:02.834Z</time></trkpt><trkpt lat="33.5938764" lon="9.7365284"><ele>255.0</ele><time>2026-04-17T09:35:03.831Z</time></trkpt><trkpt lat="33.5938152" lon="9.7365054"><ele>255.0</ele><time>2026-04-17T09:35:04.822Z</time></trkpt><trkpt lat="33.5937449" lon="9.736504"><ele>255.0</ele><time>2026-04-17T09:35:05.829Z</time></trkpt><trkpt lat="33.5936654" lon="9.7365237"><ele>255.0</ele><time>2026-04-17T09:35:06.836Z</time></trkpt><trkpt lat="33.5935572" lon="9.7365401"><ele>254.0</ele><time>2026-04-17T09:35:07.833Z</time></trkpt><trkpt lat="33.5934402" lon="9.7365756"><ele>253.0</ele><time>2026-04-17T09:35:08.861Z</time></trkpt><trkpt lat="33.5933086" lon="9.7366148"><ele>252.0</ele><time>2026-04-17T09:35:09.841Z</time></trkpt><trkpt lat="33.59318" lon="9.7366414"><ele>251.0</ele><time>2026-04-17T09:35:10.844Z</time></trkpt><trkpt lat="33.5930526" lon="9.7366662"><ele>251.0</ele><time>2026-04-17T09:35:11.839Z</time></trkpt><trkpt lat="33.5929347" lon="9.7366823"><ele>251.00000000000003</ele><time>2026-04-17T09:35:12.837Z</time></trkpt><trkpt lat="33.592833" lon="9.7366991"><ele>251.00000000000003</ele><time>2026-04-17T09:35:13.837Z</time></trkpt><trkpt lat="33.5927388" lon="9.7367053"><ele>251.0</ele><time>2026-04-17T09:35:14.84Z</time></trkpt><trkpt lat="33.5926451" lon="9.7366974"><ele>251.0</ele><time>2026-04-17T09:35:15.843Z</time></trkpt><trkpt lat="33.592559" lon="9.736683"><ele>252.0</ele><time>2026-04-17T09:35:16.843Z</time></trkpt><trkpt lat="33.5924862" lon="9.7366502"><ele>253.00000000000003</ele><time>2026-04-17T09:35:17.853Z</time></trkpt><trkpt lat="33.5924179" lon="9.7365894"><ele>254.00000000000003</ele><time>2026-04-17T09:35:18.842Z</time></trkpt><trkpt lat="33.59234" lon="9.7365033"><ele>255.0</ele><time>2026-04-17T09:35:19.829Z</time></trkpt><trkpt lat="33.5922595" lon="9.7364076"><ele>256.0</ele><time>2026-04-17T09:35:20.84Z</time></trkpt><trkpt lat="33.5921777" lon="9.7363301"><ele>255.99999999999997</ele><time>2026-04-17T09:35:21.841Z</time></trkpt><trkpt lat="33.5921133" lon="9.7362795"><ele>256.0</ele><time>2026-04-17T09:35:22.836Z</time></trkpt><trkpt lat="33.5920525" lon="9.7362553"><ele>256.0</ele><time>2026-04-17T09:35:23.827Z</time></trkpt><trkpt lat="33.5919287" lon="9.736283"><ele>256.0</ele><time>2026-04-17T09:35:25.827Z</time></trkpt><trkpt lat="33.5918834" lon="9.7363455"><ele>255.99999999999997</ele><time>2026-04-17T09:35:26.836Z</time></trkpt><trkpt lat="33.5918555" lon="9.7364252"><ele>256.0</ele><time>2026-04-17T09:35:27.83Z</time></trkpt><trkpt lat="33.5918378" lon="9.7365212"><ele>256.2</ele><time>2026-04-17T09:35:28.829Z</time></trkpt><trkpt lat="33.5918351" lon="9.7366263"><ele>256.40000000000003</ele><time>2026-04-17T09:35:29.834Z</time></trkpt><trkpt lat="33.5918309" lon="9.7367257"><ele>256.6</ele><time>2026-04-17T09:35:30.837Z</time></trkpt><trkpt lat="33.5918386" lon="9.7368502"><ele>256.8</ele><time>2026-04-17T09:35:31.846Z</time></trkpt><trkpt lat="33.5918323" lon="9.7369685"><ele>257.0</ele><time>2026-04-17T09:35:32.841Z</time></trkpt><trkpt lat="33.5918226" lon="9.7370794"><ele>257.0</ele><time>2026-04-17T09:35:33.841Z</time></trkpt><trkpt lat="33.591803" lon="9.7371676"><ele>257.0</ele><time>2026-04-17T09:35:34.838Z</time></trkpt><trkpt lat="33.5917715" lon="9.7372492"><ele>257.0</ele><time>2026-04-17T09:35:35.841Z</time></trkpt><trkpt lat="33.591707" lon="9.7373462"><ele>257.0</ele><time>2026-04-17T09:35:36.832Z</time></trkpt><trkpt lat="33.5916242" lon="9.7374204"><ele>257.0</ele><time>2026-04-17T09:35:37.83Z</time></trkpt><trkpt lat="33.5915244" lon="9.7374858"><ele>257.0</ele><time>2026-04-17T09:35:38.829Z</time></trkpt><trkpt lat="33.5914142" lon="9.7375343"><ele>257.0</ele><time>2026-04-17T09:35:39.841Z</time></trkpt><trkpt lat="33.5912924" lon="9.7375827"><ele>257.0</ele><time>2026-04-17T09:35:40.832Z</time></trkpt><trkpt lat="33.5911685" lon="9.737609"><ele>257.0</ele><time>2026-04-17T09:35:41.829Z</time></trkpt><trkpt lat="33.5910441" lon="9.7376168"><ele>257.75</ele><time>2026-04-17T09:35:42.83Z</time></trkpt><trkpt lat="33.590929" lon="9.7375888"><ele>258.5</ele><time>2026-04-17T09:35:43.837Z</time></trkpt><trkpt lat="33.5907966" lon="9.7375644"><ele>259.25</ele><time>2026-04-17T09:35:44.839Z</time></trkpt><trkpt lat="33.5906635" lon="9.7375417"><ele>260.0</ele><time>2026-04-17T09:35:45.838Z</time></trkpt><trkpt lat="33.5905344" lon="9.7375062"><ele>260.0</ele><time>2026-04-17T09:35:46.839Z</time></trkpt><trkpt lat="33.5904159" lon="9.7374843"><ele>260.0</ele><time>2026-04-17T09:35:47.841Z</time></trkpt><trkpt lat="33.59031" lon="9.7374572"><ele>260.0</ele><time>2026-04-17T09:35:48.839Z</time></trkpt><trkpt lat="33.5902125" lon="9.7374216"><ele>260.0</ele><time>2026-04-17T09:35:49.837Z</time></trkpt><trkpt lat="33.5901078" lon="9.7373701"><ele>260.0</ele><time>2026-04-17T09:35:50.839Z</time></trkpt><trkpt lat="33.5900138" lon="9.7373333"><ele>259.6666666666667</ele><time>2026-04-17T09:35:51.844Z</time></trkpt><trkpt lat="33.5899332" lon="9.7372891"><ele>259.33333333333337</ele><time>2026-04-17T09:35:52.84Z</time></trkpt><trkpt lat="33.5898611" lon="9.7372375"><ele>259.0</ele><time>2026-04-17T09:35:53.84Z</time></trkpt><trkpt lat="33.5898043" lon="9.7371772"><ele>258.6666666666667</ele><time>2026-04-17T09:35:54.839Z</time></trkpt><trkpt lat="33.5897544" lon="9.737116"><ele>258.3333333333333</ele><time>2026-04-17T09:35:55.841Z</time></trkpt><trkpt lat="33.5896988" lon="9.7370722"><ele>258.0</ele><time>2026-04-17T09:35:56.83Z</time></trkpt><trkpt lat="33.5896348" lon="9.7370454"><ele>258.0</ele><time>2026-04-17T09:35:57.821Z</time></trkpt><trkpt lat="33.5895593" lon="9.7370512"><ele>258.0</ele><time>2026-04-17T09:35:58.825Z</time></trkpt><trkpt lat="33.5894704" lon="9.7370868"><ele>258.0</ele><time>2026-04-17T09:35:59.834Z</time></trkpt><trkpt lat="33.5893712" lon="9.7371457"><ele>258.0</ele><time>2026-04-17T09:36:00.827Z</time></trkpt><trkpt lat="33.5892654" lon="9.7372001"><ele>258.0</ele><time>2026-04-17T09:36:01.832Z</time></trkpt><trkpt lat="33.5891732" lon="9.7372356"><ele>257.8333333333333</ele><time>2026-04-17T09:36:02.829Z</time></trkpt><trkpt lat="33.589088" lon="9.7372719"><ele>257.6666666666667</ele><time>2026-04-17T09:36:03.834Z</time></trkpt><trkpt lat="33.5890186" lon="9.7373303"><ele>257.5</ele><time>2026-04-17T09:36:04.829Z</time></trkpt><trkpt lat="33.5889563" lon="9.7374104"><ele>257.33333333333337</ele><time>2026-04-17T09:36:05.837Z</time></trkpt><trkpt lat="33.5889006" lon="9.7374931"><ele>257.1666666666667</ele><time>2026-04-17T09:36:06.831Z</time></trkpt><trkpt lat="33.5888454" lon="9.7375431"><ele>257.0</ele><time>2026-04-17T09:36:07.824Z</time></trkpt><trkpt lat="33.5887839" lon="9.7375635"><ele>257.0</ele><time>2026-04-17T09:36:08.826Z</time></trkpt><trkpt lat="33.5887117" lon="9.7375527"><ele>257.0</ele><time>2026-04-17T09:36:09.823Z</time></trkpt><trkpt lat="33.5886433" lon="9.7375049"><ele>257.0</ele><time>2026-04-17T09:36:10.842Z</time></trkpt><trkpt lat="33.588571" lon="9.7374073"><ele>257.0</ele><time>2026-04-17T09:36:11.823Z</time></trkpt><trkpt lat="33.5884957" lon="9.7372977"><ele>257.0</ele><time>2026-04-17T09:36:12.834Z</time></trkpt><trkpt lat="33.5884148" lon="9.7371962"><ele>258.0</ele><time>2026-04-17T09:36:13.83Z</time></trkpt><trkpt lat="33.5883257" lon="9.7371041"><ele>259.0</ele><time>2026-04-17T09:36:14.84Z</time></trkpt><trkpt lat="33.5882264" lon="9.7370317"><ele>260.0</ele><time>2026-04-17T09:36:15.839Z</time></trkpt><trkpt lat="33.5881184" lon="9.7369708"><ele>261.0</ele><time>2026-04-17T09:36:16.84Z</time></trkpt><trkpt lat="33.5880185" lon="9.736919"><ele>260.75</ele><time>2026-04-17T09:36:17.839Z</time></trkpt><trkpt lat="33.5879158" lon="9.7368665"><ele>260.5</ele><time>2026-04-17T09:36:18.836Z</time></trkpt><trkpt lat="33.5878099" lon="9.7368162"><ele>260.25</ele><time>2026-04-17T09:36:19.84Z</time></trkpt><trkpt lat="33.587703" lon="9.7367776"><ele>260.0</ele><time>2026-04-17T09:36:20.844Z</time></trkpt><trkpt lat="33.5875934" lon="9.7367471"><ele>260.8</ele><time>2026-04-17T09:36:21.847Z</time></trkpt><trkpt lat="33.5874819" lon="9.7367371"><ele>261.6</ele><time>2026-04-17T09:36:22.844Z</time></trkpt><trkpt lat="33.5873748" lon="9.7367511"><ele>262.4</ele><time>2026-04-17T09:36:23.847Z</time></trkpt><trkpt lat="33.5872729" lon="9.7367989"><ele>263.2</ele><time>2026-04-17T09:36:24.845Z</time></trkpt><trkpt lat="33.5871643" lon="9.7368552"><ele>264.0</ele><time>2026-04-17T09:36:25.843Z</time></trkpt><trkpt lat="33.5870508" lon="9.7369043"><ele>265.2</ele><time>2026-04-17T09:36:26.832Z</time></trkpt><trkpt lat="33.5869414" lon="9.7369263"><ele>266.4</ele><time>2026-04-17T09:36:27.833Z</time></trkpt><trkpt lat="33.5868292" lon="9.7369315"><ele>267.6</ele><time>2026-04-17T09:36:28.84Z</time></trkpt><trkpt lat="33.586721" lon="9.7369235"><ele>268.8</ele><time>2026-04-17T09:36:29.844Z</time></trkpt><trkpt lat="33.586613" lon="9.7369101"><ele>270.0</ele><time>2026-04-17T09:36:30.84Z</time></trkpt><trkpt lat="33.5865041" lon="9.7368913"><ele>269.25</ele><time>2026-04-17T09:36:31.847Z</time></trkpt><trkpt lat="33.5863936" lon="9.736873"><ele>268.5</ele><time>2026-04-17T09:36:32.839Z</time></trkpt><trkpt lat="33.5862796" lon="9.7368608"><ele>267.75</ele><time>2026-04-17T09:36:33.839Z</time></trkpt><trkpt lat="33.5861623" lon="9.7368488"><ele>267.0</ele><time>2026-04-17T09:36:34.838Z</time></trkpt><trkpt lat="33.5860469" lon="9.7368453"><ele>266.75</ele><time>2026-04-17T09:36:35.84Z</time></trkpt><trkpt lat="33.5859361" lon="9.7368466"><ele>266.5</ele><time>2026-04-17T09:36:36.838Z</time></trkpt><trkpt lat="33.5858188" lon="9.7368474"><ele>266.25</ele><time>2026-04-17T09:36:37.834Z</time></trkpt><trkpt lat="33.5856888" lon="9.7368479"><ele>266.0</ele><time>2026-04-17T09:36:38.833Z</time></trkpt><trkpt lat="33.5855649" lon="9.736846"><ele>266.0</ele><time>2026-04-17T09:36:39.833Z</time></trkpt><trkpt lat="33.5854506" lon="9.7368374"><ele>266.0</ele><time>2026-04-17T09:36:40.845Z</time></trkpt><trkpt lat="33.5853475" lon="9.7368389"><ele>266.0</ele><time>2026-04-17T09:36:41.855Z</time></trkpt><trkpt lat="33.5852443" lon="9.7368393"><ele>266.0</ele><time>2026-04-17T09:36:42.836Z</time></trkpt><trkpt lat="33.5851432" lon="9.73683"><ele>266.0</ele><time>2026-04-17T09:36:43.841Z</time></trkpt><trkpt lat="33.5850382" lon="9.7368052"><ele>265.6</ele><time>2026-04-17T09:36:44.845Z</time></trkpt><trkpt lat="33.5849237" lon="9.7367749"><ele>265.20000000000005</ele><time>2026-04-17T09:36:45.841Z</time></trkpt><trkpt lat="33.5848121" lon="9.7367479"><ele>264.79999999999995</ele><time>2026-04-17T09:36:46.849Z</time></trkpt><trkpt lat="33.584705" lon="9.7367267"><ele>264.4</ele><time>2026-04-17T09:36:47.842Z</time></trkpt><trkpt lat="33.5846172" lon="9.7367117"><ele>264.0</ele><time>2026-04-17T09:36:48.841Z</time></trkpt><trkpt lat="33.5845234" lon="9.7366956"><ele>263.2</ele><time>2026-04-17T09:36:49.844Z</time></trkpt><trkpt lat="33.5844293" lon="9.7366842"><ele>262.4</ele><time>2026-04-17T09:36:50.843Z</time></trkpt><trkpt lat="33.5843456" lon="9.7366718"><ele>261.6</ele><time>2026-04-17T09:36:51.842Z</time></trkpt><trkpt lat="33.5842567" lon="9.736663"><ele>260.8</ele><time>2026-04-17T09:36:52.842Z</time></trkpt><trkpt lat="33.5841638" lon="9.7366375"><ele>260.0</ele><time>2026-04-17T09:36:53.845Z</time></trkpt><trkpt lat="33.584059" lon="9.7366148"><ele>260.0</ele><time>2026-04-17T09:36:54.841Z</time></trkpt><trkpt lat="33.5839499" lon="9.7365833"><ele>260.0</ele><time>2026-04-17T09:36:55.845Z</time></trkpt><trkpt lat="33.5838449" lon="9.7365648"><ele>260.0</ele><time>2026-04-17T09:36:56.842Z</time></trkpt><trkpt lat="33.5837369" lon="9.7365711"><ele>260.0</ele><time>2026-04-17T09:36:57.852Z</time></trkpt><trkpt lat="33.583623" lon="9.736584"><ele>260.0</ele><time>2026-04-17T09:36:58.842Z</time></trkpt><trkpt lat="33.583511" lon="9.7365871"><ele>260.0</ele><time>2026-04-17T09:36:59.845Z</time></trkpt><trkpt lat="33.5833936" lon="9.7365897"><ele>260.0</ele><time>2026-04-17T09:37:00.842Z</time></trkpt><trkpt lat="33.5832794" lon="9.736588"><ele>260.0</ele><time>2026-04-17T09:37:01.846Z</time></trkpt><trkpt lat="33.5831636" lon="9.7365792"><ele>260.0</ele><time>2026-04-17T09:37:02.834Z</time></trkpt><trkpt lat="33.5830476" lon="9.7365495"><ele>260.0</ele><time>2026-04-17T09:37:03.827Z</time></trkpt><trkpt lat="33.5829317" lon="9.7364906"><ele>260.0</ele><time>2026-04-17T09:37:04.821Z</time></trkpt><trkpt lat="33.5828191" lon="9.736419"><ele>260.0</ele><time>2026-04-17T09:37:05.828Z</time></trkpt><trkpt lat="33.582707" lon="9.736357"><ele>260.0</ele><time>2026-04-17T09:37:06.83Z</time></trkpt><trkpt lat="33.5825878" lon="9.7362978"><ele>259.2</ele><time>2026-04-17T09:37:07.833Z</time></trkpt><trkpt lat="33.5824683" lon="9.7362548"><ele>258.4</ele><time>2026-04-17T09:37:08.833Z</time></trkpt><trkpt lat="33.5823647" lon="9.7362034"><ele>257.6</ele><time>2026-04-17T09:37:09.832Z</time></trkpt><trkpt lat="33.582268" lon="9.7361724"><ele>256.8</ele><time>2026-04-17T09:37:10.835Z</time></trkpt><trkpt lat="33.5821768" lon="9.7361513"><ele>256.0</ele><time>2026-04-17T09:37:11.835Z</time></trkpt><trkpt lat="33.5820978" lon="9.7361381"><ele>255.99999999999997</ele><time>2026-04-17T09:37:12.869Z</time></trkpt><trkpt lat="33.5820298" lon="9.7361177"><ele>256.0</ele><time>2026-04-17T09:37:13.832Z</time></trkpt><trkpt lat="33.5819589" lon="9.736096"><ele>256.0</ele><time>2026-04-17T09:37:14.834Z</time></trkpt><trkpt lat="33.5818872" lon="9.7360786"><ele>256.0</ele><time>2026-04-17T09:37:15.831Z</time></trkpt><trkpt lat="33.5817929" lon="9.736057"><ele>255.99999999999997</ele><time>2026-04-17T09:37:16.836Z</time></trkpt><trkpt lat="33.581694" lon="9.7360439"><ele>256.0</ele><time>2026-04-17T09:37:17.838Z</time></trkpt><trkpt lat="33.5815911" lon="9.7360347"><ele>255.75</ele><time>2026-04-17T09:37:18.832Z</time></trkpt><trkpt lat="33.5814793" lon="9.7360315"><ele>255.5</ele><time>2026-04-17T09:37:19.83Z</time></trkpt><trkpt lat="33.581359" lon="9.7360233"><ele>255.25</ele><time>2026-04-17T09:37:20.829Z</time></trkpt><trkpt lat="33.5812321" lon="9.736007"><ele>255.0</ele><time>2026-04-17T09:37:21.83Z</time></trkpt><trkpt lat="33.5811045" lon="9.7359676"><ele>254.5</ele><time>2026-04-17T09:37:22.834Z</time></trkpt><trkpt lat="33.5809687" lon="9.735921"><ele>254.0</ele><time>2026-04-17T09:37:23.837Z</time></trkpt><trkpt lat="33.5808295" lon="9.735858"><ele>253.5</ele><time>2026-04-17T09:37:24.833Z</time></trkpt><trkpt lat="33.580718" lon="9.7357971"><ele>253.0</ele><time>2026-04-17T09:37:25.832Z</time></trkpt><trkpt lat="33.5806222" lon="9.7357153"><ele>253.0</ele><time>2026-04-17T09:37:26.833Z</time></trkpt><trkpt lat="33.5805316" lon="9.735614"><ele>253.0</ele><time>2026-04-17T09:37:27.831Z</time></trkpt><trkpt lat="33.5804321" lon="9.7355254"><ele>253.0</ele><time>2026-04-17T09:37:28.829Z</time></trkpt><trkpt lat="33.5803156" lon="9.7354431"><ele>253.0</ele><time>2026-04-17T09:37:29.842Z</time></trkpt><trkpt lat="33.5801897" lon="9.735369"><ele>253.0</ele><time>2026-04-17T09:37:30.837Z</time></trkpt><trkpt lat="33.5800721" lon="9.7353107"><ele>253.0</ele><time>2026-04-17T09:37:31.853Z</time></trkpt><trkpt lat="33.5799611" lon="9.7352419"><ele>253.0</ele><time>2026-04-17T09:37:32.846Z</time></trkpt><trkpt lat="33.5798453" lon="9.7351881"><ele>253.0</ele><time>2026-04-17T09:37:33.843Z</time></trkpt><trkpt lat="33.5797222" lon="9.7351458"><ele>253.0</ele><time>2026-04-17T09:37:34.844Z</time></trkpt><trkpt lat="33.579604" lon="9.7351061"><ele>253.0</ele><time>2026-04-17T09:37:35.846Z</time></trkpt><trkpt lat="33.5794923" lon="9.7350574"><ele>253.0</ele><time>2026-04-17T09:37:36.84Z</time></trkpt><trkpt lat="33.5794049" lon="9.7350499"><ele>253.0</ele><time>2026-04-17T09:37:37.837Z</time></trkpt><trkpt lat="33.5793336" lon="9.735057"><ele>253.0</ele><time>2026-04-17T09:37:38.849Z</time></trkpt><trkpt lat="33.5792792" lon="9.7350954"><ele>252.8</ele><time>2026-04-17T09:37:39.837Z</time></trkpt><trkpt lat="33.5792205" lon="9.7351558"><ele>252.60000000000002</ele><time>2026-04-17T09:37:40.835Z</time></trkpt><trkpt lat="33.5791507" lon="9.7352378"><ele>252.39999999999998</ele><time>2026-04-17T09:37:41.835Z</time></trkpt><trkpt lat="33.5790696" lon="9.7353437"><ele>252.2</ele><time>2026-04-17T09:37:42.859Z</time></trkpt><trkpt lat="33.5789858" lon="9.7354539"><ele>252.0</ele><time>2026-04-17T09:37:43.853Z</time></trkpt><trkpt lat="33.5788934" lon="9.7355368"><ele>251.75</ele><time>2026-04-17T09:37:44.848Z</time></trkpt><trkpt lat="33.57879" lon="9.7356028"><ele>251.5</ele><time>2026-04-17T09:37:45.848Z</time></trkpt><trkpt lat="33.578659" lon="9.7356473"><ele>251.25</ele><time>2026-04-17T09:37:46.847Z</time></trkpt><trkpt lat="33.5785235" lon="9.7356729"><ele>251.0</ele><time>2026-04-17T09:37:47.863Z</time></trkpt><trkpt lat="33.578407" lon="9.7357165"><ele>251.0</ele><time>2026-04-17T09:37:48.932Z</time></trkpt><trkpt lat="33.5783015" lon="9.7357607"><ele>251.00000000000003</ele><time>2026-04-17T09:37:49.932Z</time></trkpt><trkpt lat="33.5782234" lon="9.7358169"><ele>251.00000000000003</ele><time>2026-04-17T09:37:50.929Z</time></trkpt><trkpt lat="33.5781652" lon="9.7358919"><ele>251.0</ele><time>2026-04-17T09:37:51.933Z</time></trkpt><trkpt lat="33.5781243" lon="9.7359862"><ele>251.0</ele><time>2026-04-17T09:37:52.917Z</time></trkpt><trkpt lat="33.5780887" lon="9.7361052"><ele>250.5</ele><time>2026-04-17T09:37:53.925Z</time></trkpt><trkpt lat="33.5780786" lon="9.736255"><ele>250.0</ele><time>2026-04-17T09:37:54.829Z</time></trkpt><trkpt lat="33.5780304" lon="9.7363735"><ele>249.5</ele><time>2026-04-17T09:37:55.821Z</time></trkpt><trkpt lat="33.5779656" lon="9.7364943"><ele>249.0</ele><time>2026-04-17T09:37:56.838Z</time></trkpt><trkpt lat="33.5778867" lon="9.7365938"><ele>249.0</ele><time>2026-04-17T09:37:57.843Z</time></trkpt><trkpt lat="33.5778032" lon="9.7366822"><ele>248.99999999999997</ele><time>2026-04-17T09:37:58.846Z</time></trkpt><trkpt lat="33.5777375" lon="9.7367497"><ele>248.99999999999997</ele><time>2026-04-17T09:37:59.849Z</time></trkpt><trkpt lat="33.577679" lon="9.7368254"><ele>249.0</ele><time>2026-04-17T09:38:00.842Z</time></trkpt><trkpt lat="33.5776107" lon="9.7369071"><ele>249.0</ele><time>2026-04-17T09:38:01.852Z</time></trkpt><trkpt lat="33.5775459" lon="9.7369833"><ele>249.0</ele><time>2026-04-17T09:38:02.846Z</time></trkpt><trkpt lat="33.5774774" lon="9.7370591"><ele>248.99999999999997</ele><time>2026-04-17T09:38:03.837Z</time></trkpt><trkpt lat="33.5773994" lon="9.7371208"><ele>248.99999999999997</ele><time>2026-04-17T09:38:04.835Z</time></trkpt><trkpt lat="33.5772934" lon="9.7371826"><ele>249.0</ele><time>2026-04-17T09:38:05.84Z</time></trkpt><trkpt lat="33.5771861" lon="9.7372368"><ele>249.0</ele><time>2026-04-17T09:38:06.84Z</time></trkpt><trkpt lat="33.5770858" lon="9.7372671"><ele>249.0</ele><time>2026-04-17T09:38:07.843Z</time></trkpt><trkpt lat="33.5769833" lon="9.7372838"><ele>248.99999999999997</ele><time>2026-04-17T09:38:08.848Z</time></trkpt><trkpt lat="33.5768792" lon="9.7372985"><ele>248.99999999999997</ele><time>2026-04-17T09:38:09.848Z</time></trkpt><trkpt lat="33.5767687" lon="9.7372978"><ele>249.0</ele><time>2026-04-17T09:38:10.851Z</time></trkpt><trkpt lat="33.5766614" lon="9.737289"><ele>249.0</ele><time>2026-04-17T09:38:11.846Z</time></trkpt><trkpt lat="33.5765392" lon="9.7372798"><ele>249.0</ele><time>2026-04-17T09:38:12.847Z</time></trkpt><trkpt lat="33.5764194" lon="9.7372888"><ele>249.0</ele><time>2026-04-17T09:38:13.862Z</time></trkpt><trkpt lat="33.5762916" lon="9.7373183"><ele>249.0</ele><time>2026-04-17T09:38:14.843Z</time></trkpt><trkpt lat="33.5761548" lon="9.7373537"><ele>249.0</ele><time>2026-04-17T09:38:15.84Z</time></trkpt><trkpt lat="33.5760261" lon="9.7373868"><ele>248.39999999999998</ele><time>2026-04-17T09:38:16.84Z</time></trkpt><trkpt lat="33.5758976" lon="9.7374146"><ele>247.79999999999998</ele><time>2026-04-17T09:38:17.846Z</time></trkpt><trkpt lat="33.5757907" lon="9.737438"><ele>247.20000000000002</ele><time>2026-04-17T09:38:18.839Z</time></trkpt><trkpt lat="33.575698" lon="9.7374603"><ele>246.60000000000002</ele><time>2026-04-17T09:38:19.847Z</time></trkpt><trkpt lat="33.5756251" lon="9.7374957"><ele>246.0</ele><time>2026-04-17T09:38:20.838Z</time></trkpt><trkpt lat="33.5755617" lon="9.7375532"><ele>246.0</ele><time>2026-04-17T09:38:21.839Z</time></trkpt><trkpt lat="33.5755155" lon="9.7376324"><ele>246.00000000000003</ele><time>2026-04-17T09:38:22.834Z</time></trkpt><trkpt lat="33.575483" lon="9.7377544"><ele>246.00000000000003</ele><time>2026-04-17T09:38:23.837Z</time></trkpt><trkpt lat="33.5754741" lon="9.7378772"><ele>246.0</ele><time>2026-04-17T09:38:24.838Z</time></trkpt><trkpt lat="33.5754798" lon="9.7380005"><ele>246.0</ele><time>2026-04-17T09:38:25.839Z</time></trkpt><trkpt lat="33.5755227" lon="9.7381058"><ele>245.83333333333334</ele><time>2026-04-17T09:38:26.841Z</time></trkpt><trkpt lat="33.5755965" lon="9.7381826"><ele>245.66666666666669</ele><time>2026-04-17T09:38:27.832Z</time></trkpt><trkpt lat="33.5756791" lon="9.7382504"><ele>245.5</ele><time>2026-04-17T09:38:28.835Z</time></trkpt><trkpt lat="33.5757467" lon="9.7383139"><ele>245.33333333333334</ele><time>2026-04-17T09:38:29.838Z</time></trkpt><trkpt lat="33.575798" lon="9.7383881"><ele>245.16666666666669</ele><time>2026-04-17T09:38:30.831Z</time></trkpt><trkpt lat="33.5758274" lon="9.7384734"><ele>245.0</ele><time>2026-04-17T09:38:31.845Z</time></trkpt><trkpt lat="33.57581" lon="9.7385556"><ele>245.5</ele><time>2026-04-17T09:38:32.829Z</time></trkpt><trkpt lat="33.5757072" lon="9.738673"><ele>246.0</ele><time>2026-04-17T09:38:34.844Z</time></trkpt><trkpt lat="33.5755958" lon="9.7387152"><ele>246.5</ele><time>2026-04-17T09:38:35.84Z</time></trkpt><trkpt lat="33.5754533" lon="9.7387393"><ele>247.0</ele><time>2026-04-17T09:38:36.839Z</time></trkpt><trkpt lat="33.5753053" lon="9.7387578"><ele>247.0</ele><time>2026-04-17T09:38:37.839Z</time></trkpt><trkpt lat="33.5751543" lon="9.7387497"><ele>247.0</ele><time>2026-04-17T09:38:38.843Z</time></trkpt><trkpt lat="33.5750019" lon="9.738741"><ele>247.0</ele><time>2026-04-17T09:38:39.847Z</time></trkpt><trkpt lat="33.5748452" lon="9.7387517"><ele>247.0</ele><time>2026-04-17T09:38:40.849Z</time></trkpt><trkpt lat="33.5746727" lon="9.7387484"><ele>247.0</ele><time>2026-04-17T09:38:41.844Z</time></trkpt><trkpt lat="33.5745239" lon="9.7387621"><ele>247.0</ele><time>2026-04-17T09:38:42.844Z</time></trkpt><trkpt lat="33.5744046" lon="9.7387741"><ele>247.0</ele><time>2026-04-17T09:38:43.851Z</time></trkpt><trkpt lat="33.5742771" lon="9.7387909"><ele>247.0</ele><time>2026-04-17T09:38:44.866Z</time></trkpt><trkpt lat="33.5741571" lon="9.73879"><ele>247.0</ele><time>2026-04-17T09:38:45.854Z</time></trkpt><trkpt lat="33.5740165" lon="9.7387856"><ele>247.0</ele><time>2026-04-17T09:38:46.856Z</time></trkpt><trkpt lat="33.5738789" lon="9.738814"><ele>247.0</ele><time>2026-04-17T09:38:47.851Z</time></trkpt><trkpt lat="33.573757" lon="9.7388521"><ele>247.0</ele><time>2026-04-17T09:38:48.856Z</time></trkpt><trkpt lat="33.5736234" lon="9.7388831"><ele>247.0</ele><time>2026-04-17T09:38:49.853Z</time></trkpt><trkpt lat="33.5735121" lon="9.738928"><ele>247.0</ele><time>2026-04-17T09:38:50.85Z</time></trkpt><trkpt lat="33.573379" lon="9.7389568"><ele>247.0</ele><time>2026-04-17T09:38:51.851Z</time></trkpt><trkpt lat="33.5732474" lon="9.7389351"><ele>247.0</ele><time>2026-04-17T09:38:52.849Z</time></trkpt><trkpt lat="33.5731084" lon="9.7389222"><ele>247.0</ele><time>2026-04-17T09:38:53.855Z</time></trkpt><trkpt lat="33.5729672" lon="9.7389122"><ele>247.0</ele><time>2026-04-17T09:38:54.852Z</time></trkpt><trkpt lat="33.5728367" lon="9.7388877"><ele>247.0</ele><time>2026-04-17T09:38:55.854Z</time></trkpt><trkpt lat="33.5727113" lon="9.738876"><ele>246.25</ele><time>2026-04-17T09:38:56.855Z</time></trkpt><trkpt lat="33.5725796" lon="9.7388702"><ele>245.5</ele><time>2026-04-17T09:38:57.854Z</time></trkpt><trkpt lat="33.5724582" lon="9.7388747"><ele>244.75</ele><time>2026-04-17T09:38:58.848Z</time></trkpt><trkpt lat="33.572347" lon="9.7389034"><ele>244.0</ele><time>2026-04-17T09:38:59.85Z</time></trkpt><trkpt lat="33.5722489" lon="9.7389189"><ele>244.0</ele><time>2026-04-17T09:39:00.841Z</time></trkpt><trkpt lat="33.5721709" lon="9.7389591"><ele>243.99999999999997</ele><time>2026-04-17T09:39:01.837Z</time></trkpt><trkpt lat="33.5721046" lon="9.739029"><ele>243.99999999999997</ele><time>2026-04-17T09:39:02.825Z</time></trkpt><trkpt lat="33.5720613" lon="9.73912"><ele>244.0</ele><time>2026-04-17T09:39:03.828Z</time></trkpt><trkpt lat="33.5720216" lon="9.739238"><ele>244.0</ele><time>2026-04-17T09:39:04.833Z</time></trkpt><trkpt lat="33.5719889" lon="9.7393859"><ele>243.5</ele><time>2026-04-17T09:39:05.831Z</time></trkpt><trkpt lat="33.5719731" lon="9.7395501"><ele>243.0</ele><time>2026-04-17T09:39:06.834Z</time></trkpt><trkpt lat="33.5719393" lon="9.7397032"><ele>242.5</ele><time>2026-04-17T09:39:07.84Z</time></trkpt><trkpt lat="33.5718922" lon="9.739848"><ele>242.0</ele><time>2026-04-17T09:39:08.838Z</time></trkpt><trkpt lat="33.5718319" lon="9.7399842"><ele>242.0</ele><time>2026-04-17T09:39:09.831Z</time></trkpt><trkpt lat="33.5717696" lon="9.7401261"><ele>242.0</ele><time>2026-04-17T09:39:10.837Z</time></trkpt><trkpt lat="33.5716968" lon="9.7402473"><ele>242.0</ele><time>2026-04-17T09:39:11.834Z</time></trkpt><trkpt lat="33.5716295" lon="9.7403695"><ele>242.0</ele><time>2026-04-17T09:39:12.833Z</time></trkpt><trkpt lat="33.5715533" lon="9.7405108"><ele>242.6</ele><time>2026-04-17T09:39:13.834Z</time></trkpt><trkpt lat="33.5714928" lon="9.740641"><ele>243.2</ele><time>2026-04-17T09:39:14.842Z</time></trkpt><trkpt lat="33.5714303" lon="9.740749"><ele>243.8</ele><time>2026-04-17T09:39:15.856Z</time></trkpt><trkpt lat="33.5713615" lon="9.7408528"><ele>244.4</ele><time>2026-04-17T09:39:16.839Z</time></trkpt><trkpt lat="33.5712911" lon="9.7409411"><ele>245.0</ele><time>2026-04-17T09:39:17.836Z</time></trkpt><trkpt lat="33.5712092" lon="9.7410039"><ele>245.0</ele><time>2026-04-17T09:39:18.834Z</time></trkpt><trkpt lat="33.5711194" lon="9.7410333"><ele>245.0</ele><time>2026-04-17T09:39:19.834Z</time></trkpt><trkpt lat="33.5710104" lon="9.7410337"><ele>245.0</ele><time>2026-04-17T09:39:20.829Z</time></trkpt><trkpt lat="33.5708802" lon="9.7409963"><ele>245.0</ele><time>2026-04-17T09:39:21.829Z</time></trkpt><trkpt lat="33.5707379" lon="9.7409465"><ele>245.0</ele><time>2026-04-17T09:39:22.834Z</time></trkpt><trkpt lat="33.5705753" lon="9.7408852"><ele>245.0</ele><time>2026-04-17T09:39:23.85Z</time></trkpt><trkpt lat="33.5704176" lon="9.740844"><ele>245.0</ele><time>2026-04-17T09:39:24.851Z</time></trkpt><trkpt lat="33.5702704" lon="9.7408112"><ele>245.0</ele><time>2026-04-17T09:39:25.854Z</time></trkpt><trkpt lat="33.570114" lon="9.7407892"><ele>245.0</ele><time>2026-04-17T09:39:26.864Z</time></trkpt><trkpt lat="33.5699728" lon="9.7407576"><ele>245.0</ele><time>2026-04-17T09:39:27.861Z</time></trkpt><trkpt lat="33.5698286" lon="9.7407409"><ele>245.0</ele><time>2026-04-17T09:39:28.86Z</time></trkpt><trkpt lat="33.5696926" lon="9.740737"><ele>245.0</ele><time>2026-04-17T09:39:29.862Z</time></trkpt><trkpt lat="33.5695914" lon="9.7407164"><ele>245.0</ele><time>2026-04-17T09:39:30.86Z</time></trkpt><trkpt lat="33.5694762" lon="9.7406447"><ele>245.0</ele><time>2026-04-17T09:39:31.86Z</time></trkpt><trkpt lat="33.5693601" lon="9.7405846"><ele>245.0</ele><time>2026-04-17T09:39:32.862Z</time></trkpt><trkpt lat="33.5692393" lon="9.7405491"><ele>244.5</ele><time>2026-04-17T09:39:33.856Z</time></trkpt><trkpt lat="33.5691255" lon="9.7405716"><ele>244.0</ele><time>2026-04-17T09:39:34.854Z</time></trkpt><trkpt lat="33.5690089" lon="9.7405831"><ele>243.5</ele><time>2026-04-17T09:39:35.859Z</time></trkpt><trkpt lat="33.56889" lon="9.7406106"><ele>243.0</ele><time>2026-04-17T09:39:36.862Z</time></trkpt><trkpt lat="33.5687801" lon="9.7406384"><ele>242.66666666666666</ele><time>2026-04-17T09:39:37.853Z</time></trkpt><trkpt lat="33.5686787" lon="9.7406568"><ele>242.33333333333331</ele><time>2026-04-17T09:39:38.851Z</time></trkpt><trkpt lat="33.5685974" lon="9.7406671"><ele>242.0</ele><time>2026-04-17T09:39:39.847Z</time></trkpt><trkpt lat="33.568502" lon="9.7406579"><ele>241.66666666666666</ele><time>2026-04-17T09:39:41.852Z</time></trkpt><trkpt lat="33.5684342" lon="9.7406451"><ele>241.33333333333331</ele><time>2026-04-17T09:39:51.879Z</time></trkpt><trkpt lat="33.5683631" lon="9.7406526"><ele>241.0</ele><time>2026-04-17T09:39:54.861Z</time></trkpt><trkpt lat="33.5683585" lon="9.7405735"><ele>240.99999999999997</ele><time>2026-04-17T09:39:59.87Z</time></trkpt><trkpt lat="33.5683868" lon="9.7404804"><ele>241.0</ele><time>2026-04-17T09:40:02.87Z</time></trkpt><trkpt lat="33.5684523" lon="9.7404437"><ele>241.0</ele><time>2026-04-17T09:40:04.861Z</time></trkpt><trkpt lat="33.5685269" lon="9.7404325"><ele>241.0</ele><time>2026-04-17T09:40:06.863Z</time></trkpt><trkpt lat="33.5686023" lon="9.7404134"><ele>240.99999999999997</ele><time>2026-04-17T09:40:09.86Z</time></trkpt><trkpt lat="33.5686659" lon="9.7403959"><ele>241.0</ele><time>2026-04-17T09:40:35.847Z</time></trkpt><trkpt lat="33.5687599" lon="9.7403589"><ele>241.2857142857143</ele><time>2026-04-17T09:40:37.848Z</time></trkpt><trkpt lat="33.5688305" lon="9.7403309"><ele>241.5714285714286</ele><time>2026-04-17T09:40:38.848Z</time></trkpt><trkpt lat="33.5688892" lon="9.7402968"><ele>241.85714285714286</ele><time>2026-04-17T09:40:39.847Z</time></trkpt><trkpt lat="33.5689498" lon="9.740256"><ele>242.14285714285717</ele><time>2026-04-17T09:40:40.847Z</time></trkpt><trkpt lat="33.5690071" lon="9.7402106"><ele>242.42857142857144</ele><time>2026-04-17T09:40:41.843Z</time></trkpt><trkpt lat="33.5690845" lon="9.740158"><ele>242.71428571428572</ele><time>2026-04-17T09:40:43.837Z</time></trkpt><trkpt lat="33.5690204" lon="9.7401013"><ele>243.0</ele><time>2026-04-17T09:40:50.857Z</time></trkpt><trkpt lat="33.568903" lon="9.7400613"><ele>243.0</ele><time>2026-04-17T09:40:52.86Z</time></trkpt><trkpt lat="33.5688254" lon="9.7400486"><ele>243.0</ele><time>2026-04-17T09:40:55.861Z</time></trkpt><trkpt lat="33.5687551" lon="9.7400537"><ele>243.0</ele><time>2026-04-17T09:41:46.856Z</time></trkpt><trkpt lat="33.568662" lon="9.7400959"><ele>243.0</ele><time>2026-04-17T09:41:48.863Z</time></trkpt><trkpt lat="33.5686073" lon="9.7401344"><ele>243.0</ele><time>2026-04-17T09:41:49.857Z</time></trkpt><trkpt lat="33.5685421" lon="9.7401768"><ele>243.0</ele><time>2026-04-17T09:41:50.895Z</time></trkpt><trkpt lat="33.5684652" lon="9.740232"><ele>242.66666666666666</ele><time>2026-04-17T09:41:51.861Z</time></trkpt><trkpt lat="33.5683918" lon="9.7402865"><ele>242.33333333333331</ele><time>2026-04-17T09:41:52.867Z</time></trkpt><trkpt lat="33.5683147" lon="9.7403483"><ele>242.0</ele><time>2026-04-17T09:41:53.865Z</time></trkpt><trkpt lat="33.5682388" lon="9.7403958"><ele>241.66666666666666</ele><time>2026-04-17T09:41:54.858Z</time></trkpt><trkpt lat="33.5681609" lon="9.7404348"><ele>241.33333333333331</ele><time>2026-04-17T09:41:55.861Z</time></trkpt><trkpt lat="33.5680864" lon="9.7404687"><ele>241.0</ele><time>2026-04-17T09:41:56.865Z</time></trkpt><trkpt lat="33.5680133" lon="9.7404989"><ele>240.99999999999997</ele><time>2026-04-17T09:41:57.861Z</time></trkpt><trkpt lat="33.5679529" lon="9.7405363"><ele>241.0</ele><time>2026-04-17T09:41:58.857Z</time></trkpt><trkpt lat="33.5678962" lon="9.7405761"><ele>241.0</ele><time>2026-04-17T09:41:59.863Z</time></trkpt><trkpt lat="33.5678373" lon="9.7406138"><ele>241.0</ele><time>2026-04-17T09:42:00.863Z</time></trkpt><trkpt lat="33.5677145" lon="9.7406495"><ele>240.99999999999997</ele><time>2026-04-17T09:42:02.866Z</time></trkpt><trkpt lat="33.5676496" lon="9.7406495"><ele>241.0</ele><time>2026-04-17T09:42:03.857Z</time></trkpt><trkpt lat="33.5675813" lon="9.7406358"><ele>240.57142857142858</ele><time>2026-04-17T09:42:04.853Z</time></trkpt><trkpt lat="33.5675018" lon="9.7406111"><ele>240.14285714285717</ele><time>2026-04-17T09:42:05.854Z</time></trkpt><trkpt lat="33.5674318" lon="9.7406053"><ele>239.71428571428572</ele><time>2026-04-17T09:42:06.843Z</time></trkpt><trkpt lat="33.5673533" lon="9.7406189"><ele>239.28571428571428</ele><time>2026-04-17T09:42:07.86Z</time></trkpt><trkpt lat="33.5672757" lon="9.7406358"><ele>238.85714285714286</ele><time>2026-04-17T09:42:08.865Z</time></trkpt><trkpt lat="33.5672103" lon="9.7406418"><ele>238.42857142857144</ele><time>2026-04-17T09:42:09.858Z</time></trkpt><trkpt lat="33.5671425" lon="9.7406483"><ele>238.0</ele><time>2026-04-17T09:42:10.869Z</time></trkpt><trkpt lat="33.5670661" lon="9.7406751"><ele>237.66666666666666</ele><time>2026-04-17T09:42:11.864Z</time></trkpt><trkpt lat="33.5669778" lon="9.7406869"><ele>237.33333333333331</ele><time>2026-04-17T09:42:12.866Z</time></trkpt><trkpt lat="33.5668844" lon="9.7407055"><ele>237.0</ele><time>2026-04-17T09:42:13.938Z</time></trkpt><trkpt lat="33.5667971" lon="9.7407357"><ele>236.66666666666669</ele><time>2026-04-17T09:42:14.941Z</time></trkpt><trkpt lat="33.566723" lon="9.7407843"><ele>236.33333333333334</ele><time>2026-04-17T09:42:15.941Z</time></trkpt><trkpt lat="33.5666671" lon="9.740853"><ele>236.0</ele><time>2026-04-17T09:42:16.919Z</time></trkpt><trkpt lat="33.5666319" lon="9.7409413"><ele>236.25</ele><time>2026-04-17T09:42:17.924Z</time></trkpt><trkpt lat="33.5665935" lon="9.7411787"><ele>236.5</ele><time>2026-04-17T09:42:19.827Z</time></trkpt><trkpt lat="33.5665241" lon="9.7412341"><ele>236.75</ele><time>2026-04-17T09:42:20.858Z</time></trkpt><trkpt lat="33.5664013" lon="9.7412751"><ele>237.0</ele><time>2026-04-17T09:42:22.838Z</time></trkpt><trkpt lat="33.566322" lon="9.741279"><ele>237.0</ele><time>2026-04-17T09:42:23.848Z</time></trkpt><trkpt lat="33.566242" lon="9.7412915"><ele>237.0</ele><time>2026-04-17T09:42:24.85Z</time></trkpt><trkpt lat="33.5661621" lon="9.7413194"><ele>237.0</ele><time>2026-04-17T09:42:25.845Z</time></trkpt><trkpt lat="33.5660758" lon="9.7413551"><ele>237.0</ele><time>2026-04-17T09:42:26.851Z</time></trkpt><trkpt lat="33.5659858" lon="9.7414117"><ele>237.0</ele><time>2026-04-17T09:42:27.846Z</time></trkpt><trkpt lat="33.565897" lon="9.7414608"><ele>236.66666666666666</ele><time>2026-04-17T09:42:28.844Z</time></trkpt><trkpt lat="33.5658126" lon="9.7415019"><ele>236.33333333333331</ele><time>2026-04-17T09:42:29.851Z</time></trkpt><trkpt lat="33.5657261" lon="9.7415303"><ele>236.0</ele><time>2026-04-17T09:42:30.852Z</time></trkpt><trkpt lat="33.5656482" lon="9.741555"><ele>235.66666666666666</ele><time>2026-04-17T09:42:31.856Z</time></trkpt><trkpt lat="33.5655687" lon="9.7415797"><ele>235.33333333333331</ele><time>2026-04-17T09:42:32.851Z</time></trkpt><trkpt lat="33.5654867" lon="9.7416141"><ele>235.0</ele><time>2026-04-17T09:42:33.851Z</time></trkpt><trkpt lat="33.5654095" lon="9.741658"><ele>235.2</ele><time>2026-04-17T09:42:34.851Z</time></trkpt><trkpt lat="33.5653288" lon="9.7416946"><ele>235.4</ele><time>2026-04-17T09:42:35.851Z</time></trkpt><trkpt lat="33.5652415" lon="9.7417379"><ele>235.60000000000002</ele><time>2026-04-17T09:42:36.849Z</time></trkpt><trkpt lat="33.5651517" lon="9.7417755"><ele>235.8</ele><time>2026-04-17T09:42:37.851Z</time></trkpt><trkpt lat="33.565058" lon="9.7418133"><ele>236.0</ele><time>2026-04-17T09:42:38.851Z</time></trkpt><trkpt lat="33.5649656" lon="9.7418327"><ele>236.0</ele><time>2026-04-17T09:42:39.848Z</time></trkpt><trkpt lat="33.5648718" lon="9.7418406"><ele>236.00000000000003</ele><time>2026-04-17T09:42:40.847Z</time></trkpt><trkpt lat="33.5647839" lon="9.7418659"><ele>236.00000000000003</ele><time>2026-04-17T09:42:41.845Z</time></trkpt><trkpt lat="33.5647031" lon="9.7419207"><ele>236.0</ele><time>2026-04-17T09:42:42.834Z</time></trkpt><trkpt lat="33.5646176" lon="9.7419929"><ele>236.0</ele><time>2026-04-17T09:42:43.834Z</time></trkpt><trkpt lat="33.5645353" lon="9.7420724"><ele>235.60000000000002</ele><time>2026-04-17T09:42:44.831Z</time></trkpt><trkpt lat="33.5644579" lon="9.7421542"><ele>235.20000000000002</ele><time>2026-04-17T09:42:45.824Z</time></trkpt><trkpt lat="33.5643848" lon="9.7422463"><ele>234.79999999999998</ele><time>2026-04-17T09:42:46.84Z</time></trkpt><trkpt lat="33.5643359" lon="9.7423619"><ele>234.39999999999998</ele><time>2026-04-17T09:42:47.833Z</time></trkpt><trkpt lat="33.564291" lon="9.7424831"><ele>234.0</ele><time>2026-04-17T09:42:48.846Z</time></trkpt><trkpt lat="33.564251" lon="9.7426143"><ele>234.39999999999998</ele><time>2026-04-17T09:42:49.853Z</time></trkpt><trkpt lat="33.5642162" lon="9.7427538"><ele>234.79999999999998</ele><time>2026-04-17T09:42:50.847Z</time></trkpt><trkpt lat="33.5641733" lon="9.7428773"><ele>235.20000000000002</ele><time>2026-04-17T09:42:51.863Z</time></trkpt><trkpt lat="33.5641253" lon="9.7429853"><ele>235.60000000000002</ele><time>2026-04-17T09:42:52.838Z</time></trkpt><trkpt lat="33.5640674" lon="9.7430779"><ele>236.0</ele><time>2026-04-17T09:42:53.836Z</time></trkpt><trkpt lat="33.5639825" lon="9.7431585"><ele>236.0</ele><time>2026-04-17T09:42:54.839Z</time></trkpt><trkpt lat="33.5638834" lon="9.7432264"><ele>236.00000000000003</ele><time>2026-04-17T09:42:55.84Z</time></trkpt><trkpt lat="33.5637805" lon="9.7432819"><ele>236.00000000000003</ele><time>2026-04-17T09:42:56.847Z</time></trkpt><trkpt lat="33.563669" lon="9.7433088"><ele>236.0</ele><time>2026-04-17T09:42:57.835Z</time></trkpt><trkpt lat="33.5635639" lon="9.7433351"><ele>236.0</ele><time>2026-04-17T09:42:58.832Z</time></trkpt><trkpt lat="33.5634545" lon="9.7433163"><ele>235.8</ele><time>2026-04-17T09:42:59.816Z</time></trkpt><trkpt lat="33.5633471" lon="9.7432595"><ele>235.60000000000002</ele><time>2026-04-17T09:43:00.828Z</time></trkpt><trkpt lat="33.5632412" lon="9.7431866"><ele>235.4</ele><time>2026-04-17T09:43:01.836Z</time></trkpt><trkpt lat="33.5631427" lon="9.743126"><ele>235.2</ele><time>2026-04-17T09:43:02.824Z</time></trkpt><trkpt lat="33.5630489" lon="9.7430955"><ele>235.0</ele><time>2026-04-17T09:43:03.831Z</time></trkpt><trkpt lat="33.5629668" lon="9.743095"><ele>235.0</ele><time>2026-04-17T09:43:04.832Z</time></trkpt><trkpt lat="33.5628809" lon="9.7431238"><ele>235.0</ele><time>2026-04-17T09:43:05.831Z</time></trkpt><trkpt lat="33.5628016" lon="9.7431754"><ele>235.0</ele><time>2026-04-17T09:43:06.838Z</time></trkpt><trkpt lat="33.5627232" lon="9.7432393"><ele>235.0</ele><time>2026-04-17T09:43:07.838Z</time></trkpt><trkpt lat="33.5626243" lon="9.7432962"><ele>235.0</ele><time>2026-04-17T09:43:08.833Z</time></trkpt><trkpt lat="33.5625292" lon="9.7433338"><ele>235.2</ele><time>2026-04-17T09:43:09.833Z</time></trkpt><trkpt lat="33.5624346" lon="9.7433684"><ele>235.4</ele><time>2026-04-17T09:43:10.837Z</time></trkpt><trkpt lat="33.5623517" lon="9.743425"><ele>235.60000000000002</ele><time>2026-04-17T09:43:11.835Z</time></trkpt><trkpt lat="33.5622581" lon="9.7435033"><ele>235.8</ele><time>2026-04-17T09:43:12.837Z</time></trkpt><trkpt lat="33.5621851" lon="9.743576"><ele>236.0</ele><time>2026-04-17T09:43:13.84Z</time></trkpt><trkpt lat="33.5621196" lon="9.7436176"><ele>236.0</ele><time>2026-04-17T09:43:14.832Z</time></trkpt><trkpt lat="33.5620482" lon="9.743652"><ele>236.00000000000003</ele><time>2026-04-17T09:43:15.832Z</time></trkpt><trkpt lat="33.5619795" lon="9.7436502"><ele>236.00000000000003</ele><time>2026-04-17T09:43:16.829Z</time></trkpt><trkpt lat="33.5618919" lon="9.7435947"><ele>236.0</ele><time>2026-04-17T09:43:17.839Z</time></trkpt><trkpt lat="33.5618013" lon="9.7435266"><ele>236.0</ele><time>2026-04-17T09:43:18.833Z</time></trkpt><trkpt lat="33.5617072" lon="9.7434497"><ele>235.4</ele><time>2026-04-17T09:43:19.834Z</time></trkpt><trkpt lat="33.5616075" lon="9.7433812"><ele>234.8</ele><time>2026-04-17T09:43:20.836Z</time></trkpt><trkpt lat="33.561512" lon="9.743333"><ele>234.20000000000002</ele><time>2026-04-17T09:43:21.835Z</time></trkpt><trkpt lat="33.5614277" lon="9.7433337"><ele>233.60000000000002</ele><time>2026-04-17T09:43:22.852Z</time></trkpt><trkpt lat="33.561342" lon="9.7433637"><ele>233.0</ele><time>2026-04-17T09:43:23.831Z</time></trkpt><trkpt lat="33.5612499" lon="9.7434238"><ele>232.75</ele><time>2026-04-17T09:43:24.836Z</time></trkpt><trkpt lat="33.56115" lon="9.7434978"><ele>232.5</ele><time>2026-04-17T09:43:25.84Z</time></trkpt><trkpt lat="33.5610386" lon="9.7435785"><ele>232.25</ele><time>2026-04-17T09:43:26.839Z</time></trkpt><trkpt lat="33.5609231" lon="9.7436466"><ele>232.0</ele><time>2026-04-17T09:43:27.828Z</time></trkpt><trkpt lat="33.5608051" lon="9.7436818"><ele>232.0</ele><time>2026-04-17T09:43:28.831Z</time></trkpt><trkpt lat="33.5606889" lon="9.7437046"><ele>232.0</ele><time>2026-04-17T09:43:29.84Z</time></trkpt><trkpt lat="33.5605741" lon="9.7437199"><ele>232.0</ele><time>2026-04-17T09:43:30.846Z</time></trkpt><trkpt lat="33.5604752" lon="9.7437346"><ele>232.0</ele><time>2026-04-17T09:43:31.847Z</time></trkpt><trkpt lat="33.5603824" lon="9.7437524"><ele>232.0</ele><time>2026-04-17T09:43:32.845Z</time></trkpt><trkpt lat="33.5602957" lon="9.7437512"><ele>232.0</ele><time>2026-04-17T09:43:33.84Z</time></trkpt><trkpt lat="33.5602136" lon="9.7437336"><ele>232.0</ele><time>2026-04-17T09:43:34.834Z</time></trkpt><trkpt lat="33.5601274" lon="9.743686"><ele>232.0</ele><time>2026-04-17T09:43:35.827Z</time></trkpt><trkpt lat="33.5600298" lon="9.7436088"><ele>232.0</ele><time>2026-04-17T09:43:36.822Z</time></trkpt><trkpt lat="33.5599136" lon="9.7435194"><ele>232.0</ele><time>2026-04-17T09:43:37.827Z</time></trkpt><trkpt lat="33.5598087" lon="9.743437"><ele>232.0</ele><time>2026-04-17T09:43:38.832Z</time></trkpt><trkpt lat="33.559711" lon="9.7433414"><ele>232.0</ele><time>2026-04-17T09:43:39.829Z</time></trkpt><trkpt lat="33.5596222" lon="9.7432529"><ele>232.0</ele><time>2026-04-17T09:43:40.842Z</time></trkpt><trkpt lat="33.559538" lon="9.7431667"><ele>232.0</ele><time>2026-04-17T09:43:41.841Z</time></trkpt><trkpt lat="33.5594698" lon="9.7430989"><ele>232.0</ele><time>2026-04-17T09:43:42.837Z</time></trkpt><trkpt lat="33.5593925" lon="9.7430469"><ele>231.66666666666666</ele><time>2026-04-17T09:43:43.828Z</time></trkpt><trkpt lat="33.5593197" lon="9.7430187"><ele>231.33333333333331</ele><time>2026-04-17T09:43:44.834Z</time></trkpt><trkpt lat="33.5592552" lon="9.743028"><ele>231.0</ele><time>2026-04-17T09:43:45.845Z</time></trkpt><trkpt lat="33.5591859" lon="9.7430531"><ele>230.66666666666669</ele><time>2026-04-17T09:43:46.832Z</time></trkpt><trkpt lat="33.5591074" lon="9.7431111"><ele>230.33333333333334</ele><time>2026-04-17T09:43:47.841Z</time></trkpt><trkpt lat="33.5590329" lon="9.7431943"><ele>230.0</ele><time>2026-04-17T09:43:48.83Z</time></trkpt><trkpt lat="33.5589671" lon="9.7432824"><ele>230.0</ele><time>2026-04-17T09:43:49.842Z</time></trkpt><trkpt lat="33.5588994" lon="9.7433722"><ele>230.0</ele><time>2026-04-17T09:43:50.845Z</time></trkpt><trkpt lat="33.558825" lon="9.7434512"><ele>230.0</ele><time>2026-04-17T09:43:51.844Z</time></trkpt><trkpt lat="33.5587582" lon="9.7435313"><ele>230.0</ele><time>2026-04-17T09:43:52.846Z</time></trkpt><trkpt lat="33.5586967" lon="9.7436134"><ele>230.0</ele><time>2026-04-17T09:43:53.858Z</time></trkpt><trkpt lat="33.5586442" lon="9.7437189"><ele>229.75</ele><time>2026-04-17T09:43:54.838Z</time></trkpt><trkpt lat="33.5586038" lon="9.7438491"><ele>229.5</ele><time>2026-04-17T09:43:55.842Z</time></trkpt><trkpt lat="33.5585661" lon="9.7439865"><ele>229.25</ele><time>2026-04-17T09:43:56.847Z</time></trkpt><trkpt lat="33.5585184" lon="9.7441302"><ele>229.0</ele><time>2026-04-17T09:43:57.844Z</time></trkpt><trkpt lat="33.5584674" lon="9.7442706"><ele>229.5</ele><time>2026-04-17T09:43:58.842Z</time></trkpt><trkpt lat="33.5584066" lon="9.7444217"><ele>230.0</ele><time>2026-04-17T09:43:59.852Z</time></trkpt><trkpt lat="33.5583342" lon="9.7445679"><ele>230.5</ele><time>2026-04-17T09:44:00.841Z</time></trkpt><trkpt lat="33.558261" lon="9.74468"><ele>231.0</ele><time>2026-04-17T09:44:01.851Z</time></trkpt><trkpt lat="33.5582064" lon="9.7448075"><ele>231.0</ele><time>2026-04-17T09:44:02.837Z</time></trkpt><trkpt lat="33.5581827" lon="9.7449471"><ele>231.00000000000003</ele><time>2026-04-17T09:44:03.834Z</time></trkpt><trkpt lat="33.5581471" lon="9.7450659"><ele>231.00000000000003</ele><time>2026-04-17T09:44:04.846Z</time></trkpt><trkpt lat="33.5581237" lon="9.7451735"><ele>231.0</ele><time>2026-04-17T09:44:05.838Z</time></trkpt><trkpt lat="33.5581307" lon="9.7453214"><ele>231.0</ele><time>2026-04-17T09:44:06.842Z</time></trkpt><trkpt lat="33.5581392" lon="9.7454481"><ele>232.0</ele><time>2026-04-17T09:44:07.85Z</time></trkpt><trkpt lat="33.5581511" lon="9.7455781"><ele>233.00000000000003</ele><time>2026-04-17T09:44:08.934Z</time></trkpt><trkpt lat="33.5581597" lon="9.745693"><ele>234.00000000000003</ele><time>2026-04-17T09:44:09.931Z</time></trkpt><trkpt lat="33.5581644" lon="9.7457882"><ele>235.0</ele><time>2026-04-17T09:44:10.933Z</time></trkpt><trkpt lat="33.5581472" lon="9.7459101"><ele>236.0</ele><time>2026-04-17T09:44:12.921Z</time></trkpt><trkpt lat="33.5580805" lon="9.7458689"><ele>236.0</ele><time>2026-04-17T09:44:16.94Z</time></trkpt><trkpt lat="33.5580714" lon="9.7457546"><ele>236.00000000000003</ele><time>2026-04-17T09:44:18.932Z</time></trkpt><trkpt lat="33.5580821" lon="9.7456179"><ele>236.00000000000003</ele><time>2026-04-17T09:44:20.917Z</time></trkpt><trkpt lat="33.5580773" lon="9.7455009"><ele>236.0</ele><time>2026-04-17T09:44:22.913Z</time></trkpt><trkpt lat="33.558062" lon="9.745354"><ele>236.0</ele><time>2026-04-17T09:44:24.954Z</time></trkpt><trkpt lat="33.5580541" lon="9.7452789"><ele>235.16666666666669</ele><time>2026-04-17T09:44:25.941Z</time></trkpt><trkpt lat="33.5580448" lon="9.745201"><ele>234.33333333333334</ele><time>2026-04-17T09:44:26.946Z</time></trkpt><trkpt lat="33.5580358" lon="9.7451138"><ele>233.5</ele><time>2026-04-17T09:44:27.936Z</time></trkpt><trkpt lat="33.5580296" lon="9.7450361"><ele>232.66666666666669</ele><time>2026-04-17T09:44:28.939Z</time></trkpt><trkpt lat="33.5580149" lon="9.7448958"><ele>231.83333333333334</ele><time>2026-04-17T09:44:30.934Z</time></trkpt><trkpt lat="33.5580088" lon="9.744813"><ele>231.0</ele><time>2026-04-17T09:44:32.935Z</time></trkpt><trkpt lat="33.5579929" lon="9.7447312"><ele>231.0</ele><time>2026-04-17T09:44:36.941Z</time></trkpt><trkpt lat="33.5579788" lon="9.7446229"><ele>231.00000000000003</ele><time>2026-04-17T09:52:31.973Z</time></trkpt><trkpt lat="33.5579728" lon="9.7445299"><ele>231.00000000000003</ele><time>2026-04-17T09:52:33.985Z</time></trkpt><trkpt lat="33.5579465" lon="9.7444007"><ele>231.0</ele><time>2026-04-17T09:52:36.975Z</time></trkpt><trkpt lat="33.5579278" lon="9.7442501"><ele>231.0</ele><time>2026-04-17T09:52:38.99Z</time></trkpt><trkpt lat="33.5579208" lon="9.744173"><ele>231.0</ele><time>2026-04-17T09:52:39.967Z</time></trkpt><trkpt lat="33.5579127" lon="9.744092"><ele>231.0</ele><time>2026-04-17T09:52:40.974Z</time></trkpt><trkpt lat="33.5579011" lon="9.7439999"><ele>231.0</ele><time>2026-04-17T09:52:41.963Z</time></trkpt><trkpt lat="33.5578892" lon="9.743901"><ele>231.0</ele><time>2026-04-17T09:52:42.963Z</time></trkpt><trkpt lat="33.5578811" lon="9.7437961"><ele>231.0</ele><time>2026-04-17T09:52:43.982Z</time></trkpt><trkpt lat="33.5578706" lon="9.7436817"><ele>231.0</ele><time>2026-04-17T09:52:44.971Z</time></trkpt><trkpt lat="33.5578585" lon="9.7435694"><ele>231.4</ele><time>2026-04-17T09:52:45.973Z</time></trkpt><trkpt lat="33.5578432" lon="9.7434587"><ele>231.8</ele><time>2026-04-17T09:52:46.972Z</time></trkpt><trkpt lat="33.5578298" lon="9.7433428"><ele>232.20000000000002</ele><time>2026-04-17T09:52:47.974Z</time></trkpt><trkpt lat="33.5578188" lon="9.7432208"><ele>232.60000000000002</ele><time>2026-04-17T09:52:48.985Z</time></trkpt><trkpt lat="33.5578061" lon="9.7431044"><ele>233.0</ele><time>2026-04-17T09:52:49.971Z</time></trkpt><trkpt lat="33.5577918" lon="9.7429846"><ele>233.0</ele><time>2026-04-17T09:52:50.98Z</time></trkpt><trkpt lat="33.5577812" lon="9.7428608"><ele>233.0</ele><time>2026-04-17T09:52:51.967Z</time></trkpt><trkpt lat="33.5577706" lon="9.7427317"><ele>233.0</ele><time>2026-04-17T09:52:52.964Z</time></trkpt><trkpt lat="33.5577593" lon="9.7425981"><ele>233.0</ele><time>2026-04-17T09:52:53.985Z</time></trkpt><trkpt lat="33.5577487" lon="9.7424553"><ele>233.0</ele><time>2026-04-17T09:52:54.97Z</time></trkpt><trkpt lat="33.5577406" lon="9.7423074"><ele>233.25</ele><time>2026-04-17T09:52:55.969Z</time></trkpt><trkpt lat="33.5577355" lon="9.7421506"><ele>233.5</ele><time>2026-04-17T09:52:56.969Z</time></trkpt><trkpt lat="33.5577303" lon="9.7419856"><ele>233.75</ele><time>2026-04-17T09:52:57.974Z</time></trkpt><trkpt lat="33.557729" lon="9.7418098"><ele>234.0</ele><time>2026-04-17T09:52:58.978Z</time></trkpt><trkpt lat="33.5577338" lon="9.7416224"><ele>234.0</ele><time>2026-04-17T09:52:59.977Z</time></trkpt><trkpt lat="33.5577411" lon="9.7414323"><ele>234.0</ele><time>2026-04-17T09:53:00.972Z</time></trkpt><trkpt lat="33.5577482" lon="9.7412343"><ele>234.0</ele><time>2026-04-17T09:53:01.973Z</time></trkpt><trkpt lat="33.55776" lon="9.7410329"><ele>233.33333333333331</ele><time>2026-04-17T09:53:02.96Z</time></trkpt><trkpt lat="33.5577751" lon="9.7408305"><ele>232.66666666666666</ele><time>2026-04-17T09:53:03.98Z</time></trkpt><trkpt lat="33.5577921" lon="9.7406283"><ele>232.0</ele><time>2026-04-17T09:53:04.963Z</time></trkpt><trkpt lat="33.5578133" lon="9.7404285"><ele>232.0</ele><time>2026-04-17T09:53:05.956Z</time></trkpt><trkpt lat="33.557839" lon="9.7402262"><ele>232.0</ele><time>2026-04-17T09:53:06.965Z</time></trkpt><trkpt lat="33.5578658" lon="9.7400237"><ele>232.0</ele><time>2026-04-17T09:53:07.965Z</time></trkpt><trkpt lat="33.5578959" lon="9.7398188"><ele>230.66666666666666</ele><time>2026-04-17T09:53:08.989Z</time></trkpt><trkpt lat="33.5579309" lon="9.739617"><ele>229.33333333333331</ele><time>2026-04-17T09:53:09.98Z</time></trkpt><trkpt lat="33.5579714" lon="9.7394204"><ele>228.0</ele><time>2026-04-17T09:53:10.972Z</time></trkpt><trkpt lat="33.5580154" lon="9.7392203"><ele>228.0</ele><time>2026-04-17T09:53:11.969Z</time></trkpt><trkpt lat="33.558062" lon="9.7390106"><ele>228.0</ele><time>2026-04-17T09:53:12.969Z</time></trkpt><trkpt lat="33.5581142" lon="9.7388112"><ele>228.0</ele><time>2026-04-17T09:53:13.981Z</time></trkpt><trkpt lat="33.5581738" lon="9.7386165"><ele>227.0</ele><time>2026-04-17T09:53:14.974Z</time></trkpt><trkpt lat="33.5582362" lon="9.7384199"><ele>226.0</ele><time>2026-04-17T09:53:15.964Z</time></trkpt><trkpt lat="33.5583009" lon="9.738225"><ele>225.0</ele><time>2026-04-17T09:53:16.969Z</time></trkpt><trkpt lat="33.5583711" lon="9.7380287"><ele>225.0</ele><time>2026-04-17T09:53:17.979Z</time></trkpt><trkpt lat="33.5584464" lon="9.7378378"><ele>225.0</ele><time>2026-04-17T09:53:18.989Z</time></trkpt><trkpt lat="33.5585247" lon="9.7376523"><ele>225.0</ele><time>2026-04-17T09:53:19.978Z</time></trkpt><trkpt lat="33.5586035" lon="9.7374725"><ele>224.66666666666669</ele><time>2026-04-17T09:53:20.973Z</time></trkpt><trkpt lat="33.5586864" lon="9.7372885"><ele>224.33333333333334</ele><time>2026-04-17T09:53:21.978Z</time></trkpt><trkpt lat="33.5587728" lon="9.7371076"><ele>224.0</ele><time>2026-04-17T09:53:22.973Z</time></trkpt><trkpt lat="33.5588606" lon="9.7369313"><ele>225.66666666666669</ele><time>2026-04-17T09:53:23.992Z</time></trkpt><trkpt lat="33.5589522" lon="9.7367545"><ele>227.33333333333331</ele><time>2026-04-17T09:53:24.971Z</time></trkpt><trkpt lat="33.5590474" lon="9.7365779"><ele>229.0</ele><time>2026-04-17T09:53:25.972Z</time></trkpt><trkpt lat="33.559143" lon="9.7364039"><ele>229.0</ele><time>2026-04-17T09:53:26.973Z</time></trkpt><trkpt lat="33.5592417" lon="9.7362281"><ele>229.0</ele><time>2026-04-17T09:53:27.974Z</time></trkpt><trkpt lat="33.5593468" lon="9.7360479"><ele>229.0</ele><time>2026-04-17T09:53:28.99Z</time></trkpt><trkpt lat="33.5594546" lon="9.7358695"><ele>229.33333333333331</ele><time>2026-04-17T09:53:29.978Z</time></trkpt><trkpt lat="33.5595628" lon="9.735687"><ele>229.66666666666669</ele><time>2026-04-17T09:53:30.969Z</time></trkpt><trkpt lat="33.5596674" lon="9.7355047"><ele>230.0</ele><time>2026-04-17T09:53:31.978Z</time></trkpt><trkpt lat="33.559771" lon="9.7353232"><ele>229.0</ele><time>2026-04-17T09:53:32.971Z</time></trkpt><trkpt lat="33.5598739" lon="9.7351431"><ele>228.0</ele><time>2026-04-17T09:53:33.993Z</time></trkpt><trkpt lat="33.5599787" lon="9.7349628"><ele>227.0</ele><time>2026-04-17T09:53:34.972Z</time></trkpt><trkpt lat="33.5600835" lon="9.7347806"><ele>227.0</ele><time>2026-04-17T09:53:35.978Z</time></trkpt><trkpt lat="33.5601883" lon="9.7345953"><ele>227.0</ele><time>2026-04-17T09:53:36.972Z</time></trkpt><trkpt lat="33.5602911" lon="9.7344052"><ele>227.0</ele><time>2026-04-17T09:53:37.98Z</time></trkpt><trkpt lat="33.5603953" lon="9.7342143"><ele>229.0</ele><time>2026-04-17T09:53:38.979Z</time></trkpt><trkpt lat="33.5604978" lon="9.7340236"><ele>231.0</ele><time>2026-04-17T09:53:39.991Z</time></trkpt><trkpt lat="33.5605967" lon="9.7338372"><ele>233.0</ele><time>2026-04-17T09:53:40.998Z</time></trkpt><trkpt lat="33.5606891" lon="9.733651"><ele>233.0</ele><time>2026-04-17T09:53:41.978Z</time></trkpt><trkpt lat="33.5607816" lon="9.7334569"><ele>233.0</ele><time>2026-04-17T09:53:42.979Z</time></trkpt><trkpt lat="33.5608733" lon="9.7332685"><ele>233.0</ele><time>2026-04-17T09:53:43.976Z</time></trkpt><trkpt lat="33.5609596" lon="9.7330775"><ele>233.0</ele><time>2026-04-17T09:53:44.983Z</time></trkpt><trkpt lat="33.5610405" lon="9.7328844"><ele>233.0</ele><time>2026-04-17T09:53:45.971Z</time></trkpt><trkpt lat="33.5611181" lon="9.7326858"><ele>233.0</ele><time>2026-04-17T09:53:46.972Z</time></trkpt><trkpt lat="33.5611966" lon="9.7324869"><ele>233.66666666666669</ele><time>2026-04-17T09:53:47.974Z</time></trkpt><trkpt lat="33.5612763" lon="9.7322873"><ele>234.33333333333331</ele><time>2026-04-17T09:53:48.977Z</time></trkpt><trkpt lat="33.5613548" lon="9.7320806"><ele>235.0</ele><time>2026-04-17T09:53:49.981Z</time></trkpt><trkpt lat="33.5614307" lon="9.7318685"><ele>235.0</ele><time>2026-04-17T09:53:50.977Z</time></trkpt><trkpt lat="33.5615057" lon="9.7316507"><ele>235.0</ele><time>2026-04-17T09:53:51.975Z</time></trkpt><trkpt lat="33.5615786" lon="9.7314254"><ele>235.0</ele><time>2026-04-17T09:53:52.97Z</time></trkpt><trkpt lat="33.5616476" lon="9.731197"><ele>235.0</ele><time>2026-04-17T09:53:53.974Z</time></trkpt><trkpt lat="33.5617167" lon="9.7309653"><ele>235.0</ele><time>2026-04-17T09:53:54.982Z</time></trkpt><trkpt lat="33.5617858" lon="9.7307358"><ele>235.0</ele><time>2026-04-17T09:53:55.967Z</time></trkpt><trkpt lat="33.5618458" lon="9.7305044"><ele>235.0</ele><time>2026-04-17T09:53:56.972Z</time></trkpt><trkpt lat="33.5619006" lon="9.7302708"><ele>235.0</ele><time>2026-04-17T09:53:57.973Z</time></trkpt><trkpt lat="33.5619496" lon="9.7300338"><ele>235.0</ele><time>2026-04-17T09:53:58.97Z</time></trkpt><trkpt lat="33.5619955" lon="9.7298031"><ele>235.0</ele><time>2026-04-17T09:53:59.987Z</time></trkpt><trkpt lat="33.5620355" lon="9.7295733"><ele>235.0</ele><time>2026-04-17T09:54:00.967Z</time></trkpt><trkpt lat="33.5620731" lon="9.7293461"><ele>235.0</ele><time>2026-04-17T09:54:01.971Z</time></trkpt><trkpt lat="33.5621087" lon="9.7291158"><ele>235.0</ele><time>2026-04-17T09:54:02.963Z</time></trkpt><trkpt lat="33.5621465" lon="9.7288829"><ele>235.0</ele><time>2026-04-17T09:54:03.965Z</time></trkpt><trkpt lat="33.5621843" lon="9.7286463"><ele>235.0</ele><time>2026-04-17T09:54:04.974Z</time></trkpt><trkpt lat="33.5622214" lon="9.7284054"><ele>234.66666666666666</ele><time>2026-04-17T09:54:05.968Z</time></trkpt><trkpt lat="33.5622579" lon="9.7281589"><ele>234.33333333333331</ele><time>2026-04-17T09:54:06.968Z</time></trkpt><trkpt lat="33.5622935" lon="9.7279108"><ele>234.0</ele><time>2026-04-17T09:54:07.965Z</time></trkpt><trkpt lat="33.5623316" lon="9.7276659"><ele>233.0</ele><time>2026-04-17T09:54:08.96Z</time></trkpt><trkpt lat="33.5623706" lon="9.7274197"><ele>232.0</ele><time>2026-04-17T09:54:09.971Z</time></trkpt><trkpt lat="33.5624077" lon="9.727172"><ele>231.0</ele><time>2026-04-17T09:54:10.958Z</time></trkpt><trkpt lat="33.5624466" lon="9.7269203"><ele>230.33333333333331</ele><time>2026-04-17T09:54:11.971Z</time></trkpt><trkpt lat="33.562489" lon="9.7266694"><ele>229.66666666666666</ele><time>2026-04-17T09:54:12.958Z</time></trkpt><trkpt lat="33.5625307" lon="9.7264216"><ele>229.0</ele><time>2026-04-17T09:54:13.951Z</time></trkpt><trkpt lat="33.5625704" lon="9.7261732"><ele>228.0</ele><time>2026-04-17T09:54:14.966Z</time></trkpt><trkpt lat="33.5626095" lon="9.7259232"><ele>227.0</ele><time>2026-04-17T09:54:15.964Z</time></trkpt><trkpt lat="33.5626464" lon="9.7256728"><ele>226.0</ele><time>2026-04-17T09:54:16.957Z</time></trkpt><trkpt lat="33.5626862" lon="9.7254292"><ele>225.33333333333331</ele><time>2026-04-17T09:54:17.959Z</time></trkpt><trkpt lat="33.5627275" lon="9.7251886"><ele>224.66666666666669</ele><time>2026-04-17T09:54:18.956Z</time></trkpt><trkpt lat="33.5627659" lon="9.7249421"><ele>224.0</ele><time>2026-04-17T09:54:19.97Z</time></trkpt><trkpt lat="33.5628012" lon="9.7246976"><ele>224.0</ele><time>2026-04-17T09:54:20.965Z</time></trkpt><trkpt lat="33.5628327" lon="9.724452"><ele>224.0</ele><time>2026-04-17T09:54:21.965Z</time></trkpt><trkpt lat="33.5628619" lon="9.7242089"><ele>224.0</ele><time>2026-04-17T09:54:22.959Z</time></trkpt><trkpt lat="33.5628967" lon="9.7239725"><ele>224.0</ele><time>2026-04-17T09:54:23.968Z</time></trkpt><trkpt lat="33.5629356" lon="9.7237368"><ele>224.0</ele><time>2026-04-17T09:54:24.972Z</time></trkpt><trkpt lat="33.5629737" lon="9.7235015"><ele>224.0</ele><time>2026-04-17T09:54:25.964Z</time></trkpt><trkpt lat="33.5630121" lon="9.7232643"><ele>224.0</ele><time>2026-04-17T09:54:26.978Z</time></trkpt><trkpt lat="33.5630556" lon="9.7230267"><ele>224.0</ele><time>2026-04-17T09:54:27.968Z</time></trkpt><trkpt lat="33.5631021" lon="9.7227909"><ele>224.0</ele><time>2026-04-17T09:54:28.973Z</time></trkpt><trkpt lat="33.5631482" lon="9.7225559"><ele>223.33333333333334</ele><time>2026-04-17T09:54:29.987Z</time></trkpt><trkpt lat="33.5631958" lon="9.7223231"><ele>222.66666666666669</ele><time>2026-04-17T09:54:30.984Z</time></trkpt><trkpt lat="33.5632496" lon="9.7220875"><ele>222.0</ele><time>2026-04-17T09:54:31.977Z</time></trkpt><trkpt lat="33.5633061" lon="9.7218522"><ele>222.0</ele><time>2026-04-17T09:54:32.976Z</time></trkpt><trkpt lat="33.5633669" lon="9.7216173"><ele>222.0</ele><time>2026-04-17T09:54:33.971Z</time></trkpt><trkpt lat="33.5634304" lon="9.721382"><ele>222.0</ele><time>2026-04-17T09:54:34.983Z</time></trkpt><trkpt lat="33.5634962" lon="9.7211464"><ele>222.0</ele><time>2026-04-17T09:54:35.984Z</time></trkpt><trkpt lat="33.5635637" lon="9.7209096"><ele>222.0</ele><time>2026-04-17T09:54:36.975Z</time></trkpt><trkpt lat="33.5636324" lon="9.7206752"><ele>222.0</ele><time>2026-04-17T09:54:37.979Z</time></trkpt><trkpt lat="33.5637024" lon="9.7204416"><ele>221.33333333333331</ele><time>2026-04-17T09:54:38.968Z</time></trkpt><trkpt lat="33.5637747" lon="9.7202119"><ele>220.66666666666666</ele><time>2026-04-17T09:54:39.977Z</time></trkpt><trkpt lat="33.5638512" lon="9.7199895"><ele>220.0</ele><time>2026-04-17T09:54:40.99Z</time></trkpt><trkpt lat="33.5639305" lon="9.7197667"><ele>220.0</ele><time>2026-04-17T09:54:41.97Z</time></trkpt><trkpt lat="33.5640119" lon="9.7195419"><ele>220.0</ele><time>2026-04-17T09:54:42.98Z</time></trkpt><trkpt lat="33.5640942" lon="9.7193199"><ele>220.0</ele><time>2026-04-17T09:54:43.969Z</time></trkpt><trkpt lat="33.5641747" lon="9.7190989"><ele>220.0</ele><time>2026-04-17T09:54:44.971Z</time></trkpt><trkpt lat="33.5642559" lon="9.7188682"><ele>220.0</ele><time>2026-04-17T09:54:45.98Z</time></trkpt><trkpt lat="33.5643354" lon="9.7186456"><ele>220.0</ele><time>2026-04-17T09:54:46.972Z</time></trkpt><trkpt lat="33.5644157" lon="9.7184258"><ele>220.0</ele><time>2026-04-17T09:54:47.973Z</time></trkpt><trkpt lat="33.5644963" lon="9.7182028"><ele>220.0</ele><time>2026-04-17T09:54:48.965Z</time></trkpt><trkpt lat="33.5645742" lon="9.7179806"><ele>220.0</ele><time>2026-04-17T09:54:49.966Z</time></trkpt><trkpt lat="33.5646516" lon="9.7177608"><ele>220.0</ele><time>2026-04-17T09:54:50.988Z</time></trkpt><trkpt lat="33.5647238" lon="9.7175423"><ele>220.0</ele><time>2026-04-17T09:54:51.97Z</time></trkpt><trkpt lat="33.5647992" lon="9.7173226"><ele>220.0</ele><time>2026-04-17T09:54:52.973Z</time></trkpt><trkpt lat="33.5648779" lon="9.7171079"><ele>219.0</ele><time>2026-04-17T09:54:53.973Z</time></trkpt><trkpt lat="33.5649597" lon="9.7168902"><ele>218.0</ele><time>2026-04-17T09:54:54.972Z</time></trkpt><trkpt lat="33.5650429" lon="9.7166718"><ele>217.0</ele><time>2026-04-17T09:54:55.983Z</time></trkpt><trkpt lat="33.565125" lon="9.7164493"><ele>217.0</ele><time>2026-04-17T09:54:56.97Z</time></trkpt><trkpt lat="33.5652059" lon="9.7162235"><ele>217.0</ele><time>2026-04-17T09:54:57.97Z</time></trkpt><trkpt lat="33.5652861" lon="9.7159988"><ele>217.0</ele><time>2026-04-17T09:54:58.976Z</time></trkpt><trkpt lat="33.5653669" lon="9.7157721"><ele>217.33333333333331</ele><time>2026-04-17T09:54:59.975Z</time></trkpt><trkpt lat="33.5654451" lon="9.7155501"><ele>217.66666666666669</ele><time>2026-04-17T09:55:00.985Z</time></trkpt><trkpt lat="33.5655192" lon="9.715328"><ele>218.0</ele><time>2026-04-17T09:55:01.969Z</time></trkpt><trkpt lat="33.5655949" lon="9.7151021"><ele>218.0</ele><time>2026-04-17T09:55:02.97Z</time></trkpt><trkpt lat="33.5656686" lon="9.7148782"><ele>218.0</ele><time>2026-04-17T09:55:03.97Z</time></trkpt><trkpt lat="33.5657453" lon="9.7146543"><ele>218.0</ele><time>2026-04-17T09:55:04.965Z</time></trkpt><trkpt lat="33.5658252" lon="9.7144285"><ele>218.0</ele><time>2026-04-17T09:55:05.985Z</time></trkpt><trkpt lat="33.5659051" lon="9.7142071"><ele>218.0</ele><time>2026-04-17T09:55:06.971Z</time></trkpt><trkpt lat="33.5659866" lon="9.7139837"><ele>218.0</ele><time>2026-04-17T09:55:07.975Z</time></trkpt><trkpt lat="33.5660656" lon="9.7137639"><ele>218.66666666666669</ele><time>2026-04-17T09:55:08.973Z</time></trkpt><trkpt lat="33.5661443" lon="9.7135388"><ele>219.33333333333331</ele><time>2026-04-17T09:55:09.97Z</time></trkpt><trkpt lat="33.5662199" lon="9.7133155"><ele>220.0</ele><time>2026-04-17T09:55:10.979Z</time></trkpt><trkpt lat="33.5662964" lon="9.7130911"><ele>220.0</ele><time>2026-04-17T09:55:11.971Z</time></trkpt><trkpt lat="33.5663739" lon="9.7128707"><ele>220.0</ele><time>2026-04-17T09:55:12.972Z</time></trkpt><trkpt lat="33.5664524" lon="9.7126524"><ele>220.0</ele><time>2026-04-17T09:55:13.979Z</time></trkpt><trkpt lat="33.5665302" lon="9.7124319"><ele>220.0</ele><time>2026-04-17T09:55:14.969Z</time></trkpt><trkpt lat="33.5666053" lon="9.7122139"><ele>220.0</ele><time>2026-04-17T09:55:15.992Z</time></trkpt><trkpt lat="33.5666862" lon="9.7119939"><ele>220.0</ele><time>2026-04-17T09:55:16.975Z</time></trkpt><trkpt lat="33.5667663" lon="9.7117711"><ele>218.66666666666666</ele><time>2026-04-17T09:55:17.974Z</time></trkpt><trkpt lat="33.5668447" lon="9.7115475"><ele>217.33333333333331</ele><time>2026-04-17T09:55:18.975Z</time></trkpt><trkpt lat="33.5669243" lon="9.7113206"><ele>216.0</ele><time>2026-04-17T09:55:19.974Z</time></trkpt><trkpt lat="33.5670049" lon="9.7110852"><ele>216.0</ele><time>2026-04-17T09:55:20.991Z</time></trkpt><trkpt lat="33.5670848" lon="9.7108501"><ele>216.0</ele><time>2026-04-17T09:55:21.977Z</time></trkpt><trkpt lat="33.5671592" lon="9.7106075"><ele>216.0</ele><time>2026-04-17T09:55:22.988Z</time></trkpt><trkpt lat="33.5672236" lon="9.7103694"><ele>216.0</ele><time>2026-04-17T09:55:23.981Z</time></trkpt><trkpt lat="33.5672829" lon="9.7101332"><ele>216.0</ele><time>2026-04-17T09:55:24.982Z</time></trkpt><trkpt lat="33.5673396" lon="9.7098992"><ele>216.0</ele><time>2026-04-17T09:55:25.996Z</time></trkpt><trkpt lat="33.5673983" lon="9.7096567"><ele>216.0</ele><time>2026-04-17T09:55:26.979Z</time></trkpt><trkpt lat="33.5674521" lon="9.7094109"><ele>216.0</ele><time>2026-04-17T09:55:27.987Z</time></trkpt><trkpt lat="33.5675002" lon="9.7091642"><ele>216.0</ele><time>2026-04-17T09:55:28.994Z</time></trkpt><trkpt lat="33.5675478" lon="9.708918"><ele>215.33333333333331</ele><time>2026-04-17T09:55:29.986Z</time></trkpt><trkpt lat="33.5675958" lon="9.7086678"><ele>214.66666666666666</ele><time>2026-04-17T09:55:30.998Z</time></trkpt><trkpt lat="33.567643" lon="9.7084192"><ele>214.0</ele><time>2026-04-17T09:55:31.988Z</time></trkpt><trkpt lat="33.5676879" lon="9.7081664"><ele>213.66666666666666</ele><time>2026-04-17T09:55:32.988Z</time></trkpt><trkpt lat="33.5677318" lon="9.7079108"><ele>213.33333333333331</ele><time>2026-04-17T09:55:33.983Z</time></trkpt><trkpt lat="33.5677731" lon="9.707657"><ele>213.0</ele><time>2026-04-17T09:55:34.983Z</time></trkpt><trkpt lat="33.5678164" lon="9.7074042"><ele>212.66666666666669</ele><time>2026-04-17T09:55:35.995Z</time></trkpt><trkpt lat="33.5678586" lon="9.7071569"><ele>212.33333333333334</ele><time>2026-04-17T09:55:36.983Z</time></trkpt><trkpt lat="33.5679003" lon="9.7069098"><ele>212.0</ele><time>2026-04-17T09:55:37.993Z</time></trkpt><trkpt lat="33.567944" lon="9.7066661"><ele>211.66666666666669</ele><time>2026-04-17T09:55:38.986Z</time></trkpt><trkpt lat="33.5679876" lon="9.7064219"><ele>211.33333333333331</ele><time>2026-04-17T09:55:39.989Z</time></trkpt><trkpt lat="33.568031" lon="9.7061766"><ele>211.0</ele><time>2026-04-17T09:55:40.984Z</time></trkpt><trkpt lat="33.5680739" lon="9.7059277"><ele>210.66666666666666</ele><time>2026-04-17T09:55:41.997Z</time></trkpt><trkpt lat="33.5681172" lon="9.7056831"><ele>210.33333333333331</ele><time>2026-04-17T09:55:42.981Z</time></trkpt><trkpt lat="33.5681604" lon="9.70544"><ele>210.0</ele><time>2026-04-17T09:55:43.982Z</time></trkpt><trkpt lat="33.5682068" lon="9.7051917"><ele>210.0</ele><time>2026-04-17T09:55:45.004Z</time></trkpt><trkpt lat="33.5682561" lon="9.7049462"><ele>210.0</ele><time>2026-04-17T09:55:45.988Z</time></trkpt><trkpt lat="33.5683069" lon="9.7046999"><ele>210.0</ele><time>2026-04-17T09:55:47.004Z</time></trkpt><trkpt lat="33.568359" lon="9.7044534"><ele>209.66666666666669</ele><time>2026-04-17T09:55:47.984Z</time></trkpt><trkpt lat="33.5684125" lon="9.704214"><ele>209.33333333333334</ele><time>2026-04-17T09:55:48.977Z</time></trkpt><trkpt lat="33.568465" lon="9.7039808"><ele>209.0</ele><time>2026-04-17T09:55:49.986Z</time></trkpt><trkpt lat="33.5685198" lon="9.7037434"><ele>208.66666666666669</ele><time>2026-04-17T09:55:50.983Z</time></trkpt><trkpt lat="33.5685801" lon="9.7035076"><ele>208.33333333333331</ele><time>2026-04-17T09:55:52.005Z</time></trkpt><trkpt lat="33.568645" lon="9.7032733"><ele>208.0</ele><time>2026-04-17T09:55:52.987Z</time></trkpt><trkpt lat="33.5687127" lon="9.7030431"><ele>208.0</ele><time>2026-04-17T09:55:53.975Z</time></trkpt><trkpt lat="33.568785" lon="9.702813"><ele>208.0</ele><time>2026-04-17T09:55:54.979Z</time></trkpt><trkpt lat="33.5688597" lon="9.7025852"><ele>208.0</ele><time>2026-04-17T09:55:55.984Z</time></trkpt><trkpt lat="33.5689346" lon="9.7023572"><ele>208.0</ele><time>2026-04-17T09:55:57.003Z</time></trkpt><trkpt lat="33.5690112" lon="9.702126"><ele>208.0</ele><time>2026-04-17T09:55:57.979Z</time></trkpt><trkpt lat="33.5690876" lon="9.7018963"><ele>208.0</ele><time>2026-04-17T09:55:58.987Z</time></trkpt><trkpt lat="33.5691624" lon="9.7016717"><ele>207.66666666666666</ele><time>2026-04-17T09:55:59.977Z</time></trkpt><trkpt lat="33.5692388" lon="9.7014472"><ele>207.33333333333331</ele><time>2026-04-17T09:56:00.974Z</time></trkpt><trkpt lat="33.5693159" lon="9.7012249"><ele>207.0</ele><time>2026-04-17T09:56:01.994Z</time></trkpt><trkpt lat="33.5693918" lon="9.7009999"><ele>206.66666666666669</ele><time>2026-04-17T09:56:02.976Z</time></trkpt><trkpt lat="33.5694674" lon="9.7007766"><ele>206.33333333333334</ele><time>2026-04-17T09:56:03.977Z</time></trkpt><trkpt lat="33.569543" lon="9.7005552"><ele>206.0</ele><time>2026-04-17T09:56:04.965Z</time></trkpt><trkpt lat="33.5696181" lon="9.7003393"><ele>206.33333333333334</ele><time>2026-04-17T09:56:05.968Z</time></trkpt><trkpt lat="33.5696962" lon="9.7001242"><ele>206.66666666666669</ele><time>2026-04-17T09:56:06.977Z</time></trkpt><trkpt lat="33.5697785" lon="9.6999077"><ele>207.0</ele><time>2026-04-17T09:56:07.976Z</time></trkpt><trkpt lat="33.5698655" lon="9.6996946"><ele>207.0</ele><time>2026-04-17T09:56:08.982Z</time></trkpt><trkpt lat="33.5699568" lon="9.6994839"><ele>207.0</ele><time>2026-04-17T09:56:09.974Z</time></trkpt><trkpt lat="33.5700483" lon="9.6992766"><ele>207.0</ele><time>2026-04-17T09:56:10.977Z</time></trkpt><trkpt lat="33.5701443" lon="9.699071"><ele>206.66666666666669</ele><time>2026-04-17T09:56:11.994Z</time></trkpt><trkpt lat="33.5702395" lon="9.6988673"><ele>206.33333333333334</ele><time>2026-04-17T09:56:12.968Z</time></trkpt><trkpt lat="33.5703388" lon="9.6986699"><ele>206.0</ele><time>2026-04-17T09:56:13.974Z</time></trkpt><trkpt lat="33.5704435" lon="9.6984748"><ele>205.33333333333334</ele><time>2026-04-17T09:56:14.977Z</time></trkpt><trkpt lat="33.5705515" lon="9.6982775"><ele>204.66666666666669</ele><time>2026-04-17T09:56:15.966Z</time></trkpt><trkpt lat="33.5706628" lon="9.6980831"><ele>204.0</ele><time>2026-04-17T09:56:16.993Z</time></trkpt><trkpt lat="33.5707761" lon="9.6978894"><ele>203.33333333333331</ele><time>2026-04-17T09:56:17.968Z</time></trkpt><trkpt lat="33.5708914" lon="9.6976984"><ele>202.66666666666666</ele><time>2026-04-17T09:56:18.965Z</time></trkpt><trkpt lat="33.5710093" lon="9.6975052"><ele>202.0</ele><time>2026-04-17T09:56:19.966Z</time></trkpt><trkpt lat="33.5711257" lon="9.6973151"><ele>202.0</ele><time>2026-04-17T09:56:20.973Z</time></trkpt><trkpt lat="33.5712425" lon="9.6971224"><ele>202.0</ele><time>2026-04-17T09:56:21.984Z</time></trkpt><trkpt lat="33.5713584" lon="9.6969249"><ele>202.0</ele><time>2026-04-17T09:56:22.966Z</time></trkpt><trkpt lat="33.571472" lon="9.6967224"><ele>202.0</ele><time>2026-04-17T09:56:23.969Z</time></trkpt><trkpt lat="33.5715807" lon="9.6965196"><ele>202.0</ele><time>2026-04-17T09:56:24.966Z</time></trkpt><trkpt lat="33.5716889" lon="9.6963153"><ele>202.0</ele><time>2026-04-17T09:56:25.958Z</time></trkpt><trkpt lat="33.5717936" lon="9.6961093"><ele>202.0</ele><time>2026-04-17T09:56:26.978Z</time></trkpt><trkpt lat="33.5718978" lon="9.6959049"><ele>202.0</ele><time>2026-04-17T09:56:27.965Z</time></trkpt><trkpt lat="33.571999" lon="9.6956951"><ele>202.0</ele><time>2026-04-17T09:56:28.975Z</time></trkpt><trkpt lat="33.5720963" lon="9.6954832"><ele>202.33333333333331</ele><time>2026-04-17T09:56:29.963Z</time></trkpt><trkpt lat="33.5721884" lon="9.6952687"><ele>202.66666666666669</ele><time>2026-04-17T09:56:30.966Z</time></trkpt><trkpt lat="33.5722748" lon="9.6950521"><ele>203.0</ele><time>2026-04-17T09:56:31.985Z</time></trkpt><trkpt lat="33.57236" lon="9.694829"><ele>203.0</ele><time>2026-04-17T09:56:32.961Z</time></trkpt><trkpt lat="33.5724435" lon="9.694604"><ele>203.0</ele><time>2026-04-17T09:56:33.97Z</time></trkpt><trkpt lat="33.5725228" lon="9.6943753"><ele>203.0</ele><time>2026-04-17T09:56:34.953Z</time></trkpt><trkpt lat="33.5725989" lon="9.6941483"><ele>202.33333333333334</ele><time>2026-04-17T09:56:35.958Z</time></trkpt><trkpt lat="33.5726726" lon="9.6939195"><ele>201.66666666666669</ele><time>2026-04-17T09:56:36.983Z</time></trkpt><trkpt lat="33.5727435" lon="9.6936849"><ele>201.0</ele><time>2026-04-17T09:56:37.962Z</time></trkpt><trkpt lat="33.5728114" lon="9.6934486"><ele>200.0</ele><time>2026-04-17T09:56:38.983Z</time></trkpt><trkpt lat="33.5728744" lon="9.6932055"><ele>199.0</ele><time>2026-04-17T09:56:39.96Z</time></trkpt><trkpt lat="33.5729321" lon="9.6929663"><ele>198.0</ele><time>2026-04-17T09:56:40.985Z</time></trkpt><trkpt lat="33.5729897" lon="9.6927217"><ele>198.0</ele><time>2026-04-17T09:56:41.983Z</time></trkpt><trkpt lat="33.5730429" lon="9.6924764"><ele>198.0</ele><time>2026-04-17T09:56:42.967Z</time></trkpt><trkpt lat="33.5730987" lon="9.6922364"><ele>198.0</ele><time>2026-04-17T09:56:43.969Z</time></trkpt><trkpt lat="33.5731567" lon="9.6919961"><ele>197.66666666666669</ele><time>2026-04-17T09:56:44.982Z</time></trkpt><trkpt lat="33.573211" lon="9.6917582"><ele>197.33333333333334</ele><time>2026-04-17T09:56:45.98Z</time></trkpt><trkpt lat="33.5732634" lon="9.6915167"><ele>197.0</ele><time>2026-04-17T09:56:46.981Z</time></trkpt><trkpt lat="33.5733153" lon="9.6912739"><ele>196.33333333333334</ele><time>2026-04-17T09:56:47.981Z</time></trkpt><trkpt lat="33.5733671" lon="9.691032"><ele>195.66666666666669</ele><time>2026-04-17T09:56:48.971Z</time></trkpt><trkpt lat="33.573418" lon="9.6907917"><ele>195.0</ele><time>2026-04-17T09:56:49.982Z</time></trkpt><trkpt lat="33.5734676" lon="9.6905495"><ele>195.0</ele><time>2026-04-17T09:56:50.971Z</time></trkpt><trkpt lat="33.5735101" lon="9.6903043"><ele>195.0</ele><time>2026-04-17T09:56:51.993Z</time></trkpt><trkpt lat="33.5735621" lon="9.6900602"><ele>195.0</ele><time>2026-04-17T09:56:52.989Z</time></trkpt><trkpt lat="33.5736163" lon="9.6898175"><ele>194.66666666666669</ele><time>2026-04-17T09:56:53.97Z</time></trkpt><trkpt lat="33.5736714" lon="9.6895752"><ele>194.33333333333334</ele><time>2026-04-17T09:56:54.977Z</time></trkpt><trkpt lat="33.5737268" lon="9.6893345"><ele>194.0</ele><time>2026-04-17T09:56:55.975Z</time></trkpt><trkpt lat="33.5737872" lon="9.689101"><ele>193.33333333333334</ele><time>2026-04-17T09:56:56.982Z</time></trkpt><trkpt lat="33.5738484" lon="9.6888673"><ele>192.66666666666669</ele><time>2026-04-17T09:56:57.983Z</time></trkpt><trkpt lat="33.5739094" lon="9.6886296"><ele>192.0</ele><time>2026-04-17T09:56:59Z</time></trkpt><trkpt lat="33.5739738" lon="9.6883906"><ele>191.33333333333334</ele><time>2026-04-17T09:56:59.982Z</time></trkpt><trkpt lat="33.5740431" lon="9.688158"><ele>190.66666666666669</ele><time>2026-04-17T09:57:00.969Z</time></trkpt><trkpt lat="33.5741138" lon="9.687929"><ele>190.0</ele><time>2026-04-17T09:57:01.987Z</time></trkpt><trkpt lat="33.574185" lon="9.6877057"><ele>190.0</ele><time>2026-04-17T09:57:02.985Z</time></trkpt><trkpt lat="33.5742577" lon="9.6874886"><ele>190.0</ele><time>2026-04-17T09:57:03.974Z</time></trkpt><trkpt lat="33.5743272" lon="9.6872833"><ele>190.0</ele><time>2026-04-17T09:57:04.971Z</time></trkpt><trkpt lat="33.5743914" lon="9.687092"><ele>190.0</ele><time>2026-04-17T09:57:05.97Z</time></trkpt><trkpt lat="33.5744513" lon="9.6869157"><ele>190.0</ele><time>2026-04-17T09:57:06.963Z</time></trkpt><trkpt lat="33.5745067" lon="9.6867518"><ele>190.0</ele><time>2026-04-17T09:57:07.982Z</time></trkpt><trkpt lat="33.5745572" lon="9.6865958"><ele>190.0</ele><time>2026-04-17T09:57:08.965Z</time></trkpt><trkpt lat="33.5746076" lon="9.6864514"><ele>190.0</ele><time>2026-04-17T09:57:09.965Z</time></trkpt><trkpt lat="33.5746569" lon="9.686315"><ele>190.0</ele><time>2026-04-17T09:57:10.96Z</time></trkpt><trkpt lat="33.5747038" lon="9.6861837"><ele>190.0</ele><time>2026-04-17T09:57:11.958Z</time></trkpt><trkpt lat="33.5747506" lon="9.6860569"><ele>190.0</ele><time>2026-04-17T09:57:12.969Z</time></trkpt><trkpt lat="33.5747977" lon="9.6859287"><ele>190.2</ele><time>2026-04-17T09:57:13.959Z</time></trkpt><trkpt lat="33.5748436" lon="9.68581"><ele>190.4</ele><time>2026-04-17T09:57:14.956Z</time></trkpt><trkpt lat="33.5748844" lon="9.6857076"><ele>190.60000000000002</ele><time>2026-04-17T09:57:15.954Z</time></trkpt><trkpt lat="33.5749147" lon="9.6856261"><ele>190.8</ele><time>2026-04-17T09:57:16.969Z</time></trkpt><trkpt lat="33.5749191" lon="9.6855019"><ele>191.0</ele><time>2026-04-17T09:57:18.954Z</time></trkpt><trkpt lat="33.5748488" lon="9.685405"><ele>191.0</ele><time>2026-04-17T09:57:20.935Z</time></trkpt><trkpt lat="33.5747862" lon="9.6853159"><ele>191.0</ele><time>2026-04-17T09:57:22.955Z</time></trkpt><trkpt lat="33.57473" lon="9.6852177"><ele>191.0</ele><time>2026-04-17T09:57:24.969Z</time></trkpt><trkpt lat="33.5746999" lon="9.6851433"><ele>191.0</ele><time>2026-04-17T09:57:26.977Z</time></trkpt><trkpt lat="33.574679" lon="9.6850676"><ele>191.0</ele><time>2026-04-17T09:57:31.957Z</time></trkpt><trkpt lat="33.5746584" lon="9.6849706"><ele>191.0</ele><time>2026-04-17T09:57:39.96Z</time></trkpt><trkpt lat="33.5746657" lon="9.6851276"><ele>191.0</ele><time>2026-04-17T10:17:48.853Z</time></trkpt><trkpt lat="33.5747177" lon="9.6851734"><ele>191.0</ele><time>2026-04-17T10:17:56.862Z</time></trkpt><trkpt lat="33.5747561" lon="9.6851089"><ele>191.0</ele><time>2026-04-17T10:18:04.869Z</time></trkpt><trkpt lat="33.5747035" lon="9.6851704"><ele>191.0</ele><time>2026-04-17T10:25:26.872Z</time></trkpt><trkpt lat="33.5746575" lon="9.6852286"><ele>191.0</ele><time>2026-04-17T10:27:45.865Z</time></trkpt><trkpt lat="33.5746704" lon="9.6853253"><ele>191.0</ele><time>2026-04-17T10:27:48.868Z</time></trkpt><trkpt lat="33.5747144" lon="9.6853922"><ele>191.0</ele><time>2026-04-17T10:28:05.863Z</time></trkpt><trkpt lat="33.5747867" lon="9.6854351"><ele>191.0</ele><time>2026-04-17T10:28:19.859Z</time></trkpt><trkpt lat="33.5748368" lon="9.6855055"><ele>191.0</ele><time>2026-04-17T10:28:21.863Z</time></trkpt><trkpt lat="33.5749229" lon="9.6855609"><ele>191.0</ele><time>2026-04-17T10:28:23.864Z</time></trkpt><trkpt lat="33.5750284" lon="9.6856169"><ele>191.0</ele><time>2026-04-17T10:28:25.856Z</time></trkpt><trkpt lat="33.5751356" lon="9.6856908"><ele>191.0</ele><time>2026-04-17T10:28:27.858Z</time></trkpt><trkpt lat="33.5751883" lon="9.6857429"><ele>191.0</ele><time>2026-04-17T10:28:28.867Z</time></trkpt><trkpt lat="33.5752428" lon="9.6857909"><ele>191.0</ele><time>2026-04-17T10:28:29.86Z</time></trkpt><trkpt lat="33.575306" lon="9.6858339"><ele>191.0</ele><time>2026-04-17T10:28:30.857Z</time></trkpt><trkpt lat="33.5753634" lon="9.6858754"><ele>191.0</ele><time>2026-04-17T10:28:31.858Z</time></trkpt><trkpt lat="33.5754225" lon="9.6859068"><ele>191.0</ele><time>2026-04-17T10:28:32.852Z</time></trkpt><trkpt lat="33.5754879" lon="9.6859452"><ele>191.0</ele><time>2026-04-17T10:28:33.853Z</time></trkpt><trkpt lat="33.5755518" lon="9.6859883"><ele>191.0</ele><time>2026-04-17T10:28:34.854Z</time></trkpt><trkpt lat="33.5756201" lon="9.6860267"><ele>191.0</ele><time>2026-04-17T10:28:35.852Z</time></trkpt><trkpt lat="33.5756956" lon="9.6860706"><ele>191.0</ele><time>2026-04-17T10:28:36.861Z</time></trkpt><trkpt lat="33.5757894" lon="9.6861241"><ele>191.0</ele><time>2026-04-17T10:28:37.856Z</time></trkpt><trkpt lat="33.5758848" lon="9.6861745"><ele>191.0</ele><time>2026-04-17T10:28:38.855Z</time></trkpt><trkpt lat="33.5759837" lon="9.6862259"><ele>191.0</ele><time>2026-04-17T10:28:39.857Z</time></trkpt><trkpt lat="33.5760828" lon="9.6862896"><ele>191.0</ele><time>2026-04-17T10:28:40.857Z</time></trkpt><trkpt lat="33.5761914" lon="9.6863682"><ele>191.0</ele><time>2026-04-17T10:28:41.849Z</time></trkpt><trkpt lat="33.5763097" lon="9.6864533"><ele>191.0</ele><time>2026-04-17T10:28:42.85Z</time></trkpt><trkpt lat="33.5764367" lon="9.6865416"><ele>191.0</ele><time>2026-04-17T10:28:43.848Z</time></trkpt><trkpt lat="33.5765776" lon="9.6866263"><ele>191.0</ele><time>2026-04-17T10:28:44.854Z</time></trkpt><trkpt lat="33.5767133" lon="9.6867209"><ele>191.0</ele><time>2026-04-17T10:28:45.854Z</time></trkpt><trkpt lat="33.5768452" lon="9.6868145"><ele>191.0</ele><time>2026-04-17T10:28:46.853Z</time></trkpt><trkpt lat="33.5769771" lon="9.6869054"><ele>190.66666666666666</ele><time>2026-04-17T10:28:47.857Z</time></trkpt><trkpt lat="33.5771131" lon="9.686997"><ele>190.33333333333334</ele><time>2026-04-17T10:28:48.855Z</time></trkpt><trkpt lat="33.577262" lon="9.6870874"><ele>190.0</ele><time>2026-04-17T10:28:49.857Z</time></trkpt><trkpt lat="33.5774075" lon="9.6871893"><ele>190.0</ele><time>2026-04-17T10:28:50.856Z</time></trkpt><trkpt lat="33.5775543" lon="9.6872913"><ele>190.0</ele><time>2026-04-17T10:28:51.856Z</time></trkpt><trkpt lat="33.5777049" lon="9.6873948"><ele>190.0</ele><time>2026-04-17T10:28:52.858Z</time></trkpt><trkpt lat="33.5778614" lon="9.6874921"><ele>190.0</ele><time>2026-04-17T10:28:53.854Z</time></trkpt><trkpt lat="33.5780211" lon="9.6875953"><ele>190.0</ele><time>2026-04-17T10:28:54.854Z</time></trkpt><trkpt lat="33.5781816" lon="9.687691"><ele>190.0</ele><time>2026-04-17T10:28:55.851Z</time></trkpt><trkpt lat="33.5783253" lon="9.6877912"><ele>190.0</ele><time>2026-04-17T10:28:56.856Z</time></trkpt><trkpt lat="33.5784983" lon="9.6879082"><ele>190.0</ele><time>2026-04-17T10:28:57.854Z</time></trkpt><trkpt lat="33.5786642" lon="9.6880119"><ele>190.0</ele><time>2026-04-17T10:28:58.866Z</time></trkpt><trkpt lat="33.5788174" lon="9.6881269"><ele>190.0</ele><time>2026-04-17T10:28:59.859Z</time></trkpt><trkpt lat="33.5789738" lon="9.6882278"><ele>190.0</ele><time>2026-04-17T10:29:00.859Z</time></trkpt><trkpt lat="33.5791417" lon="9.6883415"><ele>190.0</ele><time>2026-04-17T10:29:01.855Z</time></trkpt><trkpt lat="33.5793006" lon="9.6884635"><ele>190.0</ele><time>2026-04-17T10:29:02.849Z</time></trkpt><trkpt lat="33.5794586" lon="9.6885812"><ele>190.0</ele><time>2026-04-17T10:29:03.854Z</time></trkpt><trkpt lat="33.5796122" lon="9.6886782"><ele>190.0</ele><time>2026-04-17T10:29:04.86Z</time></trkpt><trkpt lat="33.5797703" lon="9.6887964"><ele>191.0</ele><time>2026-04-17T10:29:05.852Z</time></trkpt><trkpt lat="33.5799206" lon="9.6889146"><ele>192.0</ele><time>2026-04-17T10:29:06.862Z</time></trkpt><trkpt lat="33.5800806" lon="9.689012"><ele>193.0</ele><time>2026-04-17T10:29:07.856Z</time></trkpt><trkpt lat="33.5802597" lon="9.689123"><ele>193.66666666666666</ele><time>2026-04-17T10:29:08.853Z</time></trkpt><trkpt lat="33.5804231" lon="9.6892334"><ele>194.33333333333331</ele><time>2026-04-17T10:29:09.858Z</time></trkpt><trkpt lat="33.5805915" lon="9.6893309"><ele>195.0</ele><time>2026-04-17T10:29:10.855Z</time></trkpt><trkpt lat="33.580739" lon="9.6894314"><ele>195.66666666666669</ele><time>2026-04-17T10:29:11.858Z</time></trkpt><trkpt lat="33.5809053" lon="9.6895492"><ele>196.33333333333334</ele><time>2026-04-17T10:29:12.858Z</time></trkpt><trkpt lat="33.5810736" lon="9.6896753"><ele>197.0</ele><time>2026-04-17T10:29:13.859Z</time></trkpt><trkpt lat="33.5812501" lon="9.689789"><ele>197.0</ele><time>2026-04-17T10:29:14.853Z</time></trkpt><trkpt lat="33.5814352" lon="9.6898996"><ele>197.0</ele><time>2026-04-17T10:29:15.861Z</time></trkpt><trkpt lat="33.5816088" lon="9.6900205"><ele>197.0</ele><time>2026-04-17T10:29:16.855Z</time></trkpt><trkpt lat="33.5817801" lon="9.6901324"><ele>197.0</ele><time>2026-04-17T10:29:17.861Z</time></trkpt><trkpt lat="33.5819662" lon="9.6902492"><ele>197.0</ele><time>2026-04-17T10:29:18.857Z</time></trkpt><trkpt lat="33.5821488" lon="9.6903692"><ele>197.0</ele><time>2026-04-17T10:29:19.855Z</time></trkpt><trkpt lat="33.5823323" lon="9.6904894"><ele>197.0</ele><time>2026-04-17T10:29:20.85Z</time></trkpt><trkpt lat="33.5825199" lon="9.6906125"><ele>197.0</ele><time>2026-04-17T10:29:21.856Z</time></trkpt><trkpt lat="33.5826929" lon="9.6907362"><ele>197.0</ele><time>2026-04-17T10:29:22.85Z</time></trkpt><trkpt lat="33.5828632" lon="9.6908553"><ele>197.0</ele><time>2026-04-17T10:29:23.861Z</time></trkpt><trkpt lat="33.5830282" lon="9.69098"><ele>197.0</ele><time>2026-04-17T10:29:24.857Z</time></trkpt><trkpt lat="33.5831984" lon="9.6911059"><ele>197.0</ele><time>2026-04-17T10:29:25.855Z</time></trkpt><trkpt lat="33.5833947" lon="9.6912233"><ele>197.33333333333334</ele><time>2026-04-17T10:29:26.854Z</time></trkpt><trkpt lat="33.5835889" lon="9.6913378"><ele>197.66666666666669</ele><time>2026-04-17T10:29:27.853Z</time></trkpt><trkpt lat="33.5837549" lon="9.6914481"><ele>198.0</ele><time>2026-04-17T10:29:28.856Z</time></trkpt><trkpt lat="33.5839188" lon="9.6915586"><ele>198.33333333333331</ele><time>2026-04-17T10:29:29.856Z</time></trkpt><trkpt lat="33.5840862" lon="9.6916707"><ele>198.66666666666666</ele><time>2026-04-17T10:29:30.849Z</time></trkpt><trkpt lat="33.5842643" lon="9.6917977"><ele>199.0</ele><time>2026-04-17T10:29:31.858Z</time></trkpt><trkpt lat="33.5844341" lon="9.6919022"><ele>199.33333333333331</ele><time>2026-04-17T10:29:32.851Z</time></trkpt><trkpt lat="33.5846068" lon="9.6920082"><ele>199.66666666666669</ele><time>2026-04-17T10:29:33.849Z</time></trkpt><trkpt lat="33.5847857" lon="9.6921261"><ele>200.0</ele><time>2026-04-17T10:29:34.851Z</time></trkpt><trkpt lat="33.5849681" lon="9.6922484"><ele>200.0</ele><time>2026-04-17T10:29:35.847Z</time></trkpt><trkpt lat="33.5851394" lon="9.6923635"><ele>200.0</ele><time>2026-04-17T10:29:36.855Z</time></trkpt><trkpt lat="33.5853124" lon="9.69248"><ele>200.0</ele><time>2026-04-17T10:29:37.856Z</time></trkpt><trkpt lat="33.5854824" lon="9.6925958"><ele>200.0</ele><time>2026-04-17T10:29:38.856Z</time></trkpt><trkpt lat="33.5856561" lon="9.692716"><ele>200.0</ele><time>2026-04-17T10:29:39.854Z</time></trkpt><trkpt lat="33.5858292" lon="9.6928316"><ele>200.0</ele><time>2026-04-17T10:29:40.856Z</time></trkpt><trkpt lat="33.5860043" lon="9.6929506"><ele>200.0</ele><time>2026-04-17T10:29:41.855Z</time></trkpt><trkpt lat="33.5861775" lon="9.6930595"><ele>200.0</ele><time>2026-04-17T10:29:42.85Z</time></trkpt><trkpt lat="33.5863542" lon="9.6931775"><ele>200.0</ele><time>2026-04-17T10:29:43.857Z</time></trkpt><trkpt lat="33.5865324" lon="9.6932904"><ele>200.0</ele><time>2026-04-17T10:29:44.851Z</time></trkpt><trkpt lat="33.586711" lon="9.6933929"><ele>200.0</ele><time>2026-04-17T10:29:45.855Z</time></trkpt><trkpt lat="33.5868902" lon="9.6935129"><ele>200.0</ele><time>2026-04-17T10:29:46.852Z</time></trkpt><trkpt lat="33.5870624" lon="9.6936275"><ele>199.66666666666669</ele><time>2026-04-17T10:29:47.856Z</time></trkpt><trkpt lat="33.5872313" lon="9.693741"><ele>199.33333333333331</ele><time>2026-04-17T10:29:48.848Z</time></trkpt><trkpt lat="33.5874019" lon="9.6938539"><ele>199.0</ele><time>2026-04-17T10:29:49.856Z</time></trkpt><trkpt lat="33.5875768" lon="9.6939703"><ele>199.0</ele><time>2026-04-17T10:29:50.849Z</time></trkpt><trkpt lat="33.5877632" lon="9.6940843"><ele>199.0</ele><time>2026-04-17T10:29:51.858Z</time></trkpt><trkpt lat="33.5879476" lon="9.6941983"><ele>199.0</ele><time>2026-04-17T10:29:52.848Z</time></trkpt><trkpt lat="33.5881122" lon="9.6943119"><ele>199.33333333333331</ele><time>2026-04-17T10:29:53.856Z</time></trkpt><trkpt lat="33.5882845" lon="9.6944248"><ele>199.66666666666669</ele><time>2026-04-17T10:29:54.854Z</time></trkpt><trkpt lat="33.5884539" lon="9.6945399"><ele>200.0</ele><time>2026-04-17T10:29:55.861Z</time></trkpt><trkpt lat="33.5886237" lon="9.6946526"><ele>199.0</ele><time>2026-04-17T10:29:56.865Z</time></trkpt><trkpt lat="33.5887952" lon="9.6947694"><ele>198.0</ele><time>2026-04-17T10:29:57.856Z</time></trkpt><trkpt lat="33.5889754" lon="9.6948855"><ele>197.0</ele><time>2026-04-17T10:29:58.862Z</time></trkpt><trkpt lat="33.5891488" lon="9.6949907"><ele>197.0</ele><time>2026-04-17T10:29:59.86Z</time></trkpt><trkpt lat="33.5893255" lon="9.6951122"><ele>197.0</ele><time>2026-04-17T10:30:00.854Z</time></trkpt><trkpt lat="33.5895014" lon="9.6952412"><ele>197.0</ele><time>2026-04-17T10:30:01.855Z</time></trkpt><trkpt lat="33.5896763" lon="9.6953679"><ele>198.66666666666669</ele><time>2026-04-17T10:30:02.85Z</time></trkpt><trkpt lat="33.5898577" lon="9.6955098"><ele>200.33333333333331</ele><time>2026-04-17T10:30:03.848Z</time></trkpt><trkpt lat="33.5900195" lon="9.6956344"><ele>202.0</ele><time>2026-04-17T10:30:04.852Z</time></trkpt><trkpt lat="33.5902065" lon="9.6957469"><ele>203.0</ele><time>2026-04-17T10:30:05.854Z</time></trkpt><trkpt lat="33.5903853" lon="9.6958605"><ele>204.0</ele><time>2026-04-17T10:30:06.852Z</time></trkpt><trkpt lat="33.5905729" lon="9.6959829"><ele>205.0</ele><time>2026-04-17T10:30:07.859Z</time></trkpt><trkpt lat="33.5907504" lon="9.6961247"><ele>205.33333333333331</ele><time>2026-04-17T10:30:08.854Z</time></trkpt><trkpt lat="33.590934" lon="9.6962552"><ele>205.66666666666669</ele><time>2026-04-17T10:30:09.904Z</time></trkpt><trkpt lat="33.5911261" lon="9.6963821"><ele>206.0</ele><time>2026-04-17T10:30:10.854Z</time></trkpt><trkpt lat="33.5913207" lon="9.6964914"><ele>206.33333333333334</ele><time>2026-04-17T10:30:11.858Z</time></trkpt><trkpt lat="33.5914967" lon="9.6966052"><ele>206.66666666666669</ele><time>2026-04-17T10:30:12.854Z</time></trkpt><trkpt lat="33.5916729" lon="9.6967183"><ele>207.0</ele><time>2026-04-17T10:30:13.852Z</time></trkpt><trkpt lat="33.5918391" lon="9.6968303"><ele>205.66666666666669</ele><time>2026-04-17T10:30:14.859Z</time></trkpt><trkpt lat="33.5920116" lon="9.6969469"><ele>204.33333333333334</ele><time>2026-04-17T10:30:15.853Z</time></trkpt><trkpt lat="33.5921861" lon="9.6970605"><ele>203.0</ele><time>2026-04-17T10:30:16.86Z</time></trkpt><trkpt lat="33.5923596" lon="9.6971841"><ele>203.0</ele><time>2026-04-17T10:30:17.856Z</time></trkpt><trkpt lat="33.5925361" lon="9.6973052"><ele>203.0</ele><time>2026-04-17T10:30:18.852Z</time></trkpt><trkpt lat="33.59272" lon="9.697426"><ele>203.0</ele><time>2026-04-17T10:30:19.853Z</time></trkpt><trkpt lat="33.5929043" lon="9.6975434"><ele>203.33333333333334</ele><time>2026-04-17T10:30:20.854Z</time></trkpt><trkpt lat="33.5930864" lon="9.6976555"><ele>203.66666666666669</ele><time>2026-04-17T10:30:21.86Z</time></trkpt><trkpt lat="33.5932649" lon="9.697775"><ele>204.0</ele><time>2026-04-17T10:30:22.856Z</time></trkpt><trkpt lat="33.5934354" lon="9.6978996"><ele>204.0</ele><time>2026-04-17T10:30:23.86Z</time></trkpt><trkpt lat="33.5936149" lon="9.6980101"><ele>204.0</ele><time>2026-04-17T10:30:24.856Z</time></trkpt><trkpt lat="33.5937885" lon="9.6981238"><ele>204.0</ele><time>2026-04-17T10:30:25.858Z</time></trkpt><trkpt lat="33.5939624" lon="9.6982457"><ele>204.66666666666669</ele><time>2026-04-17T10:30:26.869Z</time></trkpt><trkpt lat="33.5941179" lon="9.6983507"><ele>205.33333333333334</ele><time>2026-04-17T10:30:27.871Z</time></trkpt><trkpt lat="33.5942748" lon="9.6984536"><ele>206.0</ele><time>2026-04-17T10:30:28.877Z</time></trkpt><trkpt lat="33.5944315" lon="9.6985621"><ele>206.66666666666669</ele><time>2026-04-17T10:30:29.867Z</time></trkpt><trkpt lat="33.5945834" lon="9.6986728"><ele>207.33333333333331</ele><time>2026-04-17T10:30:30.874Z</time></trkpt><trkpt lat="33.5947574" lon="9.6987825"><ele>208.0</ele><time>2026-04-17T10:30:31.867Z</time></trkpt><trkpt lat="33.5949285" lon="9.6988864"><ele>208.0</ele><time>2026-04-17T10:30:32.868Z</time></trkpt><trkpt lat="33.595094" lon="9.6990031"><ele>208.0</ele><time>2026-04-17T10:30:33.87Z</time></trkpt><trkpt lat="33.5952845" lon="9.6991239"><ele>208.0</ele><time>2026-04-17T10:30:34.866Z</time></trkpt><trkpt lat="33.5954643" lon="9.6992452"><ele>208.0</ele><time>2026-04-17T10:30:35.869Z</time></trkpt><trkpt lat="33.5956561" lon="9.6993589"><ele>208.0</ele><time>2026-04-17T10:30:36.861Z</time></trkpt><trkpt lat="33.5958432" lon="9.6994709"><ele>208.0</ele><time>2026-04-17T10:30:37.856Z</time></trkpt><trkpt lat="33.5960267" lon="9.6995837"><ele>208.66666666666666</ele><time>2026-04-17T10:30:38.857Z</time></trkpt><trkpt lat="33.5962086" lon="9.6997077"><ele>209.33333333333331</ele><time>2026-04-17T10:30:39.855Z</time></trkpt><trkpt lat="33.5963913" lon="9.6998247"><ele>210.0</ele><time>2026-04-17T10:30:40.858Z</time></trkpt><trkpt lat="33.5965638" lon="9.6999448"><ele>210.0</ele><time>2026-04-17T10:30:41.859Z</time></trkpt><trkpt lat="33.5967369" lon="9.7000693"><ele>210.0</ele><time>2026-04-17T10:30:42.854Z</time></trkpt><trkpt lat="33.5969207" lon="9.7001948"><ele>210.0</ele><time>2026-04-17T10:30:43.851Z</time></trkpt><trkpt lat="33.5971045" lon="9.7003062"><ele>209.66666666666669</ele><time>2026-04-17T10:30:44.859Z</time></trkpt><trkpt lat="33.5972857" lon="9.7004291"><ele>209.33333333333334</ele><time>2026-04-17T10:30:45.852Z</time></trkpt><trkpt lat="33.5974674" lon="9.7005506"><ele>209.0</ele><time>2026-04-17T10:30:46.857Z</time></trkpt><trkpt lat="33.5976413" lon="9.7006755"><ele>209.0</ele><time>2026-04-17T10:30:47.858Z</time></trkpt><trkpt lat="33.5978194" lon="9.7008018"><ele>209.0</ele><time>2026-04-17T10:30:48.854Z</time></trkpt><trkpt lat="33.5979982" lon="9.7009375"><ele>209.0</ele><time>2026-04-17T10:30:49.854Z</time></trkpt><trkpt lat="33.598172" lon="9.701053"><ele>209.0</ele><time>2026-04-17T10:30:50.862Z</time></trkpt><trkpt lat="33.5983602" lon="9.701179"><ele>209.0</ele><time>2026-04-17T10:30:51.856Z</time></trkpt><trkpt lat="33.5985374" lon="9.7012889"><ele>209.0</ele><time>2026-04-17T10:30:52.859Z</time></trkpt><trkpt lat="33.5987289" lon="9.7014063"><ele>209.0</ele><time>2026-04-17T10:30:53.857Z</time></trkpt><trkpt lat="33.598906" lon="9.7015308"><ele>209.0</ele><time>2026-04-17T10:30:54.853Z</time></trkpt><trkpt lat="33.5990815" lon="9.7016536"><ele>209.0</ele><time>2026-04-17T10:30:55.852Z</time></trkpt><trkpt lat="33.599256" lon="9.7017658"><ele>209.0</ele><time>2026-04-17T10:30:56.858Z</time></trkpt><trkpt lat="33.5994274" lon="9.7018841"><ele>209.0</ele><time>2026-04-17T10:30:57.858Z</time></trkpt><trkpt lat="33.5996101" lon="9.7020003"><ele>209.0</ele><time>2026-04-17T10:30:58.86Z</time></trkpt><trkpt lat="33.5997914" lon="9.7021274"><ele>210.0</ele><time>2026-04-17T10:30:59.856Z</time></trkpt><trkpt lat="33.5999603" lon="9.7022637"><ele>211.0</ele><time>2026-04-17T10:31:00.854Z</time></trkpt><trkpt lat="33.6001246" lon="9.7023828"><ele>212.0</ele><time>2026-04-17T10:31:01.857Z</time></trkpt><trkpt lat="33.6002836" lon="9.7025233"><ele>211.66666666666669</ele><time>2026-04-17T10:31:02.857Z</time></trkpt><trkpt lat="33.6004355" lon="9.7026633"><ele>211.33333333333331</ele><time>2026-04-17T10:31:03.85Z</time></trkpt><trkpt lat="33.6006106" lon="9.7028066"><ele>211.0</ele><time>2026-04-17T10:31:04.854Z</time></trkpt><trkpt lat="33.6007751" lon="9.7029482"><ele>211.0</ele><time>2026-04-17T10:31:05.85Z</time></trkpt><trkpt lat="33.6009409" lon="9.7030926"><ele>211.0</ele><time>2026-04-17T10:31:06.852Z</time></trkpt><trkpt lat="33.6011042" lon="9.7032356"><ele>211.0</ele><time>2026-04-17T10:31:07.857Z</time></trkpt><trkpt lat="33.6012721" lon="9.7033778"><ele>210.66666666666666</ele><time>2026-04-17T10:31:08.854Z</time></trkpt><trkpt lat="33.6014215" lon="9.703516"><ele>210.33333333333331</ele><time>2026-04-17T10:31:09.861Z</time></trkpt><trkpt lat="33.6015898" lon="9.703651"><ele>210.0</ele><time>2026-04-17T10:31:10.864Z</time></trkpt><trkpt lat="33.6017538" lon="9.7037855"><ele>209.66666666666669</ele><time>2026-04-17T10:31:11.857Z</time></trkpt><trkpt lat="33.6019106" lon="9.7039248"><ele>209.33333333333334</ele><time>2026-04-17T10:31:12.864Z</time></trkpt><trkpt lat="33.6020628" lon="9.704067"><ele>209.0</ele><time>2026-04-17T10:31:13.857Z</time></trkpt><trkpt lat="33.6022138" lon="9.7042088"><ele>209.66666666666669</ele><time>2026-04-17T10:31:14.857Z</time></trkpt><trkpt lat="33.6023733" lon="9.7043479"><ele>210.33333333333331</ele><time>2026-04-17T10:31:15.851Z</time></trkpt><trkpt lat="33.6025393" lon="9.7044821"><ele>211.0</ele><time>2026-04-17T10:31:16.85Z</time></trkpt><trkpt lat="33.6026889" lon="9.7046194"><ele>211.0</ele><time>2026-04-17T10:31:17.856Z</time></trkpt><trkpt lat="33.6028478" lon="9.7047489"><ele>211.0</ele><time>2026-04-17T10:31:18.849Z</time></trkpt><trkpt lat="33.6030128" lon="9.7048709"><ele>211.0</ele><time>2026-04-17T10:31:19.857Z</time></trkpt><trkpt lat="33.6031699" lon="9.7050023"><ele>211.0</ele><time>2026-04-17T10:31:20.853Z</time></trkpt><trkpt lat="33.6033169" lon="9.7051178"><ele>211.0</ele><time>2026-04-17T10:31:21.861Z</time></trkpt><trkpt lat="33.6034571" lon="9.7052516"><ele>211.0</ele><time>2026-04-17T10:31:22.853Z</time></trkpt><trkpt lat="33.6036003" lon="9.7053846"><ele>210.66666666666666</ele><time>2026-04-17T10:31:23.859Z</time></trkpt><trkpt lat="33.6037507" lon="9.7055252"><ele>210.33333333333331</ele><time>2026-04-17T10:31:24.856Z</time></trkpt><trkpt lat="33.6038944" lon="9.7056611"><ele>210.0</ele><time>2026-04-17T10:31:25.857Z</time></trkpt><trkpt lat="33.6040412" lon="9.705788"><ele>210.0</ele><time>2026-04-17T10:31:26.865Z</time></trkpt><trkpt lat="33.604198" lon="9.7059082"><ele>210.0</ele><time>2026-04-17T10:31:27.859Z</time></trkpt><trkpt lat="33.6043647" lon="9.7060489"><ele>210.0</ele><time>2026-04-17T10:31:28.859Z</time></trkpt><trkpt lat="33.6045161" lon="9.706174"><ele>211.0</ele><time>2026-04-17T10:31:29.86Z</time></trkpt><trkpt lat="33.604661" lon="9.7063102"><ele>212.0</ele><time>2026-04-17T10:31:30.856Z</time></trkpt><trkpt lat="33.6048001" lon="9.7064468"><ele>213.0</ele><time>2026-04-17T10:31:31.857Z</time></trkpt><trkpt lat="33.6049446" lon="9.7065926"><ele>213.0</ele><time>2026-04-17T10:31:32.857Z</time></trkpt><trkpt lat="33.6051034" lon="9.7067367"><ele>213.0</ele><time>2026-04-17T10:31:33.856Z</time></trkpt><trkpt lat="33.6052518" lon="9.7068698"><ele>213.0</ele><time>2026-04-17T10:31:34.865Z</time></trkpt><trkpt lat="33.6054228" lon="9.7070085"><ele>213.33333333333331</ele><time>2026-04-17T10:31:35.856Z</time></trkpt><trkpt lat="33.6055788" lon="9.707151"><ele>213.66666666666666</ele><time>2026-04-17T10:31:36.857Z</time></trkpt><trkpt lat="33.6057242" lon="9.7072945"><ele>214.0</ele><time>2026-04-17T10:31:37.852Z</time></trkpt><trkpt lat="33.605872" lon="9.7074385"><ele>214.0</ele><time>2026-04-17T10:31:38.854Z</time></trkpt><trkpt lat="33.6060363" lon="9.7075879"><ele>214.0</ele><time>2026-04-17T10:31:39.85Z</time></trkpt><trkpt lat="33.6062071" lon="9.7077298"><ele>214.0</ele><time>2026-04-17T10:31:40.853Z</time></trkpt><trkpt lat="33.6063795" lon="9.7078663"><ele>214.33333333333331</ele><time>2026-04-17T10:31:41.853Z</time></trkpt><trkpt lat="33.6065424" lon="9.7080117"><ele>214.66666666666669</ele><time>2026-04-17T10:31:42.848Z</time></trkpt><trkpt lat="33.6067138" lon="9.7081658"><ele>215.0</ele><time>2026-04-17T10:31:43.856Z</time></trkpt><trkpt lat="33.606867" lon="9.7083107"><ele>214.66666666666669</ele><time>2026-04-17T10:31:44.849Z</time></trkpt><trkpt lat="33.6070225" lon="9.7084475"><ele>214.33333333333331</ele><time>2026-04-17T10:31:45.854Z</time></trkpt><trkpt lat="33.6071874" lon="9.7085896"><ele>214.0</ele><time>2026-04-17T10:31:46.846Z</time></trkpt><trkpt lat="33.6073613" lon="9.7087295"><ele>214.0</ele><time>2026-04-17T10:31:47.853Z</time></trkpt><trkpt lat="33.6075343" lon="9.7088686"><ele>214.0</ele><time>2026-04-17T10:31:48.85Z</time></trkpt><trkpt lat="33.6077153" lon="9.7090152"><ele>214.0</ele><time>2026-04-17T10:31:49.85Z</time></trkpt><trkpt lat="33.6078718" lon="9.7091531"><ele>213.66666666666666</ele><time>2026-04-17T10:31:50.854Z</time></trkpt><trkpt lat="33.6080414" lon="9.7092776"><ele>213.33333333333331</ele><time>2026-04-17T10:31:51.845Z</time></trkpt><trkpt lat="33.6082041" lon="9.7094178"><ele>213.0</ele><time>2026-04-17T10:31:52.853Z</time></trkpt><trkpt lat="33.6083649" lon="9.7095615"><ele>213.0</ele><time>2026-04-17T10:31:53.856Z</time></trkpt><trkpt lat="33.6085265" lon="9.7097132"><ele>213.0</ele><time>2026-04-17T10:31:54.85Z</time></trkpt><trkpt lat="33.6086932" lon="9.7098685"><ele>213.0</ele><time>2026-04-17T10:31:55.86Z</time></trkpt><trkpt lat="33.608859" lon="9.7100176"><ele>212.33333333333331</ele><time>2026-04-17T10:31:56.857Z</time></trkpt><trkpt lat="33.6090387" lon="9.7101527"><ele>211.66666666666666</ele><time>2026-04-17T10:31:57.85Z</time></trkpt><trkpt lat="33.6092174" lon="9.7103024"><ele>211.0</ele><time>2026-04-17T10:31:58.859Z</time></trkpt><trkpt lat="33.6094051" lon="9.7104502"><ele>209.5</ele><time>2026-04-17T10:31:59.853Z</time></trkpt><trkpt lat="33.6095964" lon="9.710619"><ele>208.0</ele><time>2026-04-17T10:32:00.853Z</time></trkpt><trkpt lat="33.6097828" lon="9.7107833"><ele>208.0</ele><time>2026-04-17T10:32:01.852Z</time></trkpt><trkpt lat="33.6099542" lon="9.7109377"><ele>208.0</ele><time>2026-04-17T10:32:02.851Z</time></trkpt><trkpt lat="33.6101304" lon="9.7110798"><ele>208.0</ele><time>2026-04-17T10:32:03.853Z</time></trkpt><trkpt lat="33.6103185" lon="9.7112198"><ele>207.33333333333331</ele><time>2026-04-17T10:32:04.857Z</time></trkpt><trkpt lat="33.6105035" lon="9.7113702"><ele>206.66666666666669</ele><time>2026-04-17T10:32:05.857Z</time></trkpt><trkpt lat="33.610674" lon="9.7115043"><ele>206.0</ele><time>2026-04-17T10:32:06.853Z</time></trkpt><trkpt lat="33.6108394" lon="9.7116494"><ele>206.0</ele><time>2026-04-17T10:32:07.856Z</time></trkpt><trkpt lat="33.6110011" lon="9.7118205"><ele>206.0</ele><time>2026-04-17T10:32:08.856Z</time></trkpt><trkpt lat="33.6111555" lon="9.7119801"><ele>206.0</ele><time>2026-04-17T10:32:09.853Z</time></trkpt><trkpt lat="33.6113158" lon="9.7121348"><ele>205.66666666666669</ele><time>2026-04-17T10:32:10.858Z</time></trkpt><trkpt lat="33.6114821" lon="9.7122868"><ele>205.33333333333331</ele><time>2026-04-17T10:32:11.854Z</time></trkpt><trkpt lat="33.6116599" lon="9.7124208"><ele>205.0</ele><time>2026-04-17T10:32:12.851Z</time></trkpt><trkpt lat="33.6118282" lon="9.7125733"><ele>204.33333333333331</ele><time>2026-04-17T10:32:13.853Z</time></trkpt><trkpt lat="33.6119975" lon="9.7127206"><ele>203.66666666666669</ele><time>2026-04-17T10:32:14.855Z</time></trkpt><trkpt lat="33.6121721" lon="9.7128646"><ele>203.0</ele><time>2026-04-17T10:32:15.856Z</time></trkpt><trkpt lat="33.6123342" lon="9.7130101"><ele>202.0</ele><time>2026-04-17T10:32:16.855Z</time></trkpt><trkpt lat="33.6124954" lon="9.7131519"><ele>201.0</ele><time>2026-04-17T10:32:17.857Z</time></trkpt><trkpt lat="33.612653" lon="9.7132888"><ele>200.0</ele><time>2026-04-17T10:32:18.854Z</time></trkpt><trkpt lat="33.6128214" lon="9.7134337"><ele>200.33333333333334</ele><time>2026-04-17T10:32:19.858Z</time></trkpt><trkpt lat="33.6129929" lon="9.713573"><ele>200.66666666666669</ele><time>2026-04-17T10:32:20.855Z</time></trkpt><trkpt lat="33.613147" lon="9.7137223"><ele>201.0</ele><time>2026-04-17T10:32:21.852Z</time></trkpt><trkpt lat="33.6133105" lon="9.7138789"><ele>201.0</ele><time>2026-04-17T10:32:22.855Z</time></trkpt><trkpt lat="33.6134706" lon="9.7140389"><ele>201.0</ele><time>2026-04-17T10:32:23.857Z</time></trkpt><trkpt lat="33.6136339" lon="9.7141927"><ele>201.0</ele><time>2026-04-17T10:32:24.854Z</time></trkpt><trkpt lat="33.6138123" lon="9.7143359"><ele>201.66666666666669</ele><time>2026-04-17T10:32:25.857Z</time></trkpt><trkpt lat="33.6139795" lon="9.7144922"><ele>202.33333333333334</ele><time>2026-04-17T10:32:26.852Z</time></trkpt><trkpt lat="33.6141457" lon="9.7146281"><ele>203.0</ele><time>2026-04-17T10:32:27.851Z</time></trkpt><trkpt lat="33.6143259" lon="9.7147831"><ele>202.66666666666669</ele><time>2026-04-17T10:32:28.853Z</time></trkpt><trkpt lat="33.6144937" lon="9.7149226"><ele>202.33333333333331</ele><time>2026-04-17T10:32:29.852Z</time></trkpt><trkpt lat="33.614647" lon="9.715081"><ele>202.0</ele><time>2026-04-17T10:32:30.855Z</time></trkpt><trkpt lat="33.6148233" lon="9.7152242"><ele>202.0</ele><time>2026-04-17T10:32:31.853Z</time></trkpt><trkpt lat="33.6149948" lon="9.7153917"><ele>202.0</ele><time>2026-04-17T10:32:32.848Z</time></trkpt><trkpt lat="33.6151739" lon="9.7155448"><ele>202.0</ele><time>2026-04-17T10:32:33.852Z</time></trkpt><trkpt lat="33.6153499" lon="9.7156889"><ele>202.33333333333331</ele><time>2026-04-17T10:32:34.848Z</time></trkpt><trkpt lat="33.6155163" lon="9.7158296"><ele>202.66666666666669</ele><time>2026-04-17T10:32:35.849Z</time></trkpt><trkpt lat="33.6156908" lon="9.7159641"><ele>203.0</ele><time>2026-04-17T10:32:36.851Z</time></trkpt><trkpt lat="33.6158526" lon="9.7161088"><ele>203.0</ele><time>2026-04-17T10:32:37.847Z</time></trkpt><trkpt lat="33.6160126" lon="9.7162575"><ele>203.0</ele><time>2026-04-17T10:32:38.849Z</time></trkpt><trkpt lat="33.6161785" lon="9.7164052"><ele>203.0</ele><time>2026-04-17T10:32:39.853Z</time></trkpt><trkpt lat="33.6163513" lon="9.7165465"><ele>203.0</ele><time>2026-04-17T10:32:40.85Z</time></trkpt><trkpt lat="33.6165368" lon="9.7167066"><ele>203.0</ele><time>2026-04-17T10:32:41.853Z</time></trkpt><trkpt lat="33.6166984" lon="9.7168524"><ele>203.0</ele><time>2026-04-17T10:32:42.848Z</time></trkpt><trkpt lat="33.6168592" lon="9.7169829"><ele>202.66666666666669</ele><time>2026-04-17T10:32:43.854Z</time></trkpt><trkpt lat="33.6170192" lon="9.7171139"><ele>202.33333333333331</ele><time>2026-04-17T10:32:44.847Z</time></trkpt><trkpt lat="33.6171765" lon="9.7172653"><ele>202.0</ele><time>2026-04-17T10:32:45.845Z</time></trkpt><trkpt lat="33.6173277" lon="9.7174147"><ele>202.0</ele><time>2026-04-17T10:32:46.85Z</time></trkpt><trkpt lat="33.6174807" lon="9.7175497"><ele>202.0</ele><time>2026-04-17T10:32:47.855Z</time></trkpt><trkpt lat="33.6176212" lon="9.7177022"><ele>202.0</ele><time>2026-04-17T10:32:48.853Z</time></trkpt><trkpt lat="33.6177827" lon="9.7178517"><ele>201.0</ele><time>2026-04-17T10:32:49.851Z</time></trkpt><trkpt lat="33.617946" lon="9.7180067"><ele>200.0</ele><time>2026-04-17T10:32:50.852Z</time></trkpt><trkpt lat="33.6181072" lon="9.7181607"><ele>199.0</ele><time>2026-04-17T10:32:51.847Z</time></trkpt><trkpt lat="33.618258" lon="9.7183309"><ele>199.0</ele><time>2026-04-17T10:32:52.853Z</time></trkpt><trkpt lat="33.6184105" lon="9.7184976"><ele>199.0</ele><time>2026-04-17T10:32:53.856Z</time></trkpt><trkpt lat="33.6185775" lon="9.7186586"><ele>199.0</ele><time>2026-04-17T10:32:54.849Z</time></trkpt><trkpt lat="33.6187474" lon="9.7188135"><ele>199.33333333333331</ele><time>2026-04-17T10:32:55.856Z</time></trkpt><trkpt lat="33.6189135" lon="9.7189851"><ele>199.66666666666669</ele><time>2026-04-17T10:32:56.856Z</time></trkpt><trkpt lat="33.6190749" lon="9.7191328"><ele>200.0</ele><time>2026-04-17T10:32:57.849Z</time></trkpt><trkpt lat="33.6192243" lon="9.7193009"><ele>199.66666666666669</ele><time>2026-04-17T10:32:58.861Z</time></trkpt><trkpt lat="33.619375" lon="9.7194621"><ele>199.33333333333331</ele><time>2026-04-17T10:32:59.853Z</time></trkpt><trkpt lat="33.6195258" lon="9.7196129"><ele>199.0</ele><time>2026-04-17T10:33:00.853Z</time></trkpt><trkpt lat="33.6196766" lon="9.7197717"><ele>199.0</ele><time>2026-04-17T10:33:01.854Z</time></trkpt><trkpt lat="33.6198145" lon="9.7199398"><ele>199.0</ele><time>2026-04-17T10:33:02.847Z</time></trkpt><trkpt lat="33.619973" lon="9.7200706"><ele>199.0</ele><time>2026-04-17T10:33:03.846Z</time></trkpt><trkpt lat="33.6201256" lon="9.720212"><ele>198.66666666666666</ele><time>2026-04-17T10:33:04.854Z</time></trkpt><trkpt lat="33.6202855" lon="9.7203491"><ele>198.33333333333331</ele><time>2026-04-17T10:33:05.849Z</time></trkpt><trkpt lat="33.620437" lon="9.7205024"><ele>198.0</ele><time>2026-04-17T10:33:06.847Z</time></trkpt><trkpt lat="33.6205964" lon="9.7206466"><ele>198.0</ele><time>2026-04-17T10:33:07.847Z</time></trkpt><trkpt lat="33.6207659" lon="9.7207935"><ele>198.0</ele><time>2026-04-17T10:33:08.841Z</time></trkpt><trkpt lat="33.6209237" lon="9.7209486"><ele>198.0</ele><time>2026-04-17T10:33:09.844Z</time></trkpt><trkpt lat="33.6210808" lon="9.7211092"><ele>197.33333333333331</ele><time>2026-04-17T10:33:10.849Z</time></trkpt><trkpt lat="33.621242" lon="9.7212489"><ele>196.66666666666666</ele><time>2026-04-17T10:33:11.851Z</time></trkpt><trkpt lat="33.6214137" lon="9.7213953"><ele>196.0</ele><time>2026-04-17T10:33:12.85Z</time></trkpt><trkpt lat="33.6215815" lon="9.721542"><ele>196.0</ele><time>2026-04-17T10:33:13.847Z</time></trkpt><trkpt lat="33.6217467" lon="9.7216925"><ele>196.0</ele><time>2026-04-17T10:33:14.847Z</time></trkpt><trkpt lat="33.6219075" lon="9.7218482"><ele>196.0</ele><time>2026-04-17T10:33:15.853Z</time></trkpt><trkpt lat="33.6220728" lon="9.7219981"><ele>196.66666666666666</ele><time>2026-04-17T10:33:16.849Z</time></trkpt><trkpt lat="33.6222393" lon="9.7221375"><ele>197.33333333333331</ele><time>2026-04-17T10:33:17.849Z</time></trkpt><trkpt lat="33.6224183" lon="9.7222615"><ele>198.0</ele><time>2026-04-17T10:33:18.848Z</time></trkpt><trkpt lat="33.6225916" lon="9.7224153"><ele>198.0</ele><time>2026-04-17T10:33:19.849Z</time></trkpt><trkpt lat="33.6227699" lon="9.7225671"><ele>198.0</ele><time>2026-04-17T10:33:20.859Z</time></trkpt><trkpt lat="33.6229548" lon="9.7227156"><ele>198.0</ele><time>2026-04-17T10:33:21.85Z</time></trkpt><trkpt lat="33.6231394" lon="9.7228611"><ele>197.33333333333331</ele><time>2026-04-17T10:33:22.851Z</time></trkpt><trkpt lat="33.6233265" lon="9.7230032"><ele>196.66666666666666</ele><time>2026-04-17T10:33:23.853Z</time></trkpt><trkpt lat="33.6235148" lon="9.7231545"><ele>196.0</ele><time>2026-04-17T10:33:24.856Z</time></trkpt><trkpt lat="33.623705" lon="9.7233169"><ele>196.0</ele><time>2026-04-17T10:33:25.854Z</time></trkpt><trkpt lat="33.6238876" lon="9.7234673"><ele>196.0</ele><time>2026-04-17T10:33:26.854Z</time></trkpt><trkpt lat="33.6240653" lon="9.7236211"><ele>196.0</ele><time>2026-04-17T10:33:27.859Z</time></trkpt><trkpt lat="33.6242363" lon="9.723758"><ele>195.0</ele><time>2026-04-17T10:33:28.854Z</time></trkpt><trkpt lat="33.6244083" lon="9.7239063"><ele>194.0</ele><time>2026-04-17T10:33:29.857Z</time></trkpt><trkpt lat="33.6245837" lon="9.7240532"><ele>193.0</ele><time>2026-04-17T10:33:30.844Z</time></trkpt><trkpt lat="33.6247634" lon="9.7242006"><ele>193.0</ele><time>2026-04-17T10:33:31.845Z</time></trkpt><trkpt lat="33.624948" lon="9.7243428"><ele>193.0</ele><time>2026-04-17T10:33:32.852Z</time></trkpt><trkpt lat="33.6251199" lon="9.7244653"><ele>193.0</ele><time>2026-04-17T10:33:33.851Z</time></trkpt><trkpt lat="33.625289" lon="9.724601"><ele>193.0</ele><time>2026-04-17T10:33:34.853Z</time></trkpt><trkpt lat="33.6254675" lon="9.7247451"><ele>193.0</ele><time>2026-04-17T10:33:35.847Z</time></trkpt><trkpt lat="33.6256423" lon="9.7248778"><ele>193.0</ele><time>2026-04-17T10:33:36.847Z</time></trkpt><trkpt lat="33.6258108" lon="9.7250026"><ele>193.0</ele><time>2026-04-17T10:33:37.848Z</time></trkpt><trkpt lat="33.6259752" lon="9.7251375"><ele>193.0</ele><time>2026-04-17T10:33:38.848Z</time></trkpt><trkpt lat="33.6261443" lon="9.7252746"><ele>193.0</ele><time>2026-04-17T10:33:39.851Z</time></trkpt><trkpt lat="33.6263141" lon="9.7254136"><ele>191.0</ele><time>2026-04-17T10:33:40.847Z</time></trkpt><trkpt lat="33.6264829" lon="9.725554"><ele>189.0</ele><time>2026-04-17T10:33:41.846Z</time></trkpt><trkpt lat="33.6266507" lon="9.7256785"><ele>187.0</ele><time>2026-04-17T10:33:42.851Z</time></trkpt><trkpt lat="33.6268178" lon="9.7258189"><ele>187.0</ele><time>2026-04-17T10:33:43.85Z</time></trkpt><trkpt lat="33.6269897" lon="9.7259475"><ele>187.0</ele><time>2026-04-17T10:33:44.854Z</time></trkpt><trkpt lat="33.6271678" lon="9.7260739"><ele>187.0</ele><time>2026-04-17T10:33:45.846Z</time></trkpt><trkpt lat="33.6273576" lon="9.7262159"><ele>187.0</ele><time>2026-04-17T10:33:46.849Z</time></trkpt><trkpt lat="33.6275456" lon="9.7263524"><ele>187.0</ele><time>2026-04-17T10:33:47.849Z</time></trkpt><trkpt lat="33.627729" lon="9.726484"><ele>187.0</ele><time>2026-04-17T10:33:48.841Z</time></trkpt><trkpt lat="33.627918" lon="9.7266112"><ele>186.33333333333334</ele><time>2026-04-17T10:33:49.842Z</time></trkpt><trkpt lat="33.6280954" lon="9.7267426"><ele>185.66666666666666</ele><time>2026-04-17T10:33:50.843Z</time></trkpt><trkpt lat="33.6282707" lon="9.7268693"><ele>185.0</ele><time>2026-04-17T10:33:51.842Z</time></trkpt><trkpt lat="33.6284236" lon="9.7269827"><ele>185.0</ele><time>2026-04-17T10:33:52.843Z</time></trkpt><trkpt lat="33.6285959" lon="9.7271175"><ele>185.0</ele><time>2026-04-17T10:33:53.853Z</time></trkpt><trkpt lat="33.6287589" lon="9.7272596"><ele>185.0</ele><time>2026-04-17T10:33:54.846Z</time></trkpt><trkpt lat="33.6289355" lon="9.7273926"><ele>185.0</ele><time>2026-04-17T10:33:55.844Z</time></trkpt><trkpt lat="33.6291123" lon="9.7275313"><ele>185.0</ele><time>2026-04-17T10:33:56.845Z</time></trkpt><trkpt lat="33.6292971" lon="9.7276614"><ele>185.0</ele><time>2026-04-17T10:33:57.84Z</time></trkpt><trkpt lat="33.6294781" lon="9.7277919"><ele>184.66666666666666</ele><time>2026-04-17T10:33:58.857Z</time></trkpt><trkpt lat="33.6296686" lon="9.7279204"><ele>184.33333333333334</ele><time>2026-04-17T10:33:59.851Z</time></trkpt><trkpt lat="33.6298578" lon="9.7280513"><ele>184.0</ele><time>2026-04-17T10:34:00.849Z</time></trkpt><trkpt lat="33.6300283" lon="9.7281839"><ele>184.0</ele><time>2026-04-17T10:34:01.843Z</time></trkpt><trkpt lat="33.6301974" lon="9.7283039"><ele>184.0</ele><time>2026-04-17T10:34:02.843Z</time></trkpt><trkpt lat="33.6303765" lon="9.7284305"><ele>184.0</ele><time>2026-04-17T10:34:03.842Z</time></trkpt><trkpt lat="33.6305504" lon="9.7285567"><ele>183.33333333333334</ele><time>2026-04-17T10:34:04.846Z</time></trkpt><trkpt lat="33.6307294" lon="9.7286833"><ele>182.66666666666666</ele><time>2026-04-17T10:34:05.844Z</time></trkpt><trkpt lat="33.6309126" lon="9.72881"><ele>182.0</ele><time>2026-04-17T10:34:06.846Z</time></trkpt><trkpt lat="33.6311018" lon="9.7289405"><ele>182.33333333333331</ele><time>2026-04-17T10:34:07.848Z</time></trkpt><trkpt lat="33.6312863" lon="9.7290801"><ele>182.66666666666666</ele><time>2026-04-17T10:34:08.838Z</time></trkpt><trkpt lat="33.6314697" lon="9.7292095"><ele>183.0</ele><time>2026-04-17T10:34:09.85Z</time></trkpt><trkpt lat="33.6316299" lon="9.7293501"><ele>182.66666666666666</ele><time>2026-04-17T10:34:10.848Z</time></trkpt><trkpt lat="33.6318005" lon="9.729489"><ele>182.33333333333331</ele><time>2026-04-17T10:34:11.842Z</time></trkpt><trkpt lat="33.6319616" lon="9.7296166"><ele>182.0</ele><time>2026-04-17T10:34:12.845Z</time></trkpt><trkpt lat="33.6321392" lon="9.7297416"><ele>182.0</ele><time>2026-04-17T10:34:13.85Z</time></trkpt><trkpt lat="33.6322921" lon="9.729871"><ele>182.0</ele><time>2026-04-17T10:34:14.851Z</time></trkpt><trkpt lat="33.6324543" lon="9.7299903"><ele>182.0</ele><time>2026-04-17T10:34:15.844Z</time></trkpt><trkpt lat="33.6326217" lon="9.7301224"><ele>181.33333333333331</ele><time>2026-04-17T10:34:16.855Z</time></trkpt><trkpt lat="33.6327891" lon="9.7302466"><ele>180.66666666666666</ele><time>2026-04-17T10:34:17.854Z</time></trkpt><trkpt lat="33.6329543" lon="9.7303822"><ele>180.0</ele><time>2026-04-17T10:34:18.848Z</time></trkpt><trkpt lat="33.6331362" lon="9.7305119"><ele>180.0</ele><time>2026-04-17T10:34:19.848Z</time></trkpt><trkpt lat="33.6333211" lon="9.7306442"><ele>180.0</ele><time>2026-04-17T10:34:20.851Z</time></trkpt><trkpt lat="33.63349" lon="9.7307829"><ele>180.0</ele><time>2026-04-17T10:34:21.85Z</time></trkpt><trkpt lat="33.6336463" lon="9.7309314"><ele>179.0</ele><time>2026-04-17T10:34:22.848Z</time></trkpt><trkpt lat="33.633813" lon="9.7310754"><ele>178.0</ele><time>2026-04-17T10:34:23.859Z</time></trkpt><trkpt lat="33.633972" lon="9.7312309"><ele>177.0</ele><time>2026-04-17T10:34:24.849Z</time></trkpt><trkpt lat="33.6341386" lon="9.7313886"><ele>177.0</ele><time>2026-04-17T10:34:25.852Z</time></trkpt><trkpt lat="33.634299" lon="9.7315441"><ele>177.0</ele><time>2026-04-17T10:34:26.858Z</time></trkpt><trkpt lat="33.6344701" lon="9.7317066"><ele>177.0</ele><time>2026-04-17T10:34:27.85Z</time></trkpt><trkpt lat="33.6346378" lon="9.731865"><ele>177.0</ele><time>2026-04-17T10:34:28.856Z</time></trkpt><trkpt lat="33.6347939" lon="9.7320311"><ele>177.0</ele><time>2026-04-17T10:34:29.852Z</time></trkpt><trkpt lat="33.6349543" lon="9.7321993"><ele>177.0</ele><time>2026-04-17T10:34:30.85Z</time></trkpt><trkpt lat="33.6351158" lon="9.7323622"><ele>177.0</ele><time>2026-04-17T10:34:31.853Z</time></trkpt><trkpt lat="33.6352774" lon="9.732523"><ele>177.0</ele><time>2026-04-17T10:34:32.848Z</time></trkpt><trkpt lat="33.6354371" lon="9.7326846"><ele>177.0</ele><time>2026-04-17T10:34:33.85Z</time></trkpt><trkpt lat="33.6355948" lon="9.7328447"><ele>177.33333333333334</ele><time>2026-04-17T10:34:34.857Z</time></trkpt><trkpt lat="33.6357458" lon="9.7329843"><ele>177.66666666666669</ele><time>2026-04-17T10:34:35.851Z</time></trkpt><trkpt lat="33.635873" lon="9.7331356"><ele>178.0</ele><time>2026-04-17T10:34:36.852Z</time></trkpt><trkpt lat="33.635997" lon="9.7332435"><ele>178.0</ele><time>2026-04-17T10:34:37.853Z</time></trkpt><trkpt lat="33.6361089" lon="9.73334"><ele>178.0</ele><time>2026-04-17T10:34:38.85Z</time></trkpt><trkpt lat="33.6362337" lon="9.7334299"><ele>178.0</ele><time>2026-04-17T10:34:39.857Z</time></trkpt><trkpt lat="33.636335" lon="9.7335398"><ele>178.0</ele><time>2026-04-17T10:34:40.851Z</time></trkpt><trkpt lat="33.6364571" lon="9.7336484"><ele>177.5</ele><time>2026-04-17T10:34:41.852Z</time></trkpt><trkpt lat="33.6365652" lon="9.7337557"><ele>177.0</ele><time>2026-04-17T10:34:42.852Z</time></trkpt><trkpt lat="33.6366668" lon="9.7338632"><ele>176.5</ele><time>2026-04-17T10:34:43.858Z</time></trkpt><trkpt lat="33.6367685" lon="9.7339458"><ele>176.0</ele><time>2026-04-17T10:34:44.853Z</time></trkpt><trkpt lat="33.6368744" lon="9.7340519"><ele>177.25</ele><time>2026-04-17T10:34:45.862Z</time></trkpt><trkpt lat="33.6369814" lon="9.7341624"><ele>178.5</ele><time>2026-04-17T10:34:46.852Z</time></trkpt><trkpt lat="33.6370809" lon="9.7342521"><ele>179.75</ele><time>2026-04-17T10:34:47.853Z</time></trkpt><trkpt lat="33.6371753" lon="9.7343364"><ele>181.0</ele><time>2026-04-17T10:34:48.865Z</time></trkpt><trkpt lat="33.6372575" lon="9.7344093"><ele>181.0</ele><time>2026-04-17T10:34:49.852Z</time></trkpt><trkpt lat="33.63733" lon="9.7344709"><ele>181.0</ele><time>2026-04-17T10:34:50.855Z</time></trkpt><trkpt lat="33.637401" lon="9.73453"><ele>181.0</ele><time>2026-04-17T10:34:51.855Z</time></trkpt><trkpt lat="33.637472" lon="9.7345857"><ele>181.0</ele><time>2026-04-17T10:34:52.853Z</time></trkpt><trkpt lat="33.6375416" lon="9.7346482"><ele>181.0</ele><time>2026-04-17T10:34:53.872Z</time></trkpt><trkpt lat="33.6376084" lon="9.7347184"><ele>181.0</ele><time>2026-04-17T10:34:54.854Z</time></trkpt><trkpt lat="33.6376733" lon="9.7347894"><ele>181.0</ele><time>2026-04-17T10:34:55.856Z</time></trkpt><trkpt lat="33.6377354" lon="9.7348637"><ele>181.0</ele><time>2026-04-17T10:34:56.855Z</time></trkpt><trkpt lat="33.637801" lon="9.7349354"><ele>181.0</ele><time>2026-04-17T10:34:57.856Z</time></trkpt><trkpt lat="33.6378688" lon="9.7350065"><ele>181.0</ele><time>2026-04-17T10:34:58.873Z</time></trkpt><trkpt lat="33.6379407" lon="9.7350732"><ele>181.0</ele><time>2026-04-17T10:34:59.848Z</time></trkpt><trkpt lat="33.6380149" lon="9.7351445"><ele>180.60000000000002</ele><time>2026-04-17T10:35:00.875Z</time></trkpt><trkpt lat="33.638091" lon="9.7352072"><ele>180.2</ele><time>2026-04-17T10:35:01.865Z</time></trkpt><trkpt lat="33.6381639" lon="9.7352656"><ele>179.8</ele><time>2026-04-17T10:35:02.867Z</time></trkpt><trkpt lat="33.6382406" lon="9.735332"><ele>179.39999999999998</ele><time>2026-04-17T10:35:03.962Z</time></trkpt><trkpt lat="33.6383194" lon="9.7353946"><ele>179.0</ele><time>2026-04-17T10:35:04.954Z</time></trkpt><trkpt lat="33.6383979" lon="9.7354575"><ele>179.0</ele><time>2026-04-17T10:35:05.954Z</time></trkpt><trkpt lat="33.6384792" lon="9.735519"><ele>179.0</ele><time>2026-04-17T10:35:06.947Z</time></trkpt><trkpt lat="33.6385621" lon="9.7355835"><ele>179.0</ele><time>2026-04-17T10:35:07.951Z</time></trkpt><trkpt lat="33.638649" lon="9.7356483"><ele>179.0</ele><time>2026-04-17T10:35:08.961Z</time></trkpt><trkpt lat="33.6387425" lon="9.7357132"><ele>179.0</ele><time>2026-04-17T10:35:09.949Z</time></trkpt><trkpt lat="33.6388411" lon="9.7357803"><ele>180.0</ele><time>2026-04-17T10:35:10.955Z</time></trkpt><trkpt lat="33.6389424" lon="9.7358481"><ele>181.0</ele><time>2026-04-17T10:35:11.953Z</time></trkpt><trkpt lat="33.6390553" lon="9.7359161"><ele>182.0</ele><time>2026-04-17T10:35:12.957Z</time></trkpt><trkpt lat="33.6391624" lon="9.7359815"><ele>183.0</ele><time>2026-04-17T10:35:13.963Z</time></trkpt><trkpt lat="33.6392704" lon="9.7360725"><ele>180.75</ele><time>2026-04-17T10:35:14.946Z</time></trkpt><trkpt lat="33.6393725" lon="9.7361336"><ele>178.5</ele><time>2026-04-17T10:35:15.955Z</time></trkpt><trkpt lat="33.6394736" lon="9.7361961"><ele>176.25</ele><time>2026-04-17T10:35:16.952Z</time></trkpt><trkpt lat="33.6395767" lon="9.7362615"><ele>174.0</ele><time>2026-04-17T10:35:17.956Z</time></trkpt><trkpt lat="33.6396816" lon="9.7363298"><ele>174.0</ele><time>2026-04-17T10:35:18.964Z</time></trkpt><trkpt lat="33.6397855" lon="9.7363963"><ele>174.0</ele><time>2026-04-17T10:35:19.948Z</time></trkpt><trkpt lat="33.6398921" lon="9.7364634"><ele>174.0</ele><time>2026-04-17T10:35:20.95Z</time></trkpt><trkpt lat="33.6399946" lon="9.7365279"><ele>174.0</ele><time>2026-04-17T10:35:21.956Z</time></trkpt><trkpt lat="33.6400976" lon="9.7365943"><ele>174.0</ele><time>2026-04-17T10:35:22.951Z</time></trkpt><trkpt lat="33.6402024" lon="9.7366627"><ele>174.0</ele><time>2026-04-17T10:35:23.97Z</time></trkpt><trkpt lat="33.6403083" lon="9.7367296"><ele>174.0</ele><time>2026-04-17T10:35:24.953Z</time></trkpt><trkpt lat="33.6404132" lon="9.7367978"><ele>174.0</ele><time>2026-04-17T10:35:25.955Z</time></trkpt><trkpt lat="33.6405174" lon="9.7368638"><ele>173.2</ele><time>2026-04-17T10:35:26.956Z</time></trkpt><trkpt lat="33.6406184" lon="9.7369171"><ele>172.39999999999998</ele><time>2026-04-17T10:35:27.948Z</time></trkpt><trkpt lat="33.640717" lon="9.7369564"><ele>171.6</ele><time>2026-04-17T10:35:28.963Z</time></trkpt><trkpt lat="33.6408089" lon="9.736982"><ele>170.8</ele><time>2026-04-17T10:35:29.94Z</time></trkpt><trkpt lat="33.6408945" lon="9.7369993"><ele>170.0</ele><time>2026-04-17T10:35:30.948Z</time></trkpt><trkpt lat="33.6409974" lon="9.7370206"><ele>170.0</ele><time>2026-04-17T10:35:32.938Z</time></trkpt><trkpt lat="33.6409453" lon="9.7369599"><ele>170.0</ele><time>2026-04-17T10:35:42.843Z</time></trkpt><trkpt lat="33.6408048" lon="9.7369364"><ele>170.0</ele><time>2026-04-17T10:35:44.849Z</time></trkpt><trkpt lat="33.6407365" lon="9.7369028"><ele>170.0</ele><time>2026-04-17T10:35:45.851Z</time></trkpt><trkpt lat="33.6406589" lon="9.7368772"><ele>170.0</ele><time>2026-04-17T10:35:49.86Z</time></trkpt><trkpt lat="33.6407186" lon="9.7369385"><ele>170.0</ele><time>2026-04-17T10:35:54.862Z</time></trkpt><trkpt lat="33.6407916" lon="9.7369592"><ele>170.0</ele><time>2026-04-17T10:35:56.866Z</time></trkpt><trkpt lat="33.6409022" lon="9.7369771"><ele>170.0</ele><time>2026-04-17T10:35:58.858Z</time></trkpt><trkpt lat="33.6410329" lon="9.7369832"><ele>170.0</ele><time>2026-04-17T10:36:00.855Z</time></trkpt><trkpt lat="33.6411009" lon="9.7369881"><ele>170.0</ele><time>2026-04-17T10:36:01.854Z</time></trkpt><trkpt lat="33.6411791" lon="9.7369953"><ele>170.0</ele><time>2026-04-17T10:36:02.852Z</time></trkpt><trkpt lat="33.6412658" lon="9.7370033"><ele>170.4</ele><time>2026-04-17T10:36:03.847Z</time></trkpt><trkpt lat="33.6413556" lon="9.7370162"><ele>170.8</ele><time>2026-04-17T10:36:04.853Z</time></trkpt><trkpt lat="33.6414474" lon="9.7370256"><ele>171.2</ele><time>2026-04-17T10:36:05.85Z</time></trkpt><trkpt lat="33.6415404" lon="9.7370387"><ele>171.6</ele><time>2026-04-17T10:36:06.853Z</time></trkpt><trkpt lat="33.641642" lon="9.737051"><ele>172.0</ele><time>2026-04-17T10:36:07.848Z</time></trkpt><trkpt lat="33.6417452" lon="9.7370547"><ele>172.0</ele><time>2026-04-17T10:36:08.848Z</time></trkpt><trkpt lat="33.6418416" lon="9.7370618"><ele>172.0</ele><time>2026-04-17T10:36:09.849Z</time></trkpt><trkpt lat="33.6419263" lon="9.7370734"><ele>172.0</ele><time>2026-04-17T10:36:10.851Z</time></trkpt><trkpt lat="33.6420119" lon="9.7370854"><ele>172.0</ele><time>2026-04-17T10:36:11.854Z</time></trkpt><trkpt lat="33.6421003" lon="9.7370963"><ele>172.0</ele><time>2026-04-17T10:36:12.856Z</time></trkpt><trkpt lat="33.6421998" lon="9.7371074"><ele>172.25</ele><time>2026-04-17T10:36:13.852Z</time></trkpt><trkpt lat="33.6423066" lon="9.7371253"><ele>172.5</ele><time>2026-04-17T10:36:14.852Z</time></trkpt><trkpt lat="33.6424175" lon="9.7371438"><ele>172.75</ele><time>2026-04-17T10:36:15.853Z</time></trkpt><trkpt lat="33.6425379" lon="9.7371549"><ele>173.0</ele><time>2026-04-17T10:36:16.855Z</time></trkpt><trkpt lat="33.6426562" lon="9.7371767"><ele>173.0</ele><time>2026-04-17T10:36:17.857Z</time></trkpt><trkpt lat="33.6427722" lon="9.7371961"><ele>173.0</ele><time>2026-04-17T10:36:18.855Z</time></trkpt><trkpt lat="33.6428919" lon="9.7372108"><ele>173.0</ele><time>2026-04-17T10:36:19.858Z</time></trkpt><trkpt lat="33.6430145" lon="9.7372222"><ele>173.0</ele><time>2026-04-17T10:36:20.857Z</time></trkpt><trkpt lat="33.6431406" lon="9.7372354"><ele>172.5</ele><time>2026-04-17T10:36:21.857Z</time></trkpt><trkpt lat="33.6432671" lon="9.7372379"><ele>172.0</ele><time>2026-04-17T10:36:22.857Z</time></trkpt><trkpt lat="33.6433911" lon="9.7372463"><ele>171.5</ele><time>2026-04-17T10:36:23.856Z</time></trkpt><trkpt lat="33.6435124" lon="9.7372553"><ele>171.0</ele><time>2026-04-17T10:36:24.851Z</time></trkpt><trkpt lat="33.6436187" lon="9.7372637"><ele>171.4</ele><time>2026-04-17T10:36:25.85Z</time></trkpt><trkpt lat="33.643705" lon="9.7372731"><ele>171.8</ele><time>2026-04-17T10:36:26.857Z</time></trkpt><trkpt lat="33.6437839" lon="9.7372789"><ele>172.20000000000002</ele><time>2026-04-17T10:36:27.854Z</time></trkpt><trkpt lat="33.6439025" lon="9.7372914"><ele>172.60000000000002</ele><time>2026-04-17T10:36:29.854Z</time></trkpt><trkpt lat="33.6440188" lon="9.7372946"><ele>173.0</ele><time>2026-04-17T10:36:31.85Z</time></trkpt><trkpt lat="33.6440831" lon="9.7373008"><ele>173.0</ele><time>2026-04-17T10:36:32.849Z</time></trkpt><trkpt lat="33.6441663" lon="9.7373107"><ele>173.0</ele><time>2026-04-17T10:36:33.851Z</time></trkpt><trkpt lat="33.644252" lon="9.7373126"><ele>173.0</ele><time>2026-04-17T10:36:34.852Z</time></trkpt><trkpt lat="33.64435" lon="9.7373197"><ele>173.0</ele><time>2026-04-17T10:36:35.845Z</time></trkpt><trkpt lat="33.644453" lon="9.7373313"><ele>173.0</ele><time>2026-04-17T10:36:36.851Z</time></trkpt><trkpt lat="33.6445612" lon="9.7373417"><ele>173.60000000000002</ele><time>2026-04-17T10:36:37.851Z</time></trkpt><trkpt lat="33.6446702" lon="9.7373478"><ele>174.20000000000002</ele><time>2026-04-17T10:36:38.853Z</time></trkpt><trkpt lat="33.6447818" lon="9.737361"><ele>174.8</ele><time>2026-04-17T10:36:39.852Z</time></trkpt><trkpt lat="33.6448942" lon="9.7373823"><ele>175.4</ele><time>2026-04-17T10:36:40.852Z</time></trkpt><trkpt lat="33.6450073" lon="9.7373976"><ele>176.0</ele><time>2026-04-17T10:36:41.851Z</time></trkpt><trkpt lat="33.6451219" lon="9.7374084"><ele>176.0</ele><time>2026-04-17T10:36:42.846Z</time></trkpt><trkpt lat="33.6452389" lon="9.7374304"><ele>176.0</ele><time>2026-04-17T10:36:43.849Z</time></trkpt><trkpt lat="33.6453618" lon="9.7374544"><ele>176.0</ele><time>2026-04-17T10:36:44.853Z</time></trkpt><trkpt lat="33.6454835" lon="9.7374769"><ele>176.0</ele><time>2026-04-17T10:36:45.843Z</time></trkpt><trkpt lat="33.6456049" lon="9.7374801"><ele>176.5</ele><time>2026-04-17T10:36:46.845Z</time></trkpt><trkpt lat="33.6457276" lon="9.7374919"><ele>177.0</ele><time>2026-04-17T10:36:47.853Z</time></trkpt><trkpt lat="33.6458468" lon="9.7375048"><ele>177.5</ele><time>2026-04-17T10:36:48.842Z</time></trkpt><trkpt lat="33.6459744" lon="9.7375176"><ele>178.0</ele><time>2026-04-17T10:36:49.853Z</time></trkpt><trkpt lat="33.6461049" lon="9.7375318"><ele>178.0</ele><time>2026-04-17T10:36:50.853Z</time></trkpt><trkpt lat="33.6462388" lon="9.7375528"><ele>178.0</ele><time>2026-04-17T10:36:51.849Z</time></trkpt><trkpt lat="33.6463761" lon="9.7375737"><ele>178.0</ele><time>2026-04-17T10:36:52.855Z</time></trkpt><trkpt lat="33.6465128" lon="9.7375923"><ele>178.0</ele><time>2026-04-17T10:36:53.857Z</time></trkpt><trkpt lat="33.6466542" lon="9.7376035"><ele>178.0</ele><time>2026-04-17T10:36:54.857Z</time></trkpt><trkpt lat="33.6467935" lon="9.737612"><ele>178.0</ele><time>2026-04-17T10:36:55.852Z</time></trkpt><trkpt lat="33.6469335" lon="9.7376248"><ele>178.0</ele><time>2026-04-17T10:36:56.859Z</time></trkpt><trkpt lat="33.647077" lon="9.7376296"><ele>178.0</ele><time>2026-04-17T10:36:57.852Z</time></trkpt><trkpt lat="33.6472304" lon="9.7376116"><ele>178.25</ele><time>2026-04-17T10:36:58.861Z</time></trkpt><trkpt lat="33.6473807" lon="9.7375857"><ele>178.5</ele><time>2026-04-17T10:36:59.854Z</time></trkpt><trkpt lat="33.647525" lon="9.7375569"><ele>178.75</ele><time>2026-04-17T10:37:00.857Z</time></trkpt><trkpt lat="33.6476702" lon="9.7375199"><ele>179.0</ele><time>2026-04-17T10:37:01.853Z</time></trkpt><trkpt lat="33.6478142" lon="9.7374654"><ele>178.5</ele><time>2026-04-17T10:37:02.858Z</time></trkpt><trkpt lat="33.6479556" lon="9.7374176"><ele>178.0</ele><time>2026-04-17T10:37:03.851Z</time></trkpt><trkpt lat="33.6480957" lon="9.7373745"><ele>177.5</ele><time>2026-04-17T10:37:04.853Z</time></trkpt><trkpt lat="33.6482488" lon="9.7373393"><ele>177.0</ele><time>2026-04-17T10:37:05.849Z</time></trkpt><trkpt lat="33.648398" lon="9.7373038"><ele>177.0</ele><time>2026-04-17T10:37:06.848Z</time></trkpt><trkpt lat="33.6485483" lon="9.7372604"><ele>177.0</ele><time>2026-04-17T10:37:07.846Z</time></trkpt><trkpt lat="33.6487002" lon="9.737214"><ele>177.0</ele><time>2026-04-17T10:37:08.845Z</time></trkpt><trkpt lat="33.6488602" lon="9.7371792"><ele>176.66666666666666</ele><time>2026-04-17T10:37:09.847Z</time></trkpt><trkpt lat="33.6490075" lon="9.7371409"><ele>176.33333333333331</ele><time>2026-04-17T10:37:10.852Z</time></trkpt><trkpt lat="33.6491675" lon="9.737095"><ele>176.0</ele><time>2026-04-17T10:37:11.849Z</time></trkpt><trkpt lat="33.6493327" lon="9.7370561"><ele>176.33333333333331</ele><time>2026-04-17T10:37:12.846Z</time></trkpt><trkpt lat="33.6495051" lon="9.7370168"><ele>176.66666666666666</ele><time>2026-04-17T10:37:13.847Z</time></trkpt><trkpt lat="33.6496749" lon="9.7369787"><ele>177.0</ele><time>2026-04-17T10:37:14.852Z</time></trkpt><trkpt lat="33.6498479" lon="9.7369337"><ele>177.0</ele><time>2026-04-17T10:37:15.846Z</time></trkpt><trkpt lat="33.6500293" lon="9.7368871"><ele>177.0</ele><time>2026-04-17T10:37:16.851Z</time></trkpt><trkpt lat="33.650202" lon="9.7368412"><ele>177.0</ele><time>2026-04-17T10:37:17.859Z</time></trkpt><trkpt lat="33.6503866" lon="9.7367964"><ele>177.0</ele><time>2026-04-17T10:37:18.846Z</time></trkpt><trkpt lat="33.6505822" lon="9.7367498"><ele>177.0</ele><time>2026-04-17T10:37:19.845Z</time></trkpt><trkpt lat="33.6507686" lon="9.7366988"><ele>177.0</ele><time>2026-04-17T10:37:20.847Z</time></trkpt><trkpt lat="33.6509441" lon="9.7366488"><ele>177.0</ele><time>2026-04-17T10:37:21.847Z</time></trkpt><trkpt lat="33.6511139" lon="9.736595"><ele>177.0</ele><time>2026-04-17T10:37:22.845Z</time></trkpt><trkpt lat="33.6512875" lon="9.7365342"><ele>177.0</ele><time>2026-04-17T10:37:23.847Z</time></trkpt><trkpt lat="33.6514692" lon="9.7364815"><ele>176.0</ele><time>2026-04-17T10:37:24.857Z</time></trkpt><trkpt lat="33.6516483" lon="9.736434"><ele>175.0</ele><time>2026-04-17T10:37:25.846Z</time></trkpt><trkpt lat="33.651815" lon="9.7363836"><ele>174.0</ele><time>2026-04-17T10:37:26.859Z</time></trkpt><trkpt lat="33.6519777" lon="9.736333"><ele>174.0</ele><time>2026-04-17T10:37:27.849Z</time></trkpt><trkpt lat="33.6521518" lon="9.7362974"><ele>174.0</ele><time>2026-04-17T10:37:28.854Z</time></trkpt><trkpt lat="33.6523111" lon="9.7362565"><ele>174.0</ele><time>2026-04-17T10:37:29.846Z</time></trkpt><trkpt lat="33.6524742" lon="9.7362285"><ele>174.0</ele><time>2026-04-17T10:37:30.846Z</time></trkpt><trkpt lat="33.6526122" lon="9.7361866"><ele>174.0</ele><time>2026-04-17T10:37:31.846Z</time></trkpt><trkpt lat="33.6527718" lon="9.7361455"><ele>174.0</ele><time>2026-04-17T10:37:32.844Z</time></trkpt><trkpt lat="33.6529314" lon="9.7361016"><ele>173.66666666666666</ele><time>2026-04-17T10:37:33.847Z</time></trkpt><trkpt lat="33.6530755" lon="9.7360584"><ele>173.33333333333331</ele><time>2026-04-17T10:37:34.845Z</time></trkpt><trkpt lat="33.6532294" lon="9.7360155"><ele>173.0</ele><time>2026-04-17T10:37:35.847Z</time></trkpt><trkpt lat="33.6533903" lon="9.7359741"><ele>173.5</ele><time>2026-04-17T10:37:36.842Z</time></trkpt><trkpt lat="33.653518" lon="9.7359286"><ele>174.0</ele><time>2026-04-17T10:37:37.85Z</time></trkpt><trkpt lat="33.6536511" lon="9.7358957"><ele>174.5</ele><time>2026-04-17T10:37:38.846Z</time></trkpt><trkpt lat="33.6537825" lon="9.7358814"><ele>175.0</ele><time>2026-04-17T10:37:39.851Z</time></trkpt><trkpt lat="33.6539297" lon="9.7358484"><ele>175.33333333333334</ele><time>2026-04-17T10:37:40.854Z</time></trkpt><trkpt lat="33.6540749" lon="9.7358215"><ele>175.66666666666666</ele><time>2026-04-17T10:37:41.847Z</time></trkpt><trkpt lat="33.65424" lon="9.7357976"><ele>176.0</ele><time>2026-04-17T10:37:42.848Z</time></trkpt><trkpt lat="33.6543889" lon="9.7357625"><ele>175.66666666666666</ele><time>2026-04-17T10:37:43.846Z</time></trkpt><trkpt lat="33.6545556" lon="9.7357297"><ele>175.33333333333334</ele><time>2026-04-17T10:37:44.847Z</time></trkpt><trkpt lat="33.6547338" lon="9.7356898"><ele>175.0</ele><time>2026-04-17T10:37:45.852Z</time></trkpt><trkpt lat="33.6548945" lon="9.7356527"><ele>175.0</ele><time>2026-04-17T10:37:46.848Z</time></trkpt><trkpt lat="33.6550534" lon="9.7356167"><ele>175.0</ele><time>2026-04-17T10:37:47.851Z</time></trkpt><trkpt lat="33.6552129" lon="9.7355893"><ele>175.0</ele><time>2026-04-17T10:37:48.845Z</time></trkpt><trkpt lat="33.6553728" lon="9.7355568"><ele>175.33333333333334</ele><time>2026-04-17T10:37:49.845Z</time></trkpt><trkpt lat="33.6555349" lon="9.7355259"><ele>175.66666666666666</ele><time>2026-04-17T10:37:50.843Z</time></trkpt><trkpt lat="33.6556915" lon="9.7354808"><ele>176.0</ele><time>2026-04-17T10:37:51.844Z</time></trkpt><trkpt lat="33.6558399" lon="9.7354359"><ele>176.0</ele><time>2026-04-17T10:37:52.847Z</time></trkpt><trkpt lat="33.6559985" lon="9.7354065"><ele>176.0</ele><time>2026-04-17T10:37:53.857Z</time></trkpt><trkpt lat="33.6561434" lon="9.7353595"><ele>176.0</ele><time>2026-04-17T10:37:54.847Z</time></trkpt><trkpt lat="33.6563025" lon="9.7353233"><ele>176.66666666666666</ele><time>2026-04-17T10:37:55.848Z</time></trkpt><trkpt lat="33.6564624" lon="9.7352799"><ele>177.33333333333334</ele><time>2026-04-17T10:37:56.849Z</time></trkpt><trkpt lat="33.6566204" lon="9.735234"><ele>178.0</ele><time>2026-04-17T10:37:57.849Z</time></trkpt><trkpt lat="33.6567829" lon="9.7351979"><ele>178.33333333333334</ele><time>2026-04-17T10:37:58.856Z</time></trkpt><trkpt lat="33.6569361" lon="9.7351589"><ele>178.66666666666666</ele><time>2026-04-17T10:37:59.849Z</time></trkpt><trkpt lat="33.6570975" lon="9.7351331"><ele>179.0</ele><time>2026-04-17T10:38:00.853Z</time></trkpt><trkpt lat="33.6572553" lon="9.7350864"><ele>179.66666666666666</ele><time>2026-04-17T10:38:01.846Z</time></trkpt><trkpt lat="33.6574189" lon="9.7350476"><ele>180.33333333333334</ele><time>2026-04-17T10:38:02.853Z</time></trkpt><trkpt lat="33.6575797" lon="9.7350212"><ele>181.0</ele><time>2026-04-17T10:38:03.846Z</time></trkpt><trkpt lat="33.6577298" lon="9.7349779"><ele>180.66666666666669</ele><time>2026-04-17T10:38:04.847Z</time></trkpt><trkpt lat="33.6578876" lon="9.7349429"><ele>180.33333333333334</ele><time>2026-04-17T10:38:05.843Z</time></trkpt><trkpt lat="33.6580598" lon="9.7349135"><ele>180.0</ele><time>2026-04-17T10:38:06.842Z</time></trkpt><trkpt lat="33.658239" lon="9.7348771"><ele>180.0</ele><time>2026-04-17T10:38:07.849Z</time></trkpt><trkpt lat="33.658393" lon="9.7348385"><ele>180.0</ele><time>2026-04-17T10:38:08.844Z</time></trkpt><trkpt lat="33.6585445" lon="9.7348"><ele>180.0</ele><time>2026-04-17T10:38:09.845Z</time></trkpt><trkpt lat="33.6586978" lon="9.734765"><ele>180.66666666666666</ele><time>2026-04-17T10:38:10.848Z</time></trkpt><trkpt lat="33.6588527" lon="9.7347192"><ele>181.33333333333331</ele><time>2026-04-17T10:38:11.849Z</time></trkpt><trkpt lat="33.6590069" lon="9.7346725"><ele>182.0</ele><time>2026-04-17T10:38:12.843Z</time></trkpt><trkpt lat="33.6591573" lon="9.7346351"><ele>182.0</ele><time>2026-04-17T10:38:13.844Z</time></trkpt><trkpt lat="33.6592982" lon="9.7346043"><ele>182.0</ele><time>2026-04-17T10:38:14.841Z</time></trkpt><trkpt lat="33.6594465" lon="9.7345668"><ele>182.0</ele><time>2026-04-17T10:38:15.839Z</time></trkpt><trkpt lat="33.6595868" lon="9.7345367"><ele>182.0</ele><time>2026-04-17T10:38:16.842Z</time></trkpt><trkpt lat="33.659722" lon="9.7345363"><ele>181.33333333333331</ele><time>2026-04-17T10:38:17.843Z</time></trkpt><trkpt lat="33.65987" lon="9.7345438"><ele>180.66666666666666</ele><time>2026-04-17T10:38:18.84Z</time></trkpt><trkpt lat="33.6600177" lon="9.7345776"><ele>180.0</ele><time>2026-04-17T10:38:19.843Z</time></trkpt><trkpt lat="33.660181" lon="9.7346128"><ele>178.33333333333334</ele><time>2026-04-17T10:38:20.853Z</time></trkpt><trkpt lat="33.6603384" lon="9.7346535"><ele>176.66666666666669</ele><time>2026-04-17T10:38:21.848Z</time></trkpt><trkpt lat="33.6604876" lon="9.7346822"><ele>175.0</ele><time>2026-04-17T10:38:22.854Z</time></trkpt><trkpt lat="33.6606424" lon="9.734719"><ele>175.0</ele><time>2026-04-17T10:38:23.848Z</time></trkpt><trkpt lat="33.6608003" lon="9.7347478"><ele>175.0</ele><time>2026-04-17T10:38:24.847Z</time></trkpt><trkpt lat="33.6609796" lon="9.7347771"><ele>175.0</ele><time>2026-04-17T10:38:25.846Z</time></trkpt><trkpt lat="33.6611587" lon="9.7348096"><ele>174.33333333333334</ele><time>2026-04-17T10:38:26.848Z</time></trkpt><trkpt lat="33.6613276" lon="9.7348476"><ele>173.66666666666666</ele><time>2026-04-17T10:38:27.85Z</time></trkpt><trkpt lat="33.6614972" lon="9.7348854"><ele>173.0</ele><time>2026-04-17T10:38:28.852Z</time></trkpt><trkpt lat="33.6616658" lon="9.7349083"><ele>173.0</ele><time>2026-04-17T10:38:29.849Z</time></trkpt><trkpt lat="33.6618252" lon="9.7349433"><ele>173.0</ele><time>2026-04-17T10:38:30.85Z</time></trkpt><trkpt lat="33.6619827" lon="9.7349808"><ele>173.0</ele><time>2026-04-17T10:38:31.847Z</time></trkpt><trkpt lat="33.662127" lon="9.7350139"><ele>172.66666666666666</ele><time>2026-04-17T10:38:32.848Z</time></trkpt><trkpt lat="33.6622843" lon="9.7350292"><ele>172.33333333333334</ele><time>2026-04-17T10:38:33.852Z</time></trkpt><trkpt lat="33.6624412" lon="9.735054"><ele>172.0</ele><time>2026-04-17T10:38:34.848Z</time></trkpt><trkpt lat="33.6626125" lon="9.7350903"><ele>172.0</ele><time>2026-04-17T10:38:35.848Z</time></trkpt><trkpt lat="33.6627777" lon="9.7351074"><ele>172.0</ele><time>2026-04-17T10:38:36.846Z</time></trkpt><trkpt lat="33.6629568" lon="9.735109"><ele>172.0</ele><time>2026-04-17T10:38:37.851Z</time></trkpt><trkpt lat="33.6631364" lon="9.7351206"><ele>171.66666666666669</ele><time>2026-04-17T10:38:38.852Z</time></trkpt><trkpt lat="33.663301" lon="9.7351339"><ele>171.33333333333334</ele><time>2026-04-17T10:38:39.844Z</time></trkpt><trkpt lat="33.6634623" lon="9.7351635"><ele>171.0</ele><time>2026-04-17T10:38:40.846Z</time></trkpt><trkpt lat="33.6636283" lon="9.7351817"><ele>170.33333333333334</ele><time>2026-04-17T10:38:41.852Z</time></trkpt><trkpt lat="33.6637981" lon="9.7352182"><ele>169.66666666666669</ele><time>2026-04-17T10:38:42.852Z</time></trkpt><trkpt lat="33.663953" lon="9.7352592"><ele>169.0</ele><time>2026-04-17T10:38:43.852Z</time></trkpt><trkpt lat="33.6641192" lon="9.7353029"><ele>168.0</ele><time>2026-04-17T10:38:44.855Z</time></trkpt><trkpt lat="33.6642761" lon="9.735356"><ele>167.0</ele><time>2026-04-17T10:38:45.85Z</time></trkpt><trkpt lat="33.6644517" lon="9.7354243"><ele>166.0</ele><time>2026-04-17T10:38:46.85Z</time></trkpt><trkpt lat="33.6646169" lon="9.7354924"><ele>166.0</ele><time>2026-04-17T10:38:47.853Z</time></trkpt><trkpt lat="33.6647876" lon="9.7355685"><ele>166.0</ele><time>2026-04-17T10:38:48.845Z</time></trkpt><trkpt lat="33.6649396" lon="9.7356264"><ele>166.0</ele><time>2026-04-17T10:38:49.842Z</time></trkpt><trkpt lat="33.6651058" lon="9.7356893"><ele>166.0</ele><time>2026-04-17T10:38:50.849Z</time></trkpt><trkpt lat="33.6652721" lon="9.7357657"><ele>166.0</ele><time>2026-04-17T10:38:51.842Z</time></trkpt><trkpt lat="33.6654255" lon="9.7358311"><ele>166.0</ele><time>2026-04-17T10:38:52.842Z</time></trkpt><trkpt lat="33.6655882" lon="9.735897"><ele>166.0</ele><time>2026-04-17T10:38:53.84Z</time></trkpt><trkpt lat="33.6657274" lon="9.7359608"><ele>166.0</ele><time>2026-04-17T10:38:54.846Z</time></trkpt><trkpt lat="33.6658463" lon="9.7360167"><ele>166.0</ele><time>2026-04-17T10:38:55.842Z</time></trkpt><trkpt lat="33.6659566" lon="9.7360699"><ele>166.0</ele><time>2026-04-17T10:38:56.845Z</time></trkpt><trkpt lat="33.6660804" lon="9.7361137"><ele>165.4</ele><time>2026-04-17T10:38:57.841Z</time></trkpt><trkpt lat="33.6661858" lon="9.7361615"><ele>164.8</ele><time>2026-04-17T10:38:58.848Z</time></trkpt><trkpt lat="33.6662608" lon="9.7361987"><ele>164.20000000000002</ele><time>2026-04-17T10:38:59.849Z</time></trkpt><trkpt lat="33.6663593" lon="9.7362409"><ele>163.60000000000002</ele><time>2026-04-17T10:39:00.846Z</time></trkpt><trkpt lat="33.6664585" lon="9.736278"><ele>163.0</ele><time>2026-04-17T10:39:01.848Z</time></trkpt><trkpt lat="33.666564" lon="9.7363279"><ele>163.0</ele><time>2026-04-17T10:39:02.842Z</time></trkpt><trkpt lat="33.6666829" lon="9.7363836"><ele>163.0</ele><time>2026-04-17T10:39:03.844Z</time></trkpt><trkpt lat="33.6668076" lon="9.7364364"><ele>163.0</ele><time>2026-04-17T10:39:04.846Z</time></trkpt><trkpt lat="33.6669378" lon="9.7364872"><ele>163.0</ele><time>2026-04-17T10:39:05.836Z</time></trkpt><trkpt lat="33.6670694" lon="9.7365483"><ele>164.0</ele><time>2026-04-17T10:39:06.832Z</time></trkpt><trkpt lat="33.6672135" lon="9.7366138"><ele>165.0</ele><time>2026-04-17T10:39:07.839Z</time></trkpt><trkpt lat="33.6673532" lon="9.7366804"><ele>166.0</ele><time>2026-04-17T10:39:08.839Z</time></trkpt><trkpt lat="33.6675136" lon="9.7367533"><ele>166.0</ele><time>2026-04-17T10:39:09.848Z</time></trkpt><trkpt lat="33.6676659" lon="9.7368146"><ele>166.0</ele><time>2026-04-17T10:39:10.849Z</time></trkpt><trkpt lat="33.6678115" lon="9.736866"><ele>166.0</ele><time>2026-04-17T10:39:11.854Z</time></trkpt><trkpt lat="33.6679615" lon="9.7369286"><ele>164.66666666666669</ele><time>2026-04-17T10:39:12.846Z</time></trkpt><trkpt lat="33.6681178" lon="9.7369995"><ele>163.33333333333334</ele><time>2026-04-17T10:39:13.852Z</time></trkpt><trkpt lat="33.6682784" lon="9.7370604"><ele>162.0</ele><time>2026-04-17T10:39:14.848Z</time></trkpt><trkpt lat="33.6684405" lon="9.7371304"><ele>162.0</ele><time>2026-04-17T10:39:15.848Z</time></trkpt><trkpt lat="33.6685909" lon="9.7371946"><ele>162.0</ele><time>2026-04-17T10:39:16.85Z</time></trkpt><trkpt lat="33.6687416" lon="9.7372549"><ele>162.0</ele><time>2026-04-17T10:39:17.852Z</time></trkpt><trkpt lat="33.6688904" lon="9.7373124"><ele>161.75</ele><time>2026-04-17T10:39:18.85Z</time></trkpt><trkpt lat="33.6690297" lon="9.7373709"><ele>161.5</ele><time>2026-04-17T10:39:19.85Z</time></trkpt><trkpt lat="33.6691612" lon="9.7374286"><ele>161.25</ele><time>2026-04-17T10:39:20.851Z</time></trkpt><trkpt lat="33.6692914" lon="9.7374877"><ele>161.0</ele><time>2026-04-17T10:39:21.851Z</time></trkpt><trkpt lat="33.6694271" lon="9.7375542"><ele>160.75</ele><time>2026-04-17T10:39:22.856Z</time></trkpt><trkpt lat="33.6695686" lon="9.737604"><ele>160.5</ele><time>2026-04-17T10:39:23.847Z</time></trkpt><trkpt lat="33.6697031" lon="9.7376701"><ele>160.25</ele><time>2026-04-17T10:39:24.856Z</time></trkpt><trkpt lat="33.6698514" lon="9.7377271"><ele>160.0</ele><time>2026-04-17T10:39:25.853Z</time></trkpt><trkpt lat="33.6700073" lon="9.7377911"><ele>159.66666666666669</ele><time>2026-04-17T10:39:26.848Z</time></trkpt><trkpt lat="33.6701608" lon="9.7378502"><ele>159.33333333333334</ele><time>2026-04-17T10:39:27.852Z</time></trkpt><trkpt lat="33.6703037" lon="9.7379037"><ele>159.0</ele><time>2026-04-17T10:39:28.849Z</time></trkpt><trkpt lat="33.6704581" lon="9.7379576"><ele>159.0</ele><time>2026-04-17T10:39:29.85Z</time></trkpt><trkpt lat="33.6706038" lon="9.7380289"><ele>159.0</ele><time>2026-04-17T10:39:30.85Z</time></trkpt><trkpt lat="33.6707584" lon="9.7381066"><ele>159.0</ele><time>2026-04-17T10:39:31.859Z</time></trkpt><trkpt lat="33.6708994" lon="9.7381838"><ele>159.0</ele><time>2026-04-17T10:39:32.848Z</time></trkpt><trkpt lat="33.6710471" lon="9.7382578"><ele>159.0</ele><time>2026-04-17T10:39:33.848Z</time></trkpt><trkpt lat="33.6712061" lon="9.7383324"><ele>159.0</ele><time>2026-04-17T10:39:34.852Z</time></trkpt><trkpt lat="33.6713793" lon="9.7384067"><ele>158.66666666666666</ele><time>2026-04-17T10:39:35.846Z</time></trkpt><trkpt lat="33.6715326" lon="9.7384735"><ele>158.33333333333331</ele><time>2026-04-17T10:39:36.849Z</time></trkpt><trkpt lat="33.6716804" lon="9.7385375"><ele>158.0</ele><time>2026-04-17T10:39:37.855Z</time></trkpt><trkpt lat="33.6718352" lon="9.7386069"><ele>158.75</ele><time>2026-04-17T10:39:38.851Z</time></trkpt><trkpt lat="33.6719725" lon="9.73867"><ele>159.5</ele><time>2026-04-17T10:39:39.851Z</time></trkpt><trkpt lat="33.6720913" lon="9.7387259"><ele>160.25</ele><time>2026-04-17T10:39:40.854Z</time></trkpt><trkpt lat="33.6722157" lon="9.7387749"><ele>161.0</ele><time>2026-04-17T10:39:41.85Z</time></trkpt><trkpt lat="33.6723546" lon="9.7388322"><ele>161.0</ele><time>2026-04-17T10:39:42.847Z</time></trkpt><trkpt lat="33.6724849" lon="9.7388986"><ele>161.0</ele><time>2026-04-17T10:39:43.847Z</time></trkpt><trkpt lat="33.6726077" lon="9.7389684"><ele>161.0</ele><time>2026-04-17T10:39:44.851Z</time></trkpt><trkpt lat="33.6727491" lon="9.7390329"><ele>161.0</ele><time>2026-04-17T10:39:45.845Z</time></trkpt><trkpt lat="33.6728715" lon="9.7390894"><ele>161.0</ele><time>2026-04-17T10:39:46.845Z</time></trkpt><trkpt lat="33.673019" lon="9.7391489"><ele>161.0</ele><time>2026-04-17T10:39:47.85Z</time></trkpt><trkpt lat="33.6731682" lon="9.739206"><ele>161.0</ele><time>2026-04-17T10:39:48.842Z</time></trkpt><trkpt lat="33.6733261" lon="9.7392587"><ele>161.0</ele><time>2026-04-17T10:39:49.845Z</time></trkpt><trkpt lat="33.673481" lon="9.7393273"><ele>161.0</ele><time>2026-04-17T10:39:50.851Z</time></trkpt><trkpt lat="33.6736331" lon="9.7394087"><ele>161.0</ele><time>2026-04-17T10:39:51.851Z</time></trkpt><trkpt lat="33.673775" lon="9.7394764"><ele>161.0</ele><time>2026-04-17T10:39:52.847Z</time></trkpt><trkpt lat="33.6739168" lon="9.7395577"><ele>161.0</ele><time>2026-04-17T10:39:53.847Z</time></trkpt><trkpt lat="33.6740641" lon="9.7396228"><ele>161.0</ele><time>2026-04-17T10:39:54.846Z</time></trkpt><trkpt lat="33.6742255" lon="9.7396836"><ele>161.0</ele><time>2026-04-17T10:39:55.846Z</time></trkpt><trkpt lat="33.6743925" lon="9.7397375"><ele>161.0</ele><time>2026-04-17T10:39:56.854Z</time></trkpt><trkpt lat="33.6745433" lon="9.7398098"><ele>161.0</ele><time>2026-04-17T10:39:57.842Z</time></trkpt><trkpt lat="33.6746918" lon="9.7398744"><ele>161.33333333333331</ele><time>2026-04-17T10:39:58.848Z</time></trkpt><trkpt lat="33.6748424" lon="9.7399351"><ele>161.66666666666666</ele><time>2026-04-17T10:39:59.849Z</time></trkpt><trkpt lat="33.675004" lon="9.7399963"><ele>162.0</ele><time>2026-04-17T10:40:00.848Z</time></trkpt><trkpt lat="33.6751598" lon="9.7400574"><ele>161.33333333333334</ele><time>2026-04-17T10:40:01.852Z</time></trkpt><trkpt lat="33.6753101" lon="9.7401225"><ele>160.66666666666669</ele><time>2026-04-17T10:40:02.853Z</time></trkpt><trkpt lat="33.6754576" lon="9.7401869"><ele>160.0</ele><time>2026-04-17T10:40:03.844Z</time></trkpt><trkpt lat="33.6756162" lon="9.7402586"><ele>160.0</ele><time>2026-04-17T10:40:04.842Z</time></trkpt><trkpt lat="33.6757709" lon="9.7403244"><ele>160.0</ele><time>2026-04-17T10:40:05.844Z</time></trkpt><trkpt lat="33.6759332" lon="9.7404056"><ele>160.0</ele><time>2026-04-17T10:40:06.843Z</time></trkpt><trkpt lat="33.6760916" lon="9.7404857"><ele>159.33333333333334</ele><time>2026-04-17T10:40:07.848Z</time></trkpt><trkpt lat="33.6762501" lon="9.7405532"><ele>158.66666666666666</ele><time>2026-04-17T10:40:08.845Z</time></trkpt><trkpt lat="33.6764074" lon="9.740625"><ele>158.0</ele><time>2026-04-17T10:40:09.85Z</time></trkpt><trkpt lat="33.6765633" lon="9.740697"><ele>158.0</ele><time>2026-04-17T10:40:10.852Z</time></trkpt><trkpt lat="33.6767145" lon="9.7407673"><ele>158.0</ele><time>2026-04-17T10:40:11.854Z</time></trkpt><trkpt lat="33.6768637" lon="9.7408271"><ele>158.0</ele><time>2026-04-17T10:40:12.846Z</time></trkpt><trkpt lat="33.67701" lon="9.7408971"><ele>157.0</ele><time>2026-04-17T10:40:13.852Z</time></trkpt><trkpt lat="33.6771598" lon="9.7409616"><ele>156.0</ele><time>2026-04-17T10:40:14.852Z</time></trkpt><trkpt lat="33.6773096" lon="9.7410269"><ele>155.0</ele><time>2026-04-17T10:40:15.848Z</time></trkpt><trkpt lat="33.6774637" lon="9.7410874"><ele>154.33333333333331</ele><time>2026-04-17T10:40:16.85Z</time></trkpt><trkpt lat="33.6776092" lon="9.7411518"><ele>153.66666666666666</ele><time>2026-04-17T10:40:17.855Z</time></trkpt><trkpt lat="33.6777642" lon="9.7412088"><ele>153.0</ele><time>2026-04-17T10:40:18.849Z</time></trkpt><trkpt lat="33.677916" lon="9.7412715"><ele>151.33333333333334</ele><time>2026-04-17T10:40:19.85Z</time></trkpt><trkpt lat="33.6780737" lon="9.741334"><ele>149.66666666666669</ele><time>2026-04-17T10:40:20.85Z</time></trkpt><trkpt lat="33.6782385" lon="9.7413788"><ele>148.0</ele><time>2026-04-17T10:40:21.846Z</time></trkpt><trkpt lat="33.6784172" lon="9.7414238"><ele>148.0</ele><time>2026-04-17T10:40:22.849Z</time></trkpt><trkpt lat="33.678574" lon="9.7414532"><ele>148.0</ele><time>2026-04-17T10:40:23.846Z</time></trkpt><trkpt lat="33.6787501" lon="9.7414875"><ele>148.0</ele><time>2026-04-17T10:40:24.851Z</time></trkpt><trkpt lat="33.6789149" lon="9.7415233"><ele>147.0</ele><time>2026-04-17T10:40:25.848Z</time></trkpt><trkpt lat="33.6790785" lon="9.7415541"><ele>146.0</ele><time>2026-04-17T10:40:26.855Z</time></trkpt><trkpt lat="33.6792414" lon="9.7415985"><ele>145.0</ele><time>2026-04-17T10:40:27.85Z</time></trkpt><trkpt lat="33.6793981" lon="9.7416488"><ele>145.66666666666669</ele><time>2026-04-17T10:40:28.851Z</time></trkpt><trkpt lat="33.6795565" lon="9.7417086"><ele>146.33333333333334</ele><time>2026-04-17T10:40:29.849Z</time></trkpt><trkpt lat="33.6797064" lon="9.7417556"><ele>147.0</ele><time>2026-04-17T10:40:30.85Z</time></trkpt><trkpt lat="33.6798515" lon="9.7418074"><ele>147.0</ele><time>2026-04-17T10:40:31.853Z</time></trkpt><trkpt lat="33.679996" lon="9.741852"><ele>147.0</ele><time>2026-04-17T10:40:32.85Z</time></trkpt><trkpt lat="33.6801449" lon="9.7418942"><ele>147.0</ele><time>2026-04-17T10:40:33.853Z</time></trkpt><trkpt lat="33.6803018" lon="9.7419354"><ele>147.33333333333334</ele><time>2026-04-17T10:40:34.846Z</time></trkpt><trkpt lat="33.6804618" lon="9.7419936"><ele>147.66666666666669</ele><time>2026-04-17T10:40:35.849Z</time></trkpt><trkpt lat="33.6806224" lon="9.742035"><ele>148.0</ele><time>2026-04-17T10:40:36.846Z</time></trkpt><trkpt lat="33.6807691" lon="9.7420789"><ele>148.0</ele><time>2026-04-17T10:40:37.85Z</time></trkpt><trkpt lat="33.680924" lon="9.742117"><ele>148.0</ele><time>2026-04-17T10:40:38.865Z</time></trkpt><trkpt lat="33.6810932" lon="9.7421608"><ele>148.0</ele><time>2026-04-17T10:40:39.86Z</time></trkpt><trkpt lat="33.6812629" lon="9.742207"><ele>147.33333333333334</ele><time>2026-04-17T10:40:40.864Z</time></trkpt><trkpt lat="33.6814274" lon="9.742238"><ele>146.66666666666666</ele><time>2026-04-17T10:40:41.861Z</time></trkpt><trkpt lat="33.6815907" lon="9.7422634"><ele>146.0</ele><time>2026-04-17T10:40:42.862Z</time></trkpt><trkpt lat="33.6817558" lon="9.7422755"><ele>146.0</ele><time>2026-04-17T10:40:43.864Z</time></trkpt><trkpt lat="33.6819296" lon="9.7423059"><ele>146.0</ele><time>2026-04-17T10:40:44.865Z</time></trkpt><trkpt lat="33.6821021" lon="9.7423427"><ele>146.0</ele><time>2026-04-17T10:40:45.865Z</time></trkpt><trkpt lat="33.6822773" lon="9.7423641"><ele>145.66666666666666</ele><time>2026-04-17T10:40:46.867Z</time></trkpt><trkpt lat="33.6824553" lon="9.7423902"><ele>145.33333333333334</ele><time>2026-04-17T10:40:47.867Z</time></trkpt><trkpt lat="33.6826415" lon="9.742415"><ele>145.0</ele><time>2026-04-17T10:40:48.86Z</time></trkpt><trkpt lat="33.6828263" lon="9.7424482"><ele>144.66666666666669</ele><time>2026-04-17T10:40:49.861Z</time></trkpt><trkpt lat="33.682999" lon="9.7424733"><ele>144.33333333333334</ele><time>2026-04-17T10:40:50.861Z</time></trkpt><trkpt lat="33.6831682" lon="9.7425056"><ele>144.0</ele><time>2026-04-17T10:40:51.858Z</time></trkpt><trkpt lat="33.6833387" lon="9.7425339"><ele>144.0</ele><time>2026-04-17T10:40:52.844Z</time></trkpt><trkpt lat="33.6835213" lon="9.7425627"><ele>144.0</ele><time>2026-04-17T10:40:53.85Z</time></trkpt><trkpt lat="33.6837091" lon="9.7425895"><ele>144.0</ele><time>2026-04-17T10:40:54.848Z</time></trkpt><trkpt lat="33.6838889" lon="9.7426143"><ele>144.33333333333334</ele><time>2026-04-17T10:40:55.852Z</time></trkpt><trkpt lat="33.6840601" lon="9.7426481"><ele>144.66666666666669</ele><time>2026-04-17T10:40:56.848Z</time></trkpt><trkpt lat="33.6842428" lon="9.7426861"><ele>145.0</ele><time>2026-04-17T10:40:57.845Z</time></trkpt><trkpt lat="33.6844318" lon="9.7427105"><ele>143.66666666666669</ele><time>2026-04-17T10:40:58.856Z</time></trkpt><trkpt lat="33.6846247" lon="9.7427329"><ele>142.33333333333334</ele><time>2026-04-17T10:40:59.85Z</time></trkpt><trkpt lat="33.6848154" lon="9.7427784"><ele>141.0</ele><time>2026-04-17T10:41:00.858Z</time></trkpt><trkpt lat="33.6849939" lon="9.742804"><ele>141.0</ele><time>2026-04-17T10:41:01.851Z</time></trkpt><trkpt lat="33.6851711" lon="9.7428359"><ele>141.0</ele><time>2026-04-17T10:41:02.85Z</time></trkpt><trkpt lat="33.6853528" lon="9.7428601"><ele>141.0</ele><time>2026-04-17T10:41:03.851Z</time></trkpt><trkpt lat="33.6855259" lon="9.7428941"><ele>140.66666666666666</ele><time>2026-04-17T10:41:04.857Z</time></trkpt><trkpt lat="33.6857089" lon="9.7429239"><ele>140.33333333333331</ele><time>2026-04-17T10:41:05.85Z</time></trkpt><trkpt lat="33.6858998" lon="9.7429474"><ele>140.0</ele><time>2026-04-17T10:41:06.846Z</time></trkpt><trkpt lat="33.6860873" lon="9.742981"><ele>139.66666666666666</ele><time>2026-04-17T10:41:07.848Z</time></trkpt><trkpt lat="33.686272" lon="9.743016"><ele>139.33333333333334</ele><time>2026-04-17T10:41:08.845Z</time></trkpt><trkpt lat="33.6864563" lon="9.7430462"><ele>139.0</ele><time>2026-04-17T10:41:09.842Z</time></trkpt><trkpt lat="33.6866432" lon="9.7430741"><ele>139.0</ele><time>2026-04-17T10:41:10.849Z</time></trkpt><trkpt lat="33.6868303" lon="9.7431008"><ele>139.0</ele><time>2026-04-17T10:41:11.848Z</time></trkpt><trkpt lat="33.6870155" lon="9.7431371"><ele>139.0</ele><time>2026-04-17T10:41:12.86Z</time></trkpt><trkpt lat="33.6871923" lon="9.7431575"><ele>138.33333333333334</ele><time>2026-04-17T10:41:13.845Z</time></trkpt><trkpt lat="33.6873722" lon="9.7431896"><ele>137.66666666666666</ele><time>2026-04-17T10:41:14.85Z</time></trkpt><trkpt lat="33.687559" lon="9.74322"><ele>137.0</ele><time>2026-04-17T10:41:15.85Z</time></trkpt><trkpt lat="33.6877407" lon="9.7432547"><ele>136.66666666666666</ele><time>2026-04-17T10:41:16.845Z</time></trkpt><trkpt lat="33.6879268" lon="9.7432936"><ele>136.33333333333334</ele><time>2026-04-17T10:41:17.85Z</time></trkpt><trkpt lat="33.6881129" lon="9.7433313"><ele>136.0</ele><time>2026-04-17T10:41:18.843Z</time></trkpt><trkpt lat="33.6883104" lon="9.743368"><ele>136.0</ele><time>2026-04-17T10:41:19.848Z</time></trkpt><trkpt lat="33.6885046" lon="9.743392"><ele>136.0</ele><time>2026-04-17T10:41:20.847Z</time></trkpt><trkpt lat="33.6886983" lon="9.7434296"><ele>136.0</ele><time>2026-04-17T10:41:21.843Z</time></trkpt><trkpt lat="33.6888929" lon="9.7434522"><ele>135.66666666666669</ele><time>2026-04-17T10:41:22.852Z</time></trkpt><trkpt lat="33.6890817" lon="9.7434823"><ele>135.33333333333334</ele><time>2026-04-17T10:41:23.849Z</time></trkpt><trkpt lat="33.6892788" lon="9.7435202"><ele>135.0</ele><time>2026-04-17T10:41:24.846Z</time></trkpt><trkpt lat="33.6894623" lon="9.7435616"><ele>135.0</ele><time>2026-04-17T10:41:25.848Z</time></trkpt><trkpt lat="33.6896541" lon="9.7435969"><ele>135.0</ele><time>2026-04-17T10:41:26.846Z</time></trkpt><trkpt lat="33.6898321" lon="9.7436507"><ele>135.0</ele><time>2026-04-17T10:41:27.848Z</time></trkpt><trkpt lat="33.6900104" lon="9.7437061"><ele>135.0</ele><time>2026-04-17T10:41:28.859Z</time></trkpt><trkpt lat="33.6901848" lon="9.7437685"><ele>135.0</ele><time>2026-04-17T10:41:29.855Z</time></trkpt><trkpt lat="33.6903583" lon="9.7438293"><ele>135.0</ele><time>2026-04-17T10:41:30.852Z</time></trkpt><trkpt lat="33.690534" lon="9.7438846"><ele>135.0</ele><time>2026-04-17T10:41:31.851Z</time></trkpt><trkpt lat="33.6907104" lon="9.7439458"><ele>135.0</ele><time>2026-04-17T10:41:32.849Z</time></trkpt><trkpt lat="33.6908777" lon="9.7440059"><ele>135.0</ele><time>2026-04-17T10:41:33.852Z</time></trkpt><trkpt lat="33.6910461" lon="9.7440563"><ele>135.0</ele><time>2026-04-17T10:41:34.851Z</time></trkpt><trkpt lat="33.6912202" lon="9.7441153"><ele>135.0</ele><time>2026-04-17T10:41:35.854Z</time></trkpt><trkpt lat="33.6913902" lon="9.7441624"><ele>135.0</ele><time>2026-04-17T10:41:36.847Z</time></trkpt><trkpt lat="33.69158" lon="9.7442189"><ele>135.0</ele><time>2026-04-17T10:41:37.848Z</time></trkpt><trkpt lat="33.6917597" lon="9.7442619"><ele>135.0</ele><time>2026-04-17T10:41:38.851Z</time></trkpt><trkpt lat="33.6919331" lon="9.7443071"><ele>135.0</ele><time>2026-04-17T10:41:39.848Z</time></trkpt><trkpt lat="33.6921176" lon="9.7443632"><ele>134.33333333333334</ele><time>2026-04-17T10:41:40.859Z</time></trkpt><trkpt lat="33.6923076" lon="9.7444121"><ele>133.66666666666669</ele><time>2026-04-17T10:41:41.851Z</time></trkpt><trkpt lat="33.6924884" lon="9.7444677"><ele>133.0</ele><time>2026-04-17T10:41:42.851Z</time></trkpt><trkpt lat="33.6926684" lon="9.7445103"><ele>132.66666666666669</ele><time>2026-04-17T10:41:43.851Z</time></trkpt><trkpt lat="33.6928495" lon="9.7445633"><ele>132.33333333333334</ele><time>2026-04-17T10:41:44.849Z</time></trkpt><trkpt lat="33.6930374" lon="9.7446113"><ele>132.0</ele><time>2026-04-17T10:41:45.852Z</time></trkpt><trkpt lat="33.6932215" lon="9.7446673"><ele>132.0</ele><time>2026-04-17T10:41:46.851Z</time></trkpt><trkpt lat="33.6933915" lon="9.744725"><ele>132.0</ele><time>2026-04-17T10:41:47.848Z</time></trkpt><trkpt lat="33.6935651" lon="9.7447737"><ele>132.0</ele><time>2026-04-17T10:41:48.852Z</time></trkpt><trkpt lat="33.6937384" lon="9.7448372"><ele>131.33333333333334</ele><time>2026-04-17T10:41:49.845Z</time></trkpt><trkpt lat="33.6939029" lon="9.7448922"><ele>130.66666666666669</ele><time>2026-04-17T10:41:50.853Z</time></trkpt><trkpt lat="33.6940758" lon="9.7449346"><ele>130.0</ele><time>2026-04-17T10:41:51.841Z</time></trkpt><trkpt lat="33.6942699" lon="9.744995"><ele>130.33333333333334</ele><time>2026-04-17T10:41:52.843Z</time></trkpt><trkpt lat="33.6944516" lon="9.7450426"><ele>130.66666666666666</ele><time>2026-04-17T10:41:53.854Z</time></trkpt><trkpt lat="33.6946288" lon="9.7450889"><ele>131.0</ele><time>2026-04-17T10:41:54.851Z</time></trkpt><trkpt lat="33.6948065" lon="9.7451423"><ele>131.0</ele><time>2026-04-17T10:41:55.854Z</time></trkpt><trkpt lat="33.6949829" lon="9.7451959"><ele>131.0</ele><time>2026-04-17T10:41:56.85Z</time></trkpt><trkpt lat="33.6951616" lon="9.7452442"><ele>131.0</ele><time>2026-04-17T10:41:57.855Z</time></trkpt><trkpt lat="33.6953476" lon="9.745314"><ele>129.66666666666666</ele><time>2026-04-17T10:41:58.858Z</time></trkpt><trkpt lat="33.6955234" lon="9.7453544"><ele>128.33333333333334</ele><time>2026-04-17T10:41:59.847Z</time></trkpt><trkpt lat="33.695697" lon="9.7454132"><ele>127.0</ele><time>2026-04-17T10:42:00.852Z</time></trkpt><trkpt lat="33.6959008" lon="9.7454778"><ele>127.0</ele><time>2026-04-17T10:42:01.851Z</time></trkpt><trkpt lat="33.6960882" lon="9.7455302"><ele>127.0</ele><time>2026-04-17T10:42:02.841Z</time></trkpt><trkpt lat="33.6962668" lon="9.7455762"><ele>127.0</ele><time>2026-04-17T10:42:03.848Z</time></trkpt><trkpt lat="33.6964399" lon="9.7456225"><ele>127.0</ele><time>2026-04-17T10:42:04.85Z</time></trkpt><trkpt lat="33.6966158" lon="9.745667"><ele>127.0</ele><time>2026-04-17T10:42:05.847Z</time></trkpt><trkpt lat="33.6967799" lon="9.7457027"><ele>127.0</ele><time>2026-04-17T10:42:06.854Z</time></trkpt><trkpt lat="33.6969376" lon="9.7457325"><ele>126.5</ele><time>2026-04-17T10:42:07.853Z</time></trkpt><trkpt lat="33.6970904" lon="9.7457789"><ele>126.0</ele><time>2026-04-17T10:42:08.854Z</time></trkpt><trkpt lat="33.6972336" lon="9.7458383"><ele>125.5</ele><time>2026-04-17T10:42:09.858Z</time></trkpt><trkpt lat="33.6973607" lon="9.7458857"><ele>125.0</ele><time>2026-04-17T10:42:10.852Z</time></trkpt><trkpt lat="33.6974806" lon="9.7459278"><ele>124.99999999999999</ele><time>2026-04-17T10:42:11.849Z</time></trkpt><trkpt lat="33.6975906" lon="9.7459619"><ele>125.0</ele><time>2026-04-17T10:42:12.852Z</time></trkpt><trkpt lat="33.6976764" lon="9.7459889"><ele>125.0</ele><time>2026-04-17T10:42:13.845Z</time></trkpt><trkpt lat="33.6977599" lon="9.746011"><ele>125.0</ele><time>2026-04-17T10:42:14.851Z</time></trkpt><trkpt lat="33.6978252" lon="9.7460352"><ele>124.99999999999999</ele><time>2026-04-17T10:42:15.851Z</time></trkpt><trkpt lat="33.6978905" lon="9.7460585"><ele>125.0</ele><time>2026-04-17T10:42:16.856Z</time></trkpt><trkpt lat="33.6979566" lon="9.7460772"><ele>125.14285714285714</ele><time>2026-04-17T10:42:17.851Z</time></trkpt><trkpt lat="33.6980325" lon="9.7461027"><ele>125.28571428571429</ele><time>2026-04-17T10:42:18.857Z</time></trkpt><trkpt lat="33.6980993" lon="9.7461265"><ele>125.42857142857143</ele><time>2026-04-17T10:42:19.848Z</time></trkpt><trkpt lat="33.6981613" lon="9.746156"><ele>125.57142857142857</ele><time>2026-04-17T10:42:20.855Z</time></trkpt><trkpt lat="33.698229" lon="9.7461879"><ele>125.71428571428572</ele><time>2026-04-17T10:42:21.846Z</time></trkpt><trkpt lat="33.6983077" lon="9.7462156"><ele>125.85714285714286</ele><time>2026-04-17T10:42:22.853Z</time></trkpt><trkpt lat="33.6983831" lon="9.746241"><ele>126.0</ele><time>2026-04-17T10:42:23.848Z</time></trkpt><trkpt lat="33.6984827" lon="9.7462666"><ele>126.0</ele><time>2026-04-17T10:42:25.853Z</time></trkpt><trkpt lat="33.6985456" lon="9.7462698"><ele>126.0</ele><time>2026-04-17T10:42:27.862Z</time></trkpt><trkpt lat="33.6985993" lon="9.7434552"><ele>125.0</ele><time>2026-04-17T10:47:12.862Z</time></trkpt><trkpt lat="33.6991277" lon="9.7402256"><ele>125.0</ele><time>2026-04-17T10:47:31.867Z</time></trkpt><trkpt lat="33.6993084" lon="9.736943"><ele>126.0</ele><time>2026-04-17T10:47:52.941Z</time></trkpt><trkpt lat="33.6991628" lon="9.7335782"><ele>126.0</ele><time>2026-04-17T10:48:11.954Z</time></trkpt><trkpt lat="33.6991433" lon="9.7302993"><ele>125.0</ele><time>2026-04-17T10:49:01.967Z</time></trkpt><trkpt lat="33.7006249" lon="9.727396"><ele>127.0</ele><time>2026-04-17T10:49:23.971Z</time></trkpt><trkpt lat="33.70151" lon="9.7241488"><ele>128.0</ele><time>2026-04-17T10:49:41.972Z</time></trkpt><trkpt lat="33.7024258" lon="9.7202134"><ele>129.0</ele><time>2026-04-17T10:50:00.968Z</time></trkpt><trkpt lat="33.7033679" lon="9.7162286"><ele>132.0</ele><time>2026-04-17T10:50:18.961Z</time></trkpt><trkpt lat="33.7045385" lon="9.7122355"><ele>134.0</ele><time>2026-04-17T10:50:36.965Z</time></trkpt><trkpt lat="33.705341" lon="9.7081779"><ele>136.0</ele><time>2026-04-17T10:50:54.981Z</time></trkpt><trkpt lat="33.7061628" lon="9.704161"><ele>135.0</ele><time>2026-04-17T10:51:12.958Z</time></trkpt><trkpt lat="33.7065953" lon="9.7009553"><ele>131.0</ele><time>2026-04-17T10:51:26.964Z</time></trkpt><trkpt lat="33.7071958" lon="9.6960567"><ele>132.0</ele><time>2026-04-17T10:51:47.969Z</time></trkpt><trkpt lat="33.708325" lon="9.6913233"><ele>133.0</ele><time>2026-04-17T10:52:08.964Z</time></trkpt><trkpt lat="33.7095904" lon="9.6883371"><ele>135.0</ele><time>2026-04-17T10:52:54.967Z</time></trkpt><trkpt lat="33.7113621" lon="9.6848483"><ele>136.0</ele><time>2026-04-17T10:53:14.964Z</time></trkpt><trkpt lat="33.7118556" lon="9.681566"><ele>130.0</ele><time>2026-04-17T10:53:32.963Z</time></trkpt><trkpt lat="33.7143853" lon="9.6788617"><ele>132.0</ele><time>2026-04-17T10:53:56.966Z</time></trkpt><trkpt lat="33.7167385" lon="9.6771916"><ele>135.0</ele><time>2026-04-17T10:54:15.97Z</time></trkpt><trkpt lat="33.718135" lon="9.6754172"><ele>136.0</ele><time>2026-04-17T10:54:28.967Z</time></trkpt><trkpt lat="33.7204828" lon="9.6724873"><ele>140.0</ele><time>2026-04-17T10:54:47.974Z</time></trkpt><trkpt lat="33.7228726" lon="9.6694934"><ele>145.0</ele><time>2026-04-17T10:55:06.956Z</time></trkpt><trkpt lat="33.7250764" lon="9.6664171"><ele>149.0</ele><time>2026-04-17T10:55:24.963Z</time></trkpt><trkpt lat="33.7271378" lon="9.6630231"><ele>152.0</ele><time>2026-04-17T10:55:43.968Z</time></trkpt><trkpt lat="33.7292514" lon="9.6595567"><ele>152.0</ele><time>2026-04-17T10:56:01.978Z</time></trkpt><trkpt lat="33.7326498" lon="9.6588629"><ele>152.0</ele><time>2026-04-17T10:56:47.965Z</time></trkpt><trkpt lat="33.7345693" lon="9.6612442"><ele>155.0</ele><time>2026-04-17T10:57:03.957Z</time></trkpt><trkpt lat="33.7370124" lon="9.6641901"><ele>154.0</ele><time>2026-04-17T10:57:23.968Z</time></trkpt><trkpt lat="33.7394561" lon="9.6672506"><ele>158.0</ele><time>2026-04-17T10:57:43.966Z</time></trkpt><trkpt lat="33.7419074" lon="9.6703145"><ele>156.0</ele><time>2026-04-17T10:58:02.963Z</time></trkpt><trkpt lat="33.7443191" lon="9.6732059"><ele>158.0</ele><time>2026-04-17T10:58:20.977Z</time></trkpt><trkpt lat="33.7467377" lon="9.6760493"><ele>155.0</ele><time>2026-04-17T10:58:38.955Z</time></trkpt><trkpt lat="33.7492802" lon="9.679033"><ele>157.0</ele><time>2026-04-17T10:58:57.957Z</time></trkpt><trkpt lat="33.7518559" lon="9.6819839"><ele>155.0</ele><time>2026-04-17T10:59:16.958Z</time></trkpt><trkpt lat="33.7543121" lon="9.6848592"><ele>148.0</ele><time>2026-04-17T10:59:34.857Z</time></trkpt><trkpt lat="33.7568682" lon="9.6878404"><ele>150.0</ele><time>2026-04-17T10:59:53.862Z</time></trkpt><trkpt lat="33.759401" lon="9.6908667"><ele>148.0</ele><time>2026-04-17T11:00:10.823Z</time></trkpt><trkpt lat="33.7623589" lon="9.6943111"><ele>145.0</ele><time>2026-04-17T11:00:30.844Z</time></trkpt><trkpt lat="33.7652802" lon="9.6977642"><ele>145.0</ele><time>2026-04-17T11:00:50.839Z</time></trkpt><trkpt lat="33.7677784" lon="9.7005519"><ele>144.0</ele><time>2026-04-17T11:01:07.841Z</time></trkpt><trkpt lat="33.7706981" lon="9.7040448"><ele>142.0</ele><time>2026-04-17T11:01:28.846Z</time></trkpt><trkpt lat="33.7731483" lon="9.7057638"><ele>137.0</ele><time>2026-04-17T11:01:45.837Z</time></trkpt><trkpt lat="33.7762233" lon="9.7079183"><ele>134.0</ele><time>2026-04-17T11:02:03.836Z</time></trkpt><trkpt lat="33.7798499" lon="9.7104714"><ele>133.0</ele><time>2026-04-17T11:02:24.948Z</time></trkpt><trkpt lat="33.7834205" lon="9.7129276"><ele>124.0</ele><time>2026-04-17T11:02:45.966Z</time></trkpt><trkpt lat="33.7864163" lon="9.7148982"><ele>124.0</ele><time>2026-04-17T11:03:02.966Z</time></trkpt><trkpt lat="33.7895371" lon="9.7169652"><ele>119.0</ele><time>2026-04-17T11:03:19.946Z</time></trkpt><trkpt lat="33.7931475" lon="9.7193204"><ele>114.0</ele><time>2026-04-17T11:03:38.956Z</time></trkpt><trkpt lat="33.7961942" lon="9.721294"><ele>111.0</ele><time>2026-04-17T11:03:54.967Z</time></trkpt><trkpt lat="33.7998393" lon="9.7237115"><ele>107.0</ele><time>2026-04-17T11:04:14.958Z</time></trkpt><trkpt lat="33.8029176" lon="9.7257048"><ele>107.0</ele><time>2026-04-17T11:04:31.974Z</time></trkpt><trkpt lat="33.8065824" lon="9.7281441"><ele>100.0</ele><time>2026-04-17T11:04:51.954Z</time></trkpt><trkpt lat="33.8102155" lon="9.7307669"><ele>95.0</ele><time>2026-04-17T11:05:12.965Z</time></trkpt><trkpt lat="33.8131408" lon="9.7328375"><ele>91.0</ele><time>2026-04-17T11:05:29.945Z</time></trkpt><trkpt lat="33.8160744" lon="9.7350351"><ele>91.0</ele><time>2026-04-17T11:05:47.954Z</time></trkpt><trkpt lat="33.8191125" lon="9.7372848"><ele>90.0</ele><time>2026-04-17T11:06:04.946Z</time></trkpt><trkpt lat="33.8227111" lon="9.7398688"><ele>89.0</ele><time>2026-04-17T11:06:25.948Z</time></trkpt><trkpt lat="33.8256928" lon="9.7419985"><ele>81.0</ele><time>2026-04-17T11:06:43.941Z</time></trkpt><trkpt lat="33.8287577" lon="9.7442114"><ele>78.0</ele><time>2026-04-17T11:06:59.949Z</time></trkpt><trkpt lat="33.8322987" lon="9.7468132"><ele>75.0</ele><time>2026-04-17T11:07:17.936Z</time></trkpt><trkpt lat="33.83589" lon="9.7494193"><ele>73.0</ele><time>2026-04-17T11:07:36.929Z</time></trkpt><trkpt lat="33.8382763" lon="9.7511407"><ele>75.0</ele><time>2026-04-17T11:07:53.938Z</time></trkpt><trkpt lat="33.8412326" lon="9.753256"><ele>74.0</ele><time>2026-04-17T11:08:11.95Z</time></trkpt><trkpt lat="33.8452216" lon="9.7548703"><ele>74.0</ele><time>2026-04-17T11:08:33.929Z</time></trkpt><trkpt lat="33.8494711" lon="9.7553268"><ele>72.0</ele><time>2026-04-17T11:08:54.932Z</time></trkpt><trkpt lat="33.8536334" lon="9.755754"><ele>66.0</ele><time>2026-04-17T11:09:14.938Z</time></trkpt><trkpt lat="33.857096" lon="9.7561426"><ele>66.0</ele><time>2026-04-17T11:09:30.939Z</time></trkpt><trkpt lat="33.8612207" lon="9.7566633"><ele>64.0</ele><time>2026-04-17T11:09:50.937Z</time></trkpt><trkpt lat="33.8646508" lon="9.7575975"><ele>63.0</ele><time>2026-04-17T11:10:08.933Z</time></trkpt><trkpt lat="33.8681126" lon="9.7585997"><ele>60.0</ele><time>2026-04-17T11:10:26.933Z</time></trkpt><trkpt lat="33.8721347" lon="9.7596909"><ele>61.0</ele><time>2026-04-17T11:10:45.94Z</time></trkpt><trkpt lat="33.876252" lon="9.760821"><ele>58.0</ele><time>2026-04-17T11:11:07.922Z</time></trkpt><trkpt lat="33.8790747" lon="9.760906"><ele>57.0</ele><time>2026-04-17T11:11:22.937Z</time></trkpt><trkpt lat="33.8811205" lon="9.7609466"><ele>50.0</ele><time>2026-04-17T11:11:38.931Z</time></trkpt><trkpt lat="33.8823532" lon="9.7629823"><ele>57.0</ele><time>2026-04-17T11:12:36.962Z</time></trkpt><trkpt lat="33.8824491" lon="9.7655021"><ele>60.0</ele><time>2026-04-17T11:12:53.956Z</time></trkpt><trkpt lat="33.8823306" lon="9.7688564"><ele>60.0</ele><time>2026-04-17T11:13:22.955Z</time></trkpt><trkpt lat="33.8816912" lon="9.7711897"><ele>61.0</ele><time>2026-04-17T11:13:46.944Z</time></trkpt><trkpt lat="33.8807488" lon="9.7742359"><ele>60.0</ele><time>2026-04-17T11:14:15.94Z</time></trkpt><trkpt lat="33.8805323" lon="9.7750146"><ele>61.0</ele><time>2026-04-17T11:14:47.947Z</time></trkpt><trkpt lat="33.8800527" lon="9.7774341"><ele>62.0</ele><time>2026-04-17T11:15:09.931Z</time></trkpt><trkpt lat="33.879901" lon="9.7799883"><ele>63.0</ele><time>2026-04-17T11:15:34.925Z</time></trkpt><trkpt lat="33.8797366" lon="9.7824967"><ele>64.0</ele><time>2026-04-17T11:15:53.925Z</time></trkpt><trkpt lat="33.8796361" lon="9.78503"><ele>63.0</ele><time>2026-04-17T11:16:14.922Z</time></trkpt><trkpt lat="33.8795268" lon="9.787574"><ele>63.0</ele><time>2026-04-17T11:41:15.839Z</time></trkpt><trkpt lat="33.8796451" lon="9.7900149"><ele>65.0</ele><time>2026-04-17T11:41:37.848Z</time></trkpt><trkpt lat="33.8808762" lon="9.791957"><ele>64.0</ele><time>2026-04-17T11:42:01.948Z</time></trkpt><trkpt lat="33.8818547" lon="9.7930765"><ele>64.0</ele><time>2026-04-17T11:42:43.949Z</time></trkpt><trkpt lat="33.8823758" lon="9.7935973"><ele>64.0</ele><time>2026-04-17T11:43:18.961Z</time></trkpt><trkpt lat="33.8833905" lon="9.7947356"><ele>64.0</ele><time>2026-04-17T11:43:45.935Z</time></trkpt><trkpt lat="33.8823773" lon="9.7935658"><ele>65.0</ele><time>2026-04-17T11:51:59.827Z</time></trkpt><trkpt lat="33.8808806" lon="9.7919214"><ele>63.0</ele><time>2026-04-17T11:52:27.839Z</time></trkpt><trkpt lat="33.8796657" lon="9.7899547"><ele>63.0</ele><time>2026-04-17T11:53:00.855Z</time></trkpt><trkpt lat="33.8796186" lon="9.7873768"><ele>64.0</ele><time>2026-04-17T11:53:20.928Z</time></trkpt><trkpt lat="33.8797586" lon="9.7841339"><ele>61.0</ele><time>2026-04-17T11:53:44.951Z</time></trkpt><trkpt lat="33.8799337" lon="9.7808301"><ele>60.0</ele><time>2026-04-17T11:54:02.934Z</time></trkpt><trkpt lat="33.8801465" lon="9.7774506"><ele>61.0</ele><time>2026-04-17T11:54:21.947Z</time></trkpt><trkpt lat="33.8808223" lon="9.7742932"><ele>60.0</ele><time>2026-04-17T11:54:46.94Z</time></trkpt><trkpt lat="33.881559" lon="9.7719071"><ele>60.0</ele><time>2026-04-17T11:55:07.953Z</time></trkpt><trkpt lat="33.8824186" lon="9.7688143"><ele>57.0</ele><time>2026-04-17T11:55:35.955Z</time></trkpt><trkpt lat="33.8824869" lon="9.7655412"><ele>56.0</ele><time>2026-04-17T11:55:53.854Z</time></trkpt><trkpt lat="33.8823662" lon="9.761403"><ele>58.0</ele><time>2026-04-17T11:56:16.848Z</time></trkpt><trkpt lat="33.8822677" lon="9.7580307"><ele>58.0</ele><time>2026-04-17T11:56:46.847Z</time></trkpt></trkseg></trk></gpx>